<?xml version="1.0" encoding="UTF-8" standalone="no" ?>
<gpx xmlns="http://www.topografix.com/GPX/1/1" xmlns:xsi="http://www.w3.org/2001/XMLSchema-instance" xsi:schemaLocation="http://www.topografix.com/GPX/1/1 http://www.topografix.com/GPX/1/1/gpx.xsd" version="1.1" creator="VisuGPX - https://www.visugpx.com">
  <metadata>
    <name>ski st martin de belleville j2</name>
    <desc><![CDATA[Ski st martin de belleville
2eme jour. 27/1/2014]]></desc>
  </metadata>
  <trk>
    <name><![CDATA[2014-01-27 09:21]]></name>
    <desc><![CDATA[<h1>OruxMaps</h1><br /><hr align="center" width="480" style="height: 2px; width: 517px"/><h2>Nom: 2014-01-27 09:21</h2><br /><p>Temps de départ: 01/27/2014 09:22</p><p>Temps d'arrivée: 01/27/2014 17:09</p><p>Distance: 73,9 km (06:56)</p><p>Temps déplacement: 04:02</p><p>Vitesse moyenne: 10,6 km/h</p><p>Vitesse moyenne: 18,2 km/h</p><p>Vitess Max.: 62,7 km/h</p><p>Altitude minimale: 1409 m</p><p>Altitude maximale: 3229 m</p><p>Vitesse d'élévation: 2370,5 m/h</p><p>Vitesse de descente: -2528,6 m/h</p><p>Gain Altitude: 7955 m</p><p>Perte Altitude: -8117 m</p><p>Temps d'élévation: 03:21</p><p>Temps de descente: 03:12</p><hr align="center" width="480" style="height: 2px; width: 517px"/>]]></desc>
    <trkseg>
      <trkpt lat="45.37753" lon="6.50447">
        <ele>1422.24</ele>
        <time>2014-01-27T08:22:19Z</time>
      </trkpt>
      <trkpt lat="45.37772" lon="6.50447">
        <ele>1421.55</ele>
        <time>2014-01-27T08:22:44Z</time>
      </trkpt>
      <trkpt lat="45.37794" lon="6.50456">
        <ele>1420.65</ele>
        <time>2014-01-27T08:26:36Z</time>
      </trkpt>
      <trkpt lat="45.37774" lon="6.50455">
        <ele>1422.64</ele>
        <time>2014-01-27T08:26:54Z</time>
      </trkpt>
      <trkpt lat="45.37769" lon="6.50431">
        <ele>1419.54</ele>
        <time>2014-01-27T08:27:05Z</time>
      </trkpt>
      <trkpt lat="45.37764" lon="6.50462">
        <ele>1423.72</ele>
        <time>2014-01-27T08:30:37Z</time>
      </trkpt>
      <trkpt lat="45.37752" lon="6.50424">
        <ele>1419.67</ele>
        <time>2014-01-27T08:33:53Z</time>
      </trkpt>
      <trkpt lat="45.37753" lon="6.50472">
        <ele>1424.92</ele>
        <time>2014-01-27T08:42:16Z</time>
      </trkpt>
      <trkpt lat="45.37746" lon="6.50447">
        <ele>1422.85</ele>
        <time>2014-01-27T08:42:31Z</time>
      </trkpt>
      <trkpt lat="45.37734" lon="6.50427">
        <ele>1422.43</ele>
        <time>2014-01-27T08:46:33Z</time>
      </trkpt>
      <trkpt lat="45.37716" lon="6.50438">
        <ele>1425.27</ele>
        <time>2014-01-27T08:47:21Z</time>
      </trkpt>
      <trkpt lat="45.37698" lon="6.50435">
        <ele>1425</ele>
        <time>2014-01-27T08:47:32Z</time>
      </trkpt>
      <trkpt lat="45.3768" lon="6.5044">
        <ele>1424.92</ele>
        <time>2014-01-27T08:48:23Z</time>
      </trkpt>
      <trkpt lat="45.37673" lon="6.50466">
        <ele>1428.17</ele>
        <time>2014-01-27T08:50:25Z</time>
      </trkpt>
      <trkpt lat="45.37669" lon="6.50495">
        <ele>1432.16</ele>
        <time>2014-01-27T08:50:31Z</time>
      </trkpt>
      <trkpt lat="45.37667" lon="6.50522">
        <ele>1436.16</ele>
        <time>2014-01-27T08:50:36Z</time>
      </trkpt>
      <trkpt lat="45.37663" lon="6.50549">
        <ele>1441.25</ele>
        <time>2014-01-27T08:50:40Z</time>
      </trkpt>
      <trkpt lat="45.37659" lon="6.50579">
        <ele>1447.53</ele>
        <time>2014-01-27T08:50:43Z</time>
      </trkpt>
      <trkpt lat="45.37652" lon="6.5061">
        <ele>1452.88</ele>
        <time>2014-01-27T08:50:47Z</time>
      </trkpt>
      <trkpt lat="45.37645" lon="6.50639">
        <ele>1458.34</ele>
        <time>2014-01-27T08:50:52Z</time>
      </trkpt>
      <trkpt lat="45.37638" lon="6.50664">
        <ele>1468.18</ele>
        <time>2014-01-27T08:50:56Z</time>
      </trkpt>
      <trkpt lat="45.37632" lon="6.50691">
        <ele>1475.12</ele>
        <time>2014-01-27T08:51:01Z</time>
      </trkpt>
      <trkpt lat="45.37627" lon="6.5072">
        <ele>1482.23</ele>
        <time>2014-01-27T08:51:06Z</time>
      </trkpt>
      <trkpt lat="45.37625" lon="6.50749">
        <ele>1488.73</ele>
        <time>2014-01-27T08:51:11Z</time>
      </trkpt>
      <trkpt lat="45.37621" lon="6.50776">
        <ele>1490.2</ele>
        <time>2014-01-27T08:51:16Z</time>
      </trkpt>
      <trkpt lat="45.3762" lon="6.50805">
        <ele>1492.7</ele>
        <time>2014-01-27T08:51:20Z</time>
      </trkpt>
      <trkpt lat="45.37619" lon="6.50834">
        <ele>1495.56</ele>
        <time>2014-01-27T08:51:25Z</time>
      </trkpt>
      <trkpt lat="45.37615" lon="6.5086">
        <ele>1501.06</ele>
        <time>2014-01-27T08:51:29Z</time>
      </trkpt>
      <trkpt lat="45.37611" lon="6.50889">
        <ele>1508.03</ele>
        <time>2014-01-27T08:51:34Z</time>
      </trkpt>
      <trkpt lat="45.37608" lon="6.50915">
        <ele>1512.21</ele>
        <time>2014-01-27T08:51:38Z</time>
      </trkpt>
      <trkpt lat="45.37604" lon="6.5094">
        <ele>1516.74</ele>
        <time>2014-01-27T08:51:43Z</time>
      </trkpt>
      <trkpt lat="45.37603" lon="6.50972">
        <ele>1521.64</ele>
        <time>2014-01-27T08:51:48Z</time>
      </trkpt>
      <trkpt lat="45.37599" lon="6.51002">
        <ele>1530.21</ele>
        <time>2014-01-27T08:51:53Z</time>
      </trkpt>
      <trkpt lat="45.376" lon="6.5103">
        <ele>1537.47</ele>
        <time>2014-01-27T08:51:57Z</time>
      </trkpt>
      <trkpt lat="45.376" lon="6.51056">
        <ele>1542.45</ele>
        <time>2014-01-27T08:52:01Z</time>
      </trkpt>
      <trkpt lat="45.37599" lon="6.51087">
        <ele>1547.76</ele>
        <time>2014-01-27T08:52:06Z</time>
      </trkpt>
      <trkpt lat="45.37596" lon="6.51114">
        <ele>1553.58</ele>
        <time>2014-01-27T08:52:10Z</time>
      </trkpt>
      <trkpt lat="45.37593" lon="6.5114">
        <ele>1564.98</ele>
        <time>2014-01-27T08:52:14Z</time>
      </trkpt>
      <trkpt lat="45.37592" lon="6.51167">
        <ele>1572.52</ele>
        <time>2014-01-27T08:52:19Z</time>
      </trkpt>
      <trkpt lat="45.3759" lon="6.51198">
        <ele>1579.85</ele>
        <time>2014-01-27T08:52:24Z</time>
      </trkpt>
      <trkpt lat="45.37589" lon="6.51228">
        <ele>1582.59</ele>
        <time>2014-01-27T08:52:29Z</time>
      </trkpt>
      <trkpt lat="45.37584" lon="6.51257">
        <ele>1585.49</ele>
        <time>2014-01-27T08:52:34Z</time>
      </trkpt>
      <trkpt lat="45.37578" lon="6.51284">
        <ele>1587.25</ele>
        <time>2014-01-27T08:52:38Z</time>
      </trkpt>
      <trkpt lat="45.37572" lon="6.5131">
        <ele>1589.55</ele>
        <time>2014-01-27T08:52:42Z</time>
      </trkpt>
      <trkpt lat="45.37566" lon="6.51336">
        <ele>1592.77</ele>
        <time>2014-01-27T08:52:47Z</time>
      </trkpt>
      <trkpt lat="45.37559" lon="6.51365">
        <ele>1595.88</ele>
        <time>2014-01-27T08:52:52Z</time>
      </trkpt>
      <trkpt lat="45.37554" lon="6.51393">
        <ele>1598.27</ele>
        <time>2014-01-27T08:52:57Z</time>
      </trkpt>
      <trkpt lat="45.3755" lon="6.51422">
        <ele>1600.81</ele>
        <time>2014-01-27T08:53:02Z</time>
      </trkpt>
      <trkpt lat="45.37547" lon="6.51451">
        <ele>1603.98</ele>
        <time>2014-01-27T08:53:07Z</time>
      </trkpt>
      <trkpt lat="45.3754" lon="6.51479">
        <ele>1606.99</ele>
        <time>2014-01-27T08:53:12Z</time>
      </trkpt>
      <trkpt lat="45.37534" lon="6.51506">
        <ele>1611.55</ele>
        <time>2014-01-27T08:53:17Z</time>
      </trkpt>
      <trkpt lat="45.37528" lon="6.51532">
        <ele>1615.81</ele>
        <time>2014-01-27T08:53:21Z</time>
      </trkpt>
      <trkpt lat="45.37523" lon="6.51557">
        <ele>1619.16</ele>
        <time>2014-01-27T08:53:25Z</time>
      </trkpt>
      <trkpt lat="45.37516" lon="6.51585">
        <ele>1619.44</ele>
        <time>2014-01-27T08:53:30Z</time>
      </trkpt>
      <trkpt lat="45.37509" lon="6.51615">
        <ele>1619.47</ele>
        <time>2014-01-27T08:53:35Z</time>
      </trkpt>
      <trkpt lat="45.37503" lon="6.51643">
        <ele>1619.66</ele>
        <time>2014-01-27T08:53:41Z</time>
      </trkpt>
      <trkpt lat="45.375" lon="6.51669">
        <ele>1620.02</ele>
        <time>2014-01-27T08:53:46Z</time>
      </trkpt>
      <trkpt lat="45.37496" lon="6.51695">
        <ele>1619.97</ele>
        <time>2014-01-27T08:53:50Z</time>
      </trkpt>
      <trkpt lat="45.37491" lon="6.51725">
        <ele>1620.49</ele>
        <time>2014-01-27T08:53:55Z</time>
      </trkpt>
      <trkpt lat="45.37487" lon="6.51751">
        <ele>1620.45</ele>
        <time>2014-01-27T08:53:59Z</time>
      </trkpt>
      <trkpt lat="45.37482" lon="6.51782">
        <ele>1619.78</ele>
        <time>2014-01-27T08:54:04Z</time>
      </trkpt>
      <trkpt lat="45.37477" lon="6.5181">
        <ele>1619.97</ele>
        <time>2014-01-27T08:54:09Z</time>
      </trkpt>
      <trkpt lat="45.37474" lon="6.51836">
        <ele>1620.07</ele>
        <time>2014-01-27T08:54:13Z</time>
      </trkpt>
      <trkpt lat="45.37471" lon="6.51863">
        <ele>1623.13</ele>
        <time>2014-01-27T08:54:17Z</time>
      </trkpt>
      <trkpt lat="45.37469" lon="6.51888">
        <ele>1626.51</ele>
        <time>2014-01-27T08:54:21Z</time>
      </trkpt>
      <trkpt lat="45.37467" lon="6.51916">
        <ele>1632.54</ele>
        <time>2014-01-27T08:54:25Z</time>
      </trkpt>
      <trkpt lat="45.37465" lon="6.51943">
        <ele>1641.28</ele>
        <time>2014-01-27T08:54:29Z</time>
      </trkpt>
      <trkpt lat="45.37464" lon="6.51968">
        <ele>1651.91</ele>
        <time>2014-01-27T08:54:33Z</time>
      </trkpt>
      <trkpt lat="45.37463" lon="6.51997">
        <ele>1660.85</ele>
        <time>2014-01-27T08:54:37Z</time>
      </trkpt>
      <trkpt lat="45.37459" lon="6.52025">
        <ele>1665.68</ele>
        <time>2014-01-27T08:54:42Z</time>
      </trkpt>
      <trkpt lat="45.37455" lon="6.52056">
        <ele>1671.59</ele>
        <time>2014-01-27T08:54:47Z</time>
      </trkpt>
      <trkpt lat="45.37452" lon="6.52084">
        <ele>1682.24</ele>
        <time>2014-01-27T08:54:52Z</time>
      </trkpt>
      <trkpt lat="45.37449" lon="6.52115">
        <ele>1694.04</ele>
        <time>2014-01-27T08:54:57Z</time>
      </trkpt>
      <trkpt lat="45.37448" lon="6.52147">
        <ele>1702.08</ele>
        <time>2014-01-27T08:55:02Z</time>
      </trkpt>
      <trkpt lat="45.37446" lon="6.52176">
        <ele>1709.37</ele>
        <time>2014-01-27T08:55:07Z</time>
      </trkpt>
      <trkpt lat="45.37445" lon="6.52205">
        <ele>1714.5</ele>
        <time>2014-01-27T08:55:12Z</time>
      </trkpt>
      <trkpt lat="45.37442" lon="6.52231">
        <ele>1718.91</ele>
        <time>2014-01-27T08:55:17Z</time>
      </trkpt>
      <trkpt lat="45.37437" lon="6.5226">
        <ele>1725.91</ele>
        <time>2014-01-27T08:55:22Z</time>
      </trkpt>
      <trkpt lat="45.37432" lon="6.52287">
        <ele>1733.84</ele>
        <time>2014-01-27T08:55:27Z</time>
      </trkpt>
      <trkpt lat="45.37429" lon="6.52314">
        <ele>1741.16</ele>
        <time>2014-01-27T08:55:32Z</time>
      </trkpt>
      <trkpt lat="45.37425" lon="6.52343">
        <ele>1748.75</ele>
        <time>2014-01-27T08:55:37Z</time>
      </trkpt>
      <trkpt lat="45.37423" lon="6.52372">
        <ele>1756.29</ele>
        <time>2014-01-27T08:55:42Z</time>
      </trkpt>
      <trkpt lat="45.37421" lon="6.52401">
        <ele>1762.99</ele>
        <time>2014-01-27T08:55:47Z</time>
      </trkpt>
      <trkpt lat="45.37418" lon="6.52431">
        <ele>1770.45</ele>
        <time>2014-01-27T08:55:52Z</time>
      </trkpt>
      <trkpt lat="45.37414" lon="6.52461">
        <ele>1779.04</ele>
        <time>2014-01-27T08:55:57Z</time>
      </trkpt>
      <trkpt lat="45.3741" lon="6.5249">
        <ele>1788.12</ele>
        <time>2014-01-27T08:56:02Z</time>
      </trkpt>
      <trkpt lat="45.37407" lon="6.52519">
        <ele>1794.51</ele>
        <time>2014-01-27T08:56:07Z</time>
      </trkpt>
      <trkpt lat="45.37405" lon="6.52548">
        <ele>1795.01</ele>
        <time>2014-01-27T08:56:14Z</time>
      </trkpt>
      <trkpt lat="45.374" lon="6.52573">
        <ele>1791.67</ele>
        <time>2014-01-27T08:56:19Z</time>
      </trkpt>
      <trkpt lat="45.37391" lon="6.52601">
        <ele>1787.61</ele>
        <time>2014-01-27T08:56:24Z</time>
      </trkpt>
      <trkpt lat="45.37375" lon="6.52628">
        <ele>1783.22</ele>
        <time>2014-01-27T08:56:28Z</time>
      </trkpt>
      <trkpt lat="45.37364" lon="6.52656">
        <ele>1780.91</ele>
        <time>2014-01-27T08:56:32Z</time>
      </trkpt>
      <trkpt lat="45.37358" lon="6.52683">
        <ele>1783.16</ele>
        <time>2014-01-27T08:56:36Z</time>
      </trkpt>
      <trkpt lat="45.37352" lon="6.52709">
        <ele>1786.73</ele>
        <time>2014-01-27T08:56:40Z</time>
      </trkpt>
      <trkpt lat="45.37346" lon="6.52739">
        <ele>1788.87</ele>
        <time>2014-01-27T08:56:45Z</time>
      </trkpt>
      <trkpt lat="45.3734" lon="6.52767">
        <ele>1789.29</ele>
        <time>2014-01-27T08:56:50Z</time>
      </trkpt>
      <trkpt lat="45.37334" lon="6.52797">
        <ele>1790.31</ele>
        <time>2014-01-27T08:56:55Z</time>
      </trkpt>
      <trkpt lat="45.37329" lon="6.52823">
        <ele>1792.84</ele>
        <time>2014-01-27T08:57:00Z</time>
      </trkpt>
      <trkpt lat="45.37325" lon="6.52853">
        <ele>1796.07</ele>
        <time>2014-01-27T08:57:06Z</time>
      </trkpt>
      <trkpt lat="45.37322" lon="6.52879">
        <ele>1798.67</ele>
        <time>2014-01-27T08:57:11Z</time>
      </trkpt>
      <trkpt lat="45.37317" lon="6.52906">
        <ele>1800.84</ele>
        <time>2014-01-27T08:57:17Z</time>
      </trkpt>
      <trkpt lat="45.37317" lon="6.5288">
        <ele>1798.28</ele>
        <time>2014-01-27T08:57:50Z</time>
      </trkpt>
      <trkpt lat="45.37298" lon="6.52879">
        <ele>1795.89</ele>
        <time>2014-01-27T08:58:34Z</time>
      </trkpt>
      <trkpt lat="45.37282" lon="6.52867">
        <ele>1792.85</ele>
        <time>2014-01-27T08:58:42Z</time>
      </trkpt>
      <trkpt lat="45.37264" lon="6.52861">
        <ele>1788.47</ele>
        <time>2014-01-27T08:59:09Z</time>
      </trkpt>
      <trkpt lat="45.37258" lon="6.52885">
        <ele>1789.46</ele>
        <time>2014-01-27T09:00:16Z</time>
      </trkpt>
      <trkpt lat="45.37253" lon="6.52911">
        <ele>1792.35</ele>
        <time>2014-01-27T09:01:01Z</time>
      </trkpt>
      <trkpt lat="45.37247" lon="6.52937">
        <ele>1797.56</ele>
        <time>2014-01-27T09:01:05Z</time>
      </trkpt>
      <trkpt lat="45.37243" lon="6.52967">
        <ele>1802.88</ele>
        <time>2014-01-27T09:01:10Z</time>
      </trkpt>
      <trkpt lat="45.37235" lon="6.52996">
        <ele>1807.26</ele>
        <time>2014-01-27T09:01:15Z</time>
      </trkpt>
      <trkpt lat="45.37225" lon="6.53019">
        <ele>1809.91</ele>
        <time>2014-01-27T09:01:19Z</time>
      </trkpt>
      <trkpt lat="45.37219" lon="6.53048">
        <ele>1813.75</ele>
        <time>2014-01-27T09:01:24Z</time>
      </trkpt>
      <trkpt lat="45.37214" lon="6.53075">
        <ele>1817.19</ele>
        <time>2014-01-27T09:01:29Z</time>
      </trkpt>
      <trkpt lat="45.37207" lon="6.53101">
        <ele>1821.82</ele>
        <time>2014-01-27T09:01:35Z</time>
      </trkpt>
      <trkpt lat="45.37199" lon="6.53132">
        <ele>1828.28</ele>
        <time>2014-01-27T09:01:40Z</time>
      </trkpt>
      <trkpt lat="45.37193" lon="6.53159">
        <ele>1835.7</ele>
        <time>2014-01-27T09:01:44Z</time>
      </trkpt>
      <trkpt lat="45.37186" lon="6.53185">
        <ele>1847.06</ele>
        <time>2014-01-27T09:01:48Z</time>
      </trkpt>
      <trkpt lat="45.37178" lon="6.53215">
        <ele>1857.15</ele>
        <time>2014-01-27T09:01:53Z</time>
      </trkpt>
      <trkpt lat="45.37173" lon="6.53244">
        <ele>1865.66</ele>
        <time>2014-01-27T09:01:58Z</time>
      </trkpt>
      <trkpt lat="45.37164" lon="6.53272">
        <ele>1873.45</ele>
        <time>2014-01-27T09:02:04Z</time>
      </trkpt>
      <trkpt lat="45.37155" lon="6.53301">
        <ele>1877.82</ele>
        <time>2014-01-27T09:02:09Z</time>
      </trkpt>
      <trkpt lat="45.37148" lon="6.53326">
        <ele>1880.93</ele>
        <time>2014-01-27T09:02:14Z</time>
      </trkpt>
      <trkpt lat="45.3714" lon="6.53349">
        <ele>1883.15</ele>
        <time>2014-01-27T09:02:19Z</time>
      </trkpt>
      <trkpt lat="45.37131" lon="6.53374">
        <ele>1886.41</ele>
        <time>2014-01-27T09:02:23Z</time>
      </trkpt>
      <trkpt lat="45.37123" lon="6.53404">
        <ele>1890.62</ele>
        <time>2014-01-27T09:02:28Z</time>
      </trkpt>
      <trkpt lat="45.37115" lon="6.53431">
        <ele>1896.16</ele>
        <time>2014-01-27T09:02:33Z</time>
      </trkpt>
      <trkpt lat="45.37106" lon="6.53455">
        <ele>1900.86</ele>
        <time>2014-01-27T09:02:38Z</time>
      </trkpt>
      <trkpt lat="45.37096" lon="6.53478">
        <ele>1904.25</ele>
        <time>2014-01-27T09:02:43Z</time>
      </trkpt>
      <trkpt lat="45.37089" lon="6.53502">
        <ele>1907.35</ele>
        <time>2014-01-27T09:02:47Z</time>
      </trkpt>
      <trkpt lat="45.37081" lon="6.53529">
        <ele>1911.19</ele>
        <time>2014-01-27T09:02:51Z</time>
      </trkpt>
      <trkpt lat="45.37076" lon="6.53554">
        <ele>1916.57</ele>
        <time>2014-01-27T09:02:55Z</time>
      </trkpt>
      <trkpt lat="45.3707" lon="6.53581">
        <ele>1922.48</ele>
        <time>2014-01-27T09:03:00Z</time>
      </trkpt>
      <trkpt lat="45.37063" lon="6.53608">
        <ele>1929.26</ele>
        <time>2014-01-27T09:03:05Z</time>
      </trkpt>
      <trkpt lat="45.37056" lon="6.53635">
        <ele>1938.57</ele>
        <time>2014-01-27T09:03:11Z</time>
      </trkpt>
      <trkpt lat="45.37051" lon="6.53662">
        <ele>1943.15</ele>
        <time>2014-01-27T09:03:16Z</time>
      </trkpt>
      <trkpt lat="45.37043" lon="6.53688">
        <ele>1946.64</ele>
        <time>2014-01-27T09:03:21Z</time>
      </trkpt>
      <trkpt lat="45.37035" lon="6.53715">
        <ele>1954.58</ele>
        <time>2014-01-27T09:03:26Z</time>
      </trkpt>
      <trkpt lat="45.37027" lon="6.53744">
        <ele>1965.36</ele>
        <time>2014-01-27T09:03:31Z</time>
      </trkpt>
      <trkpt lat="45.3702" lon="6.53771">
        <ele>1970.08</ele>
        <time>2014-01-27T09:03:36Z</time>
      </trkpt>
      <trkpt lat="45.37012" lon="6.53795">
        <ele>1973.73</ele>
        <time>2014-01-27T09:03:40Z</time>
      </trkpt>
      <trkpt lat="45.37004" lon="6.5382">
        <ele>1978.08</ele>
        <time>2014-01-27T09:03:44Z</time>
      </trkpt>
      <trkpt lat="45.36996" lon="6.53844">
        <ele>1984.96</ele>
        <time>2014-01-27T09:03:49Z</time>
      </trkpt>
      <trkpt lat="45.36987" lon="6.53871">
        <ele>1992.04</ele>
        <time>2014-01-27T09:03:55Z</time>
      </trkpt>
      <trkpt lat="45.36978" lon="6.53901">
        <ele>1995.43</ele>
        <time>2014-01-27T09:04:01Z</time>
      </trkpt>
      <trkpt lat="45.36971" lon="6.53927">
        <ele>1999.15</ele>
        <time>2014-01-27T09:04:05Z</time>
      </trkpt>
      <trkpt lat="45.36965" lon="6.53955">
        <ele>2001.88</ele>
        <time>2014-01-27T09:04:09Z</time>
      </trkpt>
      <trkpt lat="45.36959" lon="6.53982">
        <ele>2005.23</ele>
        <time>2014-01-27T09:04:13Z</time>
      </trkpt>
      <trkpt lat="45.36951" lon="6.54005">
        <ele>2008.42</ele>
        <time>2014-01-27T09:04:18Z</time>
      </trkpt>
      <trkpt lat="45.3694" lon="6.54028">
        <ele>2011.33</ele>
        <time>2014-01-27T09:04:23Z</time>
      </trkpt>
      <trkpt lat="45.3693" lon="6.54051">
        <ele>2012.68</ele>
        <time>2014-01-27T09:04:27Z</time>
      </trkpt>
      <trkpt lat="45.36918" lon="6.54076">
        <ele>2019.42</ele>
        <time>2014-01-27T09:04:31Z</time>
      </trkpt>
      <trkpt lat="45.36909" lon="6.541">
        <ele>2027.71</ele>
        <time>2014-01-27T09:04:35Z</time>
      </trkpt>
      <trkpt lat="45.36901" lon="6.54128">
        <ele>2039.57</ele>
        <time>2014-01-27T09:04:40Z</time>
      </trkpt>
      <trkpt lat="45.36892" lon="6.54152">
        <ele>2049.04</ele>
        <time>2014-01-27T09:04:45Z</time>
      </trkpt>
      <trkpt lat="45.36881" lon="6.54177">
        <ele>2057.4</ele>
        <time>2014-01-27T09:04:50Z</time>
      </trkpt>
      <trkpt lat="45.36871" lon="6.54201">
        <ele>2063.58</ele>
        <time>2014-01-27T09:04:54Z</time>
      </trkpt>
      <trkpt lat="45.36868" lon="6.54227">
        <ele>2070.99</ele>
        <time>2014-01-27T09:04:58Z</time>
      </trkpt>
      <trkpt lat="45.36867" lon="6.54258">
        <ele>2081.38</ele>
        <time>2014-01-27T09:05:03Z</time>
      </trkpt>
      <trkpt lat="45.36864" lon="6.54285">
        <ele>2090.27</ele>
        <time>2014-01-27T09:05:08Z</time>
      </trkpt>
      <trkpt lat="45.36861" lon="6.54311">
        <ele>2096.95</ele>
        <time>2014-01-27T09:05:13Z</time>
      </trkpt>
      <trkpt lat="45.36855" lon="6.54337">
        <ele>2098.16</ele>
        <time>2014-01-27T09:05:19Z</time>
      </trkpt>
      <trkpt lat="45.36847" lon="6.54362">
        <ele>2093.61</ele>
        <time>2014-01-27T09:06:16Z</time>
      </trkpt>
      <trkpt lat="45.36839" lon="6.54385">
        <ele>2097.74</ele>
        <time>2014-01-27T09:06:31Z</time>
      </trkpt>
      <trkpt lat="45.36832" lon="6.54411">
        <ele>2101.03</ele>
        <time>2014-01-27T09:06:42Z</time>
      </trkpt>
      <trkpt lat="45.36826" lon="6.54437">
        <ele>2103.79</ele>
        <time>2014-01-27T09:06:49Z</time>
      </trkpt>
      <trkpt lat="45.36817" lon="6.54464">
        <ele>2109.98</ele>
        <time>2014-01-27T09:06:54Z</time>
      </trkpt>
      <trkpt lat="45.3681" lon="6.54488">
        <ele>2117.01</ele>
        <time>2014-01-27T09:06:58Z</time>
      </trkpt>
      <trkpt lat="45.368" lon="6.54513">
        <ele>2121.3</ele>
        <time>2014-01-27T09:07:02Z</time>
      </trkpt>
      <trkpt lat="45.36792" lon="6.54543">
        <ele>2125.45</ele>
        <time>2014-01-27T09:07:07Z</time>
      </trkpt>
      <trkpt lat="45.36786" lon="6.54568">
        <ele>2127.56</ele>
        <time>2014-01-27T09:07:11Z</time>
      </trkpt>
      <trkpt lat="45.36779" lon="6.54595">
        <ele>2128.72</ele>
        <time>2014-01-27T09:07:16Z</time>
      </trkpt>
      <trkpt lat="45.36772" lon="6.54619">
        <ele>2130.84</ele>
        <time>2014-01-27T09:08:02Z</time>
      </trkpt>
      <trkpt lat="45.36766" lon="6.54645">
        <ele>2135.72</ele>
        <time>2014-01-27T09:08:16Z</time>
      </trkpt>
      <trkpt lat="45.3676" lon="6.5467">
        <ele>2141.45</ele>
        <time>2014-01-27T09:08:32Z</time>
      </trkpt>
      <trkpt lat="45.36752" lon="6.54694">
        <ele>2146.54</ele>
        <time>2014-01-27T09:08:41Z</time>
      </trkpt>
      <trkpt lat="45.36741" lon="6.54721">
        <ele>2159.91</ele>
        <time>2014-01-27T09:08:47Z</time>
      </trkpt>
      <trkpt lat="45.36729" lon="6.5475">
        <ele>2175.79</ele>
        <time>2014-01-27T09:08:51Z</time>
      </trkpt>
      <trkpt lat="45.36724" lon="6.54778">
        <ele>2183.39</ele>
        <time>2014-01-27T09:08:56Z</time>
      </trkpt>
      <trkpt lat="45.36718" lon="6.54804">
        <ele>2185.66</ele>
        <time>2014-01-27T09:09:01Z</time>
      </trkpt>
      <trkpt lat="45.36712" lon="6.54829">
        <ele>2188.94</ele>
        <time>2014-01-27T09:09:05Z</time>
      </trkpt>
      <trkpt lat="45.36705" lon="6.54854">
        <ele>2193.11</ele>
        <time>2014-01-27T09:09:09Z</time>
      </trkpt>
      <trkpt lat="45.36696" lon="6.54883">
        <ele>2196.38</ele>
        <time>2014-01-27T09:09:14Z</time>
      </trkpt>
      <trkpt lat="45.36688" lon="6.54912">
        <ele>2198.2</ele>
        <time>2014-01-27T09:09:19Z</time>
      </trkpt>
      <trkpt lat="45.36682" lon="6.54938">
        <ele>2194.47</ele>
        <time>2014-01-27T09:09:24Z</time>
      </trkpt>
      <trkpt lat="45.36673" lon="6.54965">
        <ele>2193.48</ele>
        <time>2014-01-27T09:09:29Z</time>
      </trkpt>
      <trkpt lat="45.36664" lon="6.54993">
        <ele>2197.52</ele>
        <time>2014-01-27T09:09:34Z</time>
      </trkpt>
      <trkpt lat="45.36657" lon="6.55021">
        <ele>2201.2</ele>
        <time>2014-01-27T09:09:39Z</time>
      </trkpt>
      <trkpt lat="45.36652" lon="6.55048">
        <ele>2207.77</ele>
        <time>2014-01-27T09:09:44Z</time>
      </trkpt>
      <trkpt lat="45.36644" lon="6.55077">
        <ele>2215.8</ele>
        <time>2014-01-27T09:09:50Z</time>
      </trkpt>
      <trkpt lat="45.36636" lon="6.55103">
        <ele>2223.47</ele>
        <time>2014-01-27T09:09:56Z</time>
      </trkpt>
      <trkpt lat="45.36629" lon="6.55127">
        <ele>2230.63</ele>
        <time>2014-01-27T09:10:01Z</time>
      </trkpt>
      <trkpt lat="45.3662" lon="6.55153">
        <ele>2237.75</ele>
        <time>2014-01-27T09:10:05Z</time>
      </trkpt>
      <trkpt lat="45.36612" lon="6.55181">
        <ele>2244.75</ele>
        <time>2014-01-27T09:10:09Z</time>
      </trkpt>
      <trkpt lat="45.36605" lon="6.55208">
        <ele>2250.43</ele>
        <time>2014-01-27T09:10:13Z</time>
      </trkpt>
      <trkpt lat="45.36598" lon="6.55234">
        <ele>2255.13</ele>
        <time>2014-01-27T09:10:17Z</time>
      </trkpt>
      <trkpt lat="45.36591" lon="6.5526">
        <ele>2259.61</ele>
        <time>2014-01-27T09:10:21Z</time>
      </trkpt>
      <trkpt lat="45.36586" lon="6.55289">
        <ele>2263.3</ele>
        <time>2014-01-27T09:10:26Z</time>
      </trkpt>
      <trkpt lat="45.3658" lon="6.55319">
        <ele>2265.49</ele>
        <time>2014-01-27T09:10:31Z</time>
      </trkpt>
      <trkpt lat="45.36573" lon="6.55348">
        <ele>2269.2</ele>
        <time>2014-01-27T09:10:36Z</time>
      </trkpt>
      <trkpt lat="45.36562" lon="6.55375">
        <ele>2276.45</ele>
        <time>2014-01-27T09:10:41Z</time>
      </trkpt>
      <trkpt lat="45.36551" lon="6.55402">
        <ele>2283.69</ele>
        <time>2014-01-27T09:10:46Z</time>
      </trkpt>
      <trkpt lat="45.36544" lon="6.55426">
        <ele>2287.83</ele>
        <time>2014-01-27T09:10:50Z</time>
      </trkpt>
      <trkpt lat="45.36537" lon="6.55451">
        <ele>2291.87</ele>
        <time>2014-01-27T09:10:54Z</time>
      </trkpt>
      <trkpt lat="45.36531" lon="6.55477">
        <ele>2295.13</ele>
        <time>2014-01-27T09:10:58Z</time>
      </trkpt>
      <trkpt lat="45.36523" lon="6.55506">
        <ele>2301.49</ele>
        <time>2014-01-27T09:11:03Z</time>
      </trkpt>
      <trkpt lat="45.36515" lon="6.55531">
        <ele>2309.91</ele>
        <time>2014-01-27T09:11:08Z</time>
      </trkpt>
      <trkpt lat="45.36508" lon="6.55558">
        <ele>2317.05</ele>
        <time>2014-01-27T09:11:14Z</time>
      </trkpt>
      <trkpt lat="45.36501" lon="6.55586">
        <ele>2325.35</ele>
        <time>2014-01-27T09:11:19Z</time>
      </trkpt>
      <trkpt lat="45.36497" lon="6.55612">
        <ele>2337</ele>
        <time>2014-01-27T09:11:23Z</time>
      </trkpt>
      <trkpt lat="45.36495" lon="6.55639">
        <ele>2358.37</ele>
        <time>2014-01-27T09:11:28Z</time>
      </trkpt>
      <trkpt lat="45.36498" lon="6.55665">
        <ele>2373.11</ele>
        <time>2014-01-27T09:11:33Z</time>
      </trkpt>
      <trkpt lat="45.36498" lon="6.55695">
        <ele>2387.57</ele>
        <time>2014-01-27T09:11:39Z</time>
      </trkpt>
      <trkpt lat="45.36492" lon="6.55722">
        <ele>2397.86</ele>
        <time>2014-01-27T09:11:46Z</time>
      </trkpt>
      <trkpt lat="45.3648" lon="6.55742">
        <ele>2399.63</ele>
        <time>2014-01-27T09:11:58Z</time>
      </trkpt>
      <trkpt lat="45.3646" lon="6.55744">
        <ele>2395.46</ele>
        <time>2014-01-27T09:12:07Z</time>
      </trkpt>
      <trkpt lat="45.36441" lon="6.55748">
        <ele>2394.51</ele>
        <time>2014-01-27T09:12:12Z</time>
      </trkpt>
      <trkpt lat="45.36423" lon="6.55748">
        <ele>2392.22</ele>
        <time>2014-01-27T09:12:23Z</time>
      </trkpt>
      <trkpt lat="45.364" lon="6.55746">
        <ele>2390.71</ele>
        <time>2014-01-27T09:13:10Z</time>
      </trkpt>
      <trkpt lat="45.36379" lon="6.55739">
        <ele>2388.92</ele>
        <time>2014-01-27T09:13:13Z</time>
      </trkpt>
      <trkpt lat="45.36362" lon="6.55731">
        <ele>2386.57</ele>
        <time>2014-01-27T09:13:15Z</time>
      </trkpt>
      <trkpt lat="45.36344" lon="6.5572">
        <ele>2382.54</ele>
        <time>2014-01-27T09:13:17Z</time>
      </trkpt>
      <trkpt lat="45.36324" lon="6.55715">
        <ele>2379.5</ele>
        <time>2014-01-27T09:13:19Z</time>
      </trkpt>
      <trkpt lat="45.36306" lon="6.5571">
        <ele>2376.57</ele>
        <time>2014-01-27T09:13:21Z</time>
      </trkpt>
      <trkpt lat="45.36287" lon="6.55701">
        <ele>2374.57</ele>
        <time>2014-01-27T09:13:23Z</time>
      </trkpt>
      <trkpt lat="45.36268" lon="6.55692">
        <ele>2369.99</ele>
        <time>2014-01-27T09:13:25Z</time>
      </trkpt>
      <trkpt lat="45.36248" lon="6.55684">
        <ele>2364.87</ele>
        <time>2014-01-27T09:13:27Z</time>
      </trkpt>
      <trkpt lat="45.36228" lon="6.55681">
        <ele>2361.31</ele>
        <time>2014-01-27T09:13:29Z</time>
      </trkpt>
      <trkpt lat="45.36207" lon="6.5568">
        <ele>2359.83</ele>
        <time>2014-01-27T09:13:31Z</time>
      </trkpt>
      <trkpt lat="45.36187" lon="6.55676">
        <ele>2359.34</ele>
        <time>2014-01-27T09:13:33Z</time>
      </trkpt>
      <trkpt lat="45.36166" lon="6.55667">
        <ele>2359.88</ele>
        <time>2014-01-27T09:13:35Z</time>
      </trkpt>
      <trkpt lat="45.36146" lon="6.55658">
        <ele>2354.28</ele>
        <time>2014-01-27T09:13:37Z</time>
      </trkpt>
      <trkpt lat="45.36127" lon="6.55649">
        <ele>2348.52</ele>
        <time>2014-01-27T09:13:39Z</time>
      </trkpt>
      <trkpt lat="45.36106" lon="6.55643">
        <ele>2343.28</ele>
        <time>2014-01-27T09:13:41Z</time>
      </trkpt>
      <trkpt lat="45.36085" lon="6.55639">
        <ele>2338.52</ele>
        <time>2014-01-27T09:13:43Z</time>
      </trkpt>
      <trkpt lat="45.36059" lon="6.5564">
        <ele>2339.91</ele>
        <time>2014-01-27T09:13:46Z</time>
      </trkpt>
      <trkpt lat="45.36039" lon="6.55636">
        <ele>2339.14</ele>
        <time>2014-01-27T09:13:49Z</time>
      </trkpt>
      <trkpt lat="45.36022" lon="6.55621">
        <ele>2332.86</ele>
        <time>2014-01-27T09:13:52Z</time>
      </trkpt>
      <trkpt lat="45.36002" lon="6.5562">
        <ele>2330.45</ele>
        <time>2014-01-27T09:13:55Z</time>
      </trkpt>
      <trkpt lat="45.35984" lon="6.55606">
        <ele>2326.62</ele>
        <time>2014-01-27T09:13:58Z</time>
      </trkpt>
      <trkpt lat="45.35965" lon="6.55595">
        <ele>2321.94</ele>
        <time>2014-01-27T09:14:01Z</time>
      </trkpt>
      <trkpt lat="45.35944" lon="6.55582">
        <ele>2317.34</ele>
        <time>2014-01-27T09:14:05Z</time>
      </trkpt>
      <trkpt lat="45.35924" lon="6.55569">
        <ele>2308.77</ele>
        <time>2014-01-27T09:14:08Z</time>
      </trkpt>
      <trkpt lat="45.35905" lon="6.5556">
        <ele>2303.96</ele>
        <time>2014-01-27T09:14:10Z</time>
      </trkpt>
      <trkpt lat="45.35881" lon="6.55553">
        <ele>2300.5</ele>
        <time>2014-01-27T09:14:12Z</time>
      </trkpt>
      <trkpt lat="45.35856" lon="6.55552">
        <ele>2296.55</ele>
        <time>2014-01-27T09:14:14Z</time>
      </trkpt>
      <trkpt lat="45.35833" lon="6.55554">
        <ele>2292.64</ele>
        <time>2014-01-27T09:14:16Z</time>
      </trkpt>
      <trkpt lat="45.35811" lon="6.55561">
        <ele>2287.29</ele>
        <time>2014-01-27T09:14:18Z</time>
      </trkpt>
      <trkpt lat="45.35789" lon="6.55571">
        <ele>2287.25</ele>
        <time>2014-01-27T09:14:20Z</time>
      </trkpt>
      <trkpt lat="45.35769" lon="6.55581">
        <ele>2287.8</ele>
        <time>2014-01-27T09:14:22Z</time>
      </trkpt>
      <trkpt lat="45.3575" lon="6.55589">
        <ele>2284.87</ele>
        <time>2014-01-27T09:14:24Z</time>
      </trkpt>
      <trkpt lat="45.35726" lon="6.55592">
        <ele>2289.56</ele>
        <time>2014-01-27T09:14:27Z</time>
      </trkpt>
      <trkpt lat="45.35708" lon="6.55588">
        <ele>2288.96</ele>
        <time>2014-01-27T09:14:30Z</time>
      </trkpt>
      <trkpt lat="45.3569" lon="6.55581">
        <ele>2285.93</ele>
        <time>2014-01-27T09:14:33Z</time>
      </trkpt>
      <trkpt lat="45.35671" lon="6.55571">
        <ele>2282.2</ele>
        <time>2014-01-27T09:14:36Z</time>
      </trkpt>
      <trkpt lat="45.3565" lon="6.55559">
        <ele>2281.55</ele>
        <time>2014-01-27T09:14:39Z</time>
      </trkpt>
      <trkpt lat="45.35627" lon="6.55544">
        <ele>2280.99</ele>
        <time>2014-01-27T09:14:42Z</time>
      </trkpt>
      <trkpt lat="45.35606" lon="6.55528">
        <ele>2280.32</ele>
        <time>2014-01-27T09:14:45Z</time>
      </trkpt>
      <trkpt lat="45.35589" lon="6.55511">
        <ele>2275.29</ele>
        <time>2014-01-27T09:14:48Z</time>
      </trkpt>
      <trkpt lat="45.3557" lon="6.55491">
        <ele>2271.87</ele>
        <time>2014-01-27T09:14:51Z</time>
      </trkpt>
      <trkpt lat="45.35554" lon="6.55477">
        <ele>2269.63</ele>
        <time>2014-01-27T09:14:53Z</time>
      </trkpt>
      <trkpt lat="45.35538" lon="6.55461">
        <ele>2264.42</ele>
        <time>2014-01-27T09:14:55Z</time>
      </trkpt>
      <trkpt lat="45.35521" lon="6.55446">
        <ele>2260.64</ele>
        <time>2014-01-27T09:14:57Z</time>
      </trkpt>
      <trkpt lat="45.35503" lon="6.55431">
        <ele>2257</ele>
        <time>2014-01-27T09:14:59Z</time>
      </trkpt>
      <trkpt lat="45.35483" lon="6.55417">
        <ele>2254.87</ele>
        <time>2014-01-27T09:15:01Z</time>
      </trkpt>
      <trkpt lat="45.35465" lon="6.55401">
        <ele>2253.57</ele>
        <time>2014-01-27T09:15:03Z</time>
      </trkpt>
      <trkpt lat="45.35451" lon="6.55385">
        <ele>2251.79</ele>
        <time>2014-01-27T09:15:05Z</time>
      </trkpt>
      <trkpt lat="45.35436" lon="6.55367">
        <ele>2250.29</ele>
        <time>2014-01-27T09:15:07Z</time>
      </trkpt>
      <trkpt lat="45.35413" lon="6.55352">
        <ele>2247.92</ele>
        <time>2014-01-27T09:15:10Z</time>
      </trkpt>
      <trkpt lat="45.35391" lon="6.55343">
        <ele>2245.84</ele>
        <time>2014-01-27T09:15:13Z</time>
      </trkpt>
      <trkpt lat="45.35372" lon="6.55346">
        <ele>2246.21</ele>
        <time>2014-01-27T09:15:17Z</time>
      </trkpt>
      <trkpt lat="45.35353" lon="6.55352">
        <ele>2247.49</ele>
        <time>2014-01-27T09:15:21Z</time>
      </trkpt>
      <trkpt lat="45.35334" lon="6.5535">
        <ele>2247.15</ele>
        <time>2014-01-27T09:15:27Z</time>
      </trkpt>
      <trkpt lat="45.35315" lon="6.55342">
        <ele>2245.08</ele>
        <time>2014-01-27T09:15:32Z</time>
      </trkpt>
      <trkpt lat="45.35297" lon="6.55334">
        <ele>2244.37</ele>
        <time>2014-01-27T09:15:37Z</time>
      </trkpt>
      <trkpt lat="45.35279" lon="6.55319">
        <ele>2245.25</ele>
        <time>2014-01-27T09:15:41Z</time>
      </trkpt>
      <trkpt lat="45.35267" lon="6.55297">
        <ele>2247.1</ele>
        <time>2014-01-27T09:15:44Z</time>
      </trkpt>
      <trkpt lat="45.35262" lon="6.55268">
        <ele>2246.58</ele>
        <time>2014-01-27T09:15:47Z</time>
      </trkpt>
      <trkpt lat="45.3526" lon="6.55238">
        <ele>2245.1</ele>
        <time>2014-01-27T09:15:50Z</time>
      </trkpt>
      <trkpt lat="45.35257" lon="6.55206">
        <ele>2240.61</ele>
        <time>2014-01-27T09:15:53Z</time>
      </trkpt>
      <trkpt lat="45.35246" lon="6.55174">
        <ele>2232.74</ele>
        <time>2014-01-27T09:15:56Z</time>
      </trkpt>
      <trkpt lat="45.35227" lon="6.55147">
        <ele>2228.96</ele>
        <time>2014-01-27T09:15:59Z</time>
      </trkpt>
      <trkpt lat="45.35212" lon="6.55129">
        <ele>2227.1</ele>
        <time>2014-01-27T09:16:01Z</time>
      </trkpt>
      <trkpt lat="45.35197" lon="6.55112">
        <ele>2226.56</ele>
        <time>2014-01-27T09:16:03Z</time>
      </trkpt>
      <trkpt lat="45.35179" lon="6.55091">
        <ele>2224.69</ele>
        <time>2014-01-27T09:16:06Z</time>
      </trkpt>
      <trkpt lat="45.35162" lon="6.55072">
        <ele>2219.84</ele>
        <time>2014-01-27T09:16:09Z</time>
      </trkpt>
      <trkpt lat="45.35142" lon="6.55058">
        <ele>2213.29</ele>
        <time>2014-01-27T09:16:12Z</time>
      </trkpt>
      <trkpt lat="45.35115" lon="6.55052">
        <ele>2208.67</ele>
        <time>2014-01-27T09:16:15Z</time>
      </trkpt>
      <trkpt lat="45.3509" lon="6.5505">
        <ele>2208.76</ele>
        <time>2014-01-27T09:16:18Z</time>
      </trkpt>
      <trkpt lat="45.35068" lon="6.55047">
        <ele>2210.06</ele>
        <time>2014-01-27T09:16:21Z</time>
      </trkpt>
      <trkpt lat="45.35047" lon="6.55041">
        <ele>2208.83</ele>
        <time>2014-01-27T09:16:24Z</time>
      </trkpt>
      <trkpt lat="45.35027" lon="6.55032">
        <ele>2204.78</ele>
        <time>2014-01-27T09:16:27Z</time>
      </trkpt>
      <trkpt lat="45.35005" lon="6.55027">
        <ele>2201.39</ele>
        <time>2014-01-27T09:16:30Z</time>
      </trkpt>
      <trkpt lat="45.34983" lon="6.55025">
        <ele>2199.37</ele>
        <time>2014-01-27T09:16:33Z</time>
      </trkpt>
      <trkpt lat="45.3496" lon="6.55019">
        <ele>2196.24</ele>
        <time>2014-01-27T09:16:36Z</time>
      </trkpt>
      <trkpt lat="45.34935" lon="6.5501">
        <ele>2191.67</ele>
        <time>2014-01-27T09:16:39Z</time>
      </trkpt>
      <trkpt lat="45.34923" lon="6.5499">
        <ele>2187.89</ele>
        <time>2014-01-27T09:16:41Z</time>
      </trkpt>
      <trkpt lat="45.34909" lon="6.54962">
        <ele>2184.97</ele>
        <time>2014-01-27T09:16:43Z</time>
      </trkpt>
      <trkpt lat="45.34897" lon="6.54931">
        <ele>2182.21</ele>
        <time>2014-01-27T09:16:45Z</time>
      </trkpt>
      <trkpt lat="45.34885" lon="6.54902">
        <ele>2180.46</ele>
        <time>2014-01-27T09:16:47Z</time>
      </trkpt>
      <trkpt lat="45.34875" lon="6.54875">
        <ele>2180.3</ele>
        <time>2014-01-27T09:16:49Z</time>
      </trkpt>
      <trkpt lat="45.34866" lon="6.54851">
        <ele>2179.78</ele>
        <time>2014-01-27T09:16:51Z</time>
      </trkpt>
      <trkpt lat="45.34858" lon="6.54828">
        <ele>2178.63</ele>
        <time>2014-01-27T09:16:53Z</time>
      </trkpt>
      <trkpt lat="45.34847" lon="6.54795">
        <ele>2176.42</ele>
        <time>2014-01-27T09:16:56Z</time>
      </trkpt>
      <trkpt lat="45.34836" lon="6.54761">
        <ele>2174.44</ele>
        <time>2014-01-27T09:16:59Z</time>
      </trkpt>
      <trkpt lat="45.34826" lon="6.5473">
        <ele>2172.8</ele>
        <time>2014-01-27T09:17:02Z</time>
      </trkpt>
      <trkpt lat="45.34818" lon="6.54705">
        <ele>2171.34</ele>
        <time>2014-01-27T09:17:05Z</time>
      </trkpt>
      <trkpt lat="45.34807" lon="6.5468">
        <ele>2169.4</ele>
        <time>2014-01-27T09:17:09Z</time>
      </trkpt>
      <trkpt lat="45.34796" lon="6.54657">
        <ele>2167.21</ele>
        <time>2014-01-27T09:17:13Z</time>
      </trkpt>
      <trkpt lat="45.34781" lon="6.54635">
        <ele>2164.36</ele>
        <time>2014-01-27T09:17:18Z</time>
      </trkpt>
      <trkpt lat="45.34765" lon="6.54619">
        <ele>2162.76</ele>
        <time>2014-01-27T09:17:23Z</time>
      </trkpt>
      <trkpt lat="45.34745" lon="6.54605">
        <ele>2160.6</ele>
        <time>2014-01-27T09:17:27Z</time>
      </trkpt>
      <trkpt lat="45.34727" lon="6.54594">
        <ele>2158.29</ele>
        <time>2014-01-27T09:17:30Z</time>
      </trkpt>
      <trkpt lat="45.34709" lon="6.54586">
        <ele>2155.65</ele>
        <time>2014-01-27T09:17:33Z</time>
      </trkpt>
      <trkpt lat="45.34687" lon="6.5458">
        <ele>2151.57</ele>
        <time>2014-01-27T09:17:36Z</time>
      </trkpt>
      <trkpt lat="45.34665" lon="6.54578">
        <ele>2147.73</ele>
        <time>2014-01-27T09:17:39Z</time>
      </trkpt>
      <trkpt lat="45.34642" lon="6.54578">
        <ele>2146.04</ele>
        <time>2014-01-27T09:17:42Z</time>
      </trkpt>
      <trkpt lat="45.3462" lon="6.54575">
        <ele>2148.73</ele>
        <time>2014-01-27T09:17:45Z</time>
      </trkpt>
      <trkpt lat="45.34601" lon="6.54563">
        <ele>2149.43</ele>
        <time>2014-01-27T09:17:48Z</time>
      </trkpt>
      <trkpt lat="45.34582" lon="6.54546">
        <ele>2147.92</ele>
        <time>2014-01-27T09:17:51Z</time>
      </trkpt>
      <trkpt lat="45.34564" lon="6.54529">
        <ele>2145.62</ele>
        <time>2014-01-27T09:17:54Z</time>
      </trkpt>
      <trkpt lat="45.34543" lon="6.54513">
        <ele>2141.85</ele>
        <time>2014-01-27T09:17:57Z</time>
      </trkpt>
      <trkpt lat="45.34523" lon="6.54499">
        <ele>2136.59</ele>
        <time>2014-01-27T09:18:00Z</time>
      </trkpt>
      <trkpt lat="45.34506" lon="6.54489">
        <ele>2133.48</ele>
        <time>2014-01-27T09:18:02Z</time>
      </trkpt>
      <trkpt lat="45.34482" lon="6.5448">
        <ele>2129.31</ele>
        <time>2014-01-27T09:18:05Z</time>
      </trkpt>
      <trkpt lat="45.34455" lon="6.54473">
        <ele>2126.18</ele>
        <time>2014-01-27T09:18:08Z</time>
      </trkpt>
      <trkpt lat="45.34434" lon="6.54467">
        <ele>2124.02</ele>
        <time>2014-01-27T09:18:10Z</time>
      </trkpt>
      <trkpt lat="45.34413" lon="6.5446">
        <ele>2121.21</ele>
        <time>2014-01-27T09:18:12Z</time>
      </trkpt>
      <trkpt lat="45.34392" lon="6.54454">
        <ele>2118.94</ele>
        <time>2014-01-27T09:18:14Z</time>
      </trkpt>
      <trkpt lat="45.34371" lon="6.54448">
        <ele>2116.23</ele>
        <time>2014-01-27T09:18:16Z</time>
      </trkpt>
      <trkpt lat="45.34351" lon="6.54442">
        <ele>2112.89</ele>
        <time>2014-01-27T09:18:18Z</time>
      </trkpt>
      <trkpt lat="45.34331" lon="6.54436">
        <ele>2109.15</ele>
        <time>2014-01-27T09:18:20Z</time>
      </trkpt>
      <trkpt lat="45.34312" lon="6.54427">
        <ele>2106.73</ele>
        <time>2014-01-27T09:18:22Z</time>
      </trkpt>
      <trkpt lat="45.34291" lon="6.54417">
        <ele>2103.97</ele>
        <time>2014-01-27T09:18:24Z</time>
      </trkpt>
      <trkpt lat="45.3427" lon="6.54406">
        <ele>2102.39</ele>
        <time>2014-01-27T09:18:26Z</time>
      </trkpt>
      <trkpt lat="45.3425" lon="6.54395">
        <ele>2102.67</ele>
        <time>2014-01-27T09:18:29Z</time>
      </trkpt>
      <trkpt lat="45.34227" lon="6.5438">
        <ele>2101.58</ele>
        <time>2014-01-27T09:18:32Z</time>
      </trkpt>
      <trkpt lat="45.3421" lon="6.54369">
        <ele>2099.75</ele>
        <time>2014-01-27T09:18:35Z</time>
      </trkpt>
      <trkpt lat="45.34189" lon="6.54355">
        <ele>2096.72</ele>
        <time>2014-01-27T09:18:39Z</time>
      </trkpt>
      <trkpt lat="45.34169" lon="6.54343">
        <ele>2093.18</ele>
        <time>2014-01-27T09:18:42Z</time>
      </trkpt>
      <trkpt lat="45.34151" lon="6.54332">
        <ele>2091.3</ele>
        <time>2014-01-27T09:18:44Z</time>
      </trkpt>
      <trkpt lat="45.34131" lon="6.54324">
        <ele>2089.29</ele>
        <time>2014-01-27T09:18:46Z</time>
      </trkpt>
      <trkpt lat="45.34111" lon="6.54318">
        <ele>2088.14</ele>
        <time>2014-01-27T09:18:48Z</time>
      </trkpt>
      <trkpt lat="45.34091" lon="6.54317">
        <ele>2084.38</ele>
        <time>2014-01-27T09:18:50Z</time>
      </trkpt>
      <trkpt lat="45.34073" lon="6.5432">
        <ele>2080.53</ele>
        <time>2014-01-27T09:18:52Z</time>
      </trkpt>
      <trkpt lat="45.34054" lon="6.5434">
        <ele>2077.07</ele>
        <time>2014-01-27T09:18:55Z</time>
      </trkpt>
      <trkpt lat="45.34039" lon="6.54365">
        <ele>2068.75</ele>
        <time>2014-01-27T09:18:58Z</time>
      </trkpt>
      <trkpt lat="45.34023" lon="6.5439">
        <ele>2059.15</ele>
        <time>2014-01-27T09:19:01Z</time>
      </trkpt>
      <trkpt lat="45.34006" lon="6.54417">
        <ele>2057.99</ele>
        <time>2014-01-27T09:19:04Z</time>
      </trkpt>
      <trkpt lat="45.33987" lon="6.54443">
        <ele>2060.7</ele>
        <time>2014-01-27T09:19:07Z</time>
      </trkpt>
      <trkpt lat="45.33964" lon="6.54457">
        <ele>2059.66</ele>
        <time>2014-01-27T09:19:10Z</time>
      </trkpt>
      <trkpt lat="45.33939" lon="6.54467">
        <ele>2056.27</ele>
        <time>2014-01-27T09:19:13Z</time>
      </trkpt>
      <trkpt lat="45.33913" lon="6.54477">
        <ele>2053.58</ele>
        <time>2014-01-27T09:19:16Z</time>
      </trkpt>
      <trkpt lat="45.33895" lon="6.5448">
        <ele>2052.06</ele>
        <time>2014-01-27T09:19:18Z</time>
      </trkpt>
      <trkpt lat="45.33875" lon="6.54478">
        <ele>2050.5</ele>
        <time>2014-01-27T09:19:21Z</time>
      </trkpt>
      <trkpt lat="45.33856" lon="6.54467">
        <ele>2048.81</ele>
        <time>2014-01-27T09:19:24Z</time>
      </trkpt>
      <trkpt lat="45.33834" lon="6.54453">
        <ele>2047.88</ele>
        <time>2014-01-27T09:19:27Z</time>
      </trkpt>
      <trkpt lat="45.33813" lon="6.54435">
        <ele>2046.14</ele>
        <time>2014-01-27T09:19:30Z</time>
      </trkpt>
      <trkpt lat="45.33793" lon="6.54417">
        <ele>2042.6</ele>
        <time>2014-01-27T09:19:33Z</time>
      </trkpt>
      <trkpt lat="45.33773" lon="6.54403">
        <ele>2038.91</ele>
        <time>2014-01-27T09:19:36Z</time>
      </trkpt>
      <trkpt lat="45.3375" lon="6.54393">
        <ele>2033.78</ele>
        <time>2014-01-27T09:19:39Z</time>
      </trkpt>
      <trkpt lat="45.33725" lon="6.54395">
        <ele>2028.42</ele>
        <time>2014-01-27T09:19:42Z</time>
      </trkpt>
      <trkpt lat="45.33707" lon="6.54398">
        <ele>2027.43</ele>
        <time>2014-01-27T09:19:44Z</time>
      </trkpt>
      <trkpt lat="45.3368" lon="6.544">
        <ele>2026.33</ele>
        <time>2014-01-27T09:19:47Z</time>
      </trkpt>
      <trkpt lat="45.33662" lon="6.54401">
        <ele>2025.74</ele>
        <time>2014-01-27T09:19:49Z</time>
      </trkpt>
      <trkpt lat="45.33645" lon="6.54393">
        <ele>2024.54</ele>
        <time>2014-01-27T09:19:51Z</time>
      </trkpt>
      <trkpt lat="45.3362" lon="6.54377">
        <ele>2026.11</ele>
        <time>2014-01-27T09:19:54Z</time>
      </trkpt>
      <trkpt lat="45.336" lon="6.54358">
        <ele>2025.53</ele>
        <time>2014-01-27T09:19:57Z</time>
      </trkpt>
      <trkpt lat="45.33582" lon="6.54341">
        <ele>2021.49</ele>
        <time>2014-01-27T09:20:00Z</time>
      </trkpt>
      <trkpt lat="45.33564" lon="6.54331">
        <ele>2013.62</ele>
        <time>2014-01-27T09:20:03Z</time>
      </trkpt>
      <trkpt lat="45.33543" lon="6.54331">
        <ele>2008.35</ele>
        <time>2014-01-27T09:20:06Z</time>
      </trkpt>
      <trkpt lat="45.33521" lon="6.54338">
        <ele>2006.61</ele>
        <time>2014-01-27T09:20:09Z</time>
      </trkpt>
      <trkpt lat="45.33497" lon="6.54342">
        <ele>2004.83</ele>
        <time>2014-01-27T09:20:12Z</time>
      </trkpt>
      <trkpt lat="45.33472" lon="6.54342">
        <ele>2003.87</ele>
        <time>2014-01-27T09:20:15Z</time>
      </trkpt>
      <trkpt lat="45.33446" lon="6.54335">
        <ele>2000.54</ele>
        <time>2014-01-27T09:20:18Z</time>
      </trkpt>
      <trkpt lat="45.33427" lon="6.54325">
        <ele>1997.57</ele>
        <time>2014-01-27T09:20:20Z</time>
      </trkpt>
      <trkpt lat="45.33408" lon="6.54318">
        <ele>1994.6</ele>
        <time>2014-01-27T09:20:22Z</time>
      </trkpt>
      <trkpt lat="45.33389" lon="6.54311">
        <ele>1992.13</ele>
        <time>2014-01-27T09:20:24Z</time>
      </trkpt>
      <trkpt lat="45.33367" lon="6.54303">
        <ele>1986.73</ele>
        <time>2014-01-27T09:20:26Z</time>
      </trkpt>
      <trkpt lat="45.33345" lon="6.54297">
        <ele>1980.91</ele>
        <time>2014-01-27T09:20:28Z</time>
      </trkpt>
      <trkpt lat="45.33323" lon="6.54301">
        <ele>1977.11</ele>
        <time>2014-01-27T09:20:30Z</time>
      </trkpt>
      <trkpt lat="45.33301" lon="6.54306">
        <ele>1975.54</ele>
        <time>2014-01-27T09:20:32Z</time>
      </trkpt>
      <trkpt lat="45.3328" lon="6.54308">
        <ele>1972.86</ele>
        <time>2014-01-27T09:20:34Z</time>
      </trkpt>
      <trkpt lat="45.33259" lon="6.54302">
        <ele>1971.04</ele>
        <time>2014-01-27T09:20:36Z</time>
      </trkpt>
      <trkpt lat="45.33238" lon="6.54295">
        <ele>1971.09</ele>
        <time>2014-01-27T09:20:38Z</time>
      </trkpt>
      <trkpt lat="45.3322" lon="6.54285">
        <ele>1972.24</ele>
        <time>2014-01-27T09:20:40Z</time>
      </trkpt>
      <trkpt lat="45.33198" lon="6.54269">
        <ele>1974.02</ele>
        <time>2014-01-27T09:20:43Z</time>
      </trkpt>
      <trkpt lat="45.33177" lon="6.54249">
        <ele>1972.26</ele>
        <time>2014-01-27T09:20:46Z</time>
      </trkpt>
      <trkpt lat="45.33157" lon="6.5423">
        <ele>1966.69</ele>
        <time>2014-01-27T09:20:49Z</time>
      </trkpt>
      <trkpt lat="45.33137" lon="6.54218">
        <ele>1961.46</ele>
        <time>2014-01-27T09:20:52Z</time>
      </trkpt>
      <trkpt lat="45.33116" lon="6.54212">
        <ele>1959.35</ele>
        <time>2014-01-27T09:20:55Z</time>
      </trkpt>
      <trkpt lat="45.33098" lon="6.54211">
        <ele>1958.13</ele>
        <time>2014-01-27T09:20:58Z</time>
      </trkpt>
      <trkpt lat="45.33077" lon="6.54213">
        <ele>1957.51</ele>
        <time>2014-01-27T09:21:02Z</time>
      </trkpt>
      <trkpt lat="45.33059" lon="6.54215">
        <ele>1957.42</ele>
        <time>2014-01-27T09:21:06Z</time>
      </trkpt>
      <trkpt lat="45.33041" lon="6.54215">
        <ele>1955.46</ele>
        <time>2014-01-27T09:21:10Z</time>
      </trkpt>
      <trkpt lat="45.3302" lon="6.54216">
        <ele>1953.88</ele>
        <time>2014-01-27T09:21:15Z</time>
      </trkpt>
      <trkpt lat="45.33001" lon="6.54215">
        <ele>1953.45</ele>
        <time>2014-01-27T09:21:19Z</time>
      </trkpt>
      <trkpt lat="45.32982" lon="6.54213">
        <ele>1948.81</ele>
        <time>2014-01-27T09:21:22Z</time>
      </trkpt>
      <trkpt lat="45.32955" lon="6.54214">
        <ele>1939.6</ele>
        <time>2014-01-27T09:21:25Z</time>
      </trkpt>
      <trkpt lat="45.32937" lon="6.54216">
        <ele>1935.66</ele>
        <time>2014-01-27T09:21:27Z</time>
      </trkpt>
      <trkpt lat="45.32919" lon="6.54221">
        <ele>1936.5</ele>
        <time>2014-01-27T09:21:29Z</time>
      </trkpt>
      <trkpt lat="45.32893" lon="6.54218">
        <ele>1942.6</ele>
        <time>2014-01-27T09:21:32Z</time>
      </trkpt>
      <trkpt lat="45.32869" lon="6.5421">
        <ele>1940.39</ele>
        <time>2014-01-27T09:21:35Z</time>
      </trkpt>
      <trkpt lat="45.32846" lon="6.54198">
        <ele>1936</ele>
        <time>2014-01-27T09:21:38Z</time>
      </trkpt>
      <trkpt lat="45.32822" lon="6.54185">
        <ele>1929.81</ele>
        <time>2014-01-27T09:21:41Z</time>
      </trkpt>
      <trkpt lat="45.32797" lon="6.54179">
        <ele>1923.67</ele>
        <time>2014-01-27T09:21:44Z</time>
      </trkpt>
      <trkpt lat="45.32773" lon="6.54181">
        <ele>1920.5</ele>
        <time>2014-01-27T09:21:47Z</time>
      </trkpt>
      <trkpt lat="45.3275" lon="6.54185">
        <ele>1915.33</ele>
        <time>2014-01-27T09:21:50Z</time>
      </trkpt>
      <trkpt lat="45.32725" lon="6.54194">
        <ele>1910.77</ele>
        <time>2014-01-27T09:21:53Z</time>
      </trkpt>
      <trkpt lat="45.32702" lon="6.54207">
        <ele>1913.07</ele>
        <time>2014-01-27T09:21:56Z</time>
      </trkpt>
      <trkpt lat="45.3268" lon="6.54213">
        <ele>1908.24</ele>
        <time>2014-01-27T09:21:59Z</time>
      </trkpt>
      <trkpt lat="45.32655" lon="6.54213">
        <ele>1902.65</ele>
        <time>2014-01-27T09:22:02Z</time>
      </trkpt>
      <trkpt lat="45.32629" lon="6.54213">
        <ele>1901.66</ele>
        <time>2014-01-27T09:22:05Z</time>
      </trkpt>
      <trkpt lat="45.3261" lon="6.54213">
        <ele>1899.87</ele>
        <time>2014-01-27T09:22:07Z</time>
      </trkpt>
      <trkpt lat="45.32592" lon="6.54215">
        <ele>1892.42</ele>
        <time>2014-01-27T09:22:09Z</time>
      </trkpt>
      <trkpt lat="45.32566" lon="6.54226">
        <ele>1891.89</ele>
        <time>2014-01-27T09:22:12Z</time>
      </trkpt>
      <trkpt lat="45.32543" lon="6.54236">
        <ele>1895.55</ele>
        <time>2014-01-27T09:22:15Z</time>
      </trkpt>
      <trkpt lat="45.32519" lon="6.54237">
        <ele>1895.32</ele>
        <time>2014-01-27T09:22:18Z</time>
      </trkpt>
      <trkpt lat="45.32499" lon="6.54232">
        <ele>1890.7</ele>
        <time>2014-01-27T09:22:21Z</time>
      </trkpt>
      <trkpt lat="45.32478" lon="6.54222">
        <ele>1878.72</ele>
        <time>2014-01-27T09:22:25Z</time>
      </trkpt>
      <trkpt lat="45.32484" lon="6.54193">
        <ele>1875.84</ele>
        <time>2014-01-27T09:24:12Z</time>
      </trkpt>
      <trkpt lat="45.325" lon="6.54172">
        <ele>1877.08</ele>
        <time>2014-01-27T09:24:16Z</time>
      </trkpt>
      <trkpt lat="45.32511" lon="6.54144">
        <ele>1874.59</ele>
        <time>2014-01-27T09:24:20Z</time>
      </trkpt>
      <trkpt lat="45.32529" lon="6.54124">
        <ele>1873.8</ele>
        <time>2014-01-27T09:24:24Z</time>
      </trkpt>
      <trkpt lat="45.32521" lon="6.54099">
        <ele>1863.95</ele>
        <time>2014-01-27T09:24:31Z</time>
      </trkpt>
      <trkpt lat="45.32502" lon="6.5408">
        <ele>1856.43</ele>
        <time>2014-01-27T09:24:35Z</time>
      </trkpt>
      <trkpt lat="45.32475" lon="6.54085">
        <ele>1852.8</ele>
        <time>2014-01-27T09:24:38Z</time>
      </trkpt>
      <trkpt lat="45.32452" lon="6.54097">
        <ele>1852.57</ele>
        <time>2014-01-27T09:24:41Z</time>
      </trkpt>
      <trkpt lat="45.3243" lon="6.54108">
        <ele>1850.89</ele>
        <time>2014-01-27T09:24:44Z</time>
      </trkpt>
      <trkpt lat="45.3241" lon="6.54115">
        <ele>1848.19</ele>
        <time>2014-01-27T09:24:47Z</time>
      </trkpt>
      <trkpt lat="45.32391" lon="6.54116">
        <ele>1843.54</ele>
        <time>2014-01-27T09:24:50Z</time>
      </trkpt>
      <trkpt lat="45.3237" lon="6.54111">
        <ele>1841.29</ele>
        <time>2014-01-27T09:24:53Z</time>
      </trkpt>
      <trkpt lat="45.32347" lon="6.54099">
        <ele>1841.8</ele>
        <time>2014-01-27T09:24:56Z</time>
      </trkpt>
      <trkpt lat="45.32329" lon="6.54084">
        <ele>1841.97</ele>
        <time>2014-01-27T09:24:59Z</time>
      </trkpt>
      <trkpt lat="45.32315" lon="6.54066">
        <ele>1840.92</ele>
        <time>2014-01-27T09:25:03Z</time>
      </trkpt>
      <trkpt lat="45.32307" lon="6.54042">
        <ele>1837.97</ele>
        <time>2014-01-27T09:25:08Z</time>
      </trkpt>
      <trkpt lat="45.32304" lon="6.54014">
        <ele>1834.7</ele>
        <time>2014-01-27T09:25:13Z</time>
      </trkpt>
      <trkpt lat="45.32305" lon="6.53989">
        <ele>1831.4</ele>
        <time>2014-01-27T09:25:17Z</time>
      </trkpt>
      <trkpt lat="45.32314" lon="6.53964">
        <ele>1827.15</ele>
        <time>2014-01-27T09:25:21Z</time>
      </trkpt>
      <trkpt lat="45.32313" lon="6.53938">
        <ele>1823.34</ele>
        <time>2014-01-27T09:25:27Z</time>
      </trkpt>
      <trkpt lat="45.32312" lon="6.53905">
        <ele>1819.34</ele>
        <time>2014-01-27T09:25:31Z</time>
      </trkpt>
      <trkpt lat="45.32308" lon="6.53875">
        <ele>1816.98</ele>
        <time>2014-01-27T09:25:34Z</time>
      </trkpt>
      <trkpt lat="45.32319" lon="6.53854">
        <ele>1815.63</ele>
        <time>2014-01-27T09:25:39Z</time>
      </trkpt>
      <trkpt lat="45.3234" lon="6.53862">
        <ele>1816.02</ele>
        <time>2014-01-27T09:26:09Z</time>
      </trkpt>
      <trkpt lat="45.32358" lon="6.53886">
        <ele>1816.9</ele>
        <time>2014-01-27T09:27:38Z</time>
      </trkpt>
      <trkpt lat="45.32349" lon="6.53911">
        <ele>1818.11</ele>
        <time>2014-01-27T09:27:44Z</time>
      </trkpt>
      <trkpt lat="45.32339" lon="6.53932">
        <ele>1820.34</ele>
        <time>2014-01-27T09:27:50Z</time>
      </trkpt>
      <trkpt lat="45.3233" lon="6.53956">
        <ele>1824.37</ele>
        <time>2014-01-27T09:27:55Z</time>
      </trkpt>
      <trkpt lat="45.32322" lon="6.53981">
        <ele>1829.07</ele>
        <time>2014-01-27T09:28:01Z</time>
      </trkpt>
      <trkpt lat="45.32315" lon="6.54005">
        <ele>1832.81</ele>
        <time>2014-01-27T09:28:06Z</time>
      </trkpt>
      <trkpt lat="45.32307" lon="6.54033">
        <ele>1836.55</ele>
        <time>2014-01-27T09:28:12Z</time>
      </trkpt>
      <trkpt lat="45.323" lon="6.54063">
        <ele>1842.01</ele>
        <time>2014-01-27T09:28:17Z</time>
      </trkpt>
      <trkpt lat="45.32294" lon="6.54089">
        <ele>1847.28</ele>
        <time>2014-01-27T09:28:21Z</time>
      </trkpt>
      <trkpt lat="45.32287" lon="6.54116">
        <ele>1852.34</ele>
        <time>2014-01-27T09:28:25Z</time>
      </trkpt>
      <trkpt lat="45.3228" lon="6.54142">
        <ele>1858.47</ele>
        <time>2014-01-27T09:28:29Z</time>
      </trkpt>
      <trkpt lat="45.32273" lon="6.54168">
        <ele>1864.99</ele>
        <time>2014-01-27T09:28:34Z</time>
      </trkpt>
      <trkpt lat="45.32267" lon="6.54194">
        <ele>1870.69</ele>
        <time>2014-01-27T09:28:39Z</time>
      </trkpt>
      <trkpt lat="45.3226" lon="6.54221">
        <ele>1874.4</ele>
        <time>2014-01-27T09:28:44Z</time>
      </trkpt>
      <trkpt lat="45.32252" lon="6.54249">
        <ele>1879.48</ele>
        <time>2014-01-27T09:28:49Z</time>
      </trkpt>
      <trkpt lat="45.32246" lon="6.54274">
        <ele>1883.77</ele>
        <time>2014-01-27T09:28:54Z</time>
      </trkpt>
      <trkpt lat="45.3224" lon="6.54299">
        <ele>1888.29</ele>
        <time>2014-01-27T09:28:59Z</time>
      </trkpt>
      <trkpt lat="45.32233" lon="6.54325">
        <ele>1892.97</ele>
        <time>2014-01-27T09:29:04Z</time>
      </trkpt>
      <trkpt lat="45.32226" lon="6.54352">
        <ele>1899.43</ele>
        <time>2014-01-27T09:29:10Z</time>
      </trkpt>
      <trkpt lat="45.32219" lon="6.54378">
        <ele>1905.55</ele>
        <time>2014-01-27T09:29:16Z</time>
      </trkpt>
      <trkpt lat="45.32212" lon="6.54402">
        <ele>1911.53</ele>
        <time>2014-01-27T09:29:21Z</time>
      </trkpt>
      <trkpt lat="45.32205" lon="6.54426">
        <ele>1917.13</ele>
        <time>2014-01-27T09:29:26Z</time>
      </trkpt>
      <trkpt lat="45.32198" lon="6.54452">
        <ele>1922.54</ele>
        <time>2014-01-27T09:29:32Z</time>
      </trkpt>
      <trkpt lat="45.32191" lon="6.54478">
        <ele>1928.44</ele>
        <time>2014-01-27T09:29:37Z</time>
      </trkpt>
      <trkpt lat="45.32184" lon="6.54505">
        <ele>1933.96</ele>
        <time>2014-01-27T09:29:42Z</time>
      </trkpt>
      <trkpt lat="45.32177" lon="6.54532">
        <ele>1940.11</ele>
        <time>2014-01-27T09:29:47Z</time>
      </trkpt>
      <trkpt lat="45.32171" lon="6.54558">
        <ele>1948.25</ele>
        <time>2014-01-27T09:29:52Z</time>
      </trkpt>
      <trkpt lat="45.32164" lon="6.54584">
        <ele>1958.1</ele>
        <time>2014-01-27T09:29:57Z</time>
      </trkpt>
      <trkpt lat="45.32156" lon="6.54611">
        <ele>1964.49</ele>
        <time>2014-01-27T09:30:03Z</time>
      </trkpt>
      <trkpt lat="45.32147" lon="6.54638">
        <ele>1972.89</ele>
        <time>2014-01-27T09:30:09Z</time>
      </trkpt>
      <trkpt lat="45.32139" lon="6.54666">
        <ele>1982.74</ele>
        <time>2014-01-27T09:30:14Z</time>
      </trkpt>
      <trkpt lat="45.32133" lon="6.54696">
        <ele>1991.57</ele>
        <time>2014-01-27T09:30:19Z</time>
      </trkpt>
      <trkpt lat="45.32128" lon="6.54722">
        <ele>1996.51</ele>
        <time>2014-01-27T09:30:23Z</time>
      </trkpt>
      <trkpt lat="45.32121" lon="6.54748">
        <ele>2000.41</ele>
        <time>2014-01-27T09:30:28Z</time>
      </trkpt>
      <trkpt lat="45.32113" lon="6.54777">
        <ele>2004.07</ele>
        <time>2014-01-27T09:30:34Z</time>
      </trkpt>
      <trkpt lat="45.32105" lon="6.54804">
        <ele>2008.18</ele>
        <time>2014-01-27T09:30:39Z</time>
      </trkpt>
      <trkpt lat="45.32098" lon="6.54834">
        <ele>2013.51</ele>
        <time>2014-01-27T09:30:44Z</time>
      </trkpt>
      <trkpt lat="45.32092" lon="6.54859">
        <ele>2019.57</ele>
        <time>2014-01-27T09:30:49Z</time>
      </trkpt>
      <trkpt lat="45.32085" lon="6.54885">
        <ele>2025.85</ele>
        <time>2014-01-27T09:30:54Z</time>
      </trkpt>
      <trkpt lat="45.32078" lon="6.5491">
        <ele>2032.66</ele>
        <time>2014-01-27T09:31:00Z</time>
      </trkpt>
      <trkpt lat="45.32071" lon="6.54934">
        <ele>2038.88</ele>
        <time>2014-01-27T09:31:05Z</time>
      </trkpt>
      <trkpt lat="45.32064" lon="6.54962">
        <ele>2045.44</ele>
        <time>2014-01-27T09:31:11Z</time>
      </trkpt>
      <trkpt lat="45.32057" lon="6.54987">
        <ele>2050.1</ele>
        <time>2014-01-27T09:31:16Z</time>
      </trkpt>
      <trkpt lat="45.32049" lon="6.55015">
        <ele>2054.98</ele>
        <time>2014-01-27T09:31:21Z</time>
      </trkpt>
      <trkpt lat="45.32042" lon="6.55041">
        <ele>2058.97</ele>
        <time>2014-01-27T09:31:25Z</time>
      </trkpt>
      <trkpt lat="45.32035" lon="6.55069">
        <ele>2062.68</ele>
        <time>2014-01-27T09:31:30Z</time>
      </trkpt>
      <trkpt lat="45.32028" lon="6.55098">
        <ele>2066.09</ele>
        <time>2014-01-27T09:31:35Z</time>
      </trkpt>
      <trkpt lat="45.32021" lon="6.55125">
        <ele>2069.52</ele>
        <time>2014-01-27T09:31:40Z</time>
      </trkpt>
      <trkpt lat="45.32017" lon="6.5515">
        <ele>2073.2</ele>
        <time>2014-01-27T09:31:46Z</time>
      </trkpt>
      <trkpt lat="45.3201" lon="6.55175">
        <ele>2077.18</ele>
        <time>2014-01-27T09:31:52Z</time>
      </trkpt>
      <trkpt lat="45.31993" lon="6.55187">
        <ele>2077.98</ele>
        <time>2014-01-27T09:31:57Z</time>
      </trkpt>
      <trkpt lat="45.31976" lon="6.55176">
        <ele>2074.41</ele>
        <time>2014-01-27T09:32:06Z</time>
      </trkpt>
      <trkpt lat="45.31958" lon="6.5517">
        <ele>2073.52</ele>
        <time>2014-01-27T09:32:31Z</time>
      </trkpt>
      <trkpt lat="45.3194" lon="6.55159">
        <ele>2070.96</ele>
        <time>2014-01-27T09:32:39Z</time>
      </trkpt>
      <trkpt lat="45.31925" lon="6.55143">
        <ele>2065.99</ele>
        <time>2014-01-27T09:32:44Z</time>
      </trkpt>
      <trkpt lat="45.31904" lon="6.55132">
        <ele>2061.13</ele>
        <time>2014-01-27T09:33:16Z</time>
      </trkpt>
      <trkpt lat="45.31883" lon="6.5512">
        <ele>2056.41</ele>
        <time>2014-01-27T09:33:19Z</time>
      </trkpt>
      <trkpt lat="45.31864" lon="6.55102">
        <ele>2052.44</ele>
        <time>2014-01-27T09:33:22Z</time>
      </trkpt>
      <trkpt lat="45.31846" lon="6.5508">
        <ele>2049.08</ele>
        <time>2014-01-27T09:33:25Z</time>
      </trkpt>
      <trkpt lat="45.31831" lon="6.55061">
        <ele>2045.95</ele>
        <time>2014-01-27T09:33:28Z</time>
      </trkpt>
      <trkpt lat="45.31814" lon="6.55043">
        <ele>2042.95</ele>
        <time>2014-01-27T09:33:31Z</time>
      </trkpt>
      <trkpt lat="45.31797" lon="6.55025">
        <ele>2039.17</ele>
        <time>2014-01-27T09:33:34Z</time>
      </trkpt>
      <trkpt lat="45.3178" lon="6.55012">
        <ele>2033.82</ele>
        <time>2014-01-27T09:33:37Z</time>
      </trkpt>
      <trkpt lat="45.3176" lon="6.55011">
        <ele>2029.72</ele>
        <time>2014-01-27T09:33:43Z</time>
      </trkpt>
      <trkpt lat="45.31739" lon="6.55009">
        <ele>2025.61</ele>
        <time>2014-01-27T09:33:47Z</time>
      </trkpt>
      <trkpt lat="45.31718" lon="6.55009">
        <ele>2022.55</ele>
        <time>2014-01-27T09:33:50Z</time>
      </trkpt>
      <trkpt lat="45.317" lon="6.55006">
        <ele>2020.87</ele>
        <time>2014-01-27T09:33:53Z</time>
      </trkpt>
      <trkpt lat="45.31682" lon="6.55">
        <ele>2017.02</ele>
        <time>2014-01-27T09:33:57Z</time>
      </trkpt>
      <trkpt lat="45.31664" lon="6.54986">
        <ele>2012.04</ele>
        <time>2014-01-27T09:34:02Z</time>
      </trkpt>
      <trkpt lat="45.31653" lon="6.54955">
        <ele>2003.59</ele>
        <time>2014-01-27T09:34:06Z</time>
      </trkpt>
      <trkpt lat="45.31645" lon="6.54928">
        <ele>1998.05</ele>
        <time>2014-01-27T09:34:10Z</time>
      </trkpt>
      <trkpt lat="45.31631" lon="6.54909">
        <ele>1996.37</ele>
        <time>2014-01-27T09:34:14Z</time>
      </trkpt>
      <trkpt lat="45.31612" lon="6.54885">
        <ele>1995.69</ele>
        <time>2014-01-27T09:34:18Z</time>
      </trkpt>
      <trkpt lat="45.31599" lon="6.54865">
        <ele>1992.29</ele>
        <time>2014-01-27T09:34:21Z</time>
      </trkpt>
      <trkpt lat="45.31582" lon="6.54844">
        <ele>1989.31</ele>
        <time>2014-01-27T09:34:28Z</time>
      </trkpt>
      <trkpt lat="45.31566" lon="6.54824">
        <ele>1985.29</ele>
        <time>2014-01-27T09:34:32Z</time>
      </trkpt>
      <trkpt lat="45.31552" lon="6.54801">
        <ele>1978.62</ele>
        <time>2014-01-27T09:34:48Z</time>
      </trkpt>
      <trkpt lat="45.31556" lon="6.54772">
        <ele>1967.25</ele>
        <time>2014-01-27T09:34:53Z</time>
      </trkpt>
      <trkpt lat="45.31571" lon="6.54753">
        <ele>1962.91</ele>
        <time>2014-01-27T09:35:59Z</time>
      </trkpt>
      <trkpt lat="45.31584" lon="6.54734">
        <ele>1960.04</ele>
        <time>2014-01-27T09:36:04Z</time>
      </trkpt>
      <trkpt lat="45.31561" lon="6.54726">
        <ele>1950.94</ele>
        <time>2014-01-27T09:36:10Z</time>
      </trkpt>
      <trkpt lat="45.31543" lon="6.54734">
        <ele>1951.71</ele>
        <time>2014-01-27T09:36:23Z</time>
      </trkpt>
      <trkpt lat="45.31521" lon="6.54736">
        <ele>1951.5</ele>
        <time>2014-01-27T09:36:30Z</time>
      </trkpt>
      <trkpt lat="45.31502" lon="6.54736">
        <ele>1947.87</ele>
        <time>2014-01-27T09:36:34Z</time>
      </trkpt>
      <trkpt lat="45.31484" lon="6.54738">
        <ele>1948.92</ele>
        <time>2014-01-27T09:36:38Z</time>
      </trkpt>
      <trkpt lat="45.31465" lon="6.54732">
        <ele>1946.52</ele>
        <time>2014-01-27T09:36:42Z</time>
      </trkpt>
      <trkpt lat="45.31441" lon="6.54723">
        <ele>1940.21</ele>
        <time>2014-01-27T09:36:46Z</time>
      </trkpt>
      <trkpt lat="45.31418" lon="6.54719">
        <ele>1939.2</ele>
        <time>2014-01-27T09:36:49Z</time>
      </trkpt>
      <trkpt lat="45.314" lon="6.54703">
        <ele>1937.8</ele>
        <time>2014-01-27T09:36:52Z</time>
      </trkpt>
      <trkpt lat="45.31388" lon="6.54679">
        <ele>1934.5</ele>
        <time>2014-01-27T09:36:55Z</time>
      </trkpt>
      <trkpt lat="45.3139" lon="6.54643">
        <ele>1927.71</ele>
        <time>2014-01-27T09:36:58Z</time>
      </trkpt>
      <trkpt lat="45.31383" lon="6.54613">
        <ele>1923.04</ele>
        <time>2014-01-27T09:37:01Z</time>
      </trkpt>
      <trkpt lat="45.31378" lon="6.54585">
        <ele>1918.06</ele>
        <time>2014-01-27T09:37:05Z</time>
      </trkpt>
      <trkpt lat="45.31377" lon="6.54559">
        <ele>1911.89</ele>
        <time>2014-01-27T09:37:50Z</time>
      </trkpt>
      <trkpt lat="45.31383" lon="6.54533">
        <ele>1905.76</ele>
        <time>2014-01-27T09:38:00Z</time>
      </trkpt>
      <trkpt lat="45.3138" lon="6.54505">
        <ele>1898.06</ele>
        <time>2014-01-27T09:38:08Z</time>
      </trkpt>
      <trkpt lat="45.31368" lon="6.54484">
        <ele>1890.29</ele>
        <time>2014-01-27T09:38:13Z</time>
      </trkpt>
      <trkpt lat="45.31379" lon="6.54461">
        <ele>1884.92</ele>
        <time>2014-01-27T09:38:21Z</time>
      </trkpt>
      <trkpt lat="45.31359" lon="6.54442">
        <ele>1879.33</ele>
        <time>2014-01-27T09:38:26Z</time>
      </trkpt>
      <trkpt lat="45.31345" lon="6.5442">
        <ele>1872.65</ele>
        <time>2014-01-27T09:38:30Z</time>
      </trkpt>
      <trkpt lat="45.3134" lon="6.54395">
        <ele>1865.14</ele>
        <time>2014-01-27T09:38:38Z</time>
      </trkpt>
      <trkpt lat="45.31322" lon="6.544">
        <ele>1863.17</ele>
        <time>2014-01-27T09:42:06Z</time>
      </trkpt>
      <trkpt lat="45.31304" lon="6.54399">
        <ele>1859.36</ele>
        <time>2014-01-27T09:45:09Z</time>
      </trkpt>
      <trkpt lat="45.31308" lon="6.54425">
        <ele>1866.75</ele>
        <time>2014-01-27T09:47:09Z</time>
      </trkpt>
      <trkpt lat="45.31319" lon="6.54447">
        <ele>1874.68</ele>
        <time>2014-01-27T09:47:22Z</time>
      </trkpt>
      <trkpt lat="45.31332" lon="6.54468">
        <ele>1882.69</ele>
        <time>2014-01-27T09:47:25Z</time>
      </trkpt>
      <trkpt lat="45.31347" lon="6.54491">
        <ele>1889.59</ele>
        <time>2014-01-27T09:47:29Z</time>
      </trkpt>
      <trkpt lat="45.31361" lon="6.54512">
        <ele>1897.45</ele>
        <time>2014-01-27T09:47:34Z</time>
      </trkpt>
      <trkpt lat="45.31374" lon="6.54532">
        <ele>1904.53</ele>
        <time>2014-01-27T09:47:39Z</time>
      </trkpt>
      <trkpt lat="45.31385" lon="6.54553">
        <ele>1911.01</ele>
        <time>2014-01-27T09:47:43Z</time>
      </trkpt>
      <trkpt lat="45.31398" lon="6.54578">
        <ele>1915.39</ele>
        <time>2014-01-27T09:47:47Z</time>
      </trkpt>
      <trkpt lat="45.31409" lon="6.54602">
        <ele>1918.99</ele>
        <time>2014-01-27T09:47:51Z</time>
      </trkpt>
      <trkpt lat="45.3142" lon="6.54625">
        <ele>1921.63</ele>
        <time>2014-01-27T09:47:55Z</time>
      </trkpt>
      <trkpt lat="45.31432" lon="6.54648">
        <ele>1923.77</ele>
        <time>2014-01-27T09:47:59Z</time>
      </trkpt>
      <trkpt lat="45.31445" lon="6.54671">
        <ele>1926.89</ele>
        <time>2014-01-27T09:48:04Z</time>
      </trkpt>
      <trkpt lat="45.31457" lon="6.54694">
        <ele>1933.59</ele>
        <time>2014-01-27T09:48:08Z</time>
      </trkpt>
      <trkpt lat="45.31469" lon="6.54716">
        <ele>1942.73</ele>
        <time>2014-01-27T09:48:12Z</time>
      </trkpt>
      <trkpt lat="45.31482" lon="6.54742">
        <ele>1949.94</ele>
        <time>2014-01-27T09:48:17Z</time>
      </trkpt>
      <trkpt lat="45.31493" lon="6.54763">
        <ele>1957.41</ele>
        <time>2014-01-27T09:48:21Z</time>
      </trkpt>
      <trkpt lat="45.31506" lon="6.54785">
        <ele>1970.07</ele>
        <time>2014-01-27T09:48:25Z</time>
      </trkpt>
      <trkpt lat="45.31517" lon="6.54806">
        <ele>1979.68</ele>
        <time>2014-01-27T09:48:29Z</time>
      </trkpt>
      <trkpt lat="45.31531" lon="6.54829">
        <ele>1988.23</ele>
        <time>2014-01-27T09:48:34Z</time>
      </trkpt>
      <trkpt lat="45.31543" lon="6.5485">
        <ele>1993.07</ele>
        <time>2014-01-27T09:48:38Z</time>
      </trkpt>
      <trkpt lat="45.31555" lon="6.54873">
        <ele>1998.46</ele>
        <time>2014-01-27T09:48:42Z</time>
      </trkpt>
      <trkpt lat="45.31567" lon="6.54896">
        <ele>2002.31</ele>
        <time>2014-01-27T09:48:46Z</time>
      </trkpt>
      <trkpt lat="45.31578" lon="6.54921">
        <ele>2006.12</ele>
        <time>2014-01-27T09:48:50Z</time>
      </trkpt>
      <trkpt lat="45.31589" lon="6.54944">
        <ele>2010.35</ele>
        <time>2014-01-27T09:48:55Z</time>
      </trkpt>
      <trkpt lat="45.316" lon="6.54965">
        <ele>2013.51</ele>
        <time>2014-01-27T09:48:59Z</time>
      </trkpt>
      <trkpt lat="45.31614" lon="6.54991">
        <ele>2019.92</ele>
        <time>2014-01-27T09:49:04Z</time>
      </trkpt>
      <trkpt lat="45.31626" lon="6.55013">
        <ele>2025.62</ele>
        <time>2014-01-27T09:49:08Z</time>
      </trkpt>
      <trkpt lat="45.31637" lon="6.55034">
        <ele>2031.74</ele>
        <time>2014-01-27T09:49:12Z</time>
      </trkpt>
      <trkpt lat="45.31649" lon="6.55057">
        <ele>2038.61</ele>
        <time>2014-01-27T09:49:16Z</time>
      </trkpt>
      <trkpt lat="45.31662" lon="6.55082">
        <ele>2044.38</ele>
        <time>2014-01-27T09:49:21Z</time>
      </trkpt>
      <trkpt lat="45.31673" lon="6.55104">
        <ele>2050.65</ele>
        <time>2014-01-27T09:49:25Z</time>
      </trkpt>
      <trkpt lat="45.31685" lon="6.55127">
        <ele>2058.42</ele>
        <time>2014-01-27T09:49:29Z</time>
      </trkpt>
      <trkpt lat="45.31696" lon="6.55147">
        <ele>2062.92</ele>
        <time>2014-01-27T09:49:33Z</time>
      </trkpt>
      <trkpt lat="45.31709" lon="6.55169">
        <ele>2069.73</ele>
        <time>2014-01-27T09:49:37Z</time>
      </trkpt>
      <trkpt lat="45.3172" lon="6.5519">
        <ele>2076.62</ele>
        <time>2014-01-27T09:49:41Z</time>
      </trkpt>
      <trkpt lat="45.31732" lon="6.5521">
        <ele>2083.97</ele>
        <time>2014-01-27T09:49:45Z</time>
      </trkpt>
      <trkpt lat="45.31742" lon="6.55232">
        <ele>2091.35</ele>
        <time>2014-01-27T09:49:49Z</time>
      </trkpt>
      <trkpt lat="45.31753" lon="6.55253">
        <ele>2098.03</ele>
        <time>2014-01-27T09:49:53Z</time>
      </trkpt>
      <trkpt lat="45.31764" lon="6.55274">
        <ele>2103.67</ele>
        <time>2014-01-27T09:49:57Z</time>
      </trkpt>
      <trkpt lat="45.31776" lon="6.55295">
        <ele>2110.06</ele>
        <time>2014-01-27T09:50:01Z</time>
      </trkpt>
      <trkpt lat="45.31788" lon="6.55317">
        <ele>2116.18</ele>
        <time>2014-01-27T09:50:05Z</time>
      </trkpt>
      <trkpt lat="45.31799" lon="6.5534">
        <ele>2122.08</ele>
        <time>2014-01-27T09:50:09Z</time>
      </trkpt>
      <trkpt lat="45.31811" lon="6.55361">
        <ele>2129.29</ele>
        <time>2014-01-27T09:50:13Z</time>
      </trkpt>
      <trkpt lat="45.31823" lon="6.5538">
        <ele>2134.47</ele>
        <time>2014-01-27T09:50:17Z</time>
      </trkpt>
      <trkpt lat="45.31835" lon="6.55401">
        <ele>2140.97</ele>
        <time>2014-01-27T09:50:21Z</time>
      </trkpt>
      <trkpt lat="45.31847" lon="6.55423">
        <ele>2145.04</ele>
        <time>2014-01-27T09:50:25Z</time>
      </trkpt>
      <trkpt lat="45.31858" lon="6.55445">
        <ele>2150.49</ele>
        <time>2014-01-27T09:50:29Z</time>
      </trkpt>
      <trkpt lat="45.31868" lon="6.55469">
        <ele>2153.66</ele>
        <time>2014-01-27T09:50:33Z</time>
      </trkpt>
      <trkpt lat="45.3188" lon="6.55492">
        <ele>2161.17</ele>
        <time>2014-01-27T09:50:38Z</time>
      </trkpt>
      <trkpt lat="45.31894" lon="6.55515">
        <ele>2174.43</ele>
        <time>2014-01-27T09:50:43Z</time>
      </trkpt>
      <trkpt lat="45.31907" lon="6.55538">
        <ele>2189.55</ele>
        <time>2014-01-27T09:50:48Z</time>
      </trkpt>
      <trkpt lat="45.31919" lon="6.55561">
        <ele>2204.51</ele>
        <time>2014-01-27T09:50:53Z</time>
      </trkpt>
      <trkpt lat="45.31931" lon="6.55583">
        <ele>2217.25</ele>
        <time>2014-01-27T09:50:57Z</time>
      </trkpt>
      <trkpt lat="45.31941" lon="6.55605">
        <ele>2217.79</ele>
        <time>2014-01-27T09:51:01Z</time>
      </trkpt>
      <trkpt lat="45.31954" lon="6.55628">
        <ele>2219.31</ele>
        <time>2014-01-27T09:51:05Z</time>
      </trkpt>
      <trkpt lat="45.31968" lon="6.55652">
        <ele>2228.53</ele>
        <time>2014-01-27T09:51:10Z</time>
      </trkpt>
      <trkpt lat="45.31982" lon="6.55675">
        <ele>2238.81</ele>
        <time>2014-01-27T09:51:15Z</time>
      </trkpt>
      <trkpt lat="45.31995" lon="6.55699">
        <ele>2247.23</ele>
        <time>2014-01-27T09:51:19Z</time>
      </trkpt>
      <trkpt lat="45.32006" lon="6.55721">
        <ele>2258.32</ele>
        <time>2014-01-27T09:51:23Z</time>
      </trkpt>
      <trkpt lat="45.32017" lon="6.55742">
        <ele>2270.71</ele>
        <time>2014-01-27T09:51:27Z</time>
      </trkpt>
      <trkpt lat="45.32027" lon="6.55763">
        <ele>2280.52</ele>
        <time>2014-01-27T09:51:31Z</time>
      </trkpt>
      <trkpt lat="45.32041" lon="6.55789">
        <ele>2290.79</ele>
        <time>2014-01-27T09:51:36Z</time>
      </trkpt>
      <trkpt lat="45.32054" lon="6.55811">
        <ele>2299.08</ele>
        <time>2014-01-27T09:51:40Z</time>
      </trkpt>
      <trkpt lat="45.32068" lon="6.55836">
        <ele>2303.18</ele>
        <time>2014-01-27T09:51:45Z</time>
      </trkpt>
      <trkpt lat="45.32079" lon="6.55857">
        <ele>2305.12</ele>
        <time>2014-01-27T09:51:49Z</time>
      </trkpt>
      <trkpt lat="45.32091" lon="6.55877">
        <ele>2310.68</ele>
        <time>2014-01-27T09:51:53Z</time>
      </trkpt>
      <trkpt lat="45.32105" lon="6.55902">
        <ele>2318.55</ele>
        <time>2014-01-27T09:51:58Z</time>
      </trkpt>
      <trkpt lat="45.32117" lon="6.55926">
        <ele>2324.44</ele>
        <time>2014-01-27T09:52:02Z</time>
      </trkpt>
      <trkpt lat="45.32127" lon="6.55947">
        <ele>2328.53</ele>
        <time>2014-01-27T09:52:06Z</time>
      </trkpt>
      <trkpt lat="45.3214" lon="6.55972">
        <ele>2333.26</ele>
        <time>2014-01-27T09:52:11Z</time>
      </trkpt>
      <trkpt lat="45.32151" lon="6.55994">
        <ele>2347.11</ele>
        <time>2014-01-27T09:52:15Z</time>
      </trkpt>
      <trkpt lat="45.32164" lon="6.56019">
        <ele>2364.57</ele>
        <time>2014-01-27T09:52:20Z</time>
      </trkpt>
      <trkpt lat="45.32178" lon="6.56044">
        <ele>2374.69</ele>
        <time>2014-01-27T09:52:25Z</time>
      </trkpt>
      <trkpt lat="45.3219" lon="6.56064">
        <ele>2378.21</ele>
        <time>2014-01-27T09:52:29Z</time>
      </trkpt>
      <trkpt lat="45.32201" lon="6.56084">
        <ele>2381.61</ele>
        <time>2014-01-27T09:52:33Z</time>
      </trkpt>
      <trkpt lat="45.32213" lon="6.56106">
        <ele>2386.94</ele>
        <time>2014-01-27T09:52:37Z</time>
      </trkpt>
      <trkpt lat="45.32226" lon="6.56128">
        <ele>2391.54</ele>
        <time>2014-01-27T09:52:41Z</time>
      </trkpt>
      <trkpt lat="45.3224" lon="6.56152">
        <ele>2395.52</ele>
        <time>2014-01-27T09:52:46Z</time>
      </trkpt>
      <trkpt lat="45.32254" lon="6.56176">
        <ele>2399.02</ele>
        <time>2014-01-27T09:52:51Z</time>
      </trkpt>
      <trkpt lat="45.32265" lon="6.56197">
        <ele>2402.43</ele>
        <time>2014-01-27T09:52:55Z</time>
      </trkpt>
      <trkpt lat="45.32276" lon="6.56218">
        <ele>2407.02</ele>
        <time>2014-01-27T09:52:59Z</time>
      </trkpt>
      <trkpt lat="45.3229" lon="6.5624">
        <ele>2419.87</ele>
        <time>2014-01-27T09:53:04Z</time>
      </trkpt>
      <trkpt lat="45.32303" lon="6.56265">
        <ele>2434.89</ele>
        <time>2014-01-27T09:53:09Z</time>
      </trkpt>
      <trkpt lat="45.32315" lon="6.56289">
        <ele>2449.78</ele>
        <time>2014-01-27T09:53:14Z</time>
      </trkpt>
      <trkpt lat="45.32329" lon="6.56309">
        <ele>2465.73</ele>
        <time>2014-01-27T09:53:19Z</time>
      </trkpt>
      <trkpt lat="45.32345" lon="6.5633">
        <ele>2470.47</ele>
        <time>2014-01-27T09:53:24Z</time>
      </trkpt>
      <trkpt lat="45.3236" lon="6.56352">
        <ele>2475.45</ele>
        <time>2014-01-27T09:53:29Z</time>
      </trkpt>
      <trkpt lat="45.32373" lon="6.56375">
        <ele>2483.13</ele>
        <time>2014-01-27T09:53:34Z</time>
      </trkpt>
      <trkpt lat="45.32386" lon="6.56398">
        <ele>2490.91</ele>
        <time>2014-01-27T09:53:39Z</time>
      </trkpt>
      <trkpt lat="45.32399" lon="6.56422">
        <ele>2499.65</ele>
        <time>2014-01-27T09:53:43Z</time>
      </trkpt>
      <trkpt lat="45.32411" lon="6.56445">
        <ele>2507.38</ele>
        <time>2014-01-27T09:53:47Z</time>
      </trkpt>
      <trkpt lat="45.32421" lon="6.56466">
        <ele>2510.79</ele>
        <time>2014-01-27T09:53:51Z</time>
      </trkpt>
      <trkpt lat="45.32431" lon="6.5649">
        <ele>2513.83</ele>
        <time>2014-01-27T09:53:57Z</time>
      </trkpt>
      <trkpt lat="45.32428" lon="6.56518">
        <ele>2514.53</ele>
        <time>2014-01-27T09:54:04Z</time>
      </trkpt>
      <trkpt lat="45.3241" lon="6.56524">
        <ele>2509.64</ele>
        <time>2014-01-27T09:54:34Z</time>
      </trkpt>
      <trkpt lat="45.32391" lon="6.56518">
        <ele>2505.15</ele>
        <time>2014-01-27T09:55:04Z</time>
      </trkpt>
      <trkpt lat="45.32373" lon="6.56504">
        <ele>2504.47</ele>
        <time>2014-01-27T09:55:10Z</time>
      </trkpt>
      <trkpt lat="45.32367" lon="6.5648">
        <ele>2501.03</ele>
        <time>2014-01-27T09:55:14Z</time>
      </trkpt>
      <trkpt lat="45.32364" lon="6.56453">
        <ele>2496.75</ele>
        <time>2014-01-27T09:55:18Z</time>
      </trkpt>
      <trkpt lat="45.32359" lon="6.56421">
        <ele>2488.11</ele>
        <time>2014-01-27T09:55:22Z</time>
      </trkpt>
      <trkpt lat="45.32346" lon="6.56388">
        <ele>2478.67</ele>
        <time>2014-01-27T09:55:25Z</time>
      </trkpt>
      <trkpt lat="45.32325" lon="6.5638">
        <ele>2470.02</ele>
        <time>2014-01-27T09:55:28Z</time>
      </trkpt>
      <trkpt lat="45.32307" lon="6.56389">
        <ele>2461.65</ele>
        <time>2014-01-27T09:55:31Z</time>
      </trkpt>
      <trkpt lat="45.32294" lon="6.56407">
        <ele>2458.92</ele>
        <time>2014-01-27T09:55:34Z</time>
      </trkpt>
      <trkpt lat="45.32271" lon="6.56409">
        <ele>2452.04</ele>
        <time>2014-01-27T09:55:38Z</time>
      </trkpt>
      <trkpt lat="45.32252" lon="6.56412">
        <ele>2445.93</ele>
        <time>2014-01-27T09:55:43Z</time>
      </trkpt>
      <trkpt lat="45.32231" lon="6.56405">
        <ele>2439.33</ele>
        <time>2014-01-27T09:55:47Z</time>
      </trkpt>
      <trkpt lat="45.3221" lon="6.56415">
        <ele>2437.58</ele>
        <time>2014-01-27T09:55:51Z</time>
      </trkpt>
      <trkpt lat="45.32193" lon="6.56408">
        <ele>2431.39</ele>
        <time>2014-01-27T09:55:54Z</time>
      </trkpt>
      <trkpt lat="45.3217" lon="6.56413">
        <ele>2431.54</ele>
        <time>2014-01-27T09:55:59Z</time>
      </trkpt>
      <trkpt lat="45.32148" lon="6.56407">
        <ele>2427.46</ele>
        <time>2014-01-27T09:56:03Z</time>
      </trkpt>
      <trkpt lat="45.32133" lon="6.56381">
        <ele>2426.12</ele>
        <time>2014-01-27T09:56:07Z</time>
      </trkpt>
      <trkpt lat="45.32131" lon="6.56354">
        <ele>2423.48</ele>
        <time>2014-01-27T09:56:10Z</time>
      </trkpt>
      <trkpt lat="45.32127" lon="6.56328">
        <ele>2421.71</ele>
        <time>2014-01-27T09:56:13Z</time>
      </trkpt>
      <trkpt lat="45.32126" lon="6.56301">
        <ele>2418.79</ele>
        <time>2014-01-27T09:56:16Z</time>
      </trkpt>
      <trkpt lat="45.32128" lon="6.56275">
        <ele>2414.88</ele>
        <time>2014-01-27T09:56:19Z</time>
      </trkpt>
      <trkpt lat="45.32132" lon="6.56243">
        <ele>2410.62</ele>
        <time>2014-01-27T09:56:23Z</time>
      </trkpt>
      <trkpt lat="45.32141" lon="6.5622">
        <ele>2406.57</ele>
        <time>2014-01-27T09:56:26Z</time>
      </trkpt>
      <trkpt lat="45.32152" lon="6.56199">
        <ele>2403.9</ele>
        <time>2014-01-27T09:56:29Z</time>
      </trkpt>
      <trkpt lat="45.32157" lon="6.56172">
        <ele>2400.79</ele>
        <time>2014-01-27T09:56:33Z</time>
      </trkpt>
      <trkpt lat="45.32159" lon="6.56144">
        <ele>2398.35</ele>
        <time>2014-01-27T09:56:37Z</time>
      </trkpt>
      <trkpt lat="45.32155" lon="6.56111">
        <ele>2392.19</ele>
        <time>2014-01-27T09:56:42Z</time>
      </trkpt>
      <trkpt lat="45.32144" lon="6.56083">
        <ele>2383.49</ele>
        <time>2014-01-27T09:56:46Z</time>
      </trkpt>
      <trkpt lat="45.3213" lon="6.56057">
        <ele>2368.73</ele>
        <time>2014-01-27T09:56:50Z</time>
      </trkpt>
      <trkpt lat="45.32112" lon="6.56057">
        <ele>2359.98</ele>
        <time>2014-01-27T09:56:54Z</time>
      </trkpt>
      <trkpt lat="45.32094" lon="6.5606">
        <ele>2357.17</ele>
        <time>2014-01-27T09:56:58Z</time>
      </trkpt>
      <trkpt lat="45.3207" lon="6.56063">
        <ele>2354.36</ele>
        <time>2014-01-27T09:57:02Z</time>
      </trkpt>
      <trkpt lat="45.32047" lon="6.56055">
        <ele>2350.95</ele>
        <time>2014-01-27T09:57:05Z</time>
      </trkpt>
      <trkpt lat="45.3203" lon="6.56029">
        <ele>2350.08</ele>
        <time>2014-01-27T09:57:08Z</time>
      </trkpt>
      <trkpt lat="45.32015" lon="6.56004">
        <ele>2346.51</ele>
        <time>2014-01-27T09:57:11Z</time>
      </trkpt>
      <trkpt lat="45.3201" lon="6.55973">
        <ele>2342.77</ele>
        <time>2014-01-27T09:57:15Z</time>
      </trkpt>
      <trkpt lat="45.32002" lon="6.55943">
        <ele>2340.7</ele>
        <time>2014-01-27T09:57:19Z</time>
      </trkpt>
      <trkpt lat="45.32" lon="6.55917">
        <ele>2338.08</ele>
        <time>2014-01-27T09:57:22Z</time>
      </trkpt>
      <trkpt lat="45.31985" lon="6.55891">
        <ele>2327.17</ele>
        <time>2014-01-27T09:57:26Z</time>
      </trkpt>
      <trkpt lat="45.31966" lon="6.55873">
        <ele>2319.01</ele>
        <time>2014-01-27T09:57:29Z</time>
      </trkpt>
      <trkpt lat="45.31942" lon="6.55862">
        <ele>2316.45</ele>
        <time>2014-01-27T09:57:32Z</time>
      </trkpt>
      <trkpt lat="45.31917" lon="6.55855">
        <ele>2313.33</ele>
        <time>2014-01-27T09:57:35Z</time>
      </trkpt>
      <trkpt lat="45.31895" lon="6.5585">
        <ele>2310.25</ele>
        <time>2014-01-27T09:57:38Z</time>
      </trkpt>
      <trkpt lat="45.31872" lon="6.55847">
        <ele>2306.49</ele>
        <time>2014-01-27T09:57:41Z</time>
      </trkpt>
      <trkpt lat="45.31848" lon="6.55843">
        <ele>2300.53</ele>
        <time>2014-01-27T09:57:44Z</time>
      </trkpt>
      <trkpt lat="45.31826" lon="6.55846">
        <ele>2296.56</ele>
        <time>2014-01-27T09:57:47Z</time>
      </trkpt>
      <trkpt lat="45.31803" lon="6.55851">
        <ele>2292.93</ele>
        <time>2014-01-27T09:57:50Z</time>
      </trkpt>
      <trkpt lat="45.31779" lon="6.55855">
        <ele>2290.71</ele>
        <time>2014-01-27T09:57:53Z</time>
      </trkpt>
      <trkpt lat="45.31756" lon="6.55863">
        <ele>2288.24</ele>
        <time>2014-01-27T09:57:56Z</time>
      </trkpt>
      <trkpt lat="45.31731" lon="6.55874">
        <ele>2285.49</ele>
        <time>2014-01-27T09:57:59Z</time>
      </trkpt>
      <trkpt lat="45.31707" lon="6.55889">
        <ele>2282.17</ele>
        <time>2014-01-27T09:58:02Z</time>
      </trkpt>
      <trkpt lat="45.31689" lon="6.559">
        <ele>2281.23</ele>
        <time>2014-01-27T09:58:04Z</time>
      </trkpt>
      <trkpt lat="45.31672" lon="6.55909">
        <ele>2280.12</ele>
        <time>2014-01-27T09:58:06Z</time>
      </trkpt>
      <trkpt lat="45.31655" lon="6.55918">
        <ele>2278.93</ele>
        <time>2014-01-27T09:58:08Z</time>
      </trkpt>
      <trkpt lat="45.31637" lon="6.55926">
        <ele>2277.34</ele>
        <time>2014-01-27T09:58:10Z</time>
      </trkpt>
      <trkpt lat="45.31614" lon="6.55923">
        <ele>2272.49</ele>
        <time>2014-01-27T09:58:13Z</time>
      </trkpt>
      <trkpt lat="45.31595" lon="6.55916">
        <ele>2270.28</ele>
        <time>2014-01-27T09:58:16Z</time>
      </trkpt>
      <trkpt lat="45.31578" lon="6.55897">
        <ele>2268.41</ele>
        <time>2014-01-27T09:58:19Z</time>
      </trkpt>
      <trkpt lat="45.31558" lon="6.5588">
        <ele>2266.8</ele>
        <time>2014-01-27T09:58:22Z</time>
      </trkpt>
      <trkpt lat="45.31542" lon="6.55866">
        <ele>2262.44</ele>
        <time>2014-01-27T09:58:25Z</time>
      </trkpt>
      <trkpt lat="45.31521" lon="6.55853">
        <ele>2259.14</ele>
        <time>2014-01-27T09:58:29Z</time>
      </trkpt>
      <trkpt lat="45.31499" lon="6.5584">
        <ele>2255.39</ele>
        <time>2014-01-27T09:58:32Z</time>
      </trkpt>
      <trkpt lat="45.3148" lon="6.55837">
        <ele>2253.03</ele>
        <time>2014-01-27T09:58:34Z</time>
      </trkpt>
      <trkpt lat="45.31458" lon="6.55821">
        <ele>2250.77</ele>
        <time>2014-01-27T09:58:37Z</time>
      </trkpt>
      <trkpt lat="45.31439" lon="6.5582">
        <ele>2248.91</ele>
        <time>2014-01-27T09:58:40Z</time>
      </trkpt>
      <trkpt lat="45.31419" lon="6.55814">
        <ele>2245.51</ele>
        <time>2014-01-27T09:58:44Z</time>
      </trkpt>
      <trkpt lat="45.31396" lon="6.55814">
        <ele>2238.84</ele>
        <time>2014-01-27T09:58:48Z</time>
      </trkpt>
      <trkpt lat="45.31374" lon="6.5581">
        <ele>2230.41</ele>
        <time>2014-01-27T09:58:51Z</time>
      </trkpt>
      <trkpt lat="45.31355" lon="6.55816">
        <ele>2225</ele>
        <time>2014-01-27T09:58:54Z</time>
      </trkpt>
      <trkpt lat="45.31337" lon="6.55817">
        <ele>2224.03</ele>
        <time>2014-01-27T09:58:57Z</time>
      </trkpt>
      <trkpt lat="45.31313" lon="6.5582">
        <ele>2221.49</ele>
        <time>2014-01-27T09:59:01Z</time>
      </trkpt>
      <trkpt lat="45.31297" lon="6.55831">
        <ele>2220.62</ele>
        <time>2014-01-27T09:59:05Z</time>
      </trkpt>
      <trkpt lat="45.31292" lon="6.55861">
        <ele>2221.58</ele>
        <time>2014-01-27T10:03:40Z</time>
      </trkpt>
      <trkpt lat="45.31297" lon="6.55891">
        <ele>2222.84</ele>
        <time>2014-01-27T10:03:44Z</time>
      </trkpt>
      <trkpt lat="45.31298" lon="6.55918">
        <ele>2225.16</ele>
        <time>2014-01-27T10:03:48Z</time>
      </trkpt>
      <trkpt lat="45.31291" lon="6.55947">
        <ele>2229.04</ele>
        <time>2014-01-27T10:03:53Z</time>
      </trkpt>
      <trkpt lat="45.3129" lon="6.55975">
        <ele>2236.08</ele>
        <time>2014-01-27T10:03:57Z</time>
      </trkpt>
      <trkpt lat="45.31286" lon="6.56002">
        <ele>2243.2</ele>
        <time>2014-01-27T10:04:01Z</time>
      </trkpt>
      <trkpt lat="45.31283" lon="6.56028">
        <ele>2250.12</ele>
        <time>2014-01-27T10:04:04Z</time>
      </trkpt>
      <trkpt lat="45.31281" lon="6.56056">
        <ele>2258.67</ele>
        <time>2014-01-27T10:04:07Z</time>
      </trkpt>
      <trkpt lat="45.31281" lon="6.56083">
        <ele>2265.39</ele>
        <time>2014-01-27T10:04:10Z</time>
      </trkpt>
      <trkpt lat="45.3128" lon="6.56109">
        <ele>2273.87</ele>
        <time>2014-01-27T10:04:13Z</time>
      </trkpt>
      <trkpt lat="45.31283" lon="6.56137">
        <ele>2283.02</ele>
        <time>2014-01-27T10:04:16Z</time>
      </trkpt>
      <trkpt lat="45.31286" lon="6.56165">
        <ele>2291.67</ele>
        <time>2014-01-27T10:04:19Z</time>
      </trkpt>
      <trkpt lat="45.31287" lon="6.56193">
        <ele>2299.22</ele>
        <time>2014-01-27T10:04:23Z</time>
      </trkpt>
      <trkpt lat="45.3129" lon="6.56221">
        <ele>2305.67</ele>
        <time>2014-01-27T10:04:28Z</time>
      </trkpt>
      <trkpt lat="45.31298" lon="6.56249">
        <ele>2312.6</ele>
        <time>2014-01-27T10:04:33Z</time>
      </trkpt>
      <trkpt lat="45.31306" lon="6.56273">
        <ele>2320.21</ele>
        <time>2014-01-27T10:04:36Z</time>
      </trkpt>
      <trkpt lat="45.31312" lon="6.56303">
        <ele>2334.89</ele>
        <time>2014-01-27T10:04:40Z</time>
      </trkpt>
      <trkpt lat="45.31319" lon="6.56327">
        <ele>2345.39</ele>
        <time>2014-01-27T10:04:43Z</time>
      </trkpt>
      <trkpt lat="45.31329" lon="6.56352">
        <ele>2356.43</ele>
        <time>2014-01-27T10:04:47Z</time>
      </trkpt>
      <trkpt lat="45.31334" lon="6.56382">
        <ele>2372.23</ele>
        <time>2014-01-27T10:04:51Z</time>
      </trkpt>
      <trkpt lat="45.31334" lon="6.56412">
        <ele>2381.86</ele>
        <time>2014-01-27T10:04:55Z</time>
      </trkpt>
      <trkpt lat="45.31331" lon="6.56444">
        <ele>2388.63</ele>
        <time>2014-01-27T10:04:59Z</time>
      </trkpt>
      <trkpt lat="45.31325" lon="6.56476">
        <ele>2390.96</ele>
        <time>2014-01-27T10:05:03Z</time>
      </trkpt>
      <trkpt lat="45.31322" lon="6.56505">
        <ele>2392.29</ele>
        <time>2014-01-27T10:05:07Z</time>
      </trkpt>
      <trkpt lat="45.31318" lon="6.56536">
        <ele>2391.79</ele>
        <time>2014-01-27T10:05:11Z</time>
      </trkpt>
      <trkpt lat="45.31318" lon="6.56569">
        <ele>2390.23</ele>
        <time>2014-01-27T10:05:15Z</time>
      </trkpt>
      <trkpt lat="45.3132" lon="6.56597">
        <ele>2391.25</ele>
        <time>2014-01-27T10:05:19Z</time>
      </trkpt>
      <trkpt lat="45.31329" lon="6.56627">
        <ele>2395.82</ele>
        <time>2014-01-27T10:05:24Z</time>
      </trkpt>
      <trkpt lat="45.31334" lon="6.56652">
        <ele>2400.47</ele>
        <time>2014-01-27T10:05:28Z</time>
      </trkpt>
      <trkpt lat="45.31341" lon="6.56676">
        <ele>2406.51</ele>
        <time>2014-01-27T10:05:32Z</time>
      </trkpt>
      <trkpt lat="45.3135" lon="6.56701">
        <ele>2413.87</ele>
        <time>2014-01-27T10:05:36Z</time>
      </trkpt>
      <trkpt lat="45.31352" lon="6.56727">
        <ele>2420.92</ele>
        <time>2014-01-27T10:05:41Z</time>
      </trkpt>
      <trkpt lat="45.31362" lon="6.5675">
        <ele>2428.32</ele>
        <time>2014-01-27T10:05:45Z</time>
      </trkpt>
      <trkpt lat="45.31375" lon="6.56774">
        <ele>2441.81</ele>
        <time>2014-01-27T10:05:50Z</time>
      </trkpt>
      <trkpt lat="45.31388" lon="6.56795">
        <ele>2452.01</ele>
        <time>2014-01-27T10:05:54Z</time>
      </trkpt>
      <trkpt lat="45.31401" lon="6.56819">
        <ele>2466.06</ele>
        <time>2014-01-27T10:05:58Z</time>
      </trkpt>
      <trkpt lat="45.31412" lon="6.56841">
        <ele>2480.44</ele>
        <time>2014-01-27T10:06:03Z</time>
      </trkpt>
      <trkpt lat="45.31421" lon="6.56863">
        <ele>2497.93</ele>
        <time>2014-01-27T10:06:09Z</time>
      </trkpt>
      <trkpt lat="45.31434" lon="6.56887">
        <ele>2509.97</ele>
        <time>2014-01-27T10:06:15Z</time>
      </trkpt>
      <trkpt lat="45.31449" lon="6.56902">
        <ele>2518.47</ele>
        <time>2014-01-27T10:06:20Z</time>
      </trkpt>
      <trkpt lat="45.31464" lon="6.56917">
        <ele>2525.5</ele>
        <time>2014-01-27T10:06:26Z</time>
      </trkpt>
      <trkpt lat="45.31478" lon="6.56934">
        <ele>2534.73</ele>
        <time>2014-01-27T10:06:31Z</time>
      </trkpt>
      <trkpt lat="45.31492" lon="6.56955">
        <ele>2547.59</ele>
        <time>2014-01-27T10:06:38Z</time>
      </trkpt>
      <trkpt lat="45.31506" lon="6.56976">
        <ele>2555.2</ele>
        <time>2014-01-27T10:06:43Z</time>
      </trkpt>
      <trkpt lat="45.31532" lon="6.56974">
        <ele>2550.13</ele>
        <time>2014-01-27T10:06:47Z</time>
      </trkpt>
      <trkpt lat="45.31553" lon="6.56959">
        <ele>2547.35</ele>
        <time>2014-01-27T10:06:50Z</time>
      </trkpt>
      <trkpt lat="45.31571" lon="6.56967">
        <ele>2554.99</ele>
        <time>2014-01-27T10:06:54Z</time>
      </trkpt>
      <trkpt lat="45.31584" lon="6.56986">
        <ele>2562.38</ele>
        <time>2014-01-27T10:06:59Z</time>
      </trkpt>
      <trkpt lat="45.31593" lon="6.57011">
        <ele>2565.69</ele>
        <time>2014-01-27T10:07:04Z</time>
      </trkpt>
      <trkpt lat="45.316" lon="6.57038">
        <ele>2566.78</ele>
        <time>2014-01-27T10:07:11Z</time>
      </trkpt>
      <trkpt lat="45.31608" lon="6.57063">
        <ele>2564.97</ele>
        <time>2014-01-27T10:07:15Z</time>
      </trkpt>
      <trkpt lat="45.31617" lon="6.57086">
        <ele>2564.08</ele>
        <time>2014-01-27T10:07:19Z</time>
      </trkpt>
      <trkpt lat="45.31627" lon="6.5711">
        <ele>2565.6</ele>
        <time>2014-01-27T10:07:23Z</time>
      </trkpt>
      <trkpt lat="45.31634" lon="6.57135">
        <ele>2569.26</ele>
        <time>2014-01-27T10:07:27Z</time>
      </trkpt>
      <trkpt lat="45.3164" lon="6.57163">
        <ele>2578.73</ele>
        <time>2014-01-27T10:07:32Z</time>
      </trkpt>
      <trkpt lat="45.31645" lon="6.57191">
        <ele>2583.56</ele>
        <time>2014-01-27T10:07:37Z</time>
      </trkpt>
      <trkpt lat="45.31653" lon="6.57219">
        <ele>2587.1</ele>
        <time>2014-01-27T10:07:42Z</time>
      </trkpt>
      <trkpt lat="45.31663" lon="6.57246">
        <ele>2589.21</ele>
        <time>2014-01-27T10:07:47Z</time>
      </trkpt>
      <trkpt lat="45.31673" lon="6.57272">
        <ele>2599.55</ele>
        <time>2014-01-27T10:07:52Z</time>
      </trkpt>
      <trkpt lat="45.3168" lon="6.57296">
        <ele>2611.87</ele>
        <time>2014-01-27T10:07:56Z</time>
      </trkpt>
      <trkpt lat="45.31688" lon="6.57319">
        <ele>2622.31</ele>
        <time>2014-01-27T10:08:00Z</time>
      </trkpt>
      <trkpt lat="45.31695" lon="6.57348">
        <ele>2632.79</ele>
        <time>2014-01-27T10:08:05Z</time>
      </trkpt>
      <trkpt lat="45.31699" lon="6.57373">
        <ele>2641.34</ele>
        <time>2014-01-27T10:08:09Z</time>
      </trkpt>
      <trkpt lat="45.317" lon="6.57402">
        <ele>2652.03</ele>
        <time>2014-01-27T10:08:15Z</time>
      </trkpt>
      <trkpt lat="45.31701" lon="6.57428">
        <ele>2662.99</ele>
        <time>2014-01-27T10:08:20Z</time>
      </trkpt>
      <trkpt lat="45.31702" lon="6.57458">
        <ele>2675.31</ele>
        <time>2014-01-27T10:08:25Z</time>
      </trkpt>
      <trkpt lat="45.31711" lon="6.57481">
        <ele>2686.1</ele>
        <time>2014-01-27T10:08:30Z</time>
      </trkpt>
      <trkpt lat="45.31723" lon="6.57505">
        <ele>2697.33</ele>
        <time>2014-01-27T10:08:36Z</time>
      </trkpt>
      <trkpt lat="45.31726" lon="6.57535">
        <ele>2710.92</ele>
        <time>2014-01-27T10:08:41Z</time>
      </trkpt>
      <trkpt lat="45.31728" lon="6.57562">
        <ele>2723.29</ele>
        <time>2014-01-27T10:08:45Z</time>
      </trkpt>
      <trkpt lat="45.31723" lon="6.57593">
        <ele>2736.12</ele>
        <time>2014-01-27T10:08:50Z</time>
      </trkpt>
      <trkpt lat="45.31714" lon="6.57619">
        <ele>2747.54</ele>
        <time>2014-01-27T10:08:55Z</time>
      </trkpt>
      <trkpt lat="45.31706" lon="6.57644">
        <ele>2753.3</ele>
        <time>2014-01-27T10:09:00Z</time>
      </trkpt>
      <trkpt lat="45.31697" lon="6.5767">
        <ele>2754.39</ele>
        <time>2014-01-27T10:09:05Z</time>
      </trkpt>
      <trkpt lat="45.31688" lon="6.57696">
        <ele>2760.25</ele>
        <time>2014-01-27T10:09:11Z</time>
      </trkpt>
      <trkpt lat="45.31692" lon="6.57724">
        <ele>2770.15</ele>
        <time>2014-01-27T10:09:17Z</time>
      </trkpt>
      <trkpt lat="45.317" lon="6.5775">
        <ele>2777.32</ele>
        <time>2014-01-27T10:09:21Z</time>
      </trkpt>
      <trkpt lat="45.31711" lon="6.57775">
        <ele>2786.47</ele>
        <time>2014-01-27T10:09:25Z</time>
      </trkpt>
      <trkpt lat="45.31706" lon="6.57801">
        <ele>2795.11</ele>
        <time>2014-01-27T10:09:30Z</time>
      </trkpt>
      <trkpt lat="45.31719" lon="6.57823">
        <ele>2801.89</ele>
        <time>2014-01-27T10:09:36Z</time>
      </trkpt>
      <trkpt lat="45.31737" lon="6.57831">
        <ele>2807.37</ele>
        <time>2014-01-27T10:10:02Z</time>
      </trkpt>
      <trkpt lat="45.31764" lon="6.57826">
        <ele>2809.17</ele>
        <time>2014-01-27T10:10:12Z</time>
      </trkpt>
      <trkpt lat="45.31782" lon="6.57824">
        <ele>2811.67</ele>
        <time>2014-01-27T10:10:17Z</time>
      </trkpt>
      <trkpt lat="45.31799" lon="6.57832">
        <ele>2820.43</ele>
        <time>2014-01-27T10:10:31Z</time>
      </trkpt>
      <trkpt lat="45.31825" lon="6.57835">
        <ele>2833.33</ele>
        <time>2014-01-27T10:11:03Z</time>
      </trkpt>
      <trkpt lat="45.31841" lon="6.57853">
        <ele>2837.03</ele>
        <time>2014-01-27T10:11:54Z</time>
      </trkpt>
      <trkpt lat="45.31859" lon="6.57866">
        <ele>2839.49</ele>
        <time>2014-01-27T10:14:57Z</time>
      </trkpt>
      <trkpt lat="45.31864" lon="6.57894">
        <ele>2838.12</ele>
        <time>2014-01-27T10:15:02Z</time>
      </trkpt>
      <trkpt lat="45.3186" lon="6.57922">
        <ele>2829.89</ele>
        <time>2014-01-27T10:15:07Z</time>
      </trkpt>
      <trkpt lat="45.31838" lon="6.57926">
        <ele>2824.02</ele>
        <time>2014-01-27T10:15:31Z</time>
      </trkpt>
      <trkpt lat="45.3182" lon="6.57927">
        <ele>2821.47</ele>
        <time>2014-01-27T10:15:34Z</time>
      </trkpt>
      <trkpt lat="45.31797" lon="6.57928">
        <ele>2820.48</ele>
        <time>2014-01-27T10:15:37Z</time>
      </trkpt>
      <trkpt lat="45.31778" lon="6.57934">
        <ele>2822.47</ele>
        <time>2014-01-27T10:15:40Z</time>
      </trkpt>
      <trkpt lat="45.31759" lon="6.57939">
        <ele>2819.74</ele>
        <time>2014-01-27T10:15:43Z</time>
      </trkpt>
      <trkpt lat="45.3174" lon="6.57946">
        <ele>2816.77</ele>
        <time>2014-01-27T10:15:46Z</time>
      </trkpt>
      <trkpt lat="45.31717" lon="6.57963">
        <ele>2810.74</ele>
        <time>2014-01-27T10:15:49Z</time>
      </trkpt>
      <trkpt lat="45.317" lon="6.57979">
        <ele>2803.17</ele>
        <time>2014-01-27T10:15:51Z</time>
      </trkpt>
      <trkpt lat="45.31681" lon="6.57994">
        <ele>2796.26</ele>
        <time>2014-01-27T10:15:53Z</time>
      </trkpt>
      <trkpt lat="45.31658" lon="6.58008">
        <ele>2787.7</ele>
        <time>2014-01-27T10:15:55Z</time>
      </trkpt>
      <trkpt lat="45.31633" lon="6.58017">
        <ele>2779.02</ele>
        <time>2014-01-27T10:15:57Z</time>
      </trkpt>
      <trkpt lat="45.3161" lon="6.58023">
        <ele>2775.27</ele>
        <time>2014-01-27T10:15:59Z</time>
      </trkpt>
      <trkpt lat="45.31591" lon="6.58028">
        <ele>2779.49</ele>
        <time>2014-01-27T10:16:01Z</time>
      </trkpt>
      <trkpt lat="45.31567" lon="6.58032">
        <ele>2783.75</ele>
        <time>2014-01-27T10:16:04Z</time>
      </trkpt>
      <trkpt lat="45.31546" lon="6.58034">
        <ele>2786.42</ele>
        <time>2014-01-27T10:16:07Z</time>
      </trkpt>
      <trkpt lat="45.31523" lon="6.58034">
        <ele>2787.35</ele>
        <time>2014-01-27T10:16:11Z</time>
      </trkpt>
      <trkpt lat="45.315" lon="6.58031">
        <ele>2789.64</ele>
        <time>2014-01-27T10:16:15Z</time>
      </trkpt>
      <trkpt lat="45.31481" lon="6.58032">
        <ele>2786.23</ele>
        <time>2014-01-27T10:16:19Z</time>
      </trkpt>
      <trkpt lat="45.31461" lon="6.58039">
        <ele>2782.04</ele>
        <time>2014-01-27T10:16:24Z</time>
      </trkpt>
      <trkpt lat="45.31445" lon="6.5806">
        <ele>2781.25</ele>
        <time>2014-01-27T10:16:30Z</time>
      </trkpt>
      <trkpt lat="45.31434" lon="6.58081">
        <ele>2782.8</ele>
        <time>2014-01-27T10:16:34Z</time>
      </trkpt>
      <trkpt lat="45.31421" lon="6.58103">
        <ele>2785.46</ele>
        <time>2014-01-27T10:16:38Z</time>
      </trkpt>
      <trkpt lat="45.3141" lon="6.58123">
        <ele>2784.59</ele>
        <time>2014-01-27T10:16:44Z</time>
      </trkpt>
      <trkpt lat="45.31401" lon="6.58146">
        <ele>2781.86</ele>
        <time>2014-01-27T10:17:01Z</time>
      </trkpt>
      <trkpt lat="45.31385" lon="6.58161">
        <ele>2780.17</ele>
        <time>2014-01-27T10:17:36Z</time>
      </trkpt>
      <trkpt lat="45.3137" lon="6.58177">
        <ele>2780.42</ele>
        <time>2014-01-27T10:17:42Z</time>
      </trkpt>
      <trkpt lat="45.31356" lon="6.58198">
        <ele>2780.96</ele>
        <time>2014-01-27T10:17:46Z</time>
      </trkpt>
      <trkpt lat="45.31344" lon="6.58217">
        <ele>2781.14</ele>
        <time>2014-01-27T10:17:49Z</time>
      </trkpt>
      <trkpt lat="45.3133" lon="6.58241">
        <ele>2779.13</ele>
        <time>2014-01-27T10:17:52Z</time>
      </trkpt>
      <trkpt lat="45.31314" lon="6.58264">
        <ele>2779.03</ele>
        <time>2014-01-27T10:17:55Z</time>
      </trkpt>
      <trkpt lat="45.31298" lon="6.58287">
        <ele>2779.24</ele>
        <time>2014-01-27T10:17:58Z</time>
      </trkpt>
      <trkpt lat="45.31285" lon="6.58305">
        <ele>2780.44</ele>
        <time>2014-01-27T10:18:01Z</time>
      </trkpt>
      <trkpt lat="45.31271" lon="6.58324">
        <ele>2776.41</ele>
        <time>2014-01-27T10:18:05Z</time>
      </trkpt>
      <trkpt lat="45.31255" lon="6.58344">
        <ele>2770.91</ele>
        <time>2014-01-27T10:18:12Z</time>
      </trkpt>
      <trkpt lat="45.3124" lon="6.58363">
        <ele>2756.33</ele>
        <time>2014-01-27T10:18:19Z</time>
      </trkpt>
      <trkpt lat="45.31228" lon="6.58383">
        <ele>2745.49</ele>
        <time>2014-01-27T10:18:25Z</time>
      </trkpt>
      <trkpt lat="45.31214" lon="6.58405">
        <ele>2744.53</ele>
        <time>2014-01-27T10:18:30Z</time>
      </trkpt>
      <trkpt lat="45.31201" lon="6.58423">
        <ele>2745.15</ele>
        <time>2014-01-27T10:18:34Z</time>
      </trkpt>
      <trkpt lat="45.31185" lon="6.58443">
        <ele>2743.22</ele>
        <time>2014-01-27T10:18:38Z</time>
      </trkpt>
      <trkpt lat="45.31169" lon="6.58466">
        <ele>2737.96</ele>
        <time>2014-01-27T10:18:42Z</time>
      </trkpt>
      <trkpt lat="45.31159" lon="6.58493">
        <ele>2736.5</ele>
        <time>2014-01-27T10:18:46Z</time>
      </trkpt>
      <trkpt lat="45.3115" lon="6.58522">
        <ele>2737.15</ele>
        <time>2014-01-27T10:18:50Z</time>
      </trkpt>
      <trkpt lat="45.31141" lon="6.58547">
        <ele>2736.67</ele>
        <time>2014-01-27T10:18:54Z</time>
      </trkpt>
      <trkpt lat="45.31127" lon="6.58575">
        <ele>2738.53</ele>
        <time>2014-01-27T10:18:58Z</time>
      </trkpt>
      <trkpt lat="45.31109" lon="6.58588">
        <ele>2738.9</ele>
        <time>2014-01-27T10:19:01Z</time>
      </trkpt>
      <trkpt lat="45.31088" lon="6.58591">
        <ele>2736.53</ele>
        <time>2014-01-27T10:19:04Z</time>
      </trkpt>
      <trkpt lat="45.31066" lon="6.5859">
        <ele>2736.22</ele>
        <time>2014-01-27T10:19:07Z</time>
      </trkpt>
      <trkpt lat="45.31046" lon="6.58601">
        <ele>2737.3</ele>
        <time>2014-01-27T10:19:11Z</time>
      </trkpt>
      <trkpt lat="45.3103" lon="6.58617">
        <ele>2736.89</ele>
        <time>2014-01-27T10:19:56Z</time>
      </trkpt>
      <trkpt lat="45.31008" lon="6.58622">
        <ele>2734.18</ele>
        <time>2014-01-27T10:20:04Z</time>
      </trkpt>
      <trkpt lat="45.30991" lon="6.58634">
        <ele>2728.5</ele>
        <time>2014-01-27T10:20:08Z</time>
      </trkpt>
      <trkpt lat="45.3097" lon="6.58644">
        <ele>2718.23</ele>
        <time>2014-01-27T10:20:12Z</time>
      </trkpt>
      <trkpt lat="45.30952" lon="6.5865">
        <ele>2703.08</ele>
        <time>2014-01-27T10:20:17Z</time>
      </trkpt>
      <trkpt lat="45.30935" lon="6.58636">
        <ele>2690.82</ele>
        <time>2014-01-27T10:20:25Z</time>
      </trkpt>
      <trkpt lat="45.30917" lon="6.58652">
        <ele>2679.31</ele>
        <time>2014-01-27T10:20:32Z</time>
      </trkpt>
      <trkpt lat="45.30904" lon="6.58631">
        <ele>2676.62</ele>
        <time>2014-01-27T10:20:36Z</time>
      </trkpt>
      <trkpt lat="45.30889" lon="6.58648">
        <ele>2672.72</ele>
        <time>2014-01-27T10:20:41Z</time>
      </trkpt>
      <trkpt lat="45.30872" lon="6.58633">
        <ele>2668.54</ele>
        <time>2014-01-27T10:20:47Z</time>
      </trkpt>
      <trkpt lat="45.30866" lon="6.58657">
        <ele>2665.49</ele>
        <time>2014-01-27T10:20:50Z</time>
      </trkpt>
      <trkpt lat="45.30844" lon="6.58657">
        <ele>2657.38</ele>
        <time>2014-01-27T10:20:58Z</time>
      </trkpt>
      <trkpt lat="45.30841" lon="6.5869">
        <ele>2649.36</ele>
        <time>2014-01-27T10:21:02Z</time>
      </trkpt>
      <trkpt lat="45.30834" lon="6.58719">
        <ele>2645.07</ele>
        <time>2014-01-27T10:21:06Z</time>
      </trkpt>
      <trkpt lat="45.30813" lon="6.58731">
        <ele>2634.39</ele>
        <time>2014-01-27T10:21:10Z</time>
      </trkpt>
      <trkpt lat="45.30798" lon="6.58712">
        <ele>2626.69</ele>
        <time>2014-01-27T10:21:47Z</time>
      </trkpt>
      <trkpt lat="45.3079" lon="6.58687">
        <ele>2622.76</ele>
        <time>2014-01-27T10:21:53Z</time>
      </trkpt>
      <trkpt lat="45.30772" lon="6.58674">
        <ele>2613.45</ele>
        <time>2014-01-27T10:21:57Z</time>
      </trkpt>
      <trkpt lat="45.30753" lon="6.5867">
        <ele>2605.17</ele>
        <time>2014-01-27T10:22:05Z</time>
      </trkpt>
      <trkpt lat="45.30733" lon="6.58664">
        <ele>2594.52</ele>
        <time>2014-01-27T10:22:11Z</time>
      </trkpt>
      <trkpt lat="45.30724" lon="6.58687">
        <ele>2591.1</ele>
        <time>2014-01-27T10:22:16Z</time>
      </trkpt>
      <trkpt lat="45.30718" lon="6.58712">
        <ele>2587.54</ele>
        <time>2014-01-27T10:22:20Z</time>
      </trkpt>
      <trkpt lat="45.30698" lon="6.58721">
        <ele>2574.62</ele>
        <time>2014-01-27T10:22:25Z</time>
      </trkpt>
      <trkpt lat="45.3068" lon="6.58728">
        <ele>2565.55</ele>
        <time>2014-01-27T10:22:29Z</time>
      </trkpt>
      <trkpt lat="45.30663" lon="6.58717">
        <ele>2558.55</ele>
        <time>2014-01-27T10:22:33Z</time>
      </trkpt>
      <trkpt lat="45.30638" lon="6.58721">
        <ele>2555.85</ele>
        <time>2014-01-27T10:22:38Z</time>
      </trkpt>
      <trkpt lat="45.3062" lon="6.58716">
        <ele>2554.23</ele>
        <time>2014-01-27T10:22:40Z</time>
      </trkpt>
      <trkpt lat="45.30599" lon="6.58702">
        <ele>2552.55</ele>
        <time>2014-01-27T10:22:43Z</time>
      </trkpt>
      <trkpt lat="45.30582" lon="6.58685">
        <ele>2551.23</ele>
        <time>2014-01-27T10:22:46Z</time>
      </trkpt>
      <trkpt lat="45.30566" lon="6.58672">
        <ele>2548.67</ele>
        <time>2014-01-27T10:23:36Z</time>
      </trkpt>
      <trkpt lat="45.30549" lon="6.58661">
        <ele>2546.71</ele>
        <time>2014-01-27T10:23:49Z</time>
      </trkpt>
      <trkpt lat="45.30532" lon="6.58653">
        <ele>2545.56</ele>
        <time>2014-01-27T10:23:54Z</time>
      </trkpt>
      <trkpt lat="45.30515" lon="6.58645">
        <ele>2542.32</ele>
        <time>2014-01-27T10:23:57Z</time>
      </trkpt>
      <trkpt lat="45.30492" lon="6.58646">
        <ele>2538.25</ele>
        <time>2014-01-27T10:24:01Z</time>
      </trkpt>
      <trkpt lat="45.30473" lon="6.58641">
        <ele>2532.37</ele>
        <time>2014-01-27T10:24:08Z</time>
      </trkpt>
      <trkpt lat="45.30455" lon="6.58632">
        <ele>2528.32</ele>
        <time>2014-01-27T10:24:18Z</time>
      </trkpt>
      <trkpt lat="45.30451" lon="6.58597">
        <ele>2521.05</ele>
        <time>2014-01-27T10:24:27Z</time>
      </trkpt>
      <trkpt lat="45.30433" lon="6.58589">
        <ele>2514.79</ele>
        <time>2014-01-27T10:24:31Z</time>
      </trkpt>
      <trkpt lat="45.30426" lon="6.58558">
        <ele>2502.58</ele>
        <time>2014-01-27T10:24:37Z</time>
      </trkpt>
      <trkpt lat="45.30408" lon="6.58561">
        <ele>2499.35</ele>
        <time>2014-01-27T10:24:41Z</time>
      </trkpt>
      <trkpt lat="45.30396" lon="6.58534">
        <ele>2489.81</ele>
        <time>2014-01-27T10:24:47Z</time>
      </trkpt>
      <trkpt lat="45.30391" lon="6.58507">
        <ele>2483.55</ele>
        <time>2014-01-27T10:24:56Z</time>
      </trkpt>
      <trkpt lat="45.30373" lon="6.58493">
        <ele>2478.2</ele>
        <time>2014-01-27T10:25:03Z</time>
      </trkpt>
      <trkpt lat="45.30365" lon="6.58467">
        <ele>2471.38</ele>
        <time>2014-01-27T10:25:08Z</time>
      </trkpt>
      <trkpt lat="45.30358" lon="6.58443">
        <ele>2464.36</ele>
        <time>2014-01-27T10:25:14Z</time>
      </trkpt>
      <trkpt lat="45.30344" lon="6.58424">
        <ele>2456.43</ele>
        <time>2014-01-27T10:25:20Z</time>
      </trkpt>
      <trkpt lat="45.30333" lon="6.58397">
        <ele>2447.64</ele>
        <time>2014-01-27T10:25:58Z</time>
      </trkpt>
      <trkpt lat="45.30317" lon="6.58382">
        <ele>2442.64</ele>
        <time>2014-01-27T10:26:01Z</time>
      </trkpt>
      <trkpt lat="45.30298" lon="6.58365">
        <ele>2437.62</ele>
        <time>2014-01-27T10:26:04Z</time>
      </trkpt>
      <trkpt lat="45.30287" lon="6.58343">
        <ele>2432.38</ele>
        <time>2014-01-27T10:26:07Z</time>
      </trkpt>
      <trkpt lat="45.30273" lon="6.58322">
        <ele>2427.03</ele>
        <time>2014-01-27T10:26:11Z</time>
      </trkpt>
      <trkpt lat="45.30254" lon="6.58311">
        <ele>2424.34</ele>
        <time>2014-01-27T10:26:15Z</time>
      </trkpt>
      <trkpt lat="45.30238" lon="6.58288">
        <ele>2419.37</ele>
        <time>2014-01-27T10:26:19Z</time>
      </trkpt>
      <trkpt lat="45.30223" lon="6.58271">
        <ele>2415.11</ele>
        <time>2014-01-27T10:26:23Z</time>
      </trkpt>
      <trkpt lat="45.30204" lon="6.58255">
        <ele>2412.33</ele>
        <time>2014-01-27T10:26:50Z</time>
      </trkpt>
      <trkpt lat="45.3019" lon="6.58236">
        <ele>2409.64</ele>
        <time>2014-01-27T10:26:54Z</time>
      </trkpt>
      <trkpt lat="45.30178" lon="6.58215">
        <ele>2407.62</ele>
        <time>2014-01-27T10:26:58Z</time>
      </trkpt>
      <trkpt lat="45.30167" lon="6.5819">
        <ele>2405.99</ele>
        <time>2014-01-27T10:27:03Z</time>
      </trkpt>
      <trkpt lat="45.30155" lon="6.58167">
        <ele>2404</ele>
        <time>2014-01-27T10:27:07Z</time>
      </trkpt>
      <trkpt lat="45.30142" lon="6.58147">
        <ele>2400.8</ele>
        <time>2014-01-27T10:27:12Z</time>
      </trkpt>
      <trkpt lat="45.3013" lon="6.58123">
        <ele>2399.42</ele>
        <time>2014-01-27T10:27:16Z</time>
      </trkpt>
      <trkpt lat="45.30112" lon="6.58104">
        <ele>2396.38</ele>
        <time>2014-01-27T10:27:20Z</time>
      </trkpt>
      <trkpt lat="45.30091" lon="6.58115">
        <ele>2393.31</ele>
        <time>2014-01-27T10:27:26Z</time>
      </trkpt>
      <trkpt lat="45.30075" lon="6.58129">
        <ele>2387.78</ele>
        <time>2014-01-27T10:27:29Z</time>
      </trkpt>
      <trkpt lat="45.30062" lon="6.58148">
        <ele>2383.67</ele>
        <time>2014-01-27T10:27:32Z</time>
      </trkpt>
      <trkpt lat="45.30045" lon="6.58167">
        <ele>2376.83</ele>
        <time>2014-01-27T10:27:35Z</time>
      </trkpt>
      <trkpt lat="45.30038" lon="6.58192">
        <ele>2372.64</ele>
        <time>2014-01-27T10:27:38Z</time>
      </trkpt>
      <trkpt lat="45.30027" lon="6.58212">
        <ele>2363.32</ele>
        <time>2014-01-27T10:27:41Z</time>
      </trkpt>
      <trkpt lat="45.30015" lon="6.58241">
        <ele>2353.66</ele>
        <time>2014-01-27T10:27:45Z</time>
      </trkpt>
      <trkpt lat="45.30019" lon="6.58272">
        <ele>2356.56</ele>
        <time>2014-01-27T10:27:49Z</time>
      </trkpt>
      <trkpt lat="45.30021" lon="6.58304">
        <ele>2354.59</ele>
        <time>2014-01-27T10:27:53Z</time>
      </trkpt>
      <trkpt lat="45.3001" lon="6.58325">
        <ele>2347.65</ele>
        <time>2014-01-27T10:27:56Z</time>
      </trkpt>
      <trkpt lat="45.30001" lon="6.58349">
        <ele>2342.09</ele>
        <time>2014-01-27T10:27:59Z</time>
      </trkpt>
      <trkpt lat="45.29982" lon="6.58365">
        <ele>2333.75</ele>
        <time>2014-01-27T10:28:02Z</time>
      </trkpt>
      <trkpt lat="45.29964" lon="6.58347">
        <ele>2328.98</ele>
        <time>2014-01-27T10:28:06Z</time>
      </trkpt>
      <trkpt lat="45.2995" lon="6.58319">
        <ele>2326.21</ele>
        <time>2014-01-27T10:28:09Z</time>
      </trkpt>
      <trkpt lat="45.29936" lon="6.58289">
        <ele>2323.56</ele>
        <time>2014-01-27T10:28:12Z</time>
      </trkpt>
      <trkpt lat="45.2993" lon="6.58259">
        <ele>2322.7</ele>
        <time>2014-01-27T10:28:16Z</time>
      </trkpt>
      <trkpt lat="45.29936" lon="6.5823">
        <ele>2322.86</ele>
        <time>2014-01-27T10:28:28Z</time>
      </trkpt>
      <trkpt lat="45.29937" lon="6.58203">
        <ele>2320.47</ele>
        <time>2014-01-27T10:28:33Z</time>
      </trkpt>
      <trkpt lat="45.29936" lon="6.58173">
        <ele>2316.58</ele>
        <time>2014-01-27T10:28:37Z</time>
      </trkpt>
      <trkpt lat="45.29933" lon="6.58146">
        <ele>2312.81</ele>
        <time>2014-01-27T10:28:40Z</time>
      </trkpt>
      <trkpt lat="45.29925" lon="6.58118">
        <ele>2309.78</ele>
        <time>2014-01-27T10:28:43Z</time>
      </trkpt>
      <trkpt lat="45.29916" lon="6.58084">
        <ele>2305</ele>
        <time>2014-01-27T10:28:46Z</time>
      </trkpt>
      <trkpt lat="45.29909" lon="6.58061">
        <ele>2303.04</ele>
        <time>2014-01-27T10:28:48Z</time>
      </trkpt>
      <trkpt lat="45.29899" lon="6.58026">
        <ele>2300.85</ele>
        <time>2014-01-27T10:28:51Z</time>
      </trkpt>
      <trkpt lat="45.29891" lon="6.57992">
        <ele>2298.43</ele>
        <time>2014-01-27T10:28:54Z</time>
      </trkpt>
      <trkpt lat="45.29885" lon="6.5796">
        <ele>2297.18</ele>
        <time>2014-01-27T10:28:57Z</time>
      </trkpt>
      <trkpt lat="45.29885" lon="6.57928">
        <ele>2295.33</ele>
        <time>2014-01-27T10:29:01Z</time>
      </trkpt>
      <trkpt lat="45.2989" lon="6.57901">
        <ele>2292.85</ele>
        <time>2014-01-27T10:29:05Z</time>
      </trkpt>
      <trkpt lat="45.29894" lon="6.57875">
        <ele>2291.02</ele>
        <time>2014-01-27T10:29:08Z</time>
      </trkpt>
      <trkpt lat="45.29901" lon="6.5785">
        <ele>2289.19</ele>
        <time>2014-01-27T10:29:13Z</time>
      </trkpt>
      <trkpt lat="45.29909" lon="6.57824">
        <ele>2287.46</ele>
        <time>2014-01-27T10:29:20Z</time>
      </trkpt>
      <trkpt lat="45.29916" lon="6.57798">
        <ele>2286.43</ele>
        <time>2014-01-27T10:29:27Z</time>
      </trkpt>
      <trkpt lat="45.29921" lon="6.5777">
        <ele>2285.72</ele>
        <time>2014-01-27T10:29:33Z</time>
      </trkpt>
      <trkpt lat="45.29926" lon="6.57744">
        <ele>2284.98</ele>
        <time>2014-01-27T10:29:40Z</time>
      </trkpt>
      <trkpt lat="45.29914" lon="6.57721">
        <ele>2281.41</ele>
        <time>2014-01-27T10:29:45Z</time>
      </trkpt>
      <trkpt lat="45.29895" lon="6.57714">
        <ele>2277.16</ele>
        <time>2014-01-27T10:29:48Z</time>
      </trkpt>
      <trkpt lat="45.29874" lon="6.57707">
        <ele>2275.46</ele>
        <time>2014-01-27T10:29:53Z</time>
      </trkpt>
      <trkpt lat="45.29854" lon="6.577">
        <ele>2273.66</ele>
        <time>2014-01-27T10:29:57Z</time>
      </trkpt>
      <trkpt lat="45.29834" lon="6.57684">
        <ele>2267.95</ele>
        <time>2014-01-27T10:30:01Z</time>
      </trkpt>
      <trkpt lat="45.29819" lon="6.57671">
        <ele>2265.94</ele>
        <time>2014-01-27T10:30:04Z</time>
      </trkpt>
      <trkpt lat="45.29803" lon="6.57648">
        <ele>2261.53</ele>
        <time>2014-01-27T10:30:07Z</time>
      </trkpt>
      <trkpt lat="45.29782" lon="6.57631">
        <ele>2261.13</ele>
        <time>2014-01-27T10:30:10Z</time>
      </trkpt>
      <trkpt lat="45.29764" lon="6.57619">
        <ele>2255.73</ele>
        <time>2014-01-27T10:30:13Z</time>
      </trkpt>
      <trkpt lat="45.29746" lon="6.57597">
        <ele>2248.21</ele>
        <time>2014-01-27T10:30:17Z</time>
      </trkpt>
      <trkpt lat="45.29744" lon="6.57566">
        <ele>2244.25</ele>
        <time>2014-01-27T10:30:21Z</time>
      </trkpt>
      <trkpt lat="45.2973" lon="6.5754">
        <ele>2237.89</ele>
        <time>2014-01-27T10:30:25Z</time>
      </trkpt>
      <trkpt lat="45.29717" lon="6.57521">
        <ele>2233.74</ele>
        <time>2014-01-27T10:30:28Z</time>
      </trkpt>
      <trkpt lat="45.29703" lon="6.57499">
        <ele>2230.07</ele>
        <time>2014-01-27T10:30:31Z</time>
      </trkpt>
      <trkpt lat="45.29683" lon="6.57492">
        <ele>2226.96</ele>
        <time>2014-01-27T10:30:34Z</time>
      </trkpt>
      <trkpt lat="45.29664" lon="6.57491">
        <ele>2225.01</ele>
        <time>2014-01-27T10:30:38Z</time>
      </trkpt>
      <trkpt lat="45.29652" lon="6.57465">
        <ele>2221.61</ele>
        <time>2014-01-27T10:30:51Z</time>
      </trkpt>
      <trkpt lat="45.29634" lon="6.57441">
        <ele>2217.01</ele>
        <time>2014-01-27T10:30:55Z</time>
      </trkpt>
      <trkpt lat="45.29619" lon="6.57415">
        <ele>2215.48</ele>
        <time>2014-01-27T10:30:58Z</time>
      </trkpt>
      <trkpt lat="45.29605" lon="6.57383">
        <ele>2215.36</ele>
        <time>2014-01-27T10:31:01Z</time>
      </trkpt>
      <trkpt lat="45.29596" lon="6.57352">
        <ele>2212.76</ele>
        <time>2014-01-27T10:31:04Z</time>
      </trkpt>
      <trkpt lat="45.2959" lon="6.57323">
        <ele>2209.17</ele>
        <time>2014-01-27T10:31:07Z</time>
      </trkpt>
      <trkpt lat="45.2958" lon="6.57292">
        <ele>2206.99</ele>
        <time>2014-01-27T10:31:10Z</time>
      </trkpt>
      <trkpt lat="45.29571" lon="6.57258">
        <ele>2205.26</ele>
        <time>2014-01-27T10:31:13Z</time>
      </trkpt>
      <trkpt lat="45.29566" lon="6.57225">
        <ele>2203.65</ele>
        <time>2014-01-27T10:31:16Z</time>
      </trkpt>
      <trkpt lat="45.2956" lon="6.57195">
        <ele>2201.78</ele>
        <time>2014-01-27T10:31:19Z</time>
      </trkpt>
      <trkpt lat="45.29555" lon="6.57166">
        <ele>2199.89</ele>
        <time>2014-01-27T10:31:23Z</time>
      </trkpt>
      <trkpt lat="45.29546" lon="6.57143">
        <ele>2195.78</ele>
        <time>2014-01-27T10:31:29Z</time>
      </trkpt>
      <trkpt lat="45.29533" lon="6.5712">
        <ele>2190.16</ele>
        <time>2014-01-27T10:31:44Z</time>
      </trkpt>
      <trkpt lat="45.29516" lon="6.57098">
        <ele>2187.26</ele>
        <time>2014-01-27T10:31:47Z</time>
      </trkpt>
      <trkpt lat="45.29498" lon="6.57069">
        <ele>2184.15</ele>
        <time>2014-01-27T10:31:50Z</time>
      </trkpt>
      <trkpt lat="45.29488" lon="6.57044">
        <ele>2182.26</ele>
        <time>2014-01-27T10:31:52Z</time>
      </trkpt>
      <trkpt lat="45.29482" lon="6.57014">
        <ele>2179.78</ele>
        <time>2014-01-27T10:31:54Z</time>
      </trkpt>
      <trkpt lat="45.2948" lon="6.56984">
        <ele>2176.93</ele>
        <time>2014-01-27T10:31:56Z</time>
      </trkpt>
      <trkpt lat="45.29486" lon="6.56951">
        <ele>2171.07</ele>
        <time>2014-01-27T10:31:59Z</time>
      </trkpt>
      <trkpt lat="45.29495" lon="6.56921">
        <ele>2164.86</ele>
        <time>2014-01-27T10:32:03Z</time>
      </trkpt>
      <trkpt lat="45.2948" lon="6.56899">
        <ele>2164.18</ele>
        <time>2014-01-27T10:32:08Z</time>
      </trkpt>
      <trkpt lat="45.29474" lon="6.56873">
        <ele>2160.76</ele>
        <time>2014-01-27T10:32:12Z</time>
      </trkpt>
      <trkpt lat="45.29475" lon="6.56841">
        <ele>2152.69</ele>
        <time>2014-01-27T10:32:16Z</time>
      </trkpt>
      <trkpt lat="45.29464" lon="6.56819">
        <ele>2150.86</ele>
        <time>2014-01-27T10:32:20Z</time>
      </trkpt>
      <trkpt lat="45.29481" lon="6.56799">
        <ele>2141.01</ele>
        <time>2014-01-27T10:32:23Z</time>
      </trkpt>
      <trkpt lat="45.29475" lon="6.56769">
        <ele>2136.39</ele>
        <time>2014-01-27T10:32:27Z</time>
      </trkpt>
      <trkpt lat="45.29485" lon="6.56748">
        <ele>2131.38</ele>
        <time>2014-01-27T10:32:31Z</time>
      </trkpt>
      <trkpt lat="45.29485" lon="6.5672">
        <ele>2126.9</ele>
        <time>2014-01-27T10:32:34Z</time>
      </trkpt>
      <trkpt lat="45.29498" lon="6.56696">
        <ele>2119.9</ele>
        <time>2014-01-27T10:32:38Z</time>
      </trkpt>
      <trkpt lat="45.29507" lon="6.56673">
        <ele>2115.53</ele>
        <time>2014-01-27T10:32:41Z</time>
      </trkpt>
      <trkpt lat="45.29496" lon="6.56652">
        <ele>2113.12</ele>
        <time>2014-01-27T10:32:44Z</time>
      </trkpt>
      <trkpt lat="45.29498" lon="6.56626">
        <ele>2108.67</ele>
        <time>2014-01-27T10:32:47Z</time>
      </trkpt>
      <trkpt lat="45.2949" lon="6.56601">
        <ele>2109.22</ele>
        <time>2014-01-27T10:32:50Z</time>
      </trkpt>
      <trkpt lat="45.2948" lon="6.56578">
        <ele>2108.88</ele>
        <time>2014-01-27T10:32:53Z</time>
      </trkpt>
      <trkpt lat="45.29476" lon="6.5655">
        <ele>2105.15</ele>
        <time>2014-01-27T10:32:56Z</time>
      </trkpt>
      <trkpt lat="45.29473" lon="6.56523">
        <ele>2100.46</ele>
        <time>2014-01-27T10:32:59Z</time>
      </trkpt>
      <trkpt lat="45.29465" lon="6.565">
        <ele>2099.45</ele>
        <time>2014-01-27T10:33:02Z</time>
      </trkpt>
      <trkpt lat="45.29457" lon="6.56476">
        <ele>2099.51</ele>
        <time>2014-01-27T10:33:07Z</time>
      </trkpt>
      <trkpt lat="45.2947" lon="6.56448">
        <ele>2095.51</ele>
        <time>2014-01-27T10:34:12Z</time>
      </trkpt>
      <trkpt lat="45.29474" lon="6.56418">
        <ele>2092.66</ele>
        <time>2014-01-27T10:34:15Z</time>
      </trkpt>
      <trkpt lat="45.29475" lon="6.56389">
        <ele>2092.2</ele>
        <time>2014-01-27T10:34:18Z</time>
      </trkpt>
      <trkpt lat="45.29482" lon="6.56358">
        <ele>2091.98</ele>
        <time>2014-01-27T10:34:22Z</time>
      </trkpt>
      <trkpt lat="45.29493" lon="6.56331">
        <ele>2085.58</ele>
        <time>2014-01-27T10:34:26Z</time>
      </trkpt>
      <trkpt lat="45.29504" lon="6.56306">
        <ele>2078.54</ele>
        <time>2014-01-27T10:34:29Z</time>
      </trkpt>
      <trkpt lat="45.29517" lon="6.56274">
        <ele>2077.82</ele>
        <time>2014-01-27T10:34:32Z</time>
      </trkpt>
      <trkpt lat="45.29527" lon="6.56246">
        <ele>2079.67</ele>
        <time>2014-01-27T10:34:35Z</time>
      </trkpt>
      <trkpt lat="45.29528" lon="6.56216">
        <ele>2081.44</ele>
        <time>2014-01-27T10:34:39Z</time>
      </trkpt>
      <trkpt lat="45.29538" lon="6.56194">
        <ele>2078.08</ele>
        <time>2014-01-27T10:34:47Z</time>
      </trkpt>
      <trkpt lat="45.29531" lon="6.56164">
        <ele>2077.45</ele>
        <time>2014-01-27T10:36:23Z</time>
      </trkpt>
      <trkpt lat="45.29514" lon="6.56145">
        <ele>2079.81</ele>
        <time>2014-01-27T10:36:40Z</time>
      </trkpt>
      <trkpt lat="45.29496" lon="6.56132">
        <ele>2084.14</ele>
        <time>2014-01-27T10:36:45Z</time>
      </trkpt>
      <trkpt lat="45.29481" lon="6.5612">
        <ele>2090.34</ele>
        <time>2014-01-27T10:36:51Z</time>
      </trkpt>
      <trkpt lat="45.29465" lon="6.56107">
        <ele>2096.74</ele>
        <time>2014-01-27T10:36:56Z</time>
      </trkpt>
      <trkpt lat="45.29447" lon="6.56092">
        <ele>2103.22</ele>
        <time>2014-01-27T10:37:02Z</time>
      </trkpt>
      <trkpt lat="45.29429" lon="6.56077">
        <ele>2110.32</ele>
        <time>2014-01-27T10:37:08Z</time>
      </trkpt>
      <trkpt lat="45.29411" lon="6.56061">
        <ele>2118.52</ele>
        <time>2014-01-27T10:37:14Z</time>
      </trkpt>
      <trkpt lat="45.29394" lon="6.56045">
        <ele>2125.06</ele>
        <time>2014-01-27T10:37:20Z</time>
      </trkpt>
      <trkpt lat="45.29377" lon="6.56031">
        <ele>2132.06</ele>
        <time>2014-01-27T10:37:26Z</time>
      </trkpt>
      <trkpt lat="45.29362" lon="6.56017">
        <ele>2137.97</ele>
        <time>2014-01-27T10:37:31Z</time>
      </trkpt>
      <trkpt lat="45.29346" lon="6.56002">
        <ele>2146.26</ele>
        <time>2014-01-27T10:37:36Z</time>
      </trkpt>
      <trkpt lat="45.2933" lon="6.55987">
        <ele>2157.19</ele>
        <time>2014-01-27T10:37:42Z</time>
      </trkpt>
      <trkpt lat="45.29313" lon="6.55972">
        <ele>2170.27</ele>
        <time>2014-01-27T10:37:48Z</time>
      </trkpt>
      <trkpt lat="45.29295" lon="6.55956">
        <ele>2181.22</ele>
        <time>2014-01-27T10:37:54Z</time>
      </trkpt>
      <trkpt lat="45.2928" lon="6.55942">
        <ele>2189.64</ele>
        <time>2014-01-27T10:37:59Z</time>
      </trkpt>
      <trkpt lat="45.29262" lon="6.55924">
        <ele>2201.43</ele>
        <time>2014-01-27T10:38:05Z</time>
      </trkpt>
      <trkpt lat="45.29244" lon="6.55909">
        <ele>2213.03</ele>
        <time>2014-01-27T10:38:11Z</time>
      </trkpt>
      <trkpt lat="45.29228" lon="6.55894">
        <ele>2220.96</ele>
        <time>2014-01-27T10:38:16Z</time>
      </trkpt>
      <trkpt lat="45.29211" lon="6.55877">
        <ele>2229.65</ele>
        <time>2014-01-27T10:38:22Z</time>
      </trkpt>
      <trkpt lat="45.29194" lon="6.55862">
        <ele>2238.77</ele>
        <time>2014-01-27T10:38:28Z</time>
      </trkpt>
      <trkpt lat="45.29178" lon="6.55847">
        <ele>2245.97</ele>
        <time>2014-01-27T10:38:33Z</time>
      </trkpt>
      <trkpt lat="45.29162" lon="6.55832">
        <ele>2253.21</ele>
        <time>2014-01-27T10:38:38Z</time>
      </trkpt>
      <trkpt lat="45.29145" lon="6.55817">
        <ele>2259.55</ele>
        <time>2014-01-27T10:38:44Z</time>
      </trkpt>
      <trkpt lat="45.29127" lon="6.55801">
        <ele>2266.67</ele>
        <time>2014-01-27T10:38:50Z</time>
      </trkpt>
      <trkpt lat="45.2911" lon="6.55785">
        <ele>2273.53</ele>
        <time>2014-01-27T10:38:56Z</time>
      </trkpt>
      <trkpt lat="45.29094" lon="6.5577">
        <ele>2278.75</ele>
        <time>2014-01-27T10:39:01Z</time>
      </trkpt>
      <trkpt lat="45.29076" lon="6.55753">
        <ele>2286.49</ele>
        <time>2014-01-27T10:39:07Z</time>
      </trkpt>
      <trkpt lat="45.29059" lon="6.55738">
        <ele>2294.94</ele>
        <time>2014-01-27T10:39:13Z</time>
      </trkpt>
      <trkpt lat="45.29042" lon="6.55722">
        <ele>2301.48</ele>
        <time>2014-01-27T10:39:19Z</time>
      </trkpt>
      <trkpt lat="45.29026" lon="6.55708">
        <ele>2305.88</ele>
        <time>2014-01-27T10:39:24Z</time>
      </trkpt>
      <trkpt lat="45.29008" lon="6.55692">
        <ele>2312.7</ele>
        <time>2014-01-27T10:39:30Z</time>
      </trkpt>
      <trkpt lat="45.28991" lon="6.55676">
        <ele>2320.18</ele>
        <time>2014-01-27T10:39:36Z</time>
      </trkpt>
      <trkpt lat="45.28973" lon="6.5566">
        <ele>2326.63</ele>
        <time>2014-01-27T10:39:42Z</time>
      </trkpt>
      <trkpt lat="45.28957" lon="6.55645">
        <ele>2334.36</ele>
        <time>2014-01-27T10:39:47Z</time>
      </trkpt>
      <trkpt lat="45.28939" lon="6.5563">
        <ele>2344.96</ele>
        <time>2014-01-27T10:39:53Z</time>
      </trkpt>
      <trkpt lat="45.28921" lon="6.55614">
        <ele>2357.99</ele>
        <time>2014-01-27T10:39:59Z</time>
      </trkpt>
      <trkpt lat="45.28904" lon="6.55598">
        <ele>2370.12</ele>
        <time>2014-01-27T10:40:05Z</time>
      </trkpt>
      <trkpt lat="45.28887" lon="6.55583">
        <ele>2381.5</ele>
        <time>2014-01-27T10:40:11Z</time>
      </trkpt>
      <trkpt lat="45.2887" lon="6.55567">
        <ele>2389.39</ele>
        <time>2014-01-27T10:40:17Z</time>
      </trkpt>
      <trkpt lat="45.28854" lon="6.55552">
        <ele>2393.84</ele>
        <time>2014-01-27T10:40:22Z</time>
      </trkpt>
      <trkpt lat="45.28837" lon="6.55536">
        <ele>2396.86</ele>
        <time>2014-01-27T10:40:28Z</time>
      </trkpt>
      <trkpt lat="45.28822" lon="6.55522">
        <ele>2402.08</ele>
        <time>2014-01-27T10:40:33Z</time>
      </trkpt>
      <trkpt lat="45.28806" lon="6.55507">
        <ele>2410.49</ele>
        <time>2014-01-27T10:40:38Z</time>
      </trkpt>
      <trkpt lat="45.28788" lon="6.5549">
        <ele>2423.52</ele>
        <time>2014-01-27T10:40:44Z</time>
      </trkpt>
      <trkpt lat="45.28771" lon="6.55475">
        <ele>2433.67</ele>
        <time>2014-01-27T10:40:50Z</time>
      </trkpt>
      <trkpt lat="45.28754" lon="6.55459">
        <ele>2440.05</ele>
        <time>2014-01-27T10:40:56Z</time>
      </trkpt>
      <trkpt lat="45.28738" lon="6.55443">
        <ele>2444.75</ele>
        <time>2014-01-27T10:41:01Z</time>
      </trkpt>
      <trkpt lat="45.28723" lon="6.55429">
        <ele>2448.31</ele>
        <time>2014-01-27T10:41:06Z</time>
      </trkpt>
      <trkpt lat="45.28705" lon="6.55414">
        <ele>2449.53</ele>
        <time>2014-01-27T10:41:12Z</time>
      </trkpt>
      <trkpt lat="45.28687" lon="6.55398">
        <ele>2451.92</ele>
        <time>2014-01-27T10:41:18Z</time>
      </trkpt>
      <trkpt lat="45.28671" lon="6.55382">
        <ele>2456.06</ele>
        <time>2014-01-27T10:41:23Z</time>
      </trkpt>
      <trkpt lat="45.28656" lon="6.55368">
        <ele>2465.06</ele>
        <time>2014-01-27T10:41:28Z</time>
      </trkpt>
      <trkpt lat="45.28638" lon="6.55351">
        <ele>2477.13</ele>
        <time>2014-01-27T10:41:34Z</time>
      </trkpt>
      <trkpt lat="45.2862" lon="6.55336">
        <ele>2491.68</ele>
        <time>2014-01-27T10:41:40Z</time>
      </trkpt>
      <trkpt lat="45.28602" lon="6.5532">
        <ele>2504.78</ele>
        <time>2014-01-27T10:41:46Z</time>
      </trkpt>
      <trkpt lat="45.28585" lon="6.55304">
        <ele>2517.17</ele>
        <time>2014-01-27T10:41:52Z</time>
      </trkpt>
      <trkpt lat="45.28569" lon="6.55289">
        <ele>2526.61</ele>
        <time>2014-01-27T10:41:58Z</time>
      </trkpt>
      <trkpt lat="45.28554" lon="6.55275">
        <ele>2535.06</ele>
        <time>2014-01-27T10:42:03Z</time>
      </trkpt>
      <trkpt lat="45.28536" lon="6.55259">
        <ele>2539.44</ele>
        <time>2014-01-27T10:42:09Z</time>
      </trkpt>
      <trkpt lat="45.28519" lon="6.55243">
        <ele>2541.54</ele>
        <time>2014-01-27T10:42:15Z</time>
      </trkpt>
      <trkpt lat="45.28502" lon="6.55227">
        <ele>2545.21</ele>
        <time>2014-01-27T10:42:20Z</time>
      </trkpt>
      <trkpt lat="45.28486" lon="6.55212">
        <ele>2550.7</ele>
        <time>2014-01-27T10:42:25Z</time>
      </trkpt>
      <trkpt lat="45.28468" lon="6.55196">
        <ele>2558.72</ele>
        <time>2014-01-27T10:42:31Z</time>
      </trkpt>
      <trkpt lat="45.2845" lon="6.55181">
        <ele>2569.63</ele>
        <time>2014-01-27T10:42:37Z</time>
      </trkpt>
      <trkpt lat="45.28433" lon="6.55164">
        <ele>2580.85</ele>
        <time>2014-01-27T10:42:43Z</time>
      </trkpt>
      <trkpt lat="45.28415" lon="6.55147">
        <ele>2590.28</ele>
        <time>2014-01-27T10:42:49Z</time>
      </trkpt>
      <trkpt lat="45.28397" lon="6.55131">
        <ele>2593.65</ele>
        <time>2014-01-27T10:42:55Z</time>
      </trkpt>
      <trkpt lat="45.2838" lon="6.55115">
        <ele>2598.36</ele>
        <time>2014-01-27T10:43:01Z</time>
      </trkpt>
      <trkpt lat="45.28364" lon="6.55101">
        <ele>2603.89</ele>
        <time>2014-01-27T10:43:06Z</time>
      </trkpt>
      <trkpt lat="45.28349" lon="6.55087">
        <ele>2611.18</ele>
        <time>2014-01-27T10:43:11Z</time>
      </trkpt>
      <trkpt lat="45.28331" lon="6.5507">
        <ele>2620.06</ele>
        <time>2014-01-27T10:43:17Z</time>
      </trkpt>
      <trkpt lat="45.28313" lon="6.55053">
        <ele>2628.76</ele>
        <time>2014-01-27T10:43:23Z</time>
      </trkpt>
      <trkpt lat="45.28297" lon="6.55038">
        <ele>2635.03</ele>
        <time>2014-01-27T10:43:28Z</time>
      </trkpt>
      <trkpt lat="45.2828" lon="6.55024">
        <ele>2642.23</ele>
        <time>2014-01-27T10:43:34Z</time>
      </trkpt>
      <trkpt lat="45.28264" lon="6.5501">
        <ele>2649.5</ele>
        <time>2014-01-27T10:43:40Z</time>
      </trkpt>
      <trkpt lat="45.28247" lon="6.54995">
        <ele>2657.31</ele>
        <time>2014-01-27T10:43:46Z</time>
      </trkpt>
      <trkpt lat="45.28231" lon="6.54978">
        <ele>2662.53</ele>
        <time>2014-01-27T10:43:50Z</time>
      </trkpt>
      <trkpt lat="45.28212" lon="6.5498">
        <ele>2669.57</ele>
        <time>2014-01-27T10:44:01Z</time>
      </trkpt>
      <trkpt lat="45.28212" lon="6.55007">
        <ele>2667.45</ele>
        <time>2014-01-27T10:44:36Z</time>
      </trkpt>
      <trkpt lat="45.28209" lon="6.55034">
        <ele>2665.49</ele>
        <time>2014-01-27T10:44:42Z</time>
      </trkpt>
      <trkpt lat="45.28213" lon="6.5506">
        <ele>2660.53</ele>
        <time>2014-01-27T10:44:46Z</time>
      </trkpt>
      <trkpt lat="45.28226" lon="6.55089">
        <ele>2652.71</ele>
        <time>2014-01-27T10:44:50Z</time>
      </trkpt>
      <trkpt lat="45.28232" lon="6.55123">
        <ele>2647.33</ele>
        <time>2014-01-27T10:44:53Z</time>
      </trkpt>
      <trkpt lat="45.28231" lon="6.55149">
        <ele>2647.13</ele>
        <time>2014-01-27T10:44:57Z</time>
      </trkpt>
      <trkpt lat="45.28251" lon="6.55133">
        <ele>2641.96</ele>
        <time>2014-01-27T10:45:25Z</time>
      </trkpt>
      <trkpt lat="45.28269" lon="6.55124">
        <ele>2638.03</ele>
        <time>2014-01-27T10:45:29Z</time>
      </trkpt>
      <trkpt lat="45.28287" lon="6.55139">
        <ele>2632.02</ele>
        <time>2014-01-27T10:45:33Z</time>
      </trkpt>
      <trkpt lat="45.28297" lon="6.55165">
        <ele>2624.48</ele>
        <time>2014-01-27T10:45:38Z</time>
      </trkpt>
      <trkpt lat="45.28308" lon="6.55189">
        <ele>2613.56</ele>
        <time>2014-01-27T10:45:42Z</time>
      </trkpt>
      <trkpt lat="45.2833" lon="6.5519">
        <ele>2606.02</ele>
        <time>2014-01-27T10:45:47Z</time>
      </trkpt>
      <trkpt lat="45.28326" lon="6.55218">
        <ele>2598.21</ele>
        <time>2014-01-27T10:45:55Z</time>
      </trkpt>
      <trkpt lat="45.28345" lon="6.55228">
        <ele>2590.86</ele>
        <time>2014-01-27T10:45:59Z</time>
      </trkpt>
      <trkpt lat="45.28337" lon="6.55254">
        <ele>2583.8</ele>
        <time>2014-01-27T10:46:06Z</time>
      </trkpt>
      <trkpt lat="45.28355" lon="6.5527">
        <ele>2577.8</ele>
        <time>2014-01-27T10:46:13Z</time>
      </trkpt>
      <trkpt lat="45.28347" lon="6.55299">
        <ele>2575.16</ele>
        <time>2014-01-27T10:46:17Z</time>
      </trkpt>
      <trkpt lat="45.28353" lon="6.55326">
        <ele>2572.76</ele>
        <time>2014-01-27T10:46:22Z</time>
      </trkpt>
      <trkpt lat="45.28371" lon="6.55312">
        <ele>2565.33</ele>
        <time>2014-01-27T10:46:26Z</time>
      </trkpt>
      <trkpt lat="45.28384" lon="6.55329">
        <ele>2555.96</ele>
        <time>2014-01-27T10:46:31Z</time>
      </trkpt>
      <trkpt lat="45.28402" lon="6.55336">
        <ele>2546.76</ele>
        <time>2014-01-27T10:46:36Z</time>
      </trkpt>
      <trkpt lat="45.28396" lon="6.55366">
        <ele>2545.22</ele>
        <time>2014-01-27T10:46:39Z</time>
      </trkpt>
      <trkpt lat="45.28418" lon="6.55366">
        <ele>2535.97</ele>
        <time>2014-01-27T10:46:43Z</time>
      </trkpt>
      <trkpt lat="45.28416" lon="6.55395">
        <ele>2532.11</ele>
        <time>2014-01-27T10:46:48Z</time>
      </trkpt>
      <trkpt lat="45.28421" lon="6.55424">
        <ele>2523.5</ele>
        <time>2014-01-27T10:46:53Z</time>
      </trkpt>
      <trkpt lat="45.28415" lon="6.5545">
        <ele>2515.14</ele>
        <time>2014-01-27T10:46:57Z</time>
      </trkpt>
      <trkpt lat="45.28431" lon="6.55469">
        <ele>2508.42</ele>
        <time>2014-01-27T10:47:15Z</time>
      </trkpt>
      <trkpt lat="45.28454" lon="6.55485">
        <ele>2501.35</ele>
        <time>2014-01-27T10:47:19Z</time>
      </trkpt>
      <trkpt lat="45.28472" lon="6.55493">
        <ele>2497.39</ele>
        <time>2014-01-27T10:47:22Z</time>
      </trkpt>
      <trkpt lat="45.28492" lon="6.55492">
        <ele>2494.55</ele>
        <time>2014-01-27T10:47:25Z</time>
      </trkpt>
      <trkpt lat="45.28512" lon="6.55504">
        <ele>2489.28</ele>
        <time>2014-01-27T10:47:29Z</time>
      </trkpt>
      <trkpt lat="45.28535" lon="6.55515">
        <ele>2483.87</ele>
        <time>2014-01-27T10:47:33Z</time>
      </trkpt>
      <trkpt lat="45.28554" lon="6.55523">
        <ele>2480.35</ele>
        <time>2014-01-27T10:47:36Z</time>
      </trkpt>
      <trkpt lat="45.28559" lon="6.55548">
        <ele>2470.59</ele>
        <time>2014-01-27T10:47:42Z</time>
      </trkpt>
      <trkpt lat="45.28543" lon="6.55562">
        <ele>2466.3</ele>
        <time>2014-01-27T10:47:45Z</time>
      </trkpt>
      <trkpt lat="45.28542" lon="6.55595">
        <ele>2454.16</ele>
        <time>2014-01-27T10:47:50Z</time>
      </trkpt>
      <trkpt lat="45.28527" lon="6.55615">
        <ele>2447.8</ele>
        <time>2014-01-27T10:47:52Z</time>
      </trkpt>
      <trkpt lat="45.28506" lon="6.55624">
        <ele>2445.91</ele>
        <time>2014-01-27T10:47:55Z</time>
      </trkpt>
      <trkpt lat="45.28501" lon="6.55653">
        <ele>2437.9</ele>
        <time>2014-01-27T10:47:59Z</time>
      </trkpt>
      <trkpt lat="45.28481" lon="6.55664">
        <ele>2438.8</ele>
        <time>2014-01-27T10:48:02Z</time>
      </trkpt>
      <trkpt lat="45.2846" lon="6.55676">
        <ele>2435.15</ele>
        <time>2014-01-27T10:48:05Z</time>
      </trkpt>
      <trkpt lat="45.28444" lon="6.55686">
        <ele>2431.46</ele>
        <time>2014-01-27T10:48:07Z</time>
      </trkpt>
      <trkpt lat="45.28424" lon="6.55698">
        <ele>2427.31</ele>
        <time>2014-01-27T10:48:10Z</time>
      </trkpt>
      <trkpt lat="45.28402" lon="6.55709">
        <ele>2423.83</ele>
        <time>2014-01-27T10:48:14Z</time>
      </trkpt>
      <trkpt lat="45.28384" lon="6.55719">
        <ele>2420.53</ele>
        <time>2014-01-27T10:48:18Z</time>
      </trkpt>
      <trkpt lat="45.28368" lon="6.55729">
        <ele>2420.32</ele>
        <time>2014-01-27T10:48:21Z</time>
      </trkpt>
      <trkpt lat="45.28348" lon="6.55741">
        <ele>2420.4</ele>
        <time>2014-01-27T10:48:24Z</time>
      </trkpt>
      <trkpt lat="45.28334" lon="6.5576">
        <ele>2418.09</ele>
        <time>2014-01-27T10:48:27Z</time>
      </trkpt>
      <trkpt lat="45.28319" lon="6.55781">
        <ele>2411.3</ele>
        <time>2014-01-27T10:48:30Z</time>
      </trkpt>
      <trkpt lat="45.28299" lon="6.55799">
        <ele>2406.69</ele>
        <time>2014-01-27T10:48:34Z</time>
      </trkpt>
      <trkpt lat="45.28282" lon="6.55813">
        <ele>2406.24</ele>
        <time>2014-01-27T10:48:38Z</time>
      </trkpt>
      <trkpt lat="45.28267" lon="6.55831">
        <ele>2406.56</ele>
        <time>2014-01-27T10:48:42Z</time>
      </trkpt>
      <trkpt lat="45.28253" lon="6.55853">
        <ele>2403.46</ele>
        <time>2014-01-27T10:48:46Z</time>
      </trkpt>
      <trkpt lat="45.28238" lon="6.55876">
        <ele>2395.77</ele>
        <time>2014-01-27T10:48:50Z</time>
      </trkpt>
      <trkpt lat="45.28228" lon="6.55899">
        <ele>2388.41</ele>
        <time>2014-01-27T10:48:53Z</time>
      </trkpt>
      <trkpt lat="45.28212" lon="6.5591">
        <ele>2384.73</ele>
        <time>2014-01-27T10:48:56Z</time>
      </trkpt>
      <trkpt lat="45.28198" lon="6.5593">
        <ele>2378.72</ele>
        <time>2014-01-27T10:48:59Z</time>
      </trkpt>
      <trkpt lat="45.28185" lon="6.55952">
        <ele>2372.92</ele>
        <time>2014-01-27T10:49:02Z</time>
      </trkpt>
      <trkpt lat="45.28163" lon="6.55965">
        <ele>2369.15</ele>
        <time>2014-01-27T10:49:06Z</time>
      </trkpt>
      <trkpt lat="45.28142" lon="6.55974">
        <ele>2364.42</ele>
        <time>2014-01-27T10:49:09Z</time>
      </trkpt>
      <trkpt lat="45.2812" lon="6.55979">
        <ele>2361.91</ele>
        <time>2014-01-27T10:49:12Z</time>
      </trkpt>
      <trkpt lat="45.28099" lon="6.55979">
        <ele>2359.58</ele>
        <time>2014-01-27T10:49:15Z</time>
      </trkpt>
      <trkpt lat="45.28079" lon="6.55979">
        <ele>2356.41</ele>
        <time>2014-01-27T10:49:18Z</time>
      </trkpt>
      <trkpt lat="45.2806" lon="6.55979">
        <ele>2356.03</ele>
        <time>2014-01-27T10:49:21Z</time>
      </trkpt>
      <trkpt lat="45.28037" lon="6.55981">
        <ele>2357.15</ele>
        <time>2014-01-27T10:49:24Z</time>
      </trkpt>
      <trkpt lat="45.28014" lon="6.55987">
        <ele>2357.4</ele>
        <time>2014-01-27T10:49:27Z</time>
      </trkpt>
      <trkpt lat="45.27997" lon="6.56">
        <ele>2355.3</ele>
        <time>2014-01-27T10:49:30Z</time>
      </trkpt>
      <trkpt lat="45.27981" lon="6.56011">
        <ele>2353.95</ele>
        <time>2014-01-27T10:49:33Z</time>
      </trkpt>
      <trkpt lat="45.27966" lon="6.56027">
        <ele>2352.04</ele>
        <time>2014-01-27T10:49:37Z</time>
      </trkpt>
      <trkpt lat="45.27969" lon="6.56055">
        <ele>2347.58</ele>
        <time>2014-01-27T10:49:40Z</time>
      </trkpt>
      <trkpt lat="45.27976" lon="6.56079">
        <ele>2342.89</ele>
        <time>2014-01-27T10:49:42Z</time>
      </trkpt>
      <trkpt lat="45.27982" lon="6.56103">
        <ele>2338.99</ele>
        <time>2014-01-27T10:49:44Z</time>
      </trkpt>
      <trkpt lat="45.27994" lon="6.56133">
        <ele>2334.6</ele>
        <time>2014-01-27T10:49:47Z</time>
      </trkpt>
      <trkpt lat="45.28006" lon="6.56156">
        <ele>2331.23</ele>
        <time>2014-01-27T10:49:50Z</time>
      </trkpt>
      <trkpt lat="45.28019" lon="6.56176">
        <ele>2328.42</ele>
        <time>2014-01-27T10:49:53Z</time>
      </trkpt>
      <trkpt lat="45.28032" lon="6.562">
        <ele>2325.45</ele>
        <time>2014-01-27T10:49:57Z</time>
      </trkpt>
      <trkpt lat="45.28041" lon="6.56224">
        <ele>2322.16</ele>
        <time>2014-01-27T10:50:01Z</time>
      </trkpt>
      <trkpt lat="45.2806" lon="6.56244">
        <ele>2318.19</ele>
        <time>2014-01-27T10:51:04Z</time>
      </trkpt>
      <trkpt lat="45.28076" lon="6.5626">
        <ele>2316.42</ele>
        <time>2014-01-27T10:52:04Z</time>
      </trkpt>
      <trkpt lat="45.28058" lon="6.56259">
        <ele>2318.74</ele>
        <time>2014-01-27T10:55:07Z</time>
      </trkpt>
      <trkpt lat="45.2641" lon="6.56032">
        <ele>3172.59</ele>
        <time>2014-01-27T11:06:16Z</time>
      </trkpt>
      <trkpt lat="45.26392" lon="6.5603">
        <ele>3176.7</ele>
        <time>2014-01-27T11:06:43Z</time>
      </trkpt>
      <trkpt lat="45.26374" lon="6.56032">
        <ele>3177.55</ele>
        <time>2014-01-27T11:06:57Z</time>
      </trkpt>
      <trkpt lat="45.26358" lon="6.56044">
        <ele>3178.72</ele>
        <time>2014-01-27T11:07:26Z</time>
      </trkpt>
      <trkpt lat="45.26345" lon="6.56024">
        <ele>3174.14</ele>
        <time>2014-01-27T11:09:37Z</time>
      </trkpt>
      <trkpt lat="45.26355" lon="6.55996">
        <ele>3171</ele>
        <time>2014-01-27T11:09:41Z</time>
      </trkpt>
      <trkpt lat="45.2636" lon="6.55971">
        <ele>3165.55</ele>
        <time>2014-01-27T11:09:46Z</time>
      </trkpt>
      <trkpt lat="45.2638" lon="6.55965">
        <ele>3163.71</ele>
        <time>2014-01-27T11:11:57Z</time>
      </trkpt>
      <trkpt lat="45.26398" lon="6.5595">
        <ele>3158.87</ele>
        <time>2014-01-27T11:12:07Z</time>
      </trkpt>
      <trkpt lat="45.2642" lon="6.55943">
        <ele>3156.62</ele>
        <time>2014-01-27T11:12:11Z</time>
      </trkpt>
      <trkpt lat="45.26418" lon="6.55914">
        <ele>3147.51</ele>
        <time>2014-01-27T11:12:17Z</time>
      </trkpt>
      <trkpt lat="45.26406" lon="6.55889">
        <ele>3138.9</ele>
        <time>2014-01-27T11:12:21Z</time>
      </trkpt>
      <trkpt lat="45.26387" lon="6.55871">
        <ele>3130.85</ele>
        <time>2014-01-27T11:12:25Z</time>
      </trkpt>
      <trkpt lat="45.26365" lon="6.55866">
        <ele>3125.32</ele>
        <time>2014-01-27T11:12:29Z</time>
      </trkpt>
      <trkpt lat="45.26349" lon="6.55853">
        <ele>3120.67</ele>
        <time>2014-01-27T11:12:32Z</time>
      </trkpt>
      <trkpt lat="45.26337" lon="6.55832">
        <ele>3113.83</ele>
        <time>2014-01-27T11:12:35Z</time>
      </trkpt>
      <trkpt lat="45.26321" lon="6.55805">
        <ele>3106.54</ele>
        <time>2014-01-27T11:12:38Z</time>
      </trkpt>
      <trkpt lat="45.26302" lon="6.55778">
        <ele>3100.12</ele>
        <time>2014-01-27T11:12:41Z</time>
      </trkpt>
      <trkpt lat="45.26287" lon="6.55752">
        <ele>3097.26</ele>
        <time>2014-01-27T11:12:44Z</time>
      </trkpt>
      <trkpt lat="45.26273" lon="6.55726">
        <ele>3095.43</ele>
        <time>2014-01-27T11:12:47Z</time>
      </trkpt>
      <trkpt lat="45.26264" lon="6.55692">
        <ele>3093.36</ele>
        <time>2014-01-27T11:12:50Z</time>
      </trkpt>
      <trkpt lat="45.26255" lon="6.55661">
        <ele>3092.16</ele>
        <time>2014-01-27T11:12:53Z</time>
      </trkpt>
      <trkpt lat="45.26249" lon="6.55637">
        <ele>3092.03</ele>
        <time>2014-01-27T11:12:56Z</time>
      </trkpt>
      <trkpt lat="45.26245" lon="6.55611">
        <ele>3091.07</ele>
        <time>2014-01-27T11:13:00Z</time>
      </trkpt>
      <trkpt lat="45.26242" lon="6.55584">
        <ele>3087.7</ele>
        <time>2014-01-27T11:13:03Z</time>
      </trkpt>
      <trkpt lat="45.26242" lon="6.55557">
        <ele>3083.92</ele>
        <time>2014-01-27T11:13:06Z</time>
      </trkpt>
      <trkpt lat="45.26246" lon="6.55527">
        <ele>3079.96</ele>
        <time>2014-01-27T11:13:10Z</time>
      </trkpt>
      <trkpt lat="45.26255" lon="6.555">
        <ele>3075.01</ele>
        <time>2014-01-27T11:13:15Z</time>
      </trkpt>
      <trkpt lat="45.26267" lon="6.55481">
        <ele>3068.9</ele>
        <time>2014-01-27T11:13:19Z</time>
      </trkpt>
      <trkpt lat="45.26289" lon="6.55472">
        <ele>3063.69</ele>
        <time>2014-01-27T11:13:24Z</time>
      </trkpt>
      <trkpt lat="45.26308" lon="6.55455">
        <ele>3059.04</ele>
        <time>2014-01-27T11:13:28Z</time>
      </trkpt>
      <trkpt lat="45.26325" lon="6.55446">
        <ele>3053.78</ele>
        <time>2014-01-27T11:13:32Z</time>
      </trkpt>
      <trkpt lat="45.26344" lon="6.55436">
        <ele>3046.74</ele>
        <time>2014-01-27T11:13:37Z</time>
      </trkpt>
      <trkpt lat="45.26363" lon="6.55429">
        <ele>3040.98</ele>
        <time>2014-01-27T11:13:42Z</time>
      </trkpt>
      <trkpt lat="45.26384" lon="6.55429">
        <ele>3032.98</ele>
        <time>2014-01-27T11:13:53Z</time>
      </trkpt>
      <trkpt lat="45.26403" lon="6.55432">
        <ele>3027.33</ele>
        <time>2014-01-27T11:13:58Z</time>
      </trkpt>
      <trkpt lat="45.26423" lon="6.55436">
        <ele>3022.17</ele>
        <time>2014-01-27T11:14:19Z</time>
      </trkpt>
      <trkpt lat="45.26442" lon="6.55449">
        <ele>3019.1</ele>
        <time>2014-01-27T11:14:25Z</time>
      </trkpt>
      <trkpt lat="45.26461" lon="6.55456">
        <ele>3016.66</ele>
        <time>2014-01-27T11:14:30Z</time>
      </trkpt>
      <trkpt lat="45.26479" lon="6.55461">
        <ele>3014.31</ele>
        <time>2014-01-27T11:14:34Z</time>
      </trkpt>
      <trkpt lat="45.265" lon="6.55467">
        <ele>3011.23</ele>
        <time>2014-01-27T11:14:38Z</time>
      </trkpt>
      <trkpt lat="45.26523" lon="6.55477">
        <ele>3011.16</ele>
        <time>2014-01-27T11:14:42Z</time>
      </trkpt>
      <trkpt lat="45.26543" lon="6.55487">
        <ele>3010.68</ele>
        <time>2014-01-27T11:14:45Z</time>
      </trkpt>
      <trkpt lat="45.26563" lon="6.555">
        <ele>3008.92</ele>
        <time>2014-01-27T11:14:48Z</time>
      </trkpt>
      <trkpt lat="45.26584" lon="6.55513">
        <ele>3005.94</ele>
        <time>2014-01-27T11:14:52Z</time>
      </trkpt>
      <trkpt lat="45.26606" lon="6.55524">
        <ele>3002.29</ele>
        <time>2014-01-27T11:14:55Z</time>
      </trkpt>
      <trkpt lat="45.26625" lon="6.55527">
        <ele>2999.77</ele>
        <time>2014-01-27T11:14:58Z</time>
      </trkpt>
      <trkpt lat="45.26644" lon="6.55525">
        <ele>2996.32</ele>
        <time>2014-01-27T11:15:01Z</time>
      </trkpt>
      <trkpt lat="45.26667" lon="6.55521">
        <ele>2991.05</ele>
        <time>2014-01-27T11:15:05Z</time>
      </trkpt>
      <trkpt lat="45.26686" lon="6.55518">
        <ele>2988.25</ele>
        <time>2014-01-27T11:15:09Z</time>
      </trkpt>
      <trkpt lat="45.26705" lon="6.55514">
        <ele>2986.65</ele>
        <time>2014-01-27T11:15:15Z</time>
      </trkpt>
      <trkpt lat="45.26726" lon="6.55519">
        <ele>2986.38</ele>
        <time>2014-01-27T11:15:22Z</time>
      </trkpt>
      <trkpt lat="45.26745" lon="6.55525">
        <ele>2986.77</ele>
        <time>2014-01-27T11:15:29Z</time>
      </trkpt>
      <trkpt lat="45.26766" lon="6.55526">
        <ele>2985.72</ele>
        <time>2014-01-27T11:15:34Z</time>
      </trkpt>
      <trkpt lat="45.26785" lon="6.5554">
        <ele>2984.85</ele>
        <time>2014-01-27T11:15:39Z</time>
      </trkpt>
      <trkpt lat="45.26798" lon="6.55559">
        <ele>2983.28</ele>
        <time>2014-01-27T11:15:44Z</time>
      </trkpt>
      <trkpt lat="45.26805" lon="6.55583">
        <ele>2982.26</ele>
        <time>2014-01-27T11:15:51Z</time>
      </trkpt>
      <trkpt lat="45.26808" lon="6.5561">
        <ele>2981.84</ele>
        <time>2014-01-27T11:15:56Z</time>
      </trkpt>
      <trkpt lat="45.26827" lon="6.55615">
        <ele>2956.93</ele>
        <time>2014-01-27T11:16:08Z</time>
      </trkpt>
      <trkpt lat="45.26848" lon="6.55615">
        <ele>2938.9</ele>
        <time>2014-01-27T11:16:18Z</time>
      </trkpt>
      <trkpt lat="45.26858" lon="6.55591">
        <ele>2930.89</ele>
        <time>2014-01-27T11:16:24Z</time>
      </trkpt>
      <trkpt lat="45.2686" lon="6.55561">
        <ele>2928.18</ele>
        <time>2014-01-27T11:16:28Z</time>
      </trkpt>
      <trkpt lat="45.26883" lon="6.55567">
        <ele>2911.2</ele>
        <time>2014-01-27T11:16:35Z</time>
      </trkpt>
      <trkpt lat="45.26901" lon="6.55556">
        <ele>2898.6</ele>
        <time>2014-01-27T11:16:41Z</time>
      </trkpt>
      <trkpt lat="45.26921" lon="6.55552">
        <ele>2886.56</ele>
        <time>2014-01-27T11:17:39Z</time>
      </trkpt>
      <trkpt lat="45.26932" lon="6.55531">
        <ele>2877.61</ele>
        <time>2014-01-27T11:17:44Z</time>
      </trkpt>
      <trkpt lat="45.26932" lon="6.55497">
        <ele>2873.83</ele>
        <time>2014-01-27T11:17:50Z</time>
      </trkpt>
      <trkpt lat="45.26943" lon="6.55472">
        <ele>2866.83</ele>
        <time>2014-01-27T11:17:57Z</time>
      </trkpt>
      <trkpt lat="45.26954" lon="6.55447">
        <ele>2861.75</ele>
        <time>2014-01-27T11:18:03Z</time>
      </trkpt>
      <trkpt lat="45.2697" lon="6.55428">
        <ele>2855.32</ele>
        <time>2014-01-27T11:18:09Z</time>
      </trkpt>
      <trkpt lat="45.26983" lon="6.55404">
        <ele>2848.8</ele>
        <time>2014-01-27T11:18:14Z</time>
      </trkpt>
      <trkpt lat="45.27" lon="6.55393">
        <ele>2838.93</ele>
        <time>2014-01-27T11:18:17Z</time>
      </trkpt>
      <trkpt lat="45.27018" lon="6.55388">
        <ele>2828.61</ele>
        <time>2014-01-27T11:18:20Z</time>
      </trkpt>
      <trkpt lat="45.27041" lon="6.5539">
        <ele>2817.68</ele>
        <time>2014-01-27T11:18:23Z</time>
      </trkpt>
      <trkpt lat="45.27061" lon="6.55387">
        <ele>2809.74</ele>
        <time>2014-01-27T11:18:26Z</time>
      </trkpt>
      <trkpt lat="45.27081" lon="6.55391">
        <ele>2805.87</ele>
        <time>2014-01-27T11:18:29Z</time>
      </trkpt>
      <trkpt lat="45.27097" lon="6.55376">
        <ele>2800.71</ele>
        <time>2014-01-27T11:18:32Z</time>
      </trkpt>
      <trkpt lat="45.27114" lon="6.55363">
        <ele>2794.36</ele>
        <time>2014-01-27T11:18:35Z</time>
      </trkpt>
      <trkpt lat="45.27133" lon="6.55356">
        <ele>2786.98</ele>
        <time>2014-01-27T11:18:38Z</time>
      </trkpt>
      <trkpt lat="45.27151" lon="6.55345">
        <ele>2782.14</ele>
        <time>2014-01-27T11:18:41Z</time>
      </trkpt>
      <trkpt lat="45.27162" lon="6.55322">
        <ele>2778.52</ele>
        <time>2014-01-27T11:18:44Z</time>
      </trkpt>
      <trkpt lat="45.27174" lon="6.55296">
        <ele>2776.12</ele>
        <time>2014-01-27T11:18:47Z</time>
      </trkpt>
      <trkpt lat="45.27186" lon="6.55274">
        <ele>2774.94</ele>
        <time>2014-01-27T11:18:50Z</time>
      </trkpt>
      <trkpt lat="45.27198" lon="6.55253">
        <ele>2775.65</ele>
        <time>2014-01-27T11:18:56Z</time>
      </trkpt>
      <trkpt lat="45.27217" lon="6.5524">
        <ele>2776.21</ele>
        <time>2014-01-27T11:20:06Z</time>
      </trkpt>
      <trkpt lat="45.2724" lon="6.55238">
        <ele>2771.12</ele>
        <time>2014-01-27T11:20:10Z</time>
      </trkpt>
      <trkpt lat="45.27264" lon="6.5524">
        <ele>2763.75</ele>
        <time>2014-01-27T11:20:14Z</time>
      </trkpt>
      <trkpt lat="45.27283" lon="6.5524">
        <ele>2758.36</ele>
        <time>2014-01-27T11:20:17Z</time>
      </trkpt>
      <trkpt lat="45.27302" lon="6.55241">
        <ele>2753.82</ele>
        <time>2014-01-27T11:20:21Z</time>
      </trkpt>
      <trkpt lat="45.27326" lon="6.55246">
        <ele>2747.26</ele>
        <time>2014-01-27T11:20:25Z</time>
      </trkpt>
      <trkpt lat="45.27346" lon="6.55246">
        <ele>2742.32</ele>
        <time>2014-01-27T11:20:29Z</time>
      </trkpt>
      <trkpt lat="45.27362" lon="6.55262">
        <ele>2734.21</ele>
        <time>2014-01-27T11:20:47Z</time>
      </trkpt>
      <trkpt lat="45.27372" lon="6.55283">
        <ele>2725.9</ele>
        <time>2014-01-27T11:20:54Z</time>
      </trkpt>
      <trkpt lat="45.27365" lon="6.55309">
        <ele>2724.72</ele>
        <time>2014-01-27T11:20:59Z</time>
      </trkpt>
      <trkpt lat="45.27376" lon="6.55331">
        <ele>2716.49</ele>
        <time>2014-01-27T11:21:04Z</time>
      </trkpt>
      <trkpt lat="45.2739" lon="6.55351">
        <ele>2708.57</ele>
        <time>2014-01-27T11:21:08Z</time>
      </trkpt>
      <trkpt lat="45.2741" lon="6.55366">
        <ele>2695.57</ele>
        <time>2014-01-27T11:21:12Z</time>
      </trkpt>
      <trkpt lat="45.27429" lon="6.55381">
        <ele>2684.92</ele>
        <time>2014-01-27T11:21:16Z</time>
      </trkpt>
      <trkpt lat="45.27445" lon="6.55399">
        <ele>2674.92</ele>
        <time>2014-01-27T11:21:20Z</time>
      </trkpt>
      <trkpt lat="45.27466" lon="6.55413">
        <ele>2665.21</ele>
        <time>2014-01-27T11:21:24Z</time>
      </trkpt>
      <trkpt lat="45.27483" lon="6.55425">
        <ele>2657.76</ele>
        <time>2014-01-27T11:21:28Z</time>
      </trkpt>
      <trkpt lat="45.27495" lon="6.55446">
        <ele>2651.5</ele>
        <time>2014-01-27T11:21:34Z</time>
      </trkpt>
      <trkpt lat="45.27513" lon="6.55461">
        <ele>2645.66</ele>
        <time>2014-01-27T11:22:44Z</time>
      </trkpt>
      <trkpt lat="45.27528" lon="6.5548">
        <ele>2638.38</ele>
        <time>2014-01-27T11:22:49Z</time>
      </trkpt>
      <trkpt lat="45.2754" lon="6.555">
        <ele>2630.49</ele>
        <time>2014-01-27T11:22:54Z</time>
      </trkpt>
      <trkpt lat="45.27559" lon="6.55515">
        <ele>2621.09</ele>
        <time>2014-01-27T11:23:06Z</time>
      </trkpt>
      <trkpt lat="45.27577" lon="6.55512">
        <ele>2613.71</ele>
        <time>2014-01-27T11:23:11Z</time>
      </trkpt>
      <trkpt lat="45.27597" lon="6.55517">
        <ele>2604.76</ele>
        <time>2014-01-27T11:23:18Z</time>
      </trkpt>
      <trkpt lat="45.27596" lon="6.55543">
        <ele>2598.59</ele>
        <time>2014-01-27T11:23:25Z</time>
      </trkpt>
      <trkpt lat="45.27606" lon="6.55566">
        <ele>2588.22</ele>
        <time>2014-01-27T11:23:29Z</time>
      </trkpt>
      <trkpt lat="45.27618" lon="6.55592">
        <ele>2575.22</ele>
        <time>2014-01-27T11:23:33Z</time>
      </trkpt>
      <trkpt lat="45.27631" lon="6.55612">
        <ele>2567.21</ele>
        <time>2014-01-27T11:23:37Z</time>
      </trkpt>
      <trkpt lat="45.27645" lon="6.55639">
        <ele>2557.92</ele>
        <time>2014-01-27T11:23:41Z</time>
      </trkpt>
      <trkpt lat="45.27665" lon="6.55643">
        <ele>2550.82</ele>
        <time>2014-01-27T11:25:08Z</time>
      </trkpt>
      <trkpt lat="45.27684" lon="6.55659">
        <ele>2544.81</ele>
        <time>2014-01-27T11:25:12Z</time>
      </trkpt>
      <trkpt lat="45.27705" lon="6.55668">
        <ele>2538.32</ele>
        <time>2014-01-27T11:25:16Z</time>
      </trkpt>
      <trkpt lat="45.27727" lon="6.55677">
        <ele>2530.57</ele>
        <time>2014-01-27T11:25:21Z</time>
      </trkpt>
      <trkpt lat="45.27746" lon="6.55686">
        <ele>2522.16</ele>
        <time>2014-01-27T11:25:26Z</time>
      </trkpt>
      <trkpt lat="45.27764" lon="6.55691">
        <ele>2515.18</ele>
        <time>2014-01-27T11:25:32Z</time>
      </trkpt>
      <trkpt lat="45.27784" lon="6.55704">
        <ele>2504.8</ele>
        <time>2014-01-27T11:25:38Z</time>
      </trkpt>
      <trkpt lat="45.27803" lon="6.55712">
        <ele>2492.75</ele>
        <time>2014-01-27T11:25:43Z</time>
      </trkpt>
      <trkpt lat="45.27821" lon="6.55722">
        <ele>2483.69</ele>
        <time>2014-01-27T11:25:49Z</time>
      </trkpt>
      <trkpt lat="45.27839" lon="6.55735">
        <ele>2474.97</ele>
        <time>2014-01-27T11:25:55Z</time>
      </trkpt>
      <trkpt lat="45.27852" lon="6.55754">
        <ele>2468.67</ele>
        <time>2014-01-27T11:26:27Z</time>
      </trkpt>
      <trkpt lat="45.27859" lon="6.55779">
        <ele>2462.09</ele>
        <time>2014-01-27T11:26:37Z</time>
      </trkpt>
      <trkpt lat="45.27856" lon="6.55809">
        <ele>2452.63</ele>
        <time>2014-01-27T11:26:42Z</time>
      </trkpt>
      <trkpt lat="45.2785" lon="6.55839">
        <ele>2448.26</ele>
        <time>2014-01-27T11:26:47Z</time>
      </trkpt>
      <trkpt lat="45.27846" lon="6.55868">
        <ele>2439.53</ele>
        <time>2014-01-27T11:26:58Z</time>
      </trkpt>
      <trkpt lat="45.27849" lon="6.55894">
        <ele>2429.26</ele>
        <time>2014-01-27T11:27:03Z</time>
      </trkpt>
      <trkpt lat="45.27844" lon="6.55922">
        <ele>2420.88</ele>
        <time>2014-01-27T11:27:09Z</time>
      </trkpt>
      <trkpt lat="45.27842" lon="6.5595">
        <ele>2413.04</ele>
        <time>2014-01-27T11:27:14Z</time>
      </trkpt>
      <trkpt lat="45.27849" lon="6.55974">
        <ele>2404.12</ele>
        <time>2014-01-27T11:27:22Z</time>
      </trkpt>
      <trkpt lat="45.2784" lon="6.56003">
        <ele>2396.73</ele>
        <time>2014-01-27T11:27:26Z</time>
      </trkpt>
      <trkpt lat="45.27854" lon="6.56022">
        <ele>2386.69</ele>
        <time>2014-01-27T11:27:30Z</time>
      </trkpt>
      <trkpt lat="45.27868" lon="6.56039">
        <ele>2377.08</ele>
        <time>2014-01-27T11:27:33Z</time>
      </trkpt>
      <trkpt lat="45.27888" lon="6.56041">
        <ele>2369.81</ele>
        <time>2014-01-27T11:27:36Z</time>
      </trkpt>
      <trkpt lat="45.27901" lon="6.56065">
        <ele>2362.22</ele>
        <time>2014-01-27T11:27:39Z</time>
      </trkpt>
      <trkpt lat="45.27918" lon="6.56081">
        <ele>2355.85</ele>
        <time>2014-01-27T11:27:42Z</time>
      </trkpt>
      <trkpt lat="45.2793" lon="6.56101">
        <ele>2350.96</ele>
        <time>2014-01-27T11:27:45Z</time>
      </trkpt>
      <trkpt lat="45.27945" lon="6.56125">
        <ele>2346.31</ele>
        <time>2014-01-27T11:27:48Z</time>
      </trkpt>
      <trkpt lat="45.27961" lon="6.56151">
        <ele>2343.87</ele>
        <time>2014-01-27T11:27:51Z</time>
      </trkpt>
      <trkpt lat="45.2798" lon="6.56163">
        <ele>2338.78</ele>
        <time>2014-01-27T11:27:54Z</time>
      </trkpt>
      <trkpt lat="45.27995" lon="6.56181">
        <ele>2334.64</ele>
        <time>2014-01-27T11:27:57Z</time>
      </trkpt>
      <trkpt lat="45.28017" lon="6.5619">
        <ele>2329.58</ele>
        <time>2014-01-27T11:28:01Z</time>
      </trkpt>
      <trkpt lat="45.28028" lon="6.5621">
        <ele>2325.78</ele>
        <time>2014-01-27T11:28:05Z</time>
      </trkpt>
      <trkpt lat="45.28043" lon="6.56231">
        <ele>2321.67</ele>
        <time>2014-01-27T11:28:11Z</time>
      </trkpt>
      <trkpt lat="45.28063" lon="6.56252">
        <ele>2317.75</ele>
        <time>2014-01-27T11:32:31Z</time>
      </trkpt>
      <trkpt lat="45.28045" lon="6.56254">
        <ele>2321.34</ele>
        <time>2014-01-27T11:40:28Z</time>
      </trkpt>
      <trkpt lat="45.28027" lon="6.56252">
        <ele>2325.31</ele>
        <time>2014-01-27T11:40:38Z</time>
      </trkpt>
      <trkpt lat="45.28009" lon="6.5625">
        <ele>2330.56</ele>
        <time>2014-01-27T11:40:43Z</time>
      </trkpt>
      <trkpt lat="45.27986" lon="6.56246">
        <ele>2338.58</ele>
        <time>2014-01-27T11:40:48Z</time>
      </trkpt>
      <trkpt lat="45.27963" lon="6.56244">
        <ele>2346.9</ele>
        <time>2014-01-27T11:40:52Z</time>
      </trkpt>
      <trkpt lat="45.27941" lon="6.56243">
        <ele>2353.81</ele>
        <time>2014-01-27T11:40:55Z</time>
      </trkpt>
      <trkpt lat="45.2792" lon="6.5624">
        <ele>2359.17</ele>
        <time>2014-01-27T11:40:58Z</time>
      </trkpt>
      <trkpt lat="45.27899" lon="6.56236">
        <ele>2364.86</ele>
        <time>2014-01-27T11:41:01Z</time>
      </trkpt>
      <trkpt lat="45.27878" lon="6.56229">
        <ele>2370.03</ele>
        <time>2014-01-27T11:41:04Z</time>
      </trkpt>
      <trkpt lat="45.27858" lon="6.56223">
        <ele>2375.44</ele>
        <time>2014-01-27T11:41:07Z</time>
      </trkpt>
      <trkpt lat="45.27839" lon="6.56219">
        <ele>2381.63</ele>
        <time>2014-01-27T11:41:09Z</time>
      </trkpt>
      <trkpt lat="45.27817" lon="6.56216">
        <ele>2391.11</ele>
        <time>2014-01-27T11:41:12Z</time>
      </trkpt>
      <trkpt lat="45.27794" lon="6.56219">
        <ele>2403.37</ele>
        <time>2014-01-27T11:41:15Z</time>
      </trkpt>
      <trkpt lat="45.27774" lon="6.56219">
        <ele>2414.53</ele>
        <time>2014-01-27T11:41:17Z</time>
      </trkpt>
      <trkpt lat="45.27752" lon="6.56215">
        <ele>2425.23</ele>
        <time>2014-01-27T11:41:20Z</time>
      </trkpt>
      <trkpt lat="45.27734" lon="6.56211">
        <ele>2433.33</ele>
        <time>2014-01-27T11:41:22Z</time>
      </trkpt>
      <trkpt lat="45.27708" lon="6.56207">
        <ele>2443.51</ele>
        <time>2014-01-27T11:41:24Z</time>
      </trkpt>
      <trkpt lat="45.27686" lon="6.56203">
        <ele>2452.97</ele>
        <time>2014-01-27T11:41:26Z</time>
      </trkpt>
      <trkpt lat="45.27658" lon="6.562">
        <ele>2469.47</ele>
        <time>2014-01-27T11:41:29Z</time>
      </trkpt>
      <trkpt lat="45.27633" lon="6.56197">
        <ele>2484.87</ele>
        <time>2014-01-27T11:41:32Z</time>
      </trkpt>
      <trkpt lat="45.27602" lon="6.56193">
        <ele>2504.3</ele>
        <time>2014-01-27T11:41:35Z</time>
      </trkpt>
      <trkpt lat="45.27582" lon="6.56191">
        <ele>2525.01</ele>
        <time>2014-01-27T11:41:37Z</time>
      </trkpt>
      <trkpt lat="45.27562" lon="6.5619">
        <ele>2567.38</ele>
        <time>2014-01-27T11:41:39Z</time>
      </trkpt>
      <trkpt lat="45.2754" lon="6.56186">
        <ele>2582.15</ele>
        <time>2014-01-27T11:41:42Z</time>
      </trkpt>
      <trkpt lat="45.27518" lon="6.56183">
        <ele>2582.75</ele>
        <time>2014-01-27T11:41:46Z</time>
      </trkpt>
      <trkpt lat="45.27498" lon="6.5618">
        <ele>2582.27</ele>
        <time>2014-01-27T11:41:48Z</time>
      </trkpt>
      <trkpt lat="45.27479" lon="6.56177">
        <ele>2582.46</ele>
        <time>2014-01-27T11:41:50Z</time>
      </trkpt>
      <trkpt lat="45.27455" lon="6.56173">
        <ele>2580.24</ele>
        <time>2014-01-27T11:41:52Z</time>
      </trkpt>
      <trkpt lat="45.27431" lon="6.5617">
        <ele>2581.91</ele>
        <time>2014-01-27T11:41:54Z</time>
      </trkpt>
      <trkpt lat="45.27399" lon="6.56167">
        <ele>2593.22</ele>
        <time>2014-01-27T11:41:56Z</time>
      </trkpt>
      <trkpt lat="45.27376" lon="6.56167">
        <ele>2601.76</ele>
        <time>2014-01-27T11:41:58Z</time>
      </trkpt>
      <trkpt lat="45.27351" lon="6.56164">
        <ele>2610.12</ele>
        <time>2014-01-27T11:42:01Z</time>
      </trkpt>
      <trkpt lat="45.27332" lon="6.56161">
        <ele>2619.1</ele>
        <time>2014-01-27T11:42:03Z</time>
      </trkpt>
      <trkpt lat="45.27307" lon="6.5616">
        <ele>2629.43</ele>
        <time>2014-01-27T11:42:05Z</time>
      </trkpt>
      <trkpt lat="45.27281" lon="6.5616">
        <ele>2643.34</ele>
        <time>2014-01-27T11:42:07Z</time>
      </trkpt>
      <trkpt lat="45.27258" lon="6.5616">
        <ele>2653.51</ele>
        <time>2014-01-27T11:42:09Z</time>
      </trkpt>
      <trkpt lat="45.27235" lon="6.5616">
        <ele>2662.43</ele>
        <time>2014-01-27T11:42:11Z</time>
      </trkpt>
      <trkpt lat="45.27213" lon="6.56161">
        <ele>2672.22</ele>
        <time>2014-01-27T11:42:13Z</time>
      </trkpt>
      <trkpt lat="45.27192" lon="6.56161">
        <ele>2682.45</ele>
        <time>2014-01-27T11:42:15Z</time>
      </trkpt>
      <trkpt lat="45.27171" lon="6.56161">
        <ele>2694.01</ele>
        <time>2014-01-27T11:42:17Z</time>
      </trkpt>
      <trkpt lat="45.27153" lon="6.56161">
        <ele>2703.43</ele>
        <time>2014-01-27T11:42:19Z</time>
      </trkpt>
      <trkpt lat="45.27126" lon="6.56161">
        <ele>2713.98</ele>
        <time>2014-01-27T11:42:22Z</time>
      </trkpt>
      <trkpt lat="45.27108" lon="6.5616">
        <ele>2719.04</ele>
        <time>2014-01-27T11:42:24Z</time>
      </trkpt>
      <trkpt lat="45.27089" lon="6.56164">
        <ele>2725.25</ele>
        <time>2014-01-27T11:42:26Z</time>
      </trkpt>
      <trkpt lat="45.27068" lon="6.56167">
        <ele>2733.1</ele>
        <time>2014-01-27T11:42:28Z</time>
      </trkpt>
      <trkpt lat="45.27045" lon="6.56169">
        <ele>2743.62</ele>
        <time>2014-01-27T11:42:30Z</time>
      </trkpt>
      <trkpt lat="45.27017" lon="6.56165">
        <ele>2757.4</ele>
        <time>2014-01-27T11:42:32Z</time>
      </trkpt>
      <trkpt lat="45.26989" lon="6.56157">
        <ele>2770.28</ele>
        <time>2014-01-27T11:42:34Z</time>
      </trkpt>
      <trkpt lat="45.26964" lon="6.56158">
        <ele>2780.16</ele>
        <time>2014-01-27T11:42:36Z</time>
      </trkpt>
      <trkpt lat="45.26944" lon="6.56157">
        <ele>2787.31</ele>
        <time>2014-01-27T11:42:38Z</time>
      </trkpt>
      <trkpt lat="45.26924" lon="6.56164">
        <ele>2796.45</ele>
        <time>2014-01-27T11:42:41Z</time>
      </trkpt>
      <trkpt lat="45.26903" lon="6.56165">
        <ele>2807.17</ele>
        <time>2014-01-27T11:42:46Z</time>
      </trkpt>
      <trkpt lat="45.26883" lon="6.56158">
        <ele>2818.12</ele>
        <time>2014-01-27T11:42:52Z</time>
      </trkpt>
      <trkpt lat="45.26867" lon="6.56137">
        <ele>2829.58</ele>
        <time>2014-01-27T11:42:55Z</time>
      </trkpt>
      <trkpt lat="45.2685" lon="6.56124">
        <ele>2842.48</ele>
        <time>2014-01-27T11:42:57Z</time>
      </trkpt>
      <trkpt lat="45.26828" lon="6.56107">
        <ele>2862.91</ele>
        <time>2014-01-27T11:43:00Z</time>
      </trkpt>
      <trkpt lat="45.26808" lon="6.56095">
        <ele>2884.25</ele>
        <time>2014-01-27T11:43:02Z</time>
      </trkpt>
      <trkpt lat="45.26789" lon="6.56088">
        <ele>2900.41</ele>
        <time>2014-01-27T11:43:05Z</time>
      </trkpt>
      <trkpt lat="45.2677" lon="6.5608">
        <ele>2916.97</ele>
        <time>2014-01-27T11:43:07Z</time>
      </trkpt>
      <trkpt lat="45.26751" lon="6.56073">
        <ele>2931.28</ele>
        <time>2014-01-27T11:43:10Z</time>
      </trkpt>
      <trkpt lat="45.2672" lon="6.56059">
        <ele>2961.91</ele>
        <time>2014-01-27T11:43:13Z</time>
      </trkpt>
      <trkpt lat="45.26694" lon="6.56047">
        <ele>2993.45</ele>
        <time>2014-01-27T11:43:16Z</time>
      </trkpt>
      <trkpt lat="45.2667" lon="6.56035">
        <ele>3016.01</ele>
        <time>2014-01-27T11:43:19Z</time>
      </trkpt>
      <trkpt lat="45.26649" lon="6.56027">
        <ele>3035.75</ele>
        <time>2014-01-27T11:43:22Z</time>
      </trkpt>
      <trkpt lat="45.26626" lon="6.56023">
        <ele>3049.5</ele>
        <time>2014-01-27T11:43:25Z</time>
      </trkpt>
      <trkpt lat="45.266" lon="6.56019">
        <ele>3061.18</ele>
        <time>2014-01-27T11:43:28Z</time>
      </trkpt>
      <trkpt lat="45.26575" lon="6.56012">
        <ele>3075.44</ele>
        <time>2014-01-27T11:43:31Z</time>
      </trkpt>
      <trkpt lat="45.26553" lon="6.56006">
        <ele>3089.86</ele>
        <time>2014-01-27T11:43:34Z</time>
      </trkpt>
      <trkpt lat="45.26532" lon="6.56004">
        <ele>3102.24</ele>
        <time>2014-01-27T11:43:37Z</time>
      </trkpt>
      <trkpt lat="45.26513" lon="6.56004">
        <ele>3113.79</ele>
        <time>2014-01-27T11:43:40Z</time>
      </trkpt>
      <trkpt lat="45.26494" lon="6.56003">
        <ele>3125.97</ele>
        <time>2014-01-27T11:43:43Z</time>
      </trkpt>
      <trkpt lat="45.26475" lon="6.56003">
        <ele>3139.32</ele>
        <time>2014-01-27T11:43:46Z</time>
      </trkpt>
      <trkpt lat="45.26453" lon="6.56004">
        <ele>3153.03</ele>
        <time>2014-01-27T11:43:49Z</time>
      </trkpt>
      <trkpt lat="45.26435" lon="6.56006">
        <ele>3162.25</ele>
        <time>2014-01-27T11:43:52Z</time>
      </trkpt>
      <trkpt lat="45.26413" lon="6.56001">
        <ele>3170.32</ele>
        <time>2014-01-27T11:44:01Z</time>
      </trkpt>
      <trkpt lat="45.26395" lon="6.56008">
        <ele>3172.81</ele>
        <time>2014-01-27T11:45:14Z</time>
      </trkpt>
      <trkpt lat="45.26371" lon="6.56031">
        <ele>3177.39</ele>
        <time>2014-01-27T11:45:56Z</time>
      </trkpt>
      <trkpt lat="45.26354" lon="6.56043">
        <ele>3177.97</ele>
        <time>2014-01-27T11:46:00Z</time>
      </trkpt>
      <trkpt lat="45.26343" lon="6.56019">
        <ele>3173.43</ele>
        <time>2014-01-27T11:48:16Z</time>
      </trkpt>
      <trkpt lat="45.26351" lon="6.55996">
        <ele>3170.66</ele>
        <time>2014-01-27T11:48:19Z</time>
      </trkpt>
      <trkpt lat="45.26362" lon="6.55972">
        <ele>3165.94</ele>
        <time>2014-01-27T11:48:23Z</time>
      </trkpt>
      <trkpt lat="45.2638" lon="6.55948">
        <ele>3158.07</ele>
        <time>2014-01-27T11:48:28Z</time>
      </trkpt>
      <trkpt lat="45.26396" lon="6.55935">
        <ele>3153.27</ele>
        <time>2014-01-27T11:48:32Z</time>
      </trkpt>
      <trkpt lat="45.26418" lon="6.55932">
        <ele>3153.05</ele>
        <time>2014-01-27T11:48:36Z</time>
      </trkpt>
      <trkpt lat="45.26405" lon="6.55913">
        <ele>3146.18</ele>
        <time>2014-01-27T11:48:52Z</time>
      </trkpt>
      <trkpt lat="45.26387" lon="6.55906">
        <ele>3142.39</ele>
        <time>2014-01-27T11:48:56Z</time>
      </trkpt>
      <trkpt lat="45.26365" lon="6.55898">
        <ele>3136.84</ele>
        <time>2014-01-27T11:48:59Z</time>
      </trkpt>
      <trkpt lat="45.26346" lon="6.55889">
        <ele>3132.88</ele>
        <time>2014-01-27T11:49:02Z</time>
      </trkpt>
      <trkpt lat="45.26326" lon="6.55881">
        <ele>3129.9</ele>
        <time>2014-01-27T11:49:06Z</time>
      </trkpt>
      <trkpt lat="45.26304" lon="6.55869">
        <ele>3125.1</ele>
        <time>2014-01-27T11:49:10Z</time>
      </trkpt>
      <trkpt lat="45.26285" lon="6.55861">
        <ele>3119.26</ele>
        <time>2014-01-27T11:49:13Z</time>
      </trkpt>
      <trkpt lat="45.26265" lon="6.55859">
        <ele>3116.03</ele>
        <time>2014-01-27T11:49:17Z</time>
      </trkpt>
      <trkpt lat="45.26245" lon="6.55847">
        <ele>3111.04</ele>
        <time>2014-01-27T11:49:22Z</time>
      </trkpt>
      <trkpt lat="45.26224" lon="6.55845">
        <ele>3109.3</ele>
        <time>2014-01-27T11:49:27Z</time>
      </trkpt>
      <trkpt lat="45.26204" lon="6.5583">
        <ele>3105.85</ele>
        <time>2014-01-27T11:49:30Z</time>
      </trkpt>
      <trkpt lat="45.26187" lon="6.55816">
        <ele>3099.15</ele>
        <time>2014-01-27T11:49:32Z</time>
      </trkpt>
      <trkpt lat="45.2617" lon="6.55801">
        <ele>3090.69</ele>
        <time>2014-01-27T11:49:34Z</time>
      </trkpt>
      <trkpt lat="45.26152" lon="6.55775">
        <ele>3088.12</ele>
        <time>2014-01-27T11:49:37Z</time>
      </trkpt>
      <trkpt lat="45.26138" lon="6.55758">
        <ele>3087.97</ele>
        <time>2014-01-27T11:49:48Z</time>
      </trkpt>
      <trkpt lat="45.26128" lon="6.55733">
        <ele>3086.84</ele>
        <time>2014-01-27T11:49:53Z</time>
      </trkpt>
      <trkpt lat="45.26122" lon="6.55707">
        <ele>3085.94</ele>
        <time>2014-01-27T11:49:58Z</time>
      </trkpt>
      <trkpt lat="45.26117" lon="6.55677">
        <ele>3081.47</ele>
        <time>2014-01-27T11:50:02Z</time>
      </trkpt>
      <trkpt lat="45.26109" lon="6.55653">
        <ele>3078.92</ele>
        <time>2014-01-27T11:50:04Z</time>
      </trkpt>
      <trkpt lat="45.26094" lon="6.55623">
        <ele>3078.26</ele>
        <time>2014-01-27T11:50:07Z</time>
      </trkpt>
      <trkpt lat="45.26079" lon="6.55599">
        <ele>3067.75</ele>
        <time>2014-01-27T11:50:11Z</time>
      </trkpt>
      <trkpt lat="45.26066" lon="6.55576">
        <ele>3058.45</ele>
        <time>2014-01-27T11:50:15Z</time>
      </trkpt>
      <trkpt lat="45.26049" lon="6.55563">
        <ele>3053.42</ele>
        <time>2014-01-27T11:50:19Z</time>
      </trkpt>
      <trkpt lat="45.26031" lon="6.55552">
        <ele>3045.75</ele>
        <time>2014-01-27T11:50:31Z</time>
      </trkpt>
      <trkpt lat="45.26012" lon="6.55543">
        <ele>3034.14</ele>
        <time>2014-01-27T11:50:36Z</time>
      </trkpt>
      <trkpt lat="45.25997" lon="6.55561">
        <ele>3022.68</ele>
        <time>2014-01-27T11:50:55Z</time>
      </trkpt>
      <trkpt lat="45.25991" lon="6.5559">
        <ele>3017.64</ele>
        <time>2014-01-27T11:50:58Z</time>
      </trkpt>
      <trkpt lat="45.25986" lon="6.55617">
        <ele>3013.86</ele>
        <time>2014-01-27T11:51:01Z</time>
      </trkpt>
      <trkpt lat="45.25979" lon="6.55644">
        <ele>3010.54</ele>
        <time>2014-01-27T11:51:04Z</time>
      </trkpt>
      <trkpt lat="45.25979" lon="6.55672">
        <ele>3012.22</ele>
        <time>2014-01-27T11:51:07Z</time>
      </trkpt>
      <trkpt lat="45.2597" lon="6.55696">
        <ele>3009.6</ele>
        <time>2014-01-27T11:51:10Z</time>
      </trkpt>
      <trkpt lat="45.2596" lon="6.55719">
        <ele>3001.27</ele>
        <time>2014-01-27T11:51:13Z</time>
      </trkpt>
      <trkpt lat="45.25957" lon="6.55751">
        <ele>2995.02</ele>
        <time>2014-01-27T11:51:17Z</time>
      </trkpt>
      <trkpt lat="45.25966" lon="6.55776">
        <ele>2996.17</ele>
        <time>2014-01-27T11:51:23Z</time>
      </trkpt>
      <trkpt lat="45.25975" lon="6.55799">
        <ele>3000.55</ele>
        <time>2014-01-27T11:51:29Z</time>
      </trkpt>
      <trkpt lat="45.25975" lon="6.55826">
        <ele>2995.08</ele>
        <time>2014-01-27T11:51:40Z</time>
      </trkpt>
      <trkpt lat="45.25978" lon="6.55854">
        <ele>2987.45</ele>
        <time>2014-01-27T11:51:55Z</time>
      </trkpt>
      <trkpt lat="45.25975" lon="6.5588">
        <ele>2979.1</ele>
        <time>2014-01-27T11:52:02Z</time>
      </trkpt>
      <trkpt lat="45.2597" lon="6.55906">
        <ele>2966.16</ele>
        <time>2014-01-27T11:52:11Z</time>
      </trkpt>
      <trkpt lat="45.25976" lon="6.5593">
        <ele>2953.31</ele>
        <time>2014-01-27T11:52:17Z</time>
      </trkpt>
      <trkpt lat="45.25958" lon="6.5594">
        <ele>2949.32</ele>
        <time>2014-01-27T11:52:32Z</time>
      </trkpt>
      <trkpt lat="45.25947" lon="6.55962">
        <ele>2939.85</ele>
        <time>2014-01-27T11:52:36Z</time>
      </trkpt>
      <trkpt lat="45.25941" lon="6.5599">
        <ele>2928.57</ele>
        <time>2014-01-27T11:52:39Z</time>
      </trkpt>
      <trkpt lat="45.2593" lon="6.56014">
        <ele>2917.86</ele>
        <time>2014-01-27T11:52:42Z</time>
      </trkpt>
      <trkpt lat="45.2593" lon="6.56041">
        <ele>2909.46</ele>
        <time>2014-01-27T11:52:46Z</time>
      </trkpt>
      <trkpt lat="45.25911" lon="6.56041">
        <ele>2900.93</ele>
        <time>2014-01-27T11:53:06Z</time>
      </trkpt>
      <trkpt lat="45.25892" lon="6.56032">
        <ele>2896.81</ele>
        <time>2014-01-27T11:53:12Z</time>
      </trkpt>
      <trkpt lat="45.25874" lon="6.56043">
        <ele>2890.35</ele>
        <time>2014-01-27T11:53:19Z</time>
      </trkpt>
      <trkpt lat="45.25871" lon="6.5607">
        <ele>2878.57</ele>
        <time>2014-01-27T11:53:23Z</time>
      </trkpt>
      <trkpt lat="45.25862" lon="6.56097">
        <ele>2867.33</ele>
        <time>2014-01-27T11:53:27Z</time>
      </trkpt>
      <trkpt lat="45.25858" lon="6.56125">
        <ele>2861.79</ele>
        <time>2014-01-27T11:53:30Z</time>
      </trkpt>
      <trkpt lat="45.25854" lon="6.56151">
        <ele>2857.02</ele>
        <time>2014-01-27T11:53:33Z</time>
      </trkpt>
      <trkpt lat="45.2584" lon="6.56172">
        <ele>2853.53</ele>
        <time>2014-01-27T11:53:36Z</time>
      </trkpt>
      <trkpt lat="45.25838" lon="6.56203">
        <ele>2845.08</ele>
        <time>2014-01-27T11:53:39Z</time>
      </trkpt>
      <trkpt lat="45.25834" lon="6.56233">
        <ele>2832.41</ele>
        <time>2014-01-27T11:53:43Z</time>
      </trkpt>
      <trkpt lat="45.25814" lon="6.56232">
        <ele>2831.03</ele>
        <time>2014-01-27T11:53:55Z</time>
      </trkpt>
      <trkpt lat="45.25798" lon="6.56245">
        <ele>2821.17</ele>
        <time>2014-01-27T11:54:20Z</time>
      </trkpt>
      <trkpt lat="45.25798" lon="6.56271">
        <ele>2809.04</ele>
        <time>2014-01-27T11:54:26Z</time>
      </trkpt>
      <trkpt lat="45.25798" lon="6.563">
        <ele>2798.06</ele>
        <time>2014-01-27T11:54:32Z</time>
      </trkpt>
      <trkpt lat="45.25787" lon="6.56321">
        <ele>2787.43</ele>
        <time>2014-01-27T11:54:38Z</time>
      </trkpt>
      <trkpt lat="45.25773" lon="6.56339">
        <ele>2777.45</ele>
        <time>2014-01-27T11:54:46Z</time>
      </trkpt>
      <trkpt lat="45.25774" lon="6.56365">
        <ele>2767.67</ele>
        <time>2014-01-27T11:55:46Z</time>
      </trkpt>
      <trkpt lat="45.25757" lon="6.56374">
        <ele>2757.95</ele>
        <time>2014-01-27T11:55:51Z</time>
      </trkpt>
      <trkpt lat="45.25738" lon="6.56362">
        <ele>2756.92</ele>
        <time>2014-01-27T11:55:57Z</time>
      </trkpt>
      <trkpt lat="45.2572" lon="6.56366">
        <ele>2749.53</ele>
        <time>2014-01-27T11:56:02Z</time>
      </trkpt>
      <trkpt lat="45.25704" lon="6.56375">
        <ele>2739.04</ele>
        <time>2014-01-27T11:56:08Z</time>
      </trkpt>
      <trkpt lat="45.257" lon="6.56401">
        <ele>2727.81</ele>
        <time>2014-01-27T11:56:13Z</time>
      </trkpt>
      <trkpt lat="45.25689" lon="6.56425">
        <ele>2714.67</ele>
        <time>2014-01-27T11:56:18Z</time>
      </trkpt>
      <trkpt lat="45.25677" lon="6.56448">
        <ele>2702.37</ele>
        <time>2014-01-27T11:56:23Z</time>
      </trkpt>
      <trkpt lat="45.25677" lon="6.56478">
        <ele>2696.44</ele>
        <time>2014-01-27T11:56:27Z</time>
      </trkpt>
      <trkpt lat="45.25679" lon="6.56509">
        <ele>2693.04</ele>
        <time>2014-01-27T11:56:32Z</time>
      </trkpt>
      <trkpt lat="45.25691" lon="6.56536">
        <ele>2689.41</ele>
        <time>2014-01-27T11:56:36Z</time>
      </trkpt>
      <trkpt lat="45.25705" lon="6.56553">
        <ele>2686.04</ele>
        <time>2014-01-27T11:56:46Z</time>
      </trkpt>
      <trkpt lat="45.25721" lon="6.56566">
        <ele>2684.02</ele>
        <time>2014-01-27T11:56:51Z</time>
      </trkpt>
      <trkpt lat="45.25741" lon="6.56576">
        <ele>2680.38</ele>
        <time>2014-01-27T11:56:58Z</time>
      </trkpt>
      <trkpt lat="45.25757" lon="6.56592">
        <ele>2675.76</ele>
        <time>2014-01-27T11:57:02Z</time>
      </trkpt>
      <trkpt lat="45.25742" lon="6.56614">
        <ele>2665.79</ele>
        <time>2014-01-27T11:57:29Z</time>
      </trkpt>
      <trkpt lat="45.25727" lon="6.5663">
        <ele>2660.08</ele>
        <time>2014-01-27T11:57:33Z</time>
      </trkpt>
      <trkpt lat="45.25707" lon="6.56641">
        <ele>2653.18</ele>
        <time>2014-01-27T11:57:38Z</time>
      </trkpt>
      <trkpt lat="45.2569" lon="6.56649">
        <ele>2647.59</ele>
        <time>2014-01-27T11:57:42Z</time>
      </trkpt>
      <trkpt lat="45.25686" lon="6.56678">
        <ele>2639.15</ele>
        <time>2014-01-27T11:57:46Z</time>
      </trkpt>
      <trkpt lat="45.25666" lon="6.56684">
        <ele>2634.46</ele>
        <time>2014-01-27T11:57:52Z</time>
      </trkpt>
      <trkpt lat="45.25649" lon="6.56694">
        <ele>2629.12</ele>
        <time>2014-01-27T11:57:58Z</time>
      </trkpt>
      <trkpt lat="45.25643" lon="6.56719">
        <ele>2619.73</ele>
        <time>2014-01-27T11:58:40Z</time>
      </trkpt>
      <trkpt lat="45.25635" lon="6.56743">
        <ele>2612.63</ele>
        <time>2014-01-27T11:58:44Z</time>
      </trkpt>
      <trkpt lat="45.25616" lon="6.56748">
        <ele>2601.98</ele>
        <time>2014-01-27T11:58:50Z</time>
      </trkpt>
      <trkpt lat="45.25597" lon="6.56762">
        <ele>2595.85</ele>
        <time>2014-01-27T11:58:55Z</time>
      </trkpt>
      <trkpt lat="45.25578" lon="6.5677">
        <ele>2588.24</ele>
        <time>2014-01-27T11:59:02Z</time>
      </trkpt>
      <trkpt lat="45.25561" lon="6.56761">
        <ele>2578.85</ele>
        <time>2014-01-27T11:59:07Z</time>
      </trkpt>
      <trkpt lat="45.25546" lon="6.5678">
        <ele>2568.22</ele>
        <time>2014-01-27T11:59:13Z</time>
      </trkpt>
      <trkpt lat="45.2553" lon="6.56792">
        <ele>2558.39</ele>
        <time>2014-01-27T11:59:22Z</time>
      </trkpt>
      <trkpt lat="45.25522" lon="6.56815">
        <ele>2550.81</ele>
        <time>2014-01-27T11:59:25Z</time>
      </trkpt>
      <trkpt lat="45.25512" lon="6.56837">
        <ele>2545.4</ele>
        <time>2014-01-27T11:59:29Z</time>
      </trkpt>
      <trkpt lat="45.25505" lon="6.56862">
        <ele>2544.81</ele>
        <time>2014-01-27T11:59:37Z</time>
      </trkpt>
      <trkpt lat="45.25503" lon="6.56891">
        <ele>2539.22</ele>
        <time>2014-01-27T11:59:43Z</time>
      </trkpt>
      <trkpt lat="45.255" lon="6.56917">
        <ele>2532.41</ele>
        <time>2014-01-27T11:59:49Z</time>
      </trkpt>
      <trkpt lat="45.25493" lon="6.56944">
        <ele>2531.3</ele>
        <time>2014-01-27T11:59:55Z</time>
      </trkpt>
      <trkpt lat="45.25479" lon="6.56926">
        <ele>2523.19</ele>
        <time>2014-01-27T12:00:00Z</time>
      </trkpt>
      <trkpt lat="45.25461" lon="6.56916">
        <ele>2511.74</ele>
        <time>2014-01-27T12:00:10Z</time>
      </trkpt>
      <trkpt lat="45.25451" lon="6.56889">
        <ele>2509.19</ele>
        <time>2014-01-27T12:00:16Z</time>
      </trkpt>
      <trkpt lat="45.25438" lon="6.56909">
        <ele>2497.83</ele>
        <time>2014-01-27T12:00:23Z</time>
      </trkpt>
      <trkpt lat="45.25422" lon="6.56896">
        <ele>2491.22</ele>
        <time>2014-01-27T12:00:33Z</time>
      </trkpt>
      <trkpt lat="45.25409" lon="6.56875">
        <ele>2487.74</ele>
        <time>2014-01-27T12:00:38Z</time>
      </trkpt>
      <trkpt lat="45.25393" lon="6.56894">
        <ele>2480.65</ele>
        <time>2014-01-27T12:00:46Z</time>
      </trkpt>
      <trkpt lat="45.25374" lon="6.5689">
        <ele>2474.57</ele>
        <time>2014-01-27T12:00:51Z</time>
      </trkpt>
      <trkpt lat="45.25355" lon="6.56903">
        <ele>2467.17</ele>
        <time>2014-01-27T12:00:56Z</time>
      </trkpt>
      <trkpt lat="45.25335" lon="6.56904">
        <ele>2462.28</ele>
        <time>2014-01-27T12:00:59Z</time>
      </trkpt>
      <trkpt lat="45.2531" lon="6.56903">
        <ele>2457.83</ele>
        <time>2014-01-27T12:01:02Z</time>
      </trkpt>
      <trkpt lat="45.25291" lon="6.56902">
        <ele>2454.9</ele>
        <time>2014-01-27T12:01:04Z</time>
      </trkpt>
      <trkpt lat="45.2527" lon="6.56901">
        <ele>2451.84</ele>
        <time>2014-01-27T12:01:06Z</time>
      </trkpt>
      <trkpt lat="45.25249" lon="6.56904">
        <ele>2448.97</ele>
        <time>2014-01-27T12:01:08Z</time>
      </trkpt>
      <trkpt lat="45.2523" lon="6.56908">
        <ele>2448.04</ele>
        <time>2014-01-27T12:01:10Z</time>
      </trkpt>
      <trkpt lat="45.25212" lon="6.56914">
        <ele>2446.53</ele>
        <time>2014-01-27T12:01:12Z</time>
      </trkpt>
      <trkpt lat="45.25191" lon="6.56923">
        <ele>2443.19</ele>
        <time>2014-01-27T12:01:15Z</time>
      </trkpt>
      <trkpt lat="45.2517" lon="6.56931">
        <ele>2440.83</ele>
        <time>2014-01-27T12:01:18Z</time>
      </trkpt>
      <trkpt lat="45.25151" lon="6.56938">
        <ele>2440.1</ele>
        <time>2014-01-27T12:01:21Z</time>
      </trkpt>
      <trkpt lat="45.25133" lon="6.56945">
        <ele>2439.32</ele>
        <time>2014-01-27T12:01:24Z</time>
      </trkpt>
      <trkpt lat="45.25113" lon="6.56954">
        <ele>2436.88</ele>
        <time>2014-01-27T12:01:28Z</time>
      </trkpt>
      <trkpt lat="45.25095" lon="6.56962">
        <ele>2435.06</ele>
        <time>2014-01-27T12:01:33Z</time>
      </trkpt>
      <trkpt lat="45.25075" lon="6.5697">
        <ele>2432.69</ele>
        <time>2014-01-27T12:01:39Z</time>
      </trkpt>
      <trkpt lat="45.2506" lon="6.56986">
        <ele>2430.33</ele>
        <time>2014-01-27T12:04:27Z</time>
      </trkpt>
      <trkpt lat="45.25039" lon="6.56997">
        <ele>2426.44</ele>
        <time>2014-01-27T12:04:32Z</time>
      </trkpt>
      <trkpt lat="45.25019" lon="6.57006">
        <ele>2421.87</ele>
        <time>2014-01-27T12:04:35Z</time>
      </trkpt>
      <trkpt lat="45.24996" lon="6.57015">
        <ele>2417.88</ele>
        <time>2014-01-27T12:04:38Z</time>
      </trkpt>
      <trkpt lat="45.24973" lon="6.57015">
        <ele>2417.91</ele>
        <time>2014-01-27T12:04:41Z</time>
      </trkpt>
      <trkpt lat="45.24953" lon="6.57017">
        <ele>2418.35</ele>
        <time>2014-01-27T12:04:44Z</time>
      </trkpt>
      <trkpt lat="45.24931" lon="6.57014">
        <ele>2412.21</ele>
        <time>2014-01-27T12:04:48Z</time>
      </trkpt>
      <trkpt lat="45.24913" lon="6.57002">
        <ele>2401.26</ele>
        <time>2014-01-27T12:04:51Z</time>
      </trkpt>
      <trkpt lat="45.249" lon="6.56984">
        <ele>2398.17</ele>
        <time>2014-01-27T12:04:56Z</time>
      </trkpt>
      <trkpt lat="45.24883" lon="6.56969">
        <ele>2398.01</ele>
        <time>2014-01-27T12:05:00Z</time>
      </trkpt>
      <trkpt lat="45.24864" lon="6.56957">
        <ele>2396.92</ele>
        <time>2014-01-27T12:05:03Z</time>
      </trkpt>
      <trkpt lat="45.24842" lon="6.56948">
        <ele>2396.25</ele>
        <time>2014-01-27T12:05:06Z</time>
      </trkpt>
      <trkpt lat="45.24822" lon="6.56944">
        <ele>2391.48</ele>
        <time>2014-01-27T12:05:09Z</time>
      </trkpt>
      <trkpt lat="45.24802" lon="6.56944">
        <ele>2383.46</ele>
        <time>2014-01-27T12:05:12Z</time>
      </trkpt>
      <trkpt lat="45.24779" lon="6.56938">
        <ele>2381.54</ele>
        <time>2014-01-27T12:05:15Z</time>
      </trkpt>
      <trkpt lat="45.24758" lon="6.56933">
        <ele>2377.44</ele>
        <time>2014-01-27T12:05:18Z</time>
      </trkpt>
      <trkpt lat="45.24738" lon="6.5693">
        <ele>2372.72</ele>
        <time>2014-01-27T12:05:21Z</time>
      </trkpt>
      <trkpt lat="45.24715" lon="6.56926">
        <ele>2368.33</ele>
        <time>2014-01-27T12:05:25Z</time>
      </trkpt>
      <trkpt lat="45.24696" lon="6.56923">
        <ele>2366.06</ele>
        <time>2014-01-27T12:05:28Z</time>
      </trkpt>
      <trkpt lat="45.24673" lon="6.56928">
        <ele>2357.83</ele>
        <time>2014-01-27T12:05:31Z</time>
      </trkpt>
      <trkpt lat="45.24659" lon="6.56954">
        <ele>2348.53</ele>
        <time>2014-01-27T12:05:34Z</time>
      </trkpt>
      <trkpt lat="45.24649" lon="6.56978">
        <ele>2345.29</ele>
        <time>2014-01-27T12:05:37Z</time>
      </trkpt>
      <trkpt lat="45.24634" lon="6.56998">
        <ele>2342.45</ele>
        <time>2014-01-27T12:05:39Z</time>
      </trkpt>
      <trkpt lat="45.24618" lon="6.5701">
        <ele>2341.06</ele>
        <time>2014-01-27T12:05:41Z</time>
      </trkpt>
      <trkpt lat="45.24602" lon="6.57028">
        <ele>2341.65</ele>
        <time>2014-01-27T12:05:45Z</time>
      </trkpt>
      <trkpt lat="45.24603" lon="6.57057">
        <ele>2343.65</ele>
        <time>2014-01-27T12:06:13Z</time>
      </trkpt>
      <trkpt lat="45.24611" lon="6.57089">
        <ele>2344.44</ele>
        <time>2014-01-27T12:06:48Z</time>
      </trkpt>
      <trkpt lat="45.24624" lon="6.57112">
        <ele>2346.48</ele>
        <time>2014-01-27T12:07:01Z</time>
      </trkpt>
      <trkpt lat="45.24631" lon="6.57137">
        <ele>2347.65</ele>
        <time>2014-01-27T12:07:06Z</time>
      </trkpt>
      <trkpt lat="45.24639" lon="6.57161">
        <ele>2349.62</ele>
        <time>2014-01-27T12:07:11Z</time>
      </trkpt>
      <trkpt lat="45.24648" lon="6.5719">
        <ele>2350.54</ele>
        <time>2014-01-27T12:07:16Z</time>
      </trkpt>
      <trkpt lat="45.24655" lon="6.57214">
        <ele>2350.97</ele>
        <time>2014-01-27T12:07:20Z</time>
      </trkpt>
      <trkpt lat="45.24663" lon="6.57241">
        <ele>2350.64</ele>
        <time>2014-01-27T12:07:25Z</time>
      </trkpt>
      <trkpt lat="45.24672" lon="6.57269">
        <ele>2350.68</ele>
        <time>2014-01-27T12:07:30Z</time>
      </trkpt>
      <trkpt lat="45.24679" lon="6.57296">
        <ele>2352.28</ele>
        <time>2014-01-27T12:07:34Z</time>
      </trkpt>
      <trkpt lat="45.24685" lon="6.57324">
        <ele>2354.57</ele>
        <time>2014-01-27T12:07:39Z</time>
      </trkpt>
      <trkpt lat="45.24692" lon="6.57348">
        <ele>2356.18</ele>
        <time>2014-01-27T12:07:43Z</time>
      </trkpt>
      <trkpt lat="45.24702" lon="6.57374">
        <ele>2357.79</ele>
        <time>2014-01-27T12:07:47Z</time>
      </trkpt>
      <trkpt lat="45.2471" lon="6.57397">
        <ele>2359.98</ele>
        <time>2014-01-27T12:07:51Z</time>
      </trkpt>
      <trkpt lat="45.24719" lon="6.57425">
        <ele>2363.96</ele>
        <time>2014-01-27T12:07:56Z</time>
      </trkpt>
      <trkpt lat="45.24726" lon="6.57453">
        <ele>2372.06</ele>
        <time>2014-01-27T12:08:01Z</time>
      </trkpt>
      <trkpt lat="45.24733" lon="6.5748">
        <ele>2378.31</ele>
        <time>2014-01-27T12:08:06Z</time>
      </trkpt>
      <trkpt lat="45.24742" lon="6.57508">
        <ele>2383.06</ele>
        <time>2014-01-27T12:08:11Z</time>
      </trkpt>
      <trkpt lat="45.2475" lon="6.57536">
        <ele>2383.05</ele>
        <time>2014-01-27T12:08:16Z</time>
      </trkpt>
      <trkpt lat="45.24758" lon="6.57559">
        <ele>2385.2</ele>
        <time>2014-01-27T12:08:20Z</time>
      </trkpt>
      <trkpt lat="45.24768" lon="6.57587">
        <ele>2387.5</ele>
        <time>2014-01-27T12:08:25Z</time>
      </trkpt>
      <trkpt lat="45.24778" lon="6.57614">
        <ele>2392.84</ele>
        <time>2014-01-27T12:08:30Z</time>
      </trkpt>
      <trkpt lat="45.24788" lon="6.57639">
        <ele>2402.16</ele>
        <time>2014-01-27T12:08:35Z</time>
      </trkpt>
      <trkpt lat="45.24799" lon="6.57664">
        <ele>2408.68</ele>
        <time>2014-01-27T12:08:40Z</time>
      </trkpt>
      <trkpt lat="45.24809" lon="6.57689">
        <ele>2415.95</ele>
        <time>2014-01-27T12:08:45Z</time>
      </trkpt>
      <trkpt lat="45.24817" lon="6.57714">
        <ele>2426.08</ele>
        <time>2014-01-27T12:08:50Z</time>
      </trkpt>
      <trkpt lat="45.24825" lon="6.57742">
        <ele>2440.05</ele>
        <time>2014-01-27T12:08:55Z</time>
      </trkpt>
      <trkpt lat="45.24834" lon="6.57768">
        <ele>2455.54</ele>
        <time>2014-01-27T12:09:00Z</time>
      </trkpt>
      <trkpt lat="45.24842" lon="6.57793">
        <ele>2474.79</ele>
        <time>2014-01-27T12:09:06Z</time>
      </trkpt>
      <trkpt lat="45.24849" lon="6.57822">
        <ele>2496.94</ele>
        <time>2014-01-27T12:09:12Z</time>
      </trkpt>
      <trkpt lat="45.24854" lon="6.57846">
        <ele>2511.37</ele>
        <time>2014-01-27T12:09:17Z</time>
      </trkpt>
      <trkpt lat="45.24863" lon="6.57874">
        <ele>2529.46</ele>
        <time>2014-01-27T12:09:23Z</time>
      </trkpt>
      <trkpt lat="45.24872" lon="6.579">
        <ele>2546.51</ele>
        <time>2014-01-27T12:09:29Z</time>
      </trkpt>
      <trkpt lat="45.24882" lon="6.57924">
        <ele>2560.34</ele>
        <time>2014-01-27T12:09:34Z</time>
      </trkpt>
      <trkpt lat="45.2489" lon="6.5795">
        <ele>2569</ele>
        <time>2014-01-27T12:09:39Z</time>
      </trkpt>
      <trkpt lat="45.24896" lon="6.57976">
        <ele>2577.67</ele>
        <time>2014-01-27T12:09:43Z</time>
      </trkpt>
      <trkpt lat="45.24902" lon="6.58007">
        <ele>2585.46</ele>
        <time>2014-01-27T12:09:48Z</time>
      </trkpt>
      <trkpt lat="45.24909" lon="6.58036">
        <ele>2586.37</ele>
        <time>2014-01-27T12:09:53Z</time>
      </trkpt>
      <trkpt lat="45.24917" lon="6.58064">
        <ele>2588.02</ele>
        <time>2014-01-27T12:09:58Z</time>
      </trkpt>
      <trkpt lat="45.24926" lon="6.58093">
        <ele>2593.58</ele>
        <time>2014-01-27T12:10:03Z</time>
      </trkpt>
      <trkpt lat="45.24933" lon="6.58122">
        <ele>2602.19</ele>
        <time>2014-01-27T12:10:08Z</time>
      </trkpt>
      <trkpt lat="45.24937" lon="6.58151">
        <ele>2609.52</ele>
        <time>2014-01-27T12:10:13Z</time>
      </trkpt>
      <trkpt lat="45.24942" lon="6.58176">
        <ele>2616.4</ele>
        <time>2014-01-27T12:10:17Z</time>
      </trkpt>
      <trkpt lat="45.24949" lon="6.58205">
        <ele>2626.74</ele>
        <time>2014-01-27T12:10:22Z</time>
      </trkpt>
      <trkpt lat="45.24956" lon="6.58234">
        <ele>2639.81</ele>
        <time>2014-01-27T12:10:27Z</time>
      </trkpt>
      <trkpt lat="45.24964" lon="6.58263">
        <ele>2652.38</ele>
        <time>2014-01-27T12:10:33Z</time>
      </trkpt>
      <trkpt lat="45.24971" lon="6.58287">
        <ele>2663.81</ele>
        <time>2014-01-27T12:10:37Z</time>
      </trkpt>
      <trkpt lat="45.24978" lon="6.58311">
        <ele>2672.87</ele>
        <time>2014-01-27T12:10:41Z</time>
      </trkpt>
      <trkpt lat="45.24986" lon="6.58339">
        <ele>2680.21</ele>
        <time>2014-01-27T12:10:46Z</time>
      </trkpt>
      <trkpt lat="45.24994" lon="6.58368">
        <ele>2686.86</ele>
        <time>2014-01-27T12:10:51Z</time>
      </trkpt>
      <trkpt lat="45.25002" lon="6.58396">
        <ele>2692.24</ele>
        <time>2014-01-27T12:10:56Z</time>
      </trkpt>
      <trkpt lat="45.25012" lon="6.58421">
        <ele>2697.34</ele>
        <time>2014-01-27T12:11:01Z</time>
      </trkpt>
      <trkpt lat="45.25022" lon="6.58447">
        <ele>2703.98</ele>
        <time>2014-01-27T12:11:06Z</time>
      </trkpt>
      <trkpt lat="45.2503" lon="6.58476">
        <ele>2710.91</ele>
        <time>2014-01-27T12:11:11Z</time>
      </trkpt>
      <trkpt lat="45.25035" lon="6.58502">
        <ele>2715.42</ele>
        <time>2014-01-27T12:11:15Z</time>
      </trkpt>
      <trkpt lat="45.25043" lon="6.58532">
        <ele>2718.45</ele>
        <time>2014-01-27T12:11:20Z</time>
      </trkpt>
      <trkpt lat="45.25051" lon="6.58561">
        <ele>2722.7</ele>
        <time>2014-01-27T12:11:25Z</time>
      </trkpt>
      <trkpt lat="45.25059" lon="6.5859">
        <ele>2730.75</ele>
        <time>2014-01-27T12:11:30Z</time>
      </trkpt>
      <trkpt lat="45.25068" lon="6.58616">
        <ele>2738.95</ele>
        <time>2014-01-27T12:11:35Z</time>
      </trkpt>
      <trkpt lat="45.25078" lon="6.58642">
        <ele>2744.74</ele>
        <time>2014-01-27T12:11:40Z</time>
      </trkpt>
      <trkpt lat="45.25088" lon="6.58665">
        <ele>2749.75</ele>
        <time>2014-01-27T12:11:44Z</time>
      </trkpt>
      <trkpt lat="45.25099" lon="6.58691">
        <ele>2756.07</ele>
        <time>2014-01-27T12:11:49Z</time>
      </trkpt>
      <trkpt lat="45.25108" lon="6.58718">
        <ele>2759.36</ele>
        <time>2014-01-27T12:11:54Z</time>
      </trkpt>
      <trkpt lat="45.25116" lon="6.58745">
        <ele>2763.29</ele>
        <time>2014-01-27T12:11:59Z</time>
      </trkpt>
      <trkpt lat="45.25128" lon="6.58769">
        <ele>2772.15</ele>
        <time>2014-01-27T12:12:04Z</time>
      </trkpt>
      <trkpt lat="45.25136" lon="6.58792">
        <ele>2777</ele>
        <time>2014-01-27T12:12:09Z</time>
      </trkpt>
      <trkpt lat="45.25145" lon="6.58815">
        <ele>2779.21</ele>
        <time>2014-01-27T12:12:15Z</time>
      </trkpt>
      <trkpt lat="45.25129" lon="6.58828">
        <ele>2776.61</ele>
        <time>2014-01-27T12:12:24Z</time>
      </trkpt>
      <trkpt lat="45.2511" lon="6.58813">
        <ele>2768.41</ele>
        <time>2014-01-27T12:12:29Z</time>
      </trkpt>
      <trkpt lat="45.25089" lon="6.58806">
        <ele>2761.63</ele>
        <time>2014-01-27T12:12:35Z</time>
      </trkpt>
      <trkpt lat="45.25072" lon="6.58797">
        <ele>2755.99</ele>
        <time>2014-01-27T12:12:39Z</time>
      </trkpt>
      <trkpt lat="45.25058" lon="6.5878">
        <ele>2751.56</ele>
        <time>2014-01-27T12:12:43Z</time>
      </trkpt>
      <trkpt lat="45.25049" lon="6.58746">
        <ele>2747.22</ele>
        <time>2014-01-27T12:12:46Z</time>
      </trkpt>
      <trkpt lat="45.25044" lon="6.58717">
        <ele>2743.96</ele>
        <time>2014-01-27T12:12:49Z</time>
      </trkpt>
      <trkpt lat="45.25047" lon="6.58691">
        <ele>2742.61</ele>
        <time>2014-01-27T12:12:53Z</time>
      </trkpt>
      <trkpt lat="45.25064" lon="6.58703">
        <ele>2747.82</ele>
        <time>2014-01-27T12:14:18Z</time>
      </trkpt>
      <trkpt lat="45.25076" lon="6.58724">
        <ele>2752.3</ele>
        <time>2014-01-27T12:14:26Z</time>
      </trkpt>
      <trkpt lat="45.25087" lon="6.58749">
        <ele>2755.77</ele>
        <time>2014-01-27T12:14:34Z</time>
      </trkpt>
      <trkpt lat="45.25097" lon="6.5877">
        <ele>2760.69</ele>
        <time>2014-01-27T12:14:43Z</time>
      </trkpt>
      <trkpt lat="45.25106" lon="6.58794">
        <ele>2765</ele>
        <time>2014-01-27T12:14:53Z</time>
      </trkpt>
      <trkpt lat="45.25111" lon="6.58818">
        <ele>2769.71</ele>
        <time>2014-01-27T12:15:02Z</time>
      </trkpt>
      <trkpt lat="45.2512" lon="6.58843">
        <ele>2778.12</ele>
        <time>2014-01-27T12:15:11Z</time>
      </trkpt>
      <trkpt lat="45.25128" lon="6.58868">
        <ele>2787.23</ele>
        <time>2014-01-27T12:15:21Z</time>
      </trkpt>
      <trkpt lat="45.25138" lon="6.58891">
        <ele>2794.05</ele>
        <time>2014-01-27T12:15:32Z</time>
      </trkpt>
      <trkpt lat="45.25149" lon="6.58914">
        <ele>2798.45</ele>
        <time>2014-01-27T12:15:41Z</time>
      </trkpt>
      <trkpt lat="45.2516" lon="6.58935">
        <ele>2799.66</ele>
        <time>2014-01-27T12:15:51Z</time>
      </trkpt>
      <trkpt lat="45.25177" lon="6.5897">
        <ele>2814.16</ele>
        <time>2014-01-27T12:16:08Z</time>
      </trkpt>
      <trkpt lat="45.25189" lon="6.58993">
        <ele>2822.66</ele>
        <time>2014-01-27T12:16:18Z</time>
      </trkpt>
      <trkpt lat="45.25199" lon="6.59015">
        <ele>2829.23</ele>
        <time>2014-01-27T12:16:29Z</time>
      </trkpt>
      <trkpt lat="45.25211" lon="6.59036">
        <ele>2836.27</ele>
        <time>2014-01-27T12:16:41Z</time>
      </trkpt>
      <trkpt lat="45.25218" lon="6.59061">
        <ele>2845.67</ele>
        <time>2014-01-27T12:16:48Z</time>
      </trkpt>
      <trkpt lat="45.25221" lon="6.59087">
        <ele>2857.02</ele>
        <time>2014-01-27T12:16:54Z</time>
      </trkpt>
      <trkpt lat="45.25229" lon="6.59113">
        <ele>2871.42</ele>
        <time>2014-01-27T12:17:04Z</time>
      </trkpt>
      <trkpt lat="45.25236" lon="6.59139">
        <ele>2887.75</ele>
        <time>2014-01-27T12:17:15Z</time>
      </trkpt>
      <trkpt lat="45.25248" lon="6.59175">
        <ele>2910.4</ele>
        <time>2014-01-27T12:17:33Z</time>
      </trkpt>
      <trkpt lat="45.25252" lon="6.592">
        <ele>2920.93</ele>
        <time>2014-01-27T12:17:42Z</time>
      </trkpt>
      <trkpt lat="45.2526" lon="6.59225">
        <ele>2932.45</ele>
        <time>2014-01-27T12:17:53Z</time>
      </trkpt>
      <trkpt lat="45.25271" lon="6.5925">
        <ele>2944.93</ele>
        <time>2014-01-27T12:18:07Z</time>
      </trkpt>
      <trkpt lat="45.25283" lon="6.59268">
        <ele>2959.87</ele>
        <time>2014-01-27T12:18:16Z</time>
      </trkpt>
      <trkpt lat="45.25287" lon="6.59296">
        <ele>2970.51</ele>
        <time>2014-01-27T12:18:27Z</time>
      </trkpt>
      <trkpt lat="45.25299" lon="6.59319">
        <ele>2977.95</ele>
        <time>2014-01-27T12:18:37Z</time>
      </trkpt>
      <trkpt lat="45.2531" lon="6.59338">
        <ele>2985.98</ele>
        <time>2014-01-27T12:18:47Z</time>
      </trkpt>
      <trkpt lat="45.25319" lon="6.59361">
        <ele>2996.98</ele>
        <time>2014-01-27T12:18:59Z</time>
      </trkpt>
      <trkpt lat="45.25329" lon="6.59385">
        <ele>3010.52</ele>
        <time>2014-01-27T12:19:06Z</time>
      </trkpt>
      <trkpt lat="45.25342" lon="6.59407">
        <ele>3022.45</ele>
        <time>2014-01-27T12:19:18Z</time>
      </trkpt>
      <trkpt lat="45.2535" lon="6.59432">
        <ele>3029.52</ele>
        <time>2014-01-27T12:19:29Z</time>
      </trkpt>
      <trkpt lat="45.25362" lon="6.59453">
        <ele>3031.6</ele>
        <time>2014-01-27T12:19:43Z</time>
      </trkpt>
      <trkpt lat="45.25373" lon="6.59475">
        <ele>3031.47</ele>
        <time>2014-01-27T12:20:22Z</time>
      </trkpt>
      <trkpt lat="45.25384" lon="6.59496">
        <ele>3030.61</ele>
        <time>2014-01-27T12:20:33Z</time>
      </trkpt>
      <trkpt lat="45.25395" lon="6.59518">
        <ele>3032.94</ele>
        <time>2014-01-27T12:20:43Z</time>
      </trkpt>
      <trkpt lat="45.25398" lon="6.59543">
        <ele>3037.78</ele>
        <time>2014-01-27T12:20:51Z</time>
      </trkpt>
      <trkpt lat="45.25404" lon="6.59569">
        <ele>3044.47</ele>
        <time>2014-01-27T12:20:58Z</time>
      </trkpt>
      <trkpt lat="45.25412" lon="6.59592">
        <ele>3054.16</ele>
        <time>2014-01-27T12:21:10Z</time>
      </trkpt>
      <trkpt lat="45.25422" lon="6.59615">
        <ele>3062.12</ele>
        <time>2014-01-27T12:21:18Z</time>
      </trkpt>
      <trkpt lat="45.25436" lon="6.59633">
        <ele>3066.39</ele>
        <time>2014-01-27T12:21:29Z</time>
      </trkpt>
      <trkpt lat="45.25444" lon="6.59657">
        <ele>3071.16</ele>
        <time>2014-01-27T12:21:40Z</time>
      </trkpt>
      <trkpt lat="45.25452" lon="6.5968">
        <ele>3076</ele>
        <time>2014-01-27T12:21:50Z</time>
      </trkpt>
      <trkpt lat="45.25462" lon="6.59703">
        <ele>3080.91</ele>
        <time>2014-01-27T12:22:00Z</time>
      </trkpt>
      <trkpt lat="45.2547" lon="6.59728">
        <ele>3087.48</ele>
        <time>2014-01-27T12:22:11Z</time>
      </trkpt>
      <trkpt lat="45.25478" lon="6.59751">
        <ele>3096.33</ele>
        <time>2014-01-27T12:22:22Z</time>
      </trkpt>
      <trkpt lat="45.25488" lon="6.59774">
        <ele>3105.38</ele>
        <time>2014-01-27T12:22:34Z</time>
      </trkpt>
      <trkpt lat="45.25497" lon="6.59797">
        <ele>3116.16</ele>
        <time>2014-01-27T12:22:46Z</time>
      </trkpt>
      <trkpt lat="45.25504" lon="6.59822">
        <ele>3126.28</ele>
        <time>2014-01-27T12:23:00Z</time>
      </trkpt>
      <trkpt lat="45.25514" lon="6.59846">
        <ele>3142.37</ele>
        <time>2014-01-27T12:23:14Z</time>
      </trkpt>
      <trkpt lat="45.25523" lon="6.59868">
        <ele>3158.48</ele>
        <time>2014-01-27T12:23:25Z</time>
      </trkpt>
      <trkpt lat="45.25535" lon="6.5989">
        <ele>3171.25</ele>
        <time>2014-01-27T12:23:36Z</time>
      </trkpt>
      <trkpt lat="45.25548" lon="6.59908">
        <ele>3181.24</ele>
        <time>2014-01-27T12:23:50Z</time>
      </trkpt>
      <trkpt lat="45.25559" lon="6.59929">
        <ele>3193.07</ele>
        <time>2014-01-27T12:23:58Z</time>
      </trkpt>
      <trkpt lat="45.25568" lon="6.59952">
        <ele>3206.27</ele>
        <time>2014-01-27T12:24:11Z</time>
      </trkpt>
      <trkpt lat="45.25569" lon="6.59982">
        <ele>3219.16</ele>
        <time>2014-01-27T12:24:16Z</time>
      </trkpt>
      <trkpt lat="45.25567" lon="6.60007">
        <ele>3225.85</ele>
        <time>2014-01-27T12:24:21Z</time>
      </trkpt>
      <trkpt lat="45.25554" lon="6.60024">
        <ele>3229.13</ele>
        <time>2014-01-27T12:24:34Z</time>
      </trkpt>
      <trkpt lat="45.25536" lon="6.60026">
        <ele>3222.63</ele>
        <time>2014-01-27T12:25:30Z</time>
      </trkpt>
      <trkpt lat="45.25517" lon="6.60033">
        <ele>3215.66</ele>
        <time>2014-01-27T12:25:37Z</time>
      </trkpt>
      <trkpt lat="45.25499" lon="6.60045">
        <ele>3208.6</ele>
        <time>2014-01-27T12:25:41Z</time>
      </trkpt>
      <trkpt lat="45.25481" lon="6.60054">
        <ele>3202.91</ele>
        <time>2014-01-27T12:25:46Z</time>
      </trkpt>
      <trkpt lat="45.25468" lon="6.60033">
        <ele>3188.71</ele>
        <time>2014-01-27T12:25:54Z</time>
      </trkpt>
      <trkpt lat="45.25448" lon="6.60036">
        <ele>3184.08</ele>
        <time>2014-01-27T12:26:04Z</time>
      </trkpt>
      <trkpt lat="45.2543" lon="6.60031">
        <ele>3177.35</ele>
        <time>2014-01-27T12:26:13Z</time>
      </trkpt>
      <trkpt lat="45.2541" lon="6.60029">
        <ele>3171.71</ele>
        <time>2014-01-27T12:26:32Z</time>
      </trkpt>
      <trkpt lat="45.25392" lon="6.6003">
        <ele>3167.5</ele>
        <time>2014-01-27T12:26:41Z</time>
      </trkpt>
      <trkpt lat="45.25378" lon="6.6001">
        <ele>3153.9</ele>
        <time>2014-01-27T12:26:54Z</time>
      </trkpt>
      <trkpt lat="45.25359" lon="6.60004">
        <ele>3145.31</ele>
        <time>2014-01-27T12:27:03Z</time>
      </trkpt>
      <trkpt lat="45.25341" lon="6.6001">
        <ele>3140.48</ele>
        <time>2014-01-27T12:27:11Z</time>
      </trkpt>
      <trkpt lat="45.2532" lon="6.60004">
        <ele>3131.72</ele>
        <time>2014-01-27T12:27:23Z</time>
      </trkpt>
      <trkpt lat="45.25302" lon="6.60007">
        <ele>3126.77</ele>
        <time>2014-01-27T12:27:35Z</time>
      </trkpt>
      <trkpt lat="45.25286" lon="6.60024">
        <ele>3126.12</ele>
        <time>2014-01-27T12:27:43Z</time>
      </trkpt>
      <trkpt lat="45.25268" lon="6.60017">
        <ele>3117.91</ele>
        <time>2014-01-27T12:27:52Z</time>
      </trkpt>
      <trkpt lat="45.25247" lon="6.60016">
        <ele>3112.32</ele>
        <time>2014-01-27T12:27:58Z</time>
      </trkpt>
      <trkpt lat="45.2524" lon="6.59989">
        <ele>3103.41</ele>
        <time>2014-01-27T12:28:05Z</time>
      </trkpt>
      <trkpt lat="45.25243" lon="6.59962">
        <ele>3097.32</ele>
        <time>2014-01-27T12:28:12Z</time>
      </trkpt>
      <trkpt lat="45.25247" lon="6.59933">
        <ele>3092.47</ele>
        <time>2014-01-27T12:28:18Z</time>
      </trkpt>
      <trkpt lat="45.25253" lon="6.59905">
        <ele>3088.35</ele>
        <time>2014-01-27T12:28:23Z</time>
      </trkpt>
      <trkpt lat="45.25257" lon="6.59878">
        <ele>3084.26</ele>
        <time>2014-01-27T12:28:28Z</time>
      </trkpt>
      <trkpt lat="45.25254" lon="6.59851">
        <ele>3079.58</ele>
        <time>2014-01-27T12:28:33Z</time>
      </trkpt>
      <trkpt lat="45.25257" lon="6.59824">
        <ele>3075.29</ele>
        <time>2014-01-27T12:28:39Z</time>
      </trkpt>
      <trkpt lat="45.25255" lon="6.59797">
        <ele>3070.37</ele>
        <time>2014-01-27T12:28:47Z</time>
      </trkpt>
      <trkpt lat="45.2525" lon="6.59769">
        <ele>3064.71</ele>
        <time>2014-01-27T12:28:52Z</time>
      </trkpt>
      <trkpt lat="45.25239" lon="6.59745">
        <ele>3058.77</ele>
        <time>2014-01-27T12:28:56Z</time>
      </trkpt>
      <trkpt lat="45.25223" lon="6.59722">
        <ele>3050.31</ele>
        <time>2014-01-27T12:29:00Z</time>
      </trkpt>
      <trkpt lat="45.25208" lon="6.59705">
        <ele>3043.3</ele>
        <time>2014-01-27T12:29:07Z</time>
      </trkpt>
      <trkpt lat="45.2519" lon="6.59697">
        <ele>3034.53</ele>
        <time>2014-01-27T12:29:14Z</time>
      </trkpt>
      <trkpt lat="45.25176" lon="6.59677">
        <ele>3024.97</ele>
        <time>2014-01-27T12:29:22Z</time>
      </trkpt>
      <trkpt lat="45.2516" lon="6.59661">
        <ele>3014.78</ele>
        <time>2014-01-27T12:29:30Z</time>
      </trkpt>
      <trkpt lat="45.2514" lon="6.59667">
        <ele>3012.44</ele>
        <time>2014-01-27T12:29:37Z</time>
      </trkpt>
      <trkpt lat="45.25131" lon="6.59637">
        <ele>3005.02</ele>
        <time>2014-01-27T12:29:42Z</time>
      </trkpt>
      <trkpt lat="45.25112" lon="6.59623">
        <ele>3004.75</ele>
        <time>2014-01-27T12:29:46Z</time>
      </trkpt>
      <trkpt lat="45.25095" lon="6.59611">
        <ele>3000.22</ele>
        <time>2014-01-27T12:29:50Z</time>
      </trkpt>
      <trkpt lat="45.25078" lon="6.59589">
        <ele>2992.79</ele>
        <time>2014-01-27T12:29:55Z</time>
      </trkpt>
      <trkpt lat="45.25062" lon="6.59579">
        <ele>2983.88</ele>
        <time>2014-01-27T12:30:01Z</time>
      </trkpt>
      <trkpt lat="45.25043" lon="6.59592">
        <ele>2973.81</ele>
        <time>2014-01-27T12:30:34Z</time>
      </trkpt>
      <trkpt lat="45.25025" lon="6.59586">
        <ele>2959.11</ele>
        <time>2014-01-27T12:30:44Z</time>
      </trkpt>
      <trkpt lat="45.25006" lon="6.59582">
        <ele>2947.92</ele>
        <time>2014-01-27T12:30:56Z</time>
      </trkpt>
      <trkpt lat="45.24986" lon="6.59581">
        <ele>2942.33</ele>
        <time>2014-01-27T12:31:11Z</time>
      </trkpt>
      <trkpt lat="45.24969" lon="6.5957">
        <ele>2936.24</ele>
        <time>2014-01-27T12:31:21Z</time>
      </trkpt>
      <trkpt lat="45.24953" lon="6.59553">
        <ele>2924.9</ele>
        <time>2014-01-27T12:31:29Z</time>
      </trkpt>
      <trkpt lat="45.24945" lon="6.59528">
        <ele>2920.21</ele>
        <time>2014-01-27T12:31:35Z</time>
      </trkpt>
      <trkpt lat="45.24934" lon="6.59508">
        <ele>2916.59</ele>
        <time>2014-01-27T12:31:40Z</time>
      </trkpt>
      <trkpt lat="45.24924" lon="6.59485">
        <ele>2912.42</ele>
        <time>2014-01-27T12:31:46Z</time>
      </trkpt>
      <trkpt lat="45.24923" lon="6.59454">
        <ele>2909.12</ele>
        <time>2014-01-27T12:31:50Z</time>
      </trkpt>
      <trkpt lat="45.24931" lon="6.59426">
        <ele>2905.48</ele>
        <time>2014-01-27T12:31:55Z</time>
      </trkpt>
      <trkpt lat="45.2494" lon="6.59399">
        <ele>2902.18</ele>
        <time>2014-01-27T12:32:01Z</time>
      </trkpt>
      <trkpt lat="45.24949" lon="6.59372">
        <ele>2898.87</ele>
        <time>2014-01-27T12:32:06Z</time>
      </trkpt>
      <trkpt lat="45.2496" lon="6.59349">
        <ele>2895.15</ele>
        <time>2014-01-27T12:32:10Z</time>
      </trkpt>
      <trkpt lat="45.24976" lon="6.59332">
        <ele>2891.39</ele>
        <time>2014-01-27T12:32:15Z</time>
      </trkpt>
      <trkpt lat="45.24969" lon="6.59301">
        <ele>2887.41</ele>
        <time>2014-01-27T12:32:20Z</time>
      </trkpt>
      <trkpt lat="45.24969" lon="6.59275">
        <ele>2880.45</ele>
        <time>2014-01-27T12:32:43Z</time>
      </trkpt>
      <trkpt lat="45.24972" lon="6.59245">
        <ele>2867.14</ele>
        <time>2014-01-27T12:32:49Z</time>
      </trkpt>
      <trkpt lat="45.24977" lon="6.59219">
        <ele>2853.9</ele>
        <time>2014-01-27T12:32:54Z</time>
      </trkpt>
      <trkpt lat="45.2499" lon="6.59196">
        <ele>2848.31</ele>
        <time>2014-01-27T12:33:15Z</time>
      </trkpt>
      <trkpt lat="45.24999" lon="6.59173">
        <ele>2840.4</ele>
        <time>2014-01-27T12:33:23Z</time>
      </trkpt>
      <trkpt lat="45.2501" lon="6.59148">
        <ele>2831.08</ele>
        <time>2014-01-27T12:33:32Z</time>
      </trkpt>
      <trkpt lat="45.25005" lon="6.59122">
        <ele>2821.23</ele>
        <time>2014-01-27T12:33:38Z</time>
      </trkpt>
      <trkpt lat="45.25014" lon="6.591">
        <ele>2813.84</ele>
        <time>2014-01-27T12:33:44Z</time>
      </trkpt>
      <trkpt lat="45.25015" lon="6.59074">
        <ele>2803.22</ele>
        <time>2014-01-27T12:33:49Z</time>
      </trkpt>
      <trkpt lat="45.25034" lon="6.59049">
        <ele>2794.09</ele>
        <time>2014-01-27T12:33:53Z</time>
      </trkpt>
      <trkpt lat="45.25048" lon="6.5902">
        <ele>2786.95</ele>
        <time>2014-01-27T12:33:56Z</time>
      </trkpt>
      <trkpt lat="45.25057" lon="6.58989">
        <ele>2785.54</ele>
        <time>2014-01-27T12:33:59Z</time>
      </trkpt>
      <trkpt lat="45.25064" lon="6.58965">
        <ele>2786.47</ele>
        <time>2014-01-27T12:34:02Z</time>
      </trkpt>
      <trkpt lat="45.25067" lon="6.58938">
        <ele>2783.83</ele>
        <time>2014-01-27T12:34:06Z</time>
      </trkpt>
      <trkpt lat="45.25062" lon="6.58913">
        <ele>2775.61</ele>
        <time>2014-01-27T12:34:10Z</time>
      </trkpt>
      <trkpt lat="45.2506" lon="6.58887">
        <ele>2770.73</ele>
        <time>2014-01-27T12:34:14Z</time>
      </trkpt>
      <trkpt lat="45.25063" lon="6.58858">
        <ele>2766.93</ele>
        <time>2014-01-27T12:34:18Z</time>
      </trkpt>
      <trkpt lat="45.25071" lon="6.58833">
        <ele>2764.38</ele>
        <time>2014-01-27T12:34:24Z</time>
      </trkpt>
      <trkpt lat="45.25084" lon="6.58809">
        <ele>2761.19</ele>
        <time>2014-01-27T12:34:30Z</time>
      </trkpt>
      <trkpt lat="45.25075" lon="6.58785">
        <ele>2755.71</ele>
        <time>2014-01-27T12:34:59Z</time>
      </trkpt>
      <trkpt lat="45.25064" lon="6.58762">
        <ele>2751.6</ele>
        <time>2014-01-27T12:35:03Z</time>
      </trkpt>
      <trkpt lat="45.2505" lon="6.58737">
        <ele>2746.85</ele>
        <time>2014-01-27T12:35:06Z</time>
      </trkpt>
      <trkpt lat="45.25043" lon="6.5871">
        <ele>2743.25</ele>
        <time>2014-01-27T12:35:09Z</time>
      </trkpt>
      <trkpt lat="45.25048" lon="6.58684">
        <ele>2742.06</ele>
        <time>2014-01-27T12:35:15Z</time>
      </trkpt>
      <trkpt lat="45.2506" lon="6.58663">
        <ele>2743.56</ele>
        <time>2014-01-27T12:35:23Z</time>
      </trkpt>
      <trkpt lat="45.25072" lon="6.5864">
        <ele>2743.48</ele>
        <time>2014-01-27T12:35:33Z</time>
      </trkpt>
      <trkpt lat="45.25084" lon="6.58622">
        <ele>2743.4</ele>
        <time>2014-01-27T12:35:45Z</time>
      </trkpt>
      <trkpt lat="45.251" lon="6.58611">
        <ele>2745.59</ele>
        <time>2014-01-27T12:35:53Z</time>
      </trkpt>
      <trkpt lat="45.25118" lon="6.58589">
        <ele>2743.3</ele>
        <time>2014-01-27T12:35:57Z</time>
      </trkpt>
      <trkpt lat="45.25124" lon="6.58565">
        <ele>2738.32</ele>
        <time>2014-01-27T12:36:00Z</time>
      </trkpt>
      <trkpt lat="45.25126" lon="6.58538">
        <ele>2734.13</ele>
        <time>2014-01-27T12:36:03Z</time>
      </trkpt>
      <trkpt lat="45.25114" lon="6.58517">
        <ele>2729.73</ele>
        <time>2014-01-27T12:36:06Z</time>
      </trkpt>
      <trkpt lat="45.251" lon="6.58502">
        <ele>2726.66</ele>
        <time>2014-01-27T12:36:10Z</time>
      </trkpt>
      <trkpt lat="45.25084" lon="6.58485">
        <ele>2721.71</ele>
        <time>2014-01-27T12:36:14Z</time>
      </trkpt>
      <trkpt lat="45.25068" lon="6.58468">
        <ele>2716.29</ele>
        <time>2014-01-27T12:36:19Z</time>
      </trkpt>
      <trkpt lat="45.2505" lon="6.58456">
        <ele>2710.81</ele>
        <time>2014-01-27T12:36:25Z</time>
      </trkpt>
      <trkpt lat="45.25035" lon="6.58438">
        <ele>2705.26</ele>
        <time>2014-01-27T12:36:30Z</time>
      </trkpt>
      <trkpt lat="45.25017" lon="6.58434">
        <ele>2700.35</ele>
        <time>2014-01-27T12:36:35Z</time>
      </trkpt>
      <trkpt lat="45.24996" lon="6.58421">
        <ele>2694.63</ele>
        <time>2014-01-27T12:36:39Z</time>
      </trkpt>
      <trkpt lat="45.24977" lon="6.58412">
        <ele>2689.37</ele>
        <time>2014-01-27T12:36:43Z</time>
      </trkpt>
      <trkpt lat="45.24962" lon="6.5839">
        <ele>2681.65</ele>
        <time>2014-01-27T12:37:26Z</time>
      </trkpt>
      <trkpt lat="45.24947" lon="6.58375">
        <ele>2673.81</ele>
        <time>2014-01-27T12:37:33Z</time>
      </trkpt>
      <trkpt lat="45.24926" lon="6.58371">
        <ele>2669.49</ele>
        <time>2014-01-27T12:37:39Z</time>
      </trkpt>
      <trkpt lat="45.24889" lon="6.58357">
        <ele>2659.91</ele>
        <time>2014-01-27T12:37:48Z</time>
      </trkpt>
      <trkpt lat="45.31226" lon="6.58178">
        <ele>2789.28</ele>
        <time>2014-01-27T13:28:23Z</time>
      </trkpt>
      <trkpt lat="45.31248" lon="6.58172">
        <ele>2797.61</ele>
        <time>2014-01-27T13:28:57Z</time>
      </trkpt>
      <trkpt lat="45.3127" lon="6.58175">
        <ele>2798.62</ele>
        <time>2014-01-27T13:31:00Z</time>
      </trkpt>
      <trkpt lat="45.31291" lon="6.58167">
        <ele>2796.57</ele>
        <time>2014-01-27T13:31:03Z</time>
      </trkpt>
      <trkpt lat="45.3131" lon="6.58159">
        <ele>2792.93</ele>
        <time>2014-01-27T13:31:05Z</time>
      </trkpt>
      <trkpt lat="45.3133" lon="6.58151">
        <ele>2789.37</ele>
        <time>2014-01-27T13:31:07Z</time>
      </trkpt>
      <trkpt lat="45.31349" lon="6.58141">
        <ele>2784.93</ele>
        <time>2014-01-27T13:31:09Z</time>
      </trkpt>
      <trkpt lat="45.31367" lon="6.58133">
        <ele>2781.78</ele>
        <time>2014-01-27T13:31:11Z</time>
      </trkpt>
      <trkpt lat="45.31387" lon="6.58124">
        <ele>2780.16</ele>
        <time>2014-01-27T13:31:14Z</time>
      </trkpt>
      <trkpt lat="45.31407" lon="6.58117">
        <ele>2783.84</ele>
        <time>2014-01-27T13:31:18Z</time>
      </trkpt>
      <trkpt lat="45.31425" lon="6.58126">
        <ele>2787.79</ele>
        <time>2014-01-27T13:31:23Z</time>
      </trkpt>
      <trkpt lat="45.31433" lon="6.58151">
        <ele>2785.81</ele>
        <time>2014-01-27T13:31:32Z</time>
      </trkpt>
      <trkpt lat="45.31428" lon="6.58178">
        <ele>2780.49</ele>
        <time>2014-01-27T13:31:37Z</time>
      </trkpt>
      <trkpt lat="45.31438" lon="6.58204">
        <ele>2774.26</ele>
        <time>2014-01-27T13:31:45Z</time>
      </trkpt>
      <trkpt lat="45.31448" lon="6.58226">
        <ele>2761.53</ele>
        <time>2014-01-27T13:31:57Z</time>
      </trkpt>
      <trkpt lat="45.31468" lon="6.58233">
        <ele>2749.45</ele>
        <time>2014-01-27T13:32:03Z</time>
      </trkpt>
      <trkpt lat="45.31489" lon="6.58226">
        <ele>2742.79</ele>
        <time>2014-01-27T13:32:08Z</time>
      </trkpt>
      <trkpt lat="45.31498" lon="6.58249">
        <ele>2735.84</ele>
        <time>2014-01-27T13:32:16Z</time>
      </trkpt>
      <trkpt lat="45.31504" lon="6.58278">
        <ele>2728.87</ele>
        <time>2014-01-27T13:32:24Z</time>
      </trkpt>
      <trkpt lat="45.31506" lon="6.58305">
        <ele>2717.83</ele>
        <time>2014-01-27T13:32:33Z</time>
      </trkpt>
      <trkpt lat="45.31514" lon="6.58328">
        <ele>2712.06</ele>
        <time>2014-01-27T13:32:41Z</time>
      </trkpt>
      <trkpt lat="45.31523" lon="6.58352">
        <ele>2705.46</ele>
        <time>2014-01-27T13:32:49Z</time>
      </trkpt>
      <trkpt lat="45.31536" lon="6.58371">
        <ele>2697.47</ele>
        <time>2014-01-27T13:32:56Z</time>
      </trkpt>
      <trkpt lat="45.3155" lon="6.58393">
        <ele>2690.59</ele>
        <time>2014-01-27T13:33:03Z</time>
      </trkpt>
      <trkpt lat="45.31552" lon="6.58422">
        <ele>2695.41</ele>
        <time>2014-01-27T13:33:08Z</time>
      </trkpt>
      <trkpt lat="45.31553" lon="6.58449">
        <ele>2699.34</ele>
        <time>2014-01-27T13:33:13Z</time>
      </trkpt>
      <trkpt lat="45.31559" lon="6.58479">
        <ele>2694.95</ele>
        <time>2014-01-27T13:33:19Z</time>
      </trkpt>
      <trkpt lat="45.31567" lon="6.58504">
        <ele>2685.98</ele>
        <time>2014-01-27T13:33:24Z</time>
      </trkpt>
      <trkpt lat="45.31573" lon="6.58532">
        <ele>2678</ele>
        <time>2014-01-27T13:33:29Z</time>
      </trkpt>
      <trkpt lat="45.31589" lon="6.58555">
        <ele>2670.37</ele>
        <time>2014-01-27T13:33:33Z</time>
      </trkpt>
      <trkpt lat="45.31609" lon="6.58562">
        <ele>2663.16</ele>
        <time>2014-01-27T13:33:37Z</time>
      </trkpt>
      <trkpt lat="45.31632" lon="6.58563">
        <ele>2658.92</ele>
        <time>2014-01-27T13:33:41Z</time>
      </trkpt>
      <trkpt lat="45.31652" lon="6.58567">
        <ele>2654.48</ele>
        <time>2014-01-27T13:33:48Z</time>
      </trkpt>
      <trkpt lat="45.31668" lon="6.5858">
        <ele>2653.1</ele>
        <time>2014-01-27T13:33:54Z</time>
      </trkpt>
      <trkpt lat="45.31684" lon="6.58598">
        <ele>2647.57</ele>
        <time>2014-01-27T13:34:00Z</time>
      </trkpt>
      <trkpt lat="45.31696" lon="6.58622">
        <ele>2642.5</ele>
        <time>2014-01-27T13:34:07Z</time>
      </trkpt>
      <trkpt lat="45.31715" lon="6.58633">
        <ele>2635.46</ele>
        <time>2014-01-27T13:34:14Z</time>
      </trkpt>
      <trkpt lat="45.31735" lon="6.5863">
        <ele>2627.49</ele>
        <time>2014-01-27T13:34:18Z</time>
      </trkpt>
      <trkpt lat="45.31757" lon="6.58625">
        <ele>2620.66</ele>
        <time>2014-01-27T13:34:21Z</time>
      </trkpt>
      <trkpt lat="45.31778" lon="6.58618">
        <ele>2616.74</ele>
        <time>2014-01-27T13:34:24Z</time>
      </trkpt>
      <trkpt lat="45.31796" lon="6.5861">
        <ele>2616.43</ele>
        <time>2014-01-27T13:34:28Z</time>
      </trkpt>
      <trkpt lat="45.31813" lon="6.58616">
        <ele>2613.87</ele>
        <time>2014-01-27T13:34:42Z</time>
      </trkpt>
      <trkpt lat="45.31833" lon="6.58625">
        <ele>2609.56</ele>
        <time>2014-01-27T13:34:49Z</time>
      </trkpt>
      <trkpt lat="45.31849" lon="6.58637">
        <ele>2605.94</ele>
        <time>2014-01-27T13:34:57Z</time>
      </trkpt>
      <trkpt lat="45.31866" lon="6.58653">
        <ele>2599.92</ele>
        <time>2014-01-27T13:35:06Z</time>
      </trkpt>
      <trkpt lat="45.31879" lon="6.58674">
        <ele>2592.54</ele>
        <time>2014-01-27T13:35:14Z</time>
      </trkpt>
      <trkpt lat="45.31892" lon="6.58694">
        <ele>2585.66</ele>
        <time>2014-01-27T13:35:22Z</time>
      </trkpt>
      <trkpt lat="45.3189" lon="6.58722">
        <ele>2581.68</ele>
        <time>2014-01-27T13:35:33Z</time>
      </trkpt>
      <trkpt lat="45.31897" lon="6.58745">
        <ele>2569.14</ele>
        <time>2014-01-27T13:35:37Z</time>
      </trkpt>
      <trkpt lat="45.31899" lon="6.58774">
        <ele>2560.62</ele>
        <time>2014-01-27T13:35:43Z</time>
      </trkpt>
      <trkpt lat="45.319" lon="6.58804">
        <ele>2558.09</ele>
        <time>2014-01-27T13:35:47Z</time>
      </trkpt>
      <trkpt lat="45.31899" lon="6.5883">
        <ele>2556.26</ele>
        <time>2014-01-27T13:35:51Z</time>
      </trkpt>
      <trkpt lat="45.31895" lon="6.58857">
        <ele>2554.99</ele>
        <time>2014-01-27T13:35:56Z</time>
      </trkpt>
      <trkpt lat="45.31895" lon="6.58883">
        <ele>2553.35</ele>
        <time>2014-01-27T13:36:04Z</time>
      </trkpt>
      <trkpt lat="45.31899" lon="6.58911">
        <ele>2551.9</ele>
        <time>2014-01-27T13:36:12Z</time>
      </trkpt>
      <trkpt lat="45.31902" lon="6.58938">
        <ele>2548.92</ele>
        <time>2014-01-27T13:36:18Z</time>
      </trkpt>
      <trkpt lat="45.31908" lon="6.58966">
        <ele>2547.54</ele>
        <time>2014-01-27T13:36:24Z</time>
      </trkpt>
      <trkpt lat="45.3192" lon="6.58987">
        <ele>2546.44</ele>
        <time>2014-01-27T13:36:29Z</time>
      </trkpt>
      <trkpt lat="45.31936" lon="6.59002">
        <ele>2542.87</ele>
        <time>2014-01-27T13:36:34Z</time>
      </trkpt>
      <trkpt lat="45.31952" lon="6.59019">
        <ele>2540.58</ele>
        <time>2014-01-27T13:36:39Z</time>
      </trkpt>
      <trkpt lat="45.31969" lon="6.59037">
        <ele>2534.05</ele>
        <time>2014-01-27T13:36:58Z</time>
      </trkpt>
      <trkpt lat="45.3198" lon="6.59057">
        <ele>2534.37</ele>
        <time>2014-01-27T13:37:03Z</time>
      </trkpt>
      <trkpt lat="45.31995" lon="6.59077">
        <ele>2532.68</ele>
        <time>2014-01-27T13:37:11Z</time>
      </trkpt>
      <trkpt lat="45.32009" lon="6.59095">
        <ele>2521</ele>
        <time>2014-01-27T13:37:15Z</time>
      </trkpt>
      <trkpt lat="45.32021" lon="6.59115">
        <ele>2508.77</ele>
        <time>2014-01-27T13:37:21Z</time>
      </trkpt>
      <trkpt lat="45.32028" lon="6.59138">
        <ele>2500.62</ele>
        <time>2014-01-27T13:37:28Z</time>
      </trkpt>
      <trkpt lat="45.32029" lon="6.59165">
        <ele>2500.25</ele>
        <time>2014-01-27T13:37:33Z</time>
      </trkpt>
      <trkpt lat="45.32037" lon="6.59188">
        <ele>2495.63</ele>
        <time>2014-01-27T13:37:38Z</time>
      </trkpt>
      <trkpt lat="45.3205" lon="6.59211">
        <ele>2488.65</ele>
        <time>2014-01-27T13:37:45Z</time>
      </trkpt>
      <trkpt lat="45.3206" lon="6.59233">
        <ele>2483.15</ele>
        <time>2014-01-27T13:37:51Z</time>
      </trkpt>
      <trkpt lat="45.32079" lon="6.59242">
        <ele>2471.39</ele>
        <time>2014-01-27T13:37:59Z</time>
      </trkpt>
      <trkpt lat="45.32098" lon="6.59234">
        <ele>2461.83</ele>
        <time>2014-01-27T13:38:09Z</time>
      </trkpt>
      <trkpt lat="45.32115" lon="6.59243">
        <ele>2455.07</ele>
        <time>2014-01-27T13:38:20Z</time>
      </trkpt>
      <trkpt lat="45.32127" lon="6.59221">
        <ele>2447.33</ele>
        <time>2014-01-27T13:38:29Z</time>
      </trkpt>
      <trkpt lat="45.32148" lon="6.59222">
        <ele>2439.14</ele>
        <time>2014-01-27T13:38:37Z</time>
      </trkpt>
      <trkpt lat="45.32166" lon="6.59229">
        <ele>2433.9</ele>
        <time>2014-01-27T13:38:47Z</time>
      </trkpt>
      <trkpt lat="45.32185" lon="6.59236">
        <ele>2430.57</ele>
        <time>2014-01-27T13:39:03Z</time>
      </trkpt>
      <trkpt lat="45.32205" lon="6.59242">
        <ele>2424.14</ele>
        <time>2014-01-27T13:39:10Z</time>
      </trkpt>
      <trkpt lat="45.32224" lon="6.59251">
        <ele>2413.11</ele>
        <time>2014-01-27T13:39:16Z</time>
      </trkpt>
      <trkpt lat="45.32246" lon="6.59254">
        <ele>2404.01</ele>
        <time>2014-01-27T13:39:20Z</time>
      </trkpt>
      <trkpt lat="45.32265" lon="6.59257">
        <ele>2400.9</ele>
        <time>2014-01-27T13:39:23Z</time>
      </trkpt>
      <trkpt lat="45.32291" lon="6.59259">
        <ele>2398.23</ele>
        <time>2014-01-27T13:39:26Z</time>
      </trkpt>
      <trkpt lat="45.3231" lon="6.59261">
        <ele>2395.64</ele>
        <time>2014-01-27T13:39:28Z</time>
      </trkpt>
      <trkpt lat="45.32329" lon="6.59259">
        <ele>2390.53</ele>
        <time>2014-01-27T13:39:30Z</time>
      </trkpt>
      <trkpt lat="45.32346" lon="6.59253">
        <ele>2387.47</ele>
        <time>2014-01-27T13:39:32Z</time>
      </trkpt>
      <trkpt lat="45.32368" lon="6.59235">
        <ele>2384.36</ele>
        <time>2014-01-27T13:39:35Z</time>
      </trkpt>
      <trkpt lat="45.32387" lon="6.59221">
        <ele>2382.86</ele>
        <time>2014-01-27T13:39:38Z</time>
      </trkpt>
      <trkpt lat="45.32404" lon="6.59208">
        <ele>2382.53</ele>
        <time>2014-01-27T13:39:41Z</time>
      </trkpt>
      <trkpt lat="45.3242" lon="6.59194">
        <ele>2382.31</ele>
        <time>2014-01-27T13:39:45Z</time>
      </trkpt>
      <trkpt lat="45.32433" lon="6.59174">
        <ele>2380.44</ele>
        <time>2014-01-27T13:39:51Z</time>
      </trkpt>
      <trkpt lat="45.32446" lon="6.59156">
        <ele>2378.95</ele>
        <time>2014-01-27T13:40:59Z</time>
      </trkpt>
      <trkpt lat="45.32458" lon="6.59136">
        <ele>2376.44</ele>
        <time>2014-01-27T13:41:05Z</time>
      </trkpt>
      <trkpt lat="45.32472" lon="6.59116">
        <ele>2374.04</ele>
        <time>2014-01-27T13:41:09Z</time>
      </trkpt>
      <trkpt lat="45.32484" lon="6.59096">
        <ele>2371.45</ele>
        <time>2014-01-27T13:41:13Z</time>
      </trkpt>
      <trkpt lat="45.32495" lon="6.59076">
        <ele>2367.94</ele>
        <time>2014-01-27T13:41:18Z</time>
      </trkpt>
      <trkpt lat="45.3251" lon="6.59054">
        <ele>2364.27</ele>
        <time>2014-01-27T13:41:22Z</time>
      </trkpt>
      <trkpt lat="45.32521" lon="6.59032">
        <ele>2360.8</ele>
        <time>2014-01-27T13:41:26Z</time>
      </trkpt>
      <trkpt lat="45.32537" lon="6.59008">
        <ele>2358.01</ele>
        <time>2014-01-27T13:41:30Z</time>
      </trkpt>
      <trkpt lat="45.32554" lon="6.58985">
        <ele>2356.32</ele>
        <time>2014-01-27T13:41:34Z</time>
      </trkpt>
      <trkpt lat="45.3257" lon="6.58965">
        <ele>2354.9</ele>
        <time>2014-01-27T13:41:37Z</time>
      </trkpt>
      <trkpt lat="45.32586" lon="6.58945">
        <ele>2352.98</ele>
        <time>2014-01-27T13:41:40Z</time>
      </trkpt>
      <trkpt lat="45.32599" lon="6.58924">
        <ele>2352.03</ele>
        <time>2014-01-27T13:41:43Z</time>
      </trkpt>
      <trkpt lat="45.32613" lon="6.58899">
        <ele>2350.69</ele>
        <time>2014-01-27T13:41:46Z</time>
      </trkpt>
      <trkpt lat="45.32628" lon="6.58875">
        <ele>2349.92</ele>
        <time>2014-01-27T13:41:49Z</time>
      </trkpt>
      <trkpt lat="45.32644" lon="6.58854">
        <ele>2349.43</ele>
        <time>2014-01-27T13:41:53Z</time>
      </trkpt>
      <trkpt lat="45.32658" lon="6.58829">
        <ele>2347.65</ele>
        <time>2014-01-27T13:41:57Z</time>
      </trkpt>
      <trkpt lat="45.32669" lon="6.58805">
        <ele>2344.49</ele>
        <time>2014-01-27T13:42:01Z</time>
      </trkpt>
      <trkpt lat="45.32683" lon="6.5878">
        <ele>2340.06</ele>
        <time>2014-01-27T13:42:06Z</time>
      </trkpt>
      <trkpt lat="45.32694" lon="6.58757">
        <ele>2335</ele>
        <time>2014-01-27T13:42:11Z</time>
      </trkpt>
      <trkpt lat="45.32709" lon="6.58738">
        <ele>2332.74</ele>
        <time>2014-01-27T13:42:16Z</time>
      </trkpt>
      <trkpt lat="45.32726" lon="6.58721">
        <ele>2329.3</ele>
        <time>2014-01-27T13:42:21Z</time>
      </trkpt>
      <trkpt lat="45.32745" lon="6.58706">
        <ele>2327.31</ele>
        <time>2014-01-27T13:42:25Z</time>
      </trkpt>
      <trkpt lat="45.32763" lon="6.58695">
        <ele>2322.33</ele>
        <time>2014-01-27T13:42:29Z</time>
      </trkpt>
      <trkpt lat="45.32779" lon="6.58684">
        <ele>2317.71</ele>
        <time>2014-01-27T13:42:33Z</time>
      </trkpt>
      <trkpt lat="45.328" lon="6.58676">
        <ele>2313.32</ele>
        <time>2014-01-27T13:42:38Z</time>
      </trkpt>
      <trkpt lat="45.32819" lon="6.58673">
        <ele>2311.09</ele>
        <time>2014-01-27T13:42:42Z</time>
      </trkpt>
      <trkpt lat="45.32838" lon="6.58666">
        <ele>2307.21</ele>
        <time>2014-01-27T13:42:46Z</time>
      </trkpt>
      <trkpt lat="45.32856" lon="6.58658">
        <ele>2303.56</ele>
        <time>2014-01-27T13:42:51Z</time>
      </trkpt>
      <trkpt lat="45.32874" lon="6.58647">
        <ele>2299.82</ele>
        <time>2014-01-27T13:42:55Z</time>
      </trkpt>
      <trkpt lat="45.32892" lon="6.5864">
        <ele>2296.04</ele>
        <time>2014-01-27T13:43:00Z</time>
      </trkpt>
      <trkpt lat="45.32915" lon="6.58636">
        <ele>2292.63</ele>
        <time>2014-01-27T13:43:05Z</time>
      </trkpt>
      <trkpt lat="45.32937" lon="6.58649">
        <ele>2289.3</ele>
        <time>2014-01-27T13:43:09Z</time>
      </trkpt>
      <trkpt lat="45.32953" lon="6.58664">
        <ele>2286.08</ele>
        <time>2014-01-27T13:43:12Z</time>
      </trkpt>
      <trkpt lat="45.32971" lon="6.58685">
        <ele>2280.67</ele>
        <time>2014-01-27T13:43:15Z</time>
      </trkpt>
      <trkpt lat="45.3299" lon="6.58693">
        <ele>2276.4</ele>
        <time>2014-01-27T13:43:18Z</time>
      </trkpt>
      <trkpt lat="45.33009" lon="6.58694">
        <ele>2272.65</ele>
        <time>2014-01-27T13:43:21Z</time>
      </trkpt>
      <trkpt lat="45.33028" lon="6.58686">
        <ele>2269.06</ele>
        <time>2014-01-27T13:43:24Z</time>
      </trkpt>
      <trkpt lat="45.33046" lon="6.5868">
        <ele>2265.42</ele>
        <time>2014-01-27T13:43:27Z</time>
      </trkpt>
      <trkpt lat="45.33067" lon="6.58671">
        <ele>2262.66</ele>
        <time>2014-01-27T13:43:30Z</time>
      </trkpt>
      <trkpt lat="45.33086" lon="6.58657">
        <ele>2261.56</ele>
        <time>2014-01-27T13:43:33Z</time>
      </trkpt>
      <trkpt lat="45.33103" lon="6.5864">
        <ele>2260.87</ele>
        <time>2014-01-27T13:43:36Z</time>
      </trkpt>
      <trkpt lat="45.33118" lon="6.58621">
        <ele>2260.55</ele>
        <time>2014-01-27T13:43:39Z</time>
      </trkpt>
      <trkpt lat="45.33135" lon="6.58603">
        <ele>2259.7</ele>
        <time>2014-01-27T13:43:42Z</time>
      </trkpt>
      <trkpt lat="45.3315" lon="6.58588">
        <ele>2259.16</ele>
        <time>2014-01-27T13:43:45Z</time>
      </trkpt>
      <trkpt lat="45.33166" lon="6.58576">
        <ele>2259</ele>
        <time>2014-01-27T13:43:48Z</time>
      </trkpt>
      <trkpt lat="45.33188" lon="6.58565">
        <ele>2258.48</ele>
        <time>2014-01-27T13:43:52Z</time>
      </trkpt>
      <trkpt lat="45.33209" lon="6.58558">
        <ele>2256.09</ele>
        <time>2014-01-27T13:43:56Z</time>
      </trkpt>
      <trkpt lat="45.33228" lon="6.58552">
        <ele>2252.75</ele>
        <time>2014-01-27T13:44:00Z</time>
      </trkpt>
      <trkpt lat="45.33249" lon="6.58546">
        <ele>2248.45</ele>
        <time>2014-01-27T13:44:05Z</time>
      </trkpt>
      <trkpt lat="45.33269" lon="6.5854">
        <ele>2247.58</ele>
        <time>2014-01-27T13:44:11Z</time>
      </trkpt>
      <trkpt lat="45.3329" lon="6.58536">
        <ele>2245.37</ele>
        <time>2014-01-27T13:44:53Z</time>
      </trkpt>
      <trkpt lat="45.3331" lon="6.58528">
        <ele>2241.05</ele>
        <time>2014-01-27T13:44:59Z</time>
      </trkpt>
      <trkpt lat="45.33328" lon="6.58519">
        <ele>2236.28</ele>
        <time>2014-01-27T13:45:06Z</time>
      </trkpt>
      <trkpt lat="45.33347" lon="6.58511">
        <ele>2230.96</ele>
        <time>2014-01-27T13:45:12Z</time>
      </trkpt>
      <trkpt lat="45.33367" lon="6.58502">
        <ele>2224.4</ele>
        <time>2014-01-27T13:45:18Z</time>
      </trkpt>
      <trkpt lat="45.33389" lon="6.58502">
        <ele>2218.14</ele>
        <time>2014-01-27T13:45:23Z</time>
      </trkpt>
      <trkpt lat="45.33407" lon="6.58501">
        <ele>2212.22</ele>
        <time>2014-01-27T13:45:27Z</time>
      </trkpt>
      <trkpt lat="45.33423" lon="6.58514">
        <ele>2207.17</ele>
        <time>2014-01-27T13:45:31Z</time>
      </trkpt>
      <trkpt lat="45.33443" lon="6.58522">
        <ele>2202.71</ele>
        <time>2014-01-27T13:45:35Z</time>
      </trkpt>
      <trkpt lat="45.33463" lon="6.58534">
        <ele>2198.52</ele>
        <time>2014-01-27T13:45:40Z</time>
      </trkpt>
      <trkpt lat="45.33473" lon="6.58556">
        <ele>2197.52</ele>
        <time>2014-01-27T13:45:44Z</time>
      </trkpt>
      <trkpt lat="45.33475" lon="6.58587">
        <ele>2195.73</ele>
        <time>2014-01-27T13:45:49Z</time>
      </trkpt>
      <trkpt lat="45.33483" lon="6.58618">
        <ele>2187.28</ele>
        <time>2014-01-27T13:45:52Z</time>
      </trkpt>
      <trkpt lat="45.33494" lon="6.5864">
        <ele>2180.06</ele>
        <time>2014-01-27T13:45:54Z</time>
      </trkpt>
      <trkpt lat="45.33505" lon="6.5866">
        <ele>2175.73</ele>
        <time>2014-01-27T13:45:56Z</time>
      </trkpt>
      <trkpt lat="45.33518" lon="6.58683">
        <ele>2169.69</ele>
        <time>2014-01-27T13:45:58Z</time>
      </trkpt>
      <trkpt lat="45.33531" lon="6.58707">
        <ele>2163.71</ele>
        <time>2014-01-27T13:46:00Z</time>
      </trkpt>
      <trkpt lat="45.33547" lon="6.58732">
        <ele>2159.54</ele>
        <time>2014-01-27T13:46:02Z</time>
      </trkpt>
      <trkpt lat="45.33564" lon="6.58754">
        <ele>2154.81</ele>
        <time>2014-01-27T13:46:04Z</time>
      </trkpt>
      <trkpt lat="45.33581" lon="6.58776">
        <ele>2149.68</ele>
        <time>2014-01-27T13:46:06Z</time>
      </trkpt>
      <trkpt lat="45.33602" lon="6.58793">
        <ele>2146.16</ele>
        <time>2014-01-27T13:46:08Z</time>
      </trkpt>
      <trkpt lat="45.33624" lon="6.5881">
        <ele>2142.47</ele>
        <time>2014-01-27T13:46:10Z</time>
      </trkpt>
      <trkpt lat="45.33645" lon="6.58823">
        <ele>2139.08</ele>
        <time>2014-01-27T13:46:12Z</time>
      </trkpt>
      <trkpt lat="45.33667" lon="6.58831">
        <ele>2136.95</ele>
        <time>2014-01-27T13:46:14Z</time>
      </trkpt>
      <trkpt lat="45.33687" lon="6.58836">
        <ele>2135.65</ele>
        <time>2014-01-27T13:46:16Z</time>
      </trkpt>
      <trkpt lat="45.33705" lon="6.58838">
        <ele>2134.03</ele>
        <time>2014-01-27T13:46:18Z</time>
      </trkpt>
      <trkpt lat="45.33729" lon="6.5884">
        <ele>2131.64</ele>
        <time>2014-01-27T13:46:21Z</time>
      </trkpt>
      <trkpt lat="45.33752" lon="6.5884">
        <ele>2129.76</ele>
        <time>2014-01-27T13:46:25Z</time>
      </trkpt>
      <trkpt lat="45.33772" lon="6.58839">
        <ele>2129.81</ele>
        <time>2014-01-27T13:46:30Z</time>
      </trkpt>
      <trkpt lat="45.33792" lon="6.58838">
        <ele>2129.84</ele>
        <time>2014-01-27T13:46:36Z</time>
      </trkpt>
      <trkpt lat="45.33812" lon="6.58836">
        <ele>2129.9</ele>
        <time>2014-01-27T13:46:43Z</time>
      </trkpt>
      <trkpt lat="45.33832" lon="6.58829">
        <ele>2130.53</ele>
        <time>2014-01-27T13:46:52Z</time>
      </trkpt>
      <trkpt lat="45.33851" lon="6.58825">
        <ele>2131.39</ele>
        <time>2014-01-27T13:47:00Z</time>
      </trkpt>
      <trkpt lat="45.33872" lon="6.58821">
        <ele>2131.5</ele>
        <time>2014-01-27T13:47:06Z</time>
      </trkpt>
      <trkpt lat="45.33891" lon="6.58821">
        <ele>2130.31</ele>
        <time>2014-01-27T13:47:10Z</time>
      </trkpt>
      <trkpt lat="45.3391" lon="6.58826">
        <ele>2128.92</ele>
        <time>2014-01-27T13:47:15Z</time>
      </trkpt>
      <trkpt lat="45.33928" lon="6.58835">
        <ele>2127.13</ele>
        <time>2014-01-27T13:47:22Z</time>
      </trkpt>
      <trkpt lat="45.33949" lon="6.5884">
        <ele>2125.33</ele>
        <time>2014-01-27T13:47:48Z</time>
      </trkpt>
      <trkpt lat="45.33972" lon="6.58848">
        <ele>2123.91</ele>
        <time>2014-01-27T13:47:51Z</time>
      </trkpt>
      <trkpt lat="45.33997" lon="6.58859">
        <ele>2118.73</ele>
        <time>2014-01-27T13:47:54Z</time>
      </trkpt>
      <trkpt lat="45.34021" lon="6.58869">
        <ele>2115.01</ele>
        <time>2014-01-27T13:47:57Z</time>
      </trkpt>
      <trkpt lat="45.34041" lon="6.58879">
        <ele>2113.04</ele>
        <time>2014-01-27T13:48:00Z</time>
      </trkpt>
      <trkpt lat="45.3406" lon="6.58892">
        <ele>2112.06</ele>
        <time>2014-01-27T13:48:04Z</time>
      </trkpt>
      <trkpt lat="45.34076" lon="6.58909">
        <ele>2112.01</ele>
        <time>2014-01-27T13:48:21Z</time>
      </trkpt>
      <trkpt lat="45.34092" lon="6.58924">
        <ele>2111.83</ele>
        <time>2014-01-27T13:48:48Z</time>
      </trkpt>
      <trkpt lat="45.34105" lon="6.58943">
        <ele>2111.63</ele>
        <time>2014-01-27T13:49:11Z</time>
      </trkpt>
      <trkpt lat="45.34107" lon="6.58915">
        <ele>2112.98</ele>
        <time>2014-01-27T13:50:38Z</time>
      </trkpt>
      <trkpt lat="45.34105" lon="6.58888">
        <ele>2114.82</ele>
        <time>2014-01-27T13:50:52Z</time>
      </trkpt>
      <trkpt lat="45.3411" lon="6.58857">
        <ele>2117.08</ele>
        <time>2014-01-27T13:50:56Z</time>
      </trkpt>
      <trkpt lat="45.34116" lon="6.58832">
        <ele>2120.41</ele>
        <time>2014-01-27T13:51:02Z</time>
      </trkpt>
      <trkpt lat="45.34121" lon="6.58803">
        <ele>2125.17</ele>
        <time>2014-01-27T13:51:07Z</time>
      </trkpt>
      <trkpt lat="45.34125" lon="6.58773">
        <ele>2130.26</ele>
        <time>2014-01-27T13:51:12Z</time>
      </trkpt>
      <trkpt lat="45.34129" lon="6.58744">
        <ele>2135.55</ele>
        <time>2014-01-27T13:51:18Z</time>
      </trkpt>
      <trkpt lat="45.34133" lon="6.58717">
        <ele>2140.51</ele>
        <time>2014-01-27T13:51:23Z</time>
      </trkpt>
      <trkpt lat="45.34136" lon="6.58687">
        <ele>2147</ele>
        <time>2014-01-27T13:51:28Z</time>
      </trkpt>
      <trkpt lat="45.34139" lon="6.58659">
        <ele>2152.81</ele>
        <time>2014-01-27T13:51:34Z</time>
      </trkpt>
      <trkpt lat="45.3414" lon="6.58633">
        <ele>2155.58</ele>
        <time>2014-01-27T13:51:38Z</time>
      </trkpt>
      <trkpt lat="45.34143" lon="6.58604">
        <ele>2159.59</ele>
        <time>2014-01-27T13:51:43Z</time>
      </trkpt>
      <trkpt lat="45.34145" lon="6.58576">
        <ele>2166.14</ele>
        <time>2014-01-27T13:51:48Z</time>
      </trkpt>
      <trkpt lat="45.34148" lon="6.58548">
        <ele>2173.29</ele>
        <time>2014-01-27T13:51:53Z</time>
      </trkpt>
      <trkpt lat="45.34151" lon="6.58519">
        <ele>2178.63</ele>
        <time>2014-01-27T13:51:59Z</time>
      </trkpt>
      <trkpt lat="45.34153" lon="6.58492">
        <ele>2185.42</ele>
        <time>2014-01-27T13:52:04Z</time>
      </trkpt>
      <trkpt lat="45.34155" lon="6.58466">
        <ele>2194.96</ele>
        <time>2014-01-27T13:52:11Z</time>
      </trkpt>
      <trkpt lat="45.34164" lon="6.5844">
        <ele>2203.08</ele>
        <time>2014-01-27T13:52:18Z</time>
      </trkpt>
      <trkpt lat="45.34171" lon="6.58416">
        <ele>2214.33</ele>
        <time>2014-01-27T13:52:23Z</time>
      </trkpt>
      <trkpt lat="45.34175" lon="6.58389">
        <ele>2227.61</ele>
        <time>2014-01-27T13:52:29Z</time>
      </trkpt>
      <trkpt lat="45.34177" lon="6.58362">
        <ele>2242.13</ele>
        <time>2014-01-27T13:52:34Z</time>
      </trkpt>
      <trkpt lat="45.34178" lon="6.58333">
        <ele>2261.43</ele>
        <time>2014-01-27T13:52:40Z</time>
      </trkpt>
      <trkpt lat="45.3418" lon="6.58304">
        <ele>2275.13</ele>
        <time>2014-01-27T13:52:45Z</time>
      </trkpt>
      <trkpt lat="45.34182" lon="6.58277">
        <ele>2289.36</ele>
        <time>2014-01-27T13:52:49Z</time>
      </trkpt>
      <trkpt lat="45.34182" lon="6.58245">
        <ele>2305.48</ele>
        <time>2014-01-27T13:52:53Z</time>
      </trkpt>
      <trkpt lat="45.34183" lon="6.58216">
        <ele>2317.7</ele>
        <time>2014-01-27T13:52:59Z</time>
      </trkpt>
      <trkpt lat="45.34187" lon="6.58188">
        <ele>2325.39</ele>
        <time>2014-01-27T13:53:05Z</time>
      </trkpt>
      <trkpt lat="45.3419" lon="6.5816">
        <ele>2333.46</ele>
        <time>2014-01-27T13:53:10Z</time>
      </trkpt>
      <trkpt lat="45.34192" lon="6.58134">
        <ele>2343.94</ele>
        <time>2014-01-27T13:53:15Z</time>
      </trkpt>
      <trkpt lat="45.34195" lon="6.58107">
        <ele>2350.38</ele>
        <time>2014-01-27T13:53:21Z</time>
      </trkpt>
      <trkpt lat="45.34198" lon="6.58079">
        <ele>2360.76</ele>
        <time>2014-01-27T13:53:27Z</time>
      </trkpt>
      <trkpt lat="45.342" lon="6.58052">
        <ele>2369.55</ele>
        <time>2014-01-27T13:53:33Z</time>
      </trkpt>
      <trkpt lat="45.34204" lon="6.58026">
        <ele>2381.52</ele>
        <time>2014-01-27T13:53:39Z</time>
      </trkpt>
      <trkpt lat="45.34205" lon="6.58">
        <ele>2393.91</ele>
        <time>2014-01-27T13:53:43Z</time>
      </trkpt>
      <trkpt lat="45.34209" lon="6.57971">
        <ele>2405.17</ele>
        <time>2014-01-27T13:53:48Z</time>
      </trkpt>
      <trkpt lat="45.3421" lon="6.57945">
        <ele>2415.21</ele>
        <time>2014-01-27T13:53:53Z</time>
      </trkpt>
      <trkpt lat="45.34228" lon="6.57931">
        <ele>2415.26</ele>
        <time>2014-01-27T13:54:04Z</time>
      </trkpt>
      <trkpt lat="45.34247" lon="6.57931">
        <ele>2409.82</ele>
        <time>2014-01-27T13:54:11Z</time>
      </trkpt>
      <trkpt lat="45.34263" lon="6.57945">
        <ele>2405.07</ele>
        <time>2014-01-27T13:54:22Z</time>
      </trkpt>
      <trkpt lat="45.34281" lon="6.57952">
        <ele>2400.3</ele>
        <time>2014-01-27T13:54:52Z</time>
      </trkpt>
      <trkpt lat="45.343" lon="6.57938">
        <ele>2399.06</ele>
        <time>2014-01-27T13:54:59Z</time>
      </trkpt>
      <trkpt lat="45.34319" lon="6.57935">
        <ele>2396.94</ele>
        <time>2014-01-27T13:55:02Z</time>
      </trkpt>
      <trkpt lat="45.3434" lon="6.57929">
        <ele>2394.45</ele>
        <time>2014-01-27T13:55:05Z</time>
      </trkpt>
      <trkpt lat="45.34359" lon="6.57925">
        <ele>2391.53</ele>
        <time>2014-01-27T13:55:08Z</time>
      </trkpt>
      <trkpt lat="45.3438" lon="6.57921">
        <ele>2388.18</ele>
        <time>2014-01-27T13:55:12Z</time>
      </trkpt>
      <trkpt lat="45.34399" lon="6.5791">
        <ele>2385.68</ele>
        <time>2014-01-27T13:55:16Z</time>
      </trkpt>
      <trkpt lat="45.34417" lon="6.57893">
        <ele>2383.7</ele>
        <time>2014-01-27T13:55:20Z</time>
      </trkpt>
      <trkpt lat="45.34434" lon="6.57875">
        <ele>2377.41</ele>
        <time>2014-01-27T13:55:24Z</time>
      </trkpt>
      <trkpt lat="45.34452" lon="6.57865">
        <ele>2369.64</ele>
        <time>2014-01-27T13:55:29Z</time>
      </trkpt>
      <trkpt lat="45.34468" lon="6.57847">
        <ele>2366.66</ele>
        <time>2014-01-27T13:55:33Z</time>
      </trkpt>
      <trkpt lat="45.34489" lon="6.57848">
        <ele>2361.45</ele>
        <time>2014-01-27T13:55:39Z</time>
      </trkpt>
      <trkpt lat="45.34506" lon="6.57835">
        <ele>2359.27</ele>
        <time>2014-01-27T13:55:43Z</time>
      </trkpt>
      <trkpt lat="45.34525" lon="6.57847">
        <ele>2353.07</ele>
        <time>2014-01-27T13:55:48Z</time>
      </trkpt>
      <trkpt lat="45.34541" lon="6.57833">
        <ele>2348.42</ele>
        <time>2014-01-27T13:55:52Z</time>
      </trkpt>
      <trkpt lat="45.34563" lon="6.57825">
        <ele>2339.14</ele>
        <time>2014-01-27T13:55:57Z</time>
      </trkpt>
      <trkpt lat="45.34579" lon="6.57839">
        <ele>2327.48</ele>
        <time>2014-01-27T13:56:03Z</time>
      </trkpt>
      <trkpt lat="45.34595" lon="6.57825">
        <ele>2323.47</ele>
        <time>2014-01-27T13:56:09Z</time>
      </trkpt>
      <trkpt lat="45.34613" lon="6.5782">
        <ele>2319.63</ele>
        <time>2014-01-27T13:56:16Z</time>
      </trkpt>
      <trkpt lat="45.3463" lon="6.57829">
        <ele>2312.32</ele>
        <time>2014-01-27T13:56:23Z</time>
      </trkpt>
      <trkpt lat="45.3465" lon="6.57826">
        <ele>2305.35</ele>
        <time>2014-01-27T13:56:35Z</time>
      </trkpt>
      <trkpt lat="45.3467" lon="6.57828">
        <ele>2295.5</ele>
        <time>2014-01-27T13:56:43Z</time>
      </trkpt>
      <trkpt lat="45.34689" lon="6.57828">
        <ele>2284.77</ele>
        <time>2014-01-27T13:56:50Z</time>
      </trkpt>
      <trkpt lat="45.34709" lon="6.57827">
        <ele>2276.54</ele>
        <time>2014-01-27T13:56:57Z</time>
      </trkpt>
      <trkpt lat="45.34728" lon="6.57833">
        <ele>2268.69</ele>
        <time>2014-01-27T13:57:03Z</time>
      </trkpt>
      <trkpt lat="45.34747" lon="6.57825">
        <ele>2265.4</ele>
        <time>2014-01-27T13:57:08Z</time>
      </trkpt>
      <trkpt lat="45.34766" lon="6.57822">
        <ele>2260.01</ele>
        <time>2014-01-27T13:57:13Z</time>
      </trkpt>
      <trkpt lat="45.34782" lon="6.5781">
        <ele>2255.84</ele>
        <time>2014-01-27T13:57:19Z</time>
      </trkpt>
      <trkpt lat="45.348" lon="6.578">
        <ele>2250.56</ele>
        <time>2014-01-27T13:57:25Z</time>
      </trkpt>
      <trkpt lat="45.34821" lon="6.57784">
        <ele>2244.99</ele>
        <time>2014-01-27T13:57:31Z</time>
      </trkpt>
      <trkpt lat="45.34836" lon="6.57769">
        <ele>2240.46</ele>
        <time>2014-01-27T13:57:34Z</time>
      </trkpt>
      <trkpt lat="45.34853" lon="6.57759">
        <ele>2237.64</ele>
        <time>2014-01-27T13:57:38Z</time>
      </trkpt>
      <trkpt lat="45.34871" lon="6.5775">
        <ele>2234.61</ele>
        <time>2014-01-27T13:57:41Z</time>
      </trkpt>
      <trkpt lat="45.34893" lon="6.57737">
        <ele>2230.24</ele>
        <time>2014-01-27T13:57:45Z</time>
      </trkpt>
      <trkpt lat="45.3491" lon="6.57727">
        <ele>2227.8</ele>
        <time>2014-01-27T13:57:48Z</time>
      </trkpt>
      <trkpt lat="45.34929" lon="6.57722">
        <ele>2223.78</ele>
        <time>2014-01-27T13:57:53Z</time>
      </trkpt>
      <trkpt lat="45.34951" lon="6.57724">
        <ele>2218.28</ele>
        <time>2014-01-27T13:57:57Z</time>
      </trkpt>
      <trkpt lat="45.34971" lon="6.57722">
        <ele>2212.41</ele>
        <time>2014-01-27T13:58:20Z</time>
      </trkpt>
      <trkpt lat="45.34986" lon="6.57736">
        <ele>2207</ele>
        <time>2014-01-27T13:58:25Z</time>
      </trkpt>
      <trkpt lat="45.35008" lon="6.57725">
        <ele>2200.05</ele>
        <time>2014-01-27T13:58:33Z</time>
      </trkpt>
      <trkpt lat="45.35028" lon="6.57729">
        <ele>2192.43</ele>
        <time>2014-01-27T13:58:37Z</time>
      </trkpt>
      <trkpt lat="45.3504" lon="6.57749">
        <ele>2188.4</ele>
        <time>2014-01-27T13:58:41Z</time>
      </trkpt>
      <trkpt lat="45.35059" lon="6.57757">
        <ele>2183.01</ele>
        <time>2014-01-27T13:58:46Z</time>
      </trkpt>
      <trkpt lat="45.35076" lon="6.5777">
        <ele>2176.4</ele>
        <time>2014-01-27T13:58:50Z</time>
      </trkpt>
      <trkpt lat="45.35097" lon="6.57779">
        <ele>2171.43</ele>
        <time>2014-01-27T13:58:54Z</time>
      </trkpt>
      <trkpt lat="45.35116" lon="6.57786">
        <ele>2166.54</ele>
        <time>2014-01-27T13:58:59Z</time>
      </trkpt>
      <trkpt lat="45.35135" lon="6.57805">
        <ele>2160.7</ele>
        <time>2014-01-27T13:59:03Z</time>
      </trkpt>
      <trkpt lat="45.35152" lon="6.57818">
        <ele>2155.39</ele>
        <time>2014-01-27T13:59:08Z</time>
      </trkpt>
      <trkpt lat="45.35172" lon="6.57829">
        <ele>2149.14</ele>
        <time>2014-01-27T13:59:14Z</time>
      </trkpt>
      <trkpt lat="45.35189" lon="6.57837">
        <ele>2144.05</ele>
        <time>2014-01-27T13:59:18Z</time>
      </trkpt>
      <trkpt lat="45.35209" lon="6.57848">
        <ele>2138.61</ele>
        <time>2014-01-27T13:59:24Z</time>
      </trkpt>
      <trkpt lat="45.35224" lon="6.57862">
        <ele>2134.48</ele>
        <time>2014-01-27T13:59:28Z</time>
      </trkpt>
      <trkpt lat="45.35244" lon="6.57863">
        <ele>2129.32</ele>
        <time>2014-01-27T13:59:33Z</time>
      </trkpt>
      <trkpt lat="45.35267" lon="6.57863">
        <ele>2123.59</ele>
        <time>2014-01-27T13:59:37Z</time>
      </trkpt>
      <trkpt lat="45.35285" lon="6.57872">
        <ele>2119.16</ele>
        <time>2014-01-27T13:59:40Z</time>
      </trkpt>
      <trkpt lat="45.353" lon="6.57889">
        <ele>2115.77</ele>
        <time>2014-01-27T13:59:43Z</time>
      </trkpt>
      <trkpt lat="45.35317" lon="6.57902">
        <ele>2112.52</ele>
        <time>2014-01-27T13:59:46Z</time>
      </trkpt>
      <trkpt lat="45.35334" lon="6.57916">
        <ele>2108.98</ele>
        <time>2014-01-27T13:59:49Z</time>
      </trkpt>
      <trkpt lat="45.3535" lon="6.57929">
        <ele>2107.53</ele>
        <time>2014-01-27T13:59:52Z</time>
      </trkpt>
      <trkpt lat="45.35361" lon="6.57953">
        <ele>2105.11</ele>
        <time>2014-01-27T13:59:55Z</time>
      </trkpt>
      <trkpt lat="45.35378" lon="6.57973">
        <ele>2101.72</ele>
        <time>2014-01-27T13:59:59Z</time>
      </trkpt>
      <trkpt lat="45.35394" lon="6.57988">
        <ele>2100.27</ele>
        <time>2014-01-27T14:00:03Z</time>
      </trkpt>
      <trkpt lat="45.35415" lon="6.57993">
        <ele>2099.76</ele>
        <time>2014-01-27T14:00:07Z</time>
      </trkpt>
      <trkpt lat="45.35438" lon="6.57997">
        <ele>2095.4</ele>
        <time>2014-01-27T14:00:11Z</time>
      </trkpt>
      <trkpt lat="45.3546" lon="6.57995">
        <ele>2091.81</ele>
        <time>2014-01-27T14:00:14Z</time>
      </trkpt>
      <trkpt lat="45.3548" lon="6.57994">
        <ele>2088.72</ele>
        <time>2014-01-27T14:00:18Z</time>
      </trkpt>
      <trkpt lat="45.35498" lon="6.58013">
        <ele>2084.73</ele>
        <time>2014-01-27T14:00:22Z</time>
      </trkpt>
      <trkpt lat="45.35516" lon="6.58025">
        <ele>2079.72</ele>
        <time>2014-01-27T14:00:26Z</time>
      </trkpt>
      <trkpt lat="45.35538" lon="6.58025">
        <ele>2073.68</ele>
        <time>2014-01-27T14:00:29Z</time>
      </trkpt>
      <trkpt lat="45.35558" lon="6.58019">
        <ele>2068.21</ele>
        <time>2014-01-27T14:00:32Z</time>
      </trkpt>
      <trkpt lat="45.35581" lon="6.58016">
        <ele>2064.25</ele>
        <time>2014-01-27T14:00:35Z</time>
      </trkpt>
      <trkpt lat="45.35606" lon="6.58016">
        <ele>2062.82</ele>
        <time>2014-01-27T14:00:38Z</time>
      </trkpt>
      <trkpt lat="45.3563" lon="6.58015">
        <ele>2060.88</ele>
        <time>2014-01-27T14:00:41Z</time>
      </trkpt>
      <trkpt lat="45.35654" lon="6.58016">
        <ele>2058.28</ele>
        <time>2014-01-27T14:00:44Z</time>
      </trkpt>
      <trkpt lat="45.35676" lon="6.58014">
        <ele>2056.9</ele>
        <time>2014-01-27T14:00:47Z</time>
      </trkpt>
      <trkpt lat="45.357" lon="6.58021">
        <ele>2051.96</ele>
        <time>2014-01-27T14:00:50Z</time>
      </trkpt>
      <trkpt lat="45.35725" lon="6.58023">
        <ele>2046.38</ele>
        <time>2014-01-27T14:00:53Z</time>
      </trkpt>
      <trkpt lat="45.35744" lon="6.58027">
        <ele>2045.35</ele>
        <time>2014-01-27T14:00:55Z</time>
      </trkpt>
      <trkpt lat="45.35763" lon="6.5803">
        <ele>2041.07</ele>
        <time>2014-01-27T14:00:57Z</time>
      </trkpt>
      <trkpt lat="45.35782" lon="6.58031">
        <ele>2036.29</ele>
        <time>2014-01-27T14:00:59Z</time>
      </trkpt>
      <trkpt lat="45.35801" lon="6.58032">
        <ele>2034.85</ele>
        <time>2014-01-27T14:01:01Z</time>
      </trkpt>
      <trkpt lat="45.35825" lon="6.58031">
        <ele>2033.84</ele>
        <time>2014-01-27T14:01:04Z</time>
      </trkpt>
      <trkpt lat="45.35845" lon="6.58029">
        <ele>2032.56</ele>
        <time>2014-01-27T14:01:07Z</time>
      </trkpt>
      <trkpt lat="45.35864" lon="6.58025">
        <ele>2031.03</ele>
        <time>2014-01-27T14:01:10Z</time>
      </trkpt>
      <trkpt lat="45.35886" lon="6.5802">
        <ele>2028.09</ele>
        <time>2014-01-27T14:01:13Z</time>
      </trkpt>
      <trkpt lat="45.35906" lon="6.58017">
        <ele>2024.88</ele>
        <time>2014-01-27T14:01:16Z</time>
      </trkpt>
      <trkpt lat="45.35926" lon="6.58013">
        <ele>2022.26</ele>
        <time>2014-01-27T14:01:19Z</time>
      </trkpt>
      <trkpt lat="45.35947" lon="6.58007">
        <ele>2020.36</ele>
        <time>2014-01-27T14:01:22Z</time>
      </trkpt>
      <trkpt lat="45.35968" lon="6.58003">
        <ele>2018.15</ele>
        <time>2014-01-27T14:01:25Z</time>
      </trkpt>
      <trkpt lat="45.35987" lon="6.57998">
        <ele>2017.29</ele>
        <time>2014-01-27T14:01:29Z</time>
      </trkpt>
      <trkpt lat="45.36008" lon="6.57987">
        <ele>2017.06</ele>
        <time>2014-01-27T14:01:33Z</time>
      </trkpt>
      <trkpt lat="45.36029" lon="6.57976">
        <ele>2015.99</ele>
        <time>2014-01-27T14:01:36Z</time>
      </trkpt>
      <trkpt lat="45.36052" lon="6.57965">
        <ele>2014.21</ele>
        <time>2014-01-27T14:01:39Z</time>
      </trkpt>
      <trkpt lat="45.36075" lon="6.57952">
        <ele>2010.86</ele>
        <time>2014-01-27T14:01:42Z</time>
      </trkpt>
      <trkpt lat="45.36093" lon="6.5794">
        <ele>2011.26</ele>
        <time>2014-01-27T14:01:45Z</time>
      </trkpt>
      <trkpt lat="45.36114" lon="6.5793">
        <ele>2009.72</ele>
        <time>2014-01-27T14:01:49Z</time>
      </trkpt>
      <trkpt lat="45.36132" lon="6.57922">
        <ele>2008.42</ele>
        <time>2014-01-27T14:01:53Z</time>
      </trkpt>
      <trkpt lat="45.36153" lon="6.57911">
        <ele>2003.43</ele>
        <time>2014-01-27T14:01:57Z</time>
      </trkpt>
      <trkpt lat="45.36172" lon="6.57896">
        <ele>2000.63</ele>
        <time>2014-01-27T14:02:01Z</time>
      </trkpt>
      <trkpt lat="45.36191" lon="6.57886">
        <ele>1998.98</ele>
        <time>2014-01-27T14:02:05Z</time>
      </trkpt>
      <trkpt lat="45.3621" lon="6.5788">
        <ele>1994.31</ele>
        <time>2014-01-27T14:02:09Z</time>
      </trkpt>
      <trkpt lat="45.36228" lon="6.57868">
        <ele>1989.62</ele>
        <time>2014-01-27T14:02:13Z</time>
      </trkpt>
      <trkpt lat="45.36247" lon="6.57857">
        <ele>1983.4</ele>
        <time>2014-01-27T14:02:17Z</time>
      </trkpt>
      <trkpt lat="45.36266" lon="6.57841">
        <ele>1978.34</ele>
        <time>2014-01-27T14:02:22Z</time>
      </trkpt>
      <trkpt lat="45.3628" lon="6.57823">
        <ele>1975.23</ele>
        <time>2014-01-27T14:02:26Z</time>
      </trkpt>
      <trkpt lat="45.36297" lon="6.57801">
        <ele>1971.78</ele>
        <time>2014-01-27T14:02:30Z</time>
      </trkpt>
      <trkpt lat="45.36316" lon="6.57783">
        <ele>1964.13</ele>
        <time>2014-01-27T14:02:34Z</time>
      </trkpt>
      <trkpt lat="45.36332" lon="6.5777">
        <ele>1957.03</ele>
        <time>2014-01-27T14:02:37Z</time>
      </trkpt>
      <trkpt lat="45.36356" lon="6.57776">
        <ele>1947.84</ele>
        <time>2014-01-27T14:02:41Z</time>
      </trkpt>
      <trkpt lat="45.36376" lon="6.57776">
        <ele>1942.07</ele>
        <time>2014-01-27T14:02:44Z</time>
      </trkpt>
      <trkpt lat="45.36394" lon="6.57782">
        <ele>1935.67</ele>
        <time>2014-01-27T14:02:47Z</time>
      </trkpt>
      <trkpt lat="45.36415" lon="6.57798">
        <ele>1925.69</ele>
        <time>2014-01-27T14:02:51Z</time>
      </trkpt>
      <trkpt lat="45.36432" lon="6.57808">
        <ele>1918.97</ele>
        <time>2014-01-27T14:02:54Z</time>
      </trkpt>
      <trkpt lat="45.36455" lon="6.57818">
        <ele>1913.22</ele>
        <time>2014-01-27T14:02:58Z</time>
      </trkpt>
      <trkpt lat="45.36474" lon="6.57819">
        <ele>1913.11</ele>
        <time>2014-01-27T14:03:01Z</time>
      </trkpt>
      <trkpt lat="45.36495" lon="6.57822">
        <ele>1913.75</ele>
        <time>2014-01-27T14:03:04Z</time>
      </trkpt>
      <trkpt lat="45.36515" lon="6.57812">
        <ele>1912.06</ele>
        <time>2014-01-27T14:03:07Z</time>
      </trkpt>
      <trkpt lat="45.36532" lon="6.57805">
        <ele>1907.9</ele>
        <time>2014-01-27T14:03:10Z</time>
      </trkpt>
      <trkpt lat="45.36551" lon="6.57798">
        <ele>1899.57</ele>
        <time>2014-01-27T14:03:13Z</time>
      </trkpt>
      <trkpt lat="45.36571" lon="6.57793">
        <ele>1893.42</ele>
        <time>2014-01-27T14:03:16Z</time>
      </trkpt>
      <trkpt lat="45.36592" lon="6.57792">
        <ele>1889.67</ele>
        <time>2014-01-27T14:03:19Z</time>
      </trkpt>
      <trkpt lat="45.36613" lon="6.57789">
        <ele>1889.3</ele>
        <time>2014-01-27T14:03:22Z</time>
      </trkpt>
      <trkpt lat="45.36636" lon="6.57794">
        <ele>1885.49</ele>
        <time>2014-01-27T14:03:25Z</time>
      </trkpt>
      <trkpt lat="45.36657" lon="6.57799">
        <ele>1881.77</ele>
        <time>2014-01-27T14:03:28Z</time>
      </trkpt>
      <trkpt lat="45.36679" lon="6.57801">
        <ele>1879.43</ele>
        <time>2014-01-27T14:03:31Z</time>
      </trkpt>
      <trkpt lat="45.36699" lon="6.578">
        <ele>1878.32</ele>
        <time>2014-01-27T14:03:34Z</time>
      </trkpt>
      <trkpt lat="45.36719" lon="6.57804">
        <ele>1875.61</ele>
        <time>2014-01-27T14:03:38Z</time>
      </trkpt>
      <trkpt lat="45.36737" lon="6.57806">
        <ele>1872.57</ele>
        <time>2014-01-27T14:03:42Z</time>
      </trkpt>
      <trkpt lat="45.36758" lon="6.57806">
        <ele>1869.18</ele>
        <time>2014-01-27T14:03:46Z</time>
      </trkpt>
      <trkpt lat="45.36774" lon="6.57793">
        <ele>1868.89</ele>
        <time>2014-01-27T14:03:51Z</time>
      </trkpt>
      <trkpt lat="45.36796" lon="6.57791">
        <ele>1864.44</ele>
        <time>2014-01-27T14:03:57Z</time>
      </trkpt>
      <trkpt lat="45.36807" lon="6.57816">
        <ele>1853.12</ele>
        <time>2014-01-27T14:04:01Z</time>
      </trkpt>
      <trkpt lat="45.36827" lon="6.57807">
        <ele>1851.99</ele>
        <time>2014-01-27T14:04:06Z</time>
      </trkpt>
      <trkpt lat="45.36836" lon="6.57831">
        <ele>1838.29</ele>
        <time>2014-01-27T14:04:12Z</time>
      </trkpt>
      <trkpt lat="45.36851" lon="6.5785">
        <ele>1827.05</ele>
        <time>2014-01-27T14:04:19Z</time>
      </trkpt>
      <trkpt lat="45.36868" lon="6.57862">
        <ele>1819.12</ele>
        <time>2014-01-27T14:04:25Z</time>
      </trkpt>
      <trkpt lat="45.36885" lon="6.57876">
        <ele>1811.08</ele>
        <time>2014-01-27T14:04:31Z</time>
      </trkpt>
      <trkpt lat="45.36904" lon="6.57875">
        <ele>1810.23</ele>
        <time>2014-01-27T14:04:35Z</time>
      </trkpt>
      <trkpt lat="45.36922" lon="6.57884">
        <ele>1806.32</ele>
        <time>2014-01-27T14:04:40Z</time>
      </trkpt>
      <trkpt lat="45.36941" lon="6.57873">
        <ele>1805.61</ele>
        <time>2014-01-27T14:05:16Z</time>
      </trkpt>
      <trkpt lat="45.36954" lon="6.5785">
        <ele>1805.54</ele>
        <time>2014-01-27T14:05:20Z</time>
      </trkpt>
      <trkpt lat="45.36974" lon="6.57844">
        <ele>1799.49</ele>
        <time>2014-01-27T14:05:26Z</time>
      </trkpt>
      <trkpt lat="45.36996" lon="6.57834">
        <ele>1791.83</ele>
        <time>2014-01-27T14:05:31Z</time>
      </trkpt>
      <trkpt lat="45.37012" lon="6.5782">
        <ele>1785.89</ele>
        <time>2014-01-27T14:05:37Z</time>
      </trkpt>
      <trkpt lat="45.37029" lon="6.57809">
        <ele>1779.32</ele>
        <time>2014-01-27T14:05:42Z</time>
      </trkpt>
      <trkpt lat="45.37049" lon="6.57814">
        <ele>1774</ele>
        <time>2014-01-27T14:05:46Z</time>
      </trkpt>
      <trkpt lat="45.3707" lon="6.57816">
        <ele>1764.47</ele>
        <time>2014-01-27T14:05:50Z</time>
      </trkpt>
      <trkpt lat="45.37088" lon="6.57819">
        <ele>1755.46</ele>
        <time>2014-01-27T14:05:54Z</time>
      </trkpt>
      <trkpt lat="45.37109" lon="6.57824">
        <ele>1748.48</ele>
        <time>2014-01-27T14:05:59Z</time>
      </trkpt>
      <trkpt lat="45.37129" lon="6.57829">
        <ele>1743.38</ele>
        <time>2014-01-27T14:06:04Z</time>
      </trkpt>
      <trkpt lat="45.37152" lon="6.57829">
        <ele>1741.14</ele>
        <time>2014-01-27T14:06:10Z</time>
      </trkpt>
      <trkpt lat="45.3717" lon="6.57842">
        <ele>1734.6</ele>
        <time>2014-01-27T14:06:15Z</time>
      </trkpt>
      <trkpt lat="45.37188" lon="6.57842">
        <ele>1731.46</ele>
        <time>2014-01-27T14:06:19Z</time>
      </trkpt>
      <trkpt lat="45.37208" lon="6.57846">
        <ele>1726.42</ele>
        <time>2014-01-27T14:06:23Z</time>
      </trkpt>
      <trkpt lat="45.37231" lon="6.57856">
        <ele>1720.7</ele>
        <time>2014-01-27T14:06:29Z</time>
      </trkpt>
      <trkpt lat="45.37243" lon="6.5788">
        <ele>1715</ele>
        <time>2014-01-27T14:06:34Z</time>
      </trkpt>
      <trkpt lat="45.37247" lon="6.57909">
        <ele>1710.15</ele>
        <time>2014-01-27T14:06:39Z</time>
      </trkpt>
      <trkpt lat="45.3725" lon="6.57938">
        <ele>1704.29</ele>
        <time>2014-01-27T14:06:44Z</time>
      </trkpt>
      <trkpt lat="45.37255" lon="6.57965">
        <ele>1697.99</ele>
        <time>2014-01-27T14:06:49Z</time>
      </trkpt>
      <trkpt lat="45.37258" lon="6.57996">
        <ele>1690.26</ele>
        <time>2014-01-27T14:06:54Z</time>
      </trkpt>
      <trkpt lat="45.37257" lon="6.58022">
        <ele>1686.83</ele>
        <time>2014-01-27T14:06:57Z</time>
      </trkpt>
      <trkpt lat="45.37268" lon="6.58047">
        <ele>1684.84</ele>
        <time>2014-01-27T14:07:01Z</time>
      </trkpt>
      <trkpt lat="45.3728" lon="6.58068">
        <ele>1683.03</ele>
        <time>2014-01-27T14:07:06Z</time>
      </trkpt>
      <trkpt lat="45.373" lon="6.58075">
        <ele>1682.06</ele>
        <time>2014-01-27T14:07:24Z</time>
      </trkpt>
      <trkpt lat="45.37317" lon="6.58086">
        <ele>1680.83</ele>
        <time>2014-01-27T14:07:33Z</time>
      </trkpt>
      <trkpt lat="45.37335" lon="6.58097">
        <ele>1679.99</ele>
        <time>2014-01-27T14:07:41Z</time>
      </trkpt>
      <trkpt lat="45.37353" lon="6.58093">
        <ele>1679.39</ele>
        <time>2014-01-27T14:07:48Z</time>
      </trkpt>
      <trkpt lat="45.37365" lon="6.58071">
        <ele>1678.69</ele>
        <time>2014-01-27T14:07:54Z</time>
      </trkpt>
      <trkpt lat="45.3738" lon="6.58049">
        <ele>1676.11</ele>
        <time>2014-01-27T14:08:02Z</time>
      </trkpt>
      <trkpt lat="45.37396" lon="6.58037">
        <ele>1673.64</ele>
        <time>2014-01-27T14:08:06Z</time>
      </trkpt>
      <trkpt lat="45.37417" lon="6.58028">
        <ele>1669.98</ele>
        <time>2014-01-27T14:08:11Z</time>
      </trkpt>
      <trkpt lat="45.37435" lon="6.58021">
        <ele>1669.59</ele>
        <time>2014-01-27T14:08:16Z</time>
      </trkpt>
      <trkpt lat="45.37445" lon="6.57998">
        <ele>1667.56</ele>
        <time>2014-01-27T14:08:22Z</time>
      </trkpt>
      <trkpt lat="45.37458" lon="6.57978">
        <ele>1662.34</ele>
        <time>2014-01-27T14:08:25Z</time>
      </trkpt>
      <trkpt lat="45.37472" lon="6.5796">
        <ele>1659.61</ele>
        <time>2014-01-27T14:08:27Z</time>
      </trkpt>
      <trkpt lat="45.37485" lon="6.57942">
        <ele>1657.51</ele>
        <time>2014-01-27T14:08:29Z</time>
      </trkpt>
      <trkpt lat="45.37505" lon="6.57918">
        <ele>1655.83</ele>
        <time>2014-01-27T14:08:32Z</time>
      </trkpt>
      <trkpt lat="45.37526" lon="6.57899">
        <ele>1650.59</ele>
        <time>2014-01-27T14:08:35Z</time>
      </trkpt>
      <trkpt lat="45.37542" lon="6.57884">
        <ele>1645.34</ele>
        <time>2014-01-27T14:08:37Z</time>
      </trkpt>
      <trkpt lat="45.37557" lon="6.57869">
        <ele>1639.47</ele>
        <time>2014-01-27T14:08:39Z</time>
      </trkpt>
      <trkpt lat="45.37571" lon="6.57853">
        <ele>1637.38</ele>
        <time>2014-01-27T14:08:41Z</time>
      </trkpt>
      <trkpt lat="45.37588" lon="6.57839">
        <ele>1634.29</ele>
        <time>2014-01-27T14:08:43Z</time>
      </trkpt>
      <trkpt lat="45.37604" lon="6.57826">
        <ele>1634.13</ele>
        <time>2014-01-27T14:08:45Z</time>
      </trkpt>
      <trkpt lat="45.37625" lon="6.57809">
        <ele>1633.35</ele>
        <time>2014-01-27T14:08:48Z</time>
      </trkpt>
      <trkpt lat="45.37641" lon="6.57793">
        <ele>1631.22</ele>
        <time>2014-01-27T14:08:51Z</time>
      </trkpt>
      <trkpt lat="45.37655" lon="6.57774">
        <ele>1628.34</ele>
        <time>2014-01-27T14:08:54Z</time>
      </trkpt>
      <trkpt lat="45.37671" lon="6.57746">
        <ele>1625.68</ele>
        <time>2014-01-27T14:08:57Z</time>
      </trkpt>
      <trkpt lat="45.37686" lon="6.57716">
        <ele>1623.86</ele>
        <time>2014-01-27T14:09:00Z</time>
      </trkpt>
      <trkpt lat="45.37703" lon="6.57686">
        <ele>1622.23</ele>
        <time>2014-01-27T14:09:03Z</time>
      </trkpt>
      <trkpt lat="45.37718" lon="6.57659">
        <ele>1619.05</ele>
        <time>2014-01-27T14:09:06Z</time>
      </trkpt>
      <trkpt lat="45.37734" lon="6.57637">
        <ele>1616.35</ele>
        <time>2014-01-27T14:09:09Z</time>
      </trkpt>
      <trkpt lat="45.37749" lon="6.5762">
        <ele>1614.35</ele>
        <time>2014-01-27T14:09:12Z</time>
      </trkpt>
      <trkpt lat="45.37765" lon="6.57601">
        <ele>1614.49</ele>
        <time>2014-01-27T14:09:16Z</time>
      </trkpt>
      <trkpt lat="45.37782" lon="6.5758">
        <ele>1614.44</ele>
        <time>2014-01-27T14:09:20Z</time>
      </trkpt>
      <trkpt lat="45.37799" lon="6.57557">
        <ele>1611.56</ele>
        <time>2014-01-27T14:09:24Z</time>
      </trkpt>
      <trkpt lat="45.37815" lon="6.57543">
        <ele>1608.2</ele>
        <time>2014-01-27T14:09:27Z</time>
      </trkpt>
      <trkpt lat="45.37834" lon="6.57526">
        <ele>1603.03</ele>
        <time>2014-01-27T14:09:31Z</time>
      </trkpt>
      <trkpt lat="45.37853" lon="6.57517">
        <ele>1598.91</ele>
        <time>2014-01-27T14:09:34Z</time>
      </trkpt>
      <trkpt lat="45.37874" lon="6.57504">
        <ele>1595.09</ele>
        <time>2014-01-27T14:09:37Z</time>
      </trkpt>
      <trkpt lat="45.37895" lon="6.57497">
        <ele>1589.33</ele>
        <time>2014-01-27T14:09:40Z</time>
      </trkpt>
      <trkpt lat="45.37915" lon="6.57485">
        <ele>1584.18</ele>
        <time>2014-01-27T14:09:43Z</time>
      </trkpt>
      <trkpt lat="45.37934" lon="6.57474">
        <ele>1579.74</ele>
        <time>2014-01-27T14:09:46Z</time>
      </trkpt>
      <trkpt lat="45.37951" lon="6.57464">
        <ele>1575.82</ele>
        <time>2014-01-27T14:09:48Z</time>
      </trkpt>
      <trkpt lat="45.37974" lon="6.57452">
        <ele>1568.89</ele>
        <time>2014-01-27T14:09:50Z</time>
      </trkpt>
      <trkpt lat="45.37993" lon="6.57435">
        <ele>1567.32</ele>
        <time>2014-01-27T14:09:52Z</time>
      </trkpt>
      <trkpt lat="45.38011" lon="6.57415">
        <ele>1564.34</ele>
        <time>2014-01-27T14:09:54Z</time>
      </trkpt>
      <trkpt lat="45.38027" lon="6.57393">
        <ele>1559.2</ele>
        <time>2014-01-27T14:09:56Z</time>
      </trkpt>
      <trkpt lat="45.38042" lon="6.57372">
        <ele>1557.82</ele>
        <time>2014-01-27T14:09:58Z</time>
      </trkpt>
      <trkpt lat="45.38056" lon="6.5735">
        <ele>1555.48</ele>
        <time>2014-01-27T14:10:00Z</time>
      </trkpt>
      <trkpt lat="45.38069" lon="6.5733">
        <ele>1553.81</ele>
        <time>2014-01-27T14:10:02Z</time>
      </trkpt>
      <trkpt lat="45.38084" lon="6.57304">
        <ele>1549.07</ele>
        <time>2014-01-27T14:10:05Z</time>
      </trkpt>
      <trkpt lat="45.38096" lon="6.57284">
        <ele>1549.67</ele>
        <time>2014-01-27T14:10:08Z</time>
      </trkpt>
      <trkpt lat="45.38108" lon="6.57264">
        <ele>1548.93</ele>
        <time>2014-01-27T14:10:12Z</time>
      </trkpt>
      <trkpt lat="45.38123" lon="6.57245">
        <ele>1549.32</ele>
        <time>2014-01-27T14:10:17Z</time>
      </trkpt>
      <trkpt lat="45.38139" lon="6.57231">
        <ele>1549.34</ele>
        <time>2014-01-27T14:10:21Z</time>
      </trkpt>
      <trkpt lat="45.38159" lon="6.57219">
        <ele>1549.3</ele>
        <time>2014-01-27T14:10:26Z</time>
      </trkpt>
      <trkpt lat="45.38181" lon="6.57214">
        <ele>1546.84</ele>
        <time>2014-01-27T14:10:30Z</time>
      </trkpt>
      <trkpt lat="45.38201" lon="6.57209">
        <ele>1544.49</ele>
        <time>2014-01-27T14:10:33Z</time>
      </trkpt>
      <trkpt lat="45.38219" lon="6.57204">
        <ele>1541.49</ele>
        <time>2014-01-27T14:10:35Z</time>
      </trkpt>
      <trkpt lat="45.38245" lon="6.57194">
        <ele>1536.56</ele>
        <time>2014-01-27T14:10:38Z</time>
      </trkpt>
      <trkpt lat="45.38263" lon="6.57186">
        <ele>1533.07</ele>
        <time>2014-01-27T14:10:40Z</time>
      </trkpt>
      <trkpt lat="45.38286" lon="6.57175">
        <ele>1529.1</ele>
        <time>2014-01-27T14:10:42Z</time>
      </trkpt>
      <trkpt lat="45.38305" lon="6.57163">
        <ele>1525.37</ele>
        <time>2014-01-27T14:10:44Z</time>
      </trkpt>
      <trkpt lat="45.38323" lon="6.5715">
        <ele>1522.01</ele>
        <time>2014-01-27T14:10:46Z</time>
      </trkpt>
      <trkpt lat="45.38341" lon="6.57139">
        <ele>1518.93</ele>
        <time>2014-01-27T14:10:48Z</time>
      </trkpt>
      <trkpt lat="45.38363" lon="6.57123">
        <ele>1517.49</ele>
        <time>2014-01-27T14:10:51Z</time>
      </trkpt>
      <trkpt lat="45.38383" lon="6.57108">
        <ele>1515.16</ele>
        <time>2014-01-27T14:10:54Z</time>
      </trkpt>
      <trkpt lat="45.38404" lon="6.57097">
        <ele>1512.5</ele>
        <time>2014-01-27T14:10:57Z</time>
      </trkpt>
      <trkpt lat="45.38427" lon="6.57086">
        <ele>1509.34</ele>
        <time>2014-01-27T14:11:00Z</time>
      </trkpt>
      <trkpt lat="45.38452" lon="6.57072">
        <ele>1505.94</ele>
        <time>2014-01-27T14:11:03Z</time>
      </trkpt>
      <trkpt lat="45.38472" lon="6.5706">
        <ele>1502.99</ele>
        <time>2014-01-27T14:11:06Z</time>
      </trkpt>
      <trkpt lat="45.38492" lon="6.5705">
        <ele>1500.94</ele>
        <time>2014-01-27T14:11:09Z</time>
      </trkpt>
      <trkpt lat="45.38512" lon="6.5704">
        <ele>1498.91</ele>
        <time>2014-01-27T14:11:13Z</time>
      </trkpt>
      <trkpt lat="45.38534" lon="6.57028">
        <ele>1497.3</ele>
        <time>2014-01-27T14:11:16Z</time>
      </trkpt>
      <trkpt lat="45.38559" lon="6.57014">
        <ele>1495.06</ele>
        <time>2014-01-27T14:11:19Z</time>
      </trkpt>
      <trkpt lat="45.3858" lon="6.57002">
        <ele>1493.22</ele>
        <time>2014-01-27T14:11:22Z</time>
      </trkpt>
      <trkpt lat="45.38602" lon="6.5699">
        <ele>1490.38</ele>
        <time>2014-01-27T14:11:25Z</time>
      </trkpt>
      <trkpt lat="45.38622" lon="6.5698">
        <ele>1487.59</ele>
        <time>2014-01-27T14:11:28Z</time>
      </trkpt>
      <trkpt lat="45.38643" lon="6.56967">
        <ele>1485.46</ele>
        <time>2014-01-27T14:11:31Z</time>
      </trkpt>
      <trkpt lat="45.38661" lon="6.56953">
        <ele>1483.1</ele>
        <time>2014-01-27T14:11:34Z</time>
      </trkpt>
      <trkpt lat="45.38681" lon="6.56935">
        <ele>1481.14</ele>
        <time>2014-01-27T14:11:37Z</time>
      </trkpt>
      <trkpt lat="45.38704" lon="6.56916">
        <ele>1477.1</ele>
        <time>2014-01-27T14:11:40Z</time>
      </trkpt>
      <trkpt lat="45.38726" lon="6.56902">
        <ele>1472.53</ele>
        <time>2014-01-27T14:11:43Z</time>
      </trkpt>
      <trkpt lat="45.38751" lon="6.56893">
        <ele>1470.12</ele>
        <time>2014-01-27T14:11:46Z</time>
      </trkpt>
      <trkpt lat="45.38768" lon="6.56888">
        <ele>1468.61</ele>
        <time>2014-01-27T14:11:48Z</time>
      </trkpt>
      <trkpt lat="45.38786" lon="6.5688">
        <ele>1466.41</ele>
        <time>2014-01-27T14:11:50Z</time>
      </trkpt>
      <trkpt lat="45.38806" lon="6.5687">
        <ele>1463.29</ele>
        <time>2014-01-27T14:11:52Z</time>
      </trkpt>
      <trkpt lat="45.38825" lon="6.5686">
        <ele>1460.33</ele>
        <time>2014-01-27T14:11:54Z</time>
      </trkpt>
      <trkpt lat="45.38844" lon="6.5685">
        <ele>1457.75</ele>
        <time>2014-01-27T14:11:56Z</time>
      </trkpt>
      <trkpt lat="45.38862" lon="6.56841">
        <ele>1455.54</ele>
        <time>2014-01-27T14:11:58Z</time>
      </trkpt>
      <trkpt lat="45.3888" lon="6.56831">
        <ele>1453.24</ele>
        <time>2014-01-27T14:12:00Z</time>
      </trkpt>
      <trkpt lat="45.389" lon="6.56822">
        <ele>1451.03</ele>
        <time>2014-01-27T14:12:02Z</time>
      </trkpt>
      <trkpt lat="45.38917" lon="6.56814">
        <ele>1448.36</ele>
        <time>2014-01-27T14:12:04Z</time>
      </trkpt>
      <trkpt lat="45.38942" lon="6.56802">
        <ele>1446.8</ele>
        <time>2014-01-27T14:12:07Z</time>
      </trkpt>
      <trkpt lat="45.38965" lon="6.56793">
        <ele>1445.52</ele>
        <time>2014-01-27T14:12:10Z</time>
      </trkpt>
      <trkpt lat="45.38989" lon="6.56785">
        <ele>1443.03</ele>
        <time>2014-01-27T14:12:13Z</time>
      </trkpt>
      <trkpt lat="45.39013" lon="6.56778">
        <ele>1440.59</ele>
        <time>2014-01-27T14:12:16Z</time>
      </trkpt>
      <trkpt lat="45.39035" lon="6.56771">
        <ele>1439.56</ele>
        <time>2014-01-27T14:12:19Z</time>
      </trkpt>
      <trkpt lat="45.39055" lon="6.56766">
        <ele>1439</ele>
        <time>2014-01-27T14:12:22Z</time>
      </trkpt>
      <trkpt lat="45.39077" lon="6.56766">
        <ele>1439</ele>
        <time>2014-01-27T14:12:26Z</time>
      </trkpt>
      <trkpt lat="45.39096" lon="6.56771">
        <ele>1439</ele>
        <time>2014-01-27T14:12:30Z</time>
      </trkpt>
      <trkpt lat="45.39113" lon="6.56779">
        <ele>1439</ele>
        <time>2014-01-27T14:12:38Z</time>
      </trkpt>
      <trkpt lat="45.39098" lon="6.56795">
        <ele>1439</ele>
        <time>2014-01-27T14:15:27Z</time>
      </trkpt>
      <trkpt lat="45.3908" lon="6.56792">
        <ele>1439</ele>
        <time>2014-01-27T14:17:21Z</time>
      </trkpt>
      <trkpt lat="45.39061" lon="6.56785">
        <ele>1439</ele>
        <time>2014-01-27T14:17:24Z</time>
      </trkpt>
      <trkpt lat="45.39043" lon="6.56781">
        <ele>1439</ele>
        <time>2014-01-27T14:17:28Z</time>
      </trkpt>
      <trkpt lat="45.39025" lon="6.56777">
        <ele>1439.46</ele>
        <time>2014-01-27T14:17:32Z</time>
      </trkpt>
      <trkpt lat="45.39005" lon="6.56773">
        <ele>1442.22</ele>
        <time>2014-01-27T14:17:37Z</time>
      </trkpt>
      <trkpt lat="45.38985" lon="6.56768">
        <ele>1446.76</ele>
        <time>2014-01-27T14:17:43Z</time>
      </trkpt>
      <trkpt lat="45.38967" lon="6.56764">
        <ele>1451.34</ele>
        <time>2014-01-27T14:17:48Z</time>
      </trkpt>
      <trkpt lat="45.38948" lon="6.56758">
        <ele>1455.88</ele>
        <time>2014-01-27T14:17:53Z</time>
      </trkpt>
      <trkpt lat="45.38929" lon="6.56755">
        <ele>1461.33</ele>
        <time>2014-01-27T14:17:59Z</time>
      </trkpt>
      <trkpt lat="45.38908" lon="6.5675">
        <ele>1469.26</ele>
        <time>2014-01-27T14:18:04Z</time>
      </trkpt>
      <trkpt lat="45.38886" lon="6.56745">
        <ele>1478</ele>
        <time>2014-01-27T14:18:10Z</time>
      </trkpt>
      <trkpt lat="45.38867" lon="6.5674">
        <ele>1484.91</ele>
        <time>2014-01-27T14:18:15Z</time>
      </trkpt>
      <trkpt lat="45.38849" lon="6.56736">
        <ele>1491.88</ele>
        <time>2014-01-27T14:18:20Z</time>
      </trkpt>
      <trkpt lat="45.38828" lon="6.5673">
        <ele>1500.22</ele>
        <time>2014-01-27T14:18:26Z</time>
      </trkpt>
      <trkpt lat="45.3881" lon="6.56723">
        <ele>1505.94</ele>
        <time>2014-01-27T14:18:31Z</time>
      </trkpt>
      <trkpt lat="45.38792" lon="6.56714">
        <ele>1515.01</ele>
        <time>2014-01-27T14:18:36Z</time>
      </trkpt>
      <trkpt lat="45.38775" lon="6.56706">
        <ele>1523.36</ele>
        <time>2014-01-27T14:18:42Z</time>
      </trkpt>
      <trkpt lat="45.38756" lon="6.56699">
        <ele>1529.44</ele>
        <time>2014-01-27T14:18:48Z</time>
      </trkpt>
      <trkpt lat="45.38736" lon="6.56692">
        <ele>1539.04</ele>
        <time>2014-01-27T14:18:54Z</time>
      </trkpt>
      <trkpt lat="45.38715" lon="6.56689">
        <ele>1549.27</ele>
        <time>2014-01-27T14:19:00Z</time>
      </trkpt>
      <trkpt lat="45.38695" lon="6.56682">
        <ele>1560.74</ele>
        <time>2014-01-27T14:19:06Z</time>
      </trkpt>
      <trkpt lat="45.38677" lon="6.56674">
        <ele>1569.54</ele>
        <time>2014-01-27T14:19:12Z</time>
      </trkpt>
      <trkpt lat="45.38657" lon="6.56669">
        <ele>1578.86</ele>
        <time>2014-01-27T14:19:18Z</time>
      </trkpt>
      <trkpt lat="45.38635" lon="6.56666">
        <ele>1589.23</ele>
        <time>2014-01-27T14:19:24Z</time>
      </trkpt>
      <trkpt lat="45.38617" lon="6.56663">
        <ele>1599.99</ele>
        <time>2014-01-27T14:19:29Z</time>
      </trkpt>
      <trkpt lat="45.38597" lon="6.56657">
        <ele>1612.94</ele>
        <time>2014-01-27T14:19:34Z</time>
      </trkpt>
      <trkpt lat="45.38577" lon="6.56651">
        <ele>1626.83</ele>
        <time>2014-01-27T14:19:40Z</time>
      </trkpt>
      <trkpt lat="45.38559" lon="6.56647">
        <ele>1635.84</ele>
        <time>2014-01-27T14:19:45Z</time>
      </trkpt>
      <trkpt lat="45.38538" lon="6.56641">
        <ele>1643.88</ele>
        <time>2014-01-27T14:19:50Z</time>
      </trkpt>
      <trkpt lat="45.38518" lon="6.56636">
        <ele>1649.21</ele>
        <time>2014-01-27T14:19:55Z</time>
      </trkpt>
      <trkpt lat="45.385" lon="6.56631">
        <ele>1653.52</ele>
        <time>2014-01-27T14:20:00Z</time>
      </trkpt>
      <trkpt lat="45.3848" lon="6.56623">
        <ele>1664.42</ele>
        <time>2014-01-27T14:20:08Z</time>
      </trkpt>
      <trkpt lat="45.3846" lon="6.5662">
        <ele>1674.74</ele>
        <time>2014-01-27T14:20:14Z</time>
      </trkpt>
      <trkpt lat="45.38441" lon="6.56619">
        <ele>1684.03</ele>
        <time>2014-01-27T14:20:19Z</time>
      </trkpt>
      <trkpt lat="45.38423" lon="6.56616">
        <ele>1694.77</ele>
        <time>2014-01-27T14:20:24Z</time>
      </trkpt>
      <trkpt lat="45.38403" lon="6.56612">
        <ele>1705.51</ele>
        <time>2014-01-27T14:20:30Z</time>
      </trkpt>
      <trkpt lat="45.38383" lon="6.56609">
        <ele>1714.81</ele>
        <time>2014-01-27T14:20:36Z</time>
      </trkpt>
      <trkpt lat="45.38365" lon="6.56604">
        <ele>1723.62</ele>
        <time>2014-01-27T14:20:41Z</time>
      </trkpt>
      <trkpt lat="45.38346" lon="6.56599">
        <ele>1733.54</ele>
        <time>2014-01-27T14:20:46Z</time>
      </trkpt>
      <trkpt lat="45.38327" lon="6.56596">
        <ele>1743.6</ele>
        <time>2014-01-27T14:20:52Z</time>
      </trkpt>
      <trkpt lat="45.38306" lon="6.56591">
        <ele>1754.3</ele>
        <time>2014-01-27T14:20:57Z</time>
      </trkpt>
      <trkpt lat="45.38288" lon="6.56585">
        <ele>1764.55</ele>
        <time>2014-01-27T14:21:01Z</time>
      </trkpt>
      <trkpt lat="45.38269" lon="6.56578">
        <ele>1773.66</ele>
        <time>2014-01-27T14:21:06Z</time>
      </trkpt>
      <trkpt lat="45.38251" lon="6.56571">
        <ele>1780.5</ele>
        <time>2014-01-27T14:21:13Z</time>
      </trkpt>
      <trkpt lat="45.38231" lon="6.56561">
        <ele>1786.78</ele>
        <time>2014-01-27T14:21:20Z</time>
      </trkpt>
      <trkpt lat="45.38211" lon="6.56553">
        <ele>1792.54</ele>
        <time>2014-01-27T14:21:25Z</time>
      </trkpt>
      <trkpt lat="45.38192" lon="6.56547">
        <ele>1797.17</ele>
        <time>2014-01-27T14:21:29Z</time>
      </trkpt>
      <trkpt lat="45.38175" lon="6.5654">
        <ele>1802.05</ele>
        <time>2014-01-27T14:21:33Z</time>
      </trkpt>
      <trkpt lat="45.38153" lon="6.56533">
        <ele>1808.48</ele>
        <time>2014-01-27T14:21:38Z</time>
      </trkpt>
      <trkpt lat="45.38135" lon="6.56527">
        <ele>1814</ele>
        <time>2014-01-27T14:21:42Z</time>
      </trkpt>
      <trkpt lat="45.38117" lon="6.56521">
        <ele>1819.17</ele>
        <time>2014-01-27T14:21:46Z</time>
      </trkpt>
      <trkpt lat="45.38098" lon="6.56513">
        <ele>1823.74</ele>
        <time>2014-01-27T14:21:50Z</time>
      </trkpt>
      <trkpt lat="45.38076" lon="6.56504">
        <ele>1827.6</ele>
        <time>2014-01-27T14:21:54Z</time>
      </trkpt>
      <trkpt lat="45.38055" lon="6.56497">
        <ele>1829.84</ele>
        <time>2014-01-27T14:21:58Z</time>
      </trkpt>
      <trkpt lat="45.38036" lon="6.5649">
        <ele>1832.6</ele>
        <time>2014-01-27T14:22:02Z</time>
      </trkpt>
      <trkpt lat="45.38018" lon="6.56484">
        <ele>1834.21</ele>
        <time>2014-01-27T14:22:06Z</time>
      </trkpt>
      <trkpt lat="45.38" lon="6.56479">
        <ele>1834.96</ele>
        <time>2014-01-27T14:22:10Z</time>
      </trkpt>
      <trkpt lat="45.37983" lon="6.56473">
        <ele>1839.19</ele>
        <time>2014-01-27T14:22:14Z</time>
      </trkpt>
      <trkpt lat="45.37963" lon="6.56466">
        <ele>1844.26</ele>
        <time>2014-01-27T14:22:20Z</time>
      </trkpt>
      <trkpt lat="45.37942" lon="6.56459">
        <ele>1849.68</ele>
        <time>2014-01-27T14:22:26Z</time>
      </trkpt>
      <trkpt lat="45.37923" lon="6.56454">
        <ele>1853.31</ele>
        <time>2014-01-27T14:22:32Z</time>
      </trkpt>
      <trkpt lat="45.37903" lon="6.56448">
        <ele>1856.9</ele>
        <time>2014-01-27T14:22:39Z</time>
      </trkpt>
      <trkpt lat="45.37883" lon="6.56442">
        <ele>1861.63</ele>
        <time>2014-01-27T14:22:46Z</time>
      </trkpt>
      <trkpt lat="45.37865" lon="6.56437">
        <ele>1867.95</ele>
        <time>2014-01-27T14:22:51Z</time>
      </trkpt>
      <trkpt lat="45.37847" lon="6.56429">
        <ele>1873.95</ele>
        <time>2014-01-27T14:22:56Z</time>
      </trkpt>
      <trkpt lat="45.37829" lon="6.56424">
        <ele>1879.09</ele>
        <time>2014-01-27T14:23:02Z</time>
      </trkpt>
      <trkpt lat="45.37809" lon="6.56416">
        <ele>1884.72</ele>
        <time>2014-01-27T14:23:07Z</time>
      </trkpt>
      <trkpt lat="45.37789" lon="6.56409">
        <ele>1890.05</ele>
        <time>2014-01-27T14:23:14Z</time>
      </trkpt>
      <trkpt lat="45.37772" lon="6.56403">
        <ele>1895.15</ele>
        <time>2014-01-27T14:23:19Z</time>
      </trkpt>
      <trkpt lat="45.37752" lon="6.56393">
        <ele>1901.36</ele>
        <time>2014-01-27T14:23:24Z</time>
      </trkpt>
      <trkpt lat="45.37732" lon="6.56385">
        <ele>1905.23</ele>
        <time>2014-01-27T14:23:29Z</time>
      </trkpt>
      <trkpt lat="45.37713" lon="6.56379">
        <ele>1908.05</ele>
        <time>2014-01-27T14:23:34Z</time>
      </trkpt>
      <trkpt lat="45.37691" lon="6.56372">
        <ele>1911.27</ele>
        <time>2014-01-27T14:23:39Z</time>
      </trkpt>
      <trkpt lat="45.37672" lon="6.56366">
        <ele>1914.96</ele>
        <time>2014-01-27T14:23:44Z</time>
      </trkpt>
      <trkpt lat="45.37653" lon="6.56358">
        <ele>1918.98</ele>
        <time>2014-01-27T14:23:50Z</time>
      </trkpt>
      <trkpt lat="45.37635" lon="6.56352">
        <ele>1922.41</ele>
        <time>2014-01-27T14:24:01Z</time>
      </trkpt>
      <trkpt lat="45.37661" lon="6.5633">
        <ele>1923.11</ele>
        <time>2014-01-27T14:24:26Z</time>
      </trkpt>
      <trkpt lat="45.37686" lon="6.56309">
        <ele>1924.85</ele>
        <time>2014-01-27T14:24:29Z</time>
      </trkpt>
      <trkpt lat="45.37703" lon="6.56314">
        <ele>1922.4</ele>
        <time>2014-01-27T14:25:17Z</time>
      </trkpt>
      <trkpt lat="45.37683" lon="6.56323">
        <ele>1922.94</ele>
        <time>2014-01-27T14:26:35Z</time>
      </trkpt>
      <trkpt lat="45.37665" lon="6.5631">
        <ele>1925.6</ele>
        <time>2014-01-27T14:27:04Z</time>
      </trkpt>
      <trkpt lat="45.37643" lon="6.56301">
        <ele>1929.38</ele>
        <time>2014-01-27T14:27:08Z</time>
      </trkpt>
      <trkpt lat="45.37624" lon="6.56295">
        <ele>1933.27</ele>
        <time>2014-01-27T14:27:13Z</time>
      </trkpt>
      <trkpt lat="45.37606" lon="6.56289">
        <ele>1937.79</ele>
        <time>2014-01-27T14:27:18Z</time>
      </trkpt>
      <trkpt lat="45.37588" lon="6.56282">
        <ele>1943.39</ele>
        <time>2014-01-27T14:27:23Z</time>
      </trkpt>
      <trkpt lat="45.37568" lon="6.56273">
        <ele>1951.3</ele>
        <time>2014-01-27T14:27:29Z</time>
      </trkpt>
      <trkpt lat="45.37549" lon="6.56265">
        <ele>1959.22</ele>
        <time>2014-01-27T14:27:34Z</time>
      </trkpt>
      <trkpt lat="45.3753" lon="6.56258">
        <ele>1965.49</ele>
        <time>2014-01-27T14:27:39Z</time>
      </trkpt>
      <trkpt lat="45.3751" lon="6.56249">
        <ele>1971.58</ele>
        <time>2014-01-27T14:27:45Z</time>
      </trkpt>
      <trkpt lat="45.37492" lon="6.56243">
        <ele>1976.77</ele>
        <time>2014-01-27T14:27:49Z</time>
      </trkpt>
      <trkpt lat="45.37474" lon="6.56236">
        <ele>1981.54</ele>
        <time>2014-01-27T14:27:54Z</time>
      </trkpt>
      <trkpt lat="45.37456" lon="6.56227">
        <ele>1984.31</ele>
        <time>2014-01-27T14:27:59Z</time>
      </trkpt>
      <trkpt lat="45.37436" lon="6.56219">
        <ele>1987.5</ele>
        <time>2014-01-27T14:28:04Z</time>
      </trkpt>
      <trkpt lat="45.37417" lon="6.56211">
        <ele>1990.9</ele>
        <time>2014-01-27T14:28:09Z</time>
      </trkpt>
      <trkpt lat="45.37398" lon="6.56204">
        <ele>1996.8</ele>
        <time>2014-01-27T14:28:14Z</time>
      </trkpt>
      <trkpt lat="45.37377" lon="6.56197">
        <ele>2003.55</ele>
        <time>2014-01-27T14:28:19Z</time>
      </trkpt>
      <trkpt lat="45.37359" lon="6.56189">
        <ele>2010.37</ele>
        <time>2014-01-27T14:28:24Z</time>
      </trkpt>
      <trkpt lat="45.37341" lon="6.56181">
        <ele>2016.05</ele>
        <time>2014-01-27T14:28:29Z</time>
      </trkpt>
      <trkpt lat="45.37322" lon="6.56174">
        <ele>2020.24</ele>
        <time>2014-01-27T14:28:34Z</time>
      </trkpt>
      <trkpt lat="45.37303" lon="6.56167">
        <ele>2021.81</ele>
        <time>2014-01-27T14:28:39Z</time>
      </trkpt>
      <trkpt lat="45.37284" lon="6.56159">
        <ele>2027.22</ele>
        <time>2014-01-27T14:28:44Z</time>
      </trkpt>
      <trkpt lat="45.37265" lon="6.5615">
        <ele>2034.76</ele>
        <time>2014-01-27T14:28:49Z</time>
      </trkpt>
      <trkpt lat="45.37247" lon="6.56142">
        <ele>2042.89</ele>
        <time>2014-01-27T14:28:54Z</time>
      </trkpt>
      <trkpt lat="45.37229" lon="6.56135">
        <ele>2047.54</ele>
        <time>2014-01-27T14:28:59Z</time>
      </trkpt>
      <trkpt lat="45.3721" lon="6.56128">
        <ele>2057.48</ele>
        <time>2014-01-27T14:29:04Z</time>
      </trkpt>
      <trkpt lat="45.37192" lon="6.56123">
        <ele>2068.85</ele>
        <time>2014-01-27T14:29:09Z</time>
      </trkpt>
      <trkpt lat="45.37172" lon="6.56117">
        <ele>2081.17</ele>
        <time>2014-01-27T14:29:15Z</time>
      </trkpt>
      <trkpt lat="45.37153" lon="6.56109">
        <ele>2092.69</ele>
        <time>2014-01-27T14:29:20Z</time>
      </trkpt>
      <trkpt lat="45.37135" lon="6.56103">
        <ele>2104.46</ele>
        <time>2014-01-27T14:29:25Z</time>
      </trkpt>
      <trkpt lat="45.37116" lon="6.56096">
        <ele>2116.41</ele>
        <time>2014-01-27T14:29:30Z</time>
      </trkpt>
      <trkpt lat="45.37096" lon="6.56089">
        <ele>2128.91</ele>
        <time>2014-01-27T14:29:36Z</time>
      </trkpt>
      <trkpt lat="45.37076" lon="6.56081">
        <ele>2140.65</ele>
        <time>2014-01-27T14:29:42Z</time>
      </trkpt>
      <trkpt lat="45.37058" lon="6.56075">
        <ele>2149.54</ele>
        <time>2014-01-27T14:29:47Z</time>
      </trkpt>
      <trkpt lat="45.3704" lon="6.56068">
        <ele>2158.37</ele>
        <time>2014-01-27T14:29:52Z</time>
      </trkpt>
      <trkpt lat="45.3702" lon="6.56059">
        <ele>2167.94</ele>
        <time>2014-01-27T14:29:58Z</time>
      </trkpt>
      <trkpt lat="45.37002" lon="6.56053">
        <ele>2175.47</ele>
        <time>2014-01-27T14:30:03Z</time>
      </trkpt>
      <trkpt lat="45.36982" lon="6.56047">
        <ele>2182.1</ele>
        <time>2014-01-27T14:30:08Z</time>
      </trkpt>
      <trkpt lat="45.3696" lon="6.56038">
        <ele>2186.13</ele>
        <time>2014-01-27T14:30:13Z</time>
      </trkpt>
      <trkpt lat="45.36941" lon="6.5603">
        <ele>2189.69</ele>
        <time>2014-01-27T14:30:18Z</time>
      </trkpt>
      <trkpt lat="45.36922" lon="6.5602">
        <ele>2198.55</ele>
        <time>2014-01-27T14:30:24Z</time>
      </trkpt>
      <trkpt lat="45.36905" lon="6.56012">
        <ele>2205.32</ele>
        <time>2014-01-27T14:30:29Z</time>
      </trkpt>
      <trkpt lat="45.36886" lon="6.56004">
        <ele>2211.44</ele>
        <time>2014-01-27T14:30:34Z</time>
      </trkpt>
      <trkpt lat="45.36868" lon="6.55996">
        <ele>2216.6</ele>
        <time>2014-01-27T14:30:39Z</time>
      </trkpt>
      <trkpt lat="45.36851" lon="6.55988">
        <ele>2222.07</ele>
        <time>2014-01-27T14:30:44Z</time>
      </trkpt>
      <trkpt lat="45.36832" lon="6.5598">
        <ele>2227.77</ele>
        <time>2014-01-27T14:30:49Z</time>
      </trkpt>
      <trkpt lat="45.36815" lon="6.55973">
        <ele>2238.03</ele>
        <time>2014-01-27T14:30:54Z</time>
      </trkpt>
      <trkpt lat="45.36796" lon="6.55966">
        <ele>2247.9</ele>
        <time>2014-01-27T14:30:59Z</time>
      </trkpt>
      <trkpt lat="45.36776" lon="6.55957">
        <ele>2258.07</ele>
        <time>2014-01-27T14:31:05Z</time>
      </trkpt>
      <trkpt lat="45.36758" lon="6.5595">
        <ele>2266.95</ele>
        <time>2014-01-27T14:31:10Z</time>
      </trkpt>
      <trkpt lat="45.36738" lon="6.55944">
        <ele>2277.78</ele>
        <time>2014-01-27T14:31:16Z</time>
      </trkpt>
      <trkpt lat="45.36719" lon="6.55937">
        <ele>2287.78</ele>
        <time>2014-01-27T14:31:21Z</time>
      </trkpt>
      <trkpt lat="45.36701" lon="6.5593">
        <ele>2296.05</ele>
        <time>2014-01-27T14:31:26Z</time>
      </trkpt>
      <trkpt lat="45.36683" lon="6.55924">
        <ele>2304.38</ele>
        <time>2014-01-27T14:31:31Z</time>
      </trkpt>
      <trkpt lat="45.36665" lon="6.55915">
        <ele>2312.79</ele>
        <time>2014-01-27T14:31:44Z</time>
      </trkpt>
      <trkpt lat="45.36647" lon="6.55918">
        <ele>2323.4</ele>
        <time>2014-01-27T14:31:53Z</time>
      </trkpt>
      <trkpt lat="45.36627" lon="6.55917">
        <ele>2332.02</ele>
        <time>2014-01-27T14:31:59Z</time>
      </trkpt>
      <trkpt lat="45.36609" lon="6.55914">
        <ele>2338.08</ele>
        <time>2014-01-27T14:32:04Z</time>
      </trkpt>
      <trkpt lat="45.36592" lon="6.55909">
        <ele>2340.8</ele>
        <time>2014-01-27T14:32:09Z</time>
      </trkpt>
      <trkpt lat="45.36573" lon="6.55902">
        <ele>2343.2</ele>
        <time>2014-01-27T14:32:14Z</time>
      </trkpt>
      <trkpt lat="45.36553" lon="6.55896">
        <ele>2347.26</ele>
        <time>2014-01-27T14:32:19Z</time>
      </trkpt>
      <trkpt lat="45.36533" lon="6.55889">
        <ele>2352.94</ele>
        <time>2014-01-27T14:32:24Z</time>
      </trkpt>
      <trkpt lat="45.36515" lon="6.55883">
        <ele>2357.13</ele>
        <time>2014-01-27T14:32:29Z</time>
      </trkpt>
      <trkpt lat="45.36498" lon="6.55869">
        <ele>2366.74</ele>
        <time>2014-01-27T14:32:32Z</time>
      </trkpt>
      <trkpt lat="45.36479" lon="6.55852">
        <ele>2378.88</ele>
        <time>2014-01-27T14:32:36Z</time>
      </trkpt>
      <trkpt lat="45.36462" lon="6.55839">
        <ele>2388.61</ele>
        <time>2014-01-27T14:32:41Z</time>
      </trkpt>
      <trkpt lat="45.36444" lon="6.55832">
        <ele>2395.03</ele>
        <time>2014-01-27T14:32:47Z</time>
      </trkpt>
      <trkpt lat="45.36425" lon="6.55825">
        <ele>2406.79</ele>
        <time>2014-01-27T14:32:52Z</time>
      </trkpt>
      <trkpt lat="45.36405" lon="6.55815">
        <ele>2413.57</ele>
        <time>2014-01-27T14:32:57Z</time>
      </trkpt>
      <trkpt lat="45.36401" lon="6.5579">
        <ele>2407.38</ele>
        <time>2014-01-27T14:33:12Z</time>
      </trkpt>
      <trkpt lat="45.36421" lon="6.55776">
        <ele>2403</ele>
        <time>2014-01-27T14:33:44Z</time>
      </trkpt>
      <trkpt lat="45.36438" lon="6.55764">
        <ele>2401.08</ele>
        <time>2014-01-27T14:33:55Z</time>
      </trkpt>
      <trkpt lat="45.36455" lon="6.55752">
        <ele>2397.98</ele>
        <time>2014-01-27T14:34:05Z</time>
      </trkpt>
      <trkpt lat="45.36473" lon="6.55741">
        <ele>2397.45</ele>
        <time>2014-01-27T14:34:17Z</time>
      </trkpt>
      <trkpt lat="45.36492" lon="6.55735">
        <ele>2401.11</ele>
        <time>2014-01-27T14:34:28Z</time>
      </trkpt>
      <trkpt lat="45.36511" lon="6.55725">
        <ele>2403.1</ele>
        <time>2014-01-27T14:34:36Z</time>
      </trkpt>
      <trkpt lat="45.36529" lon="6.55715">
        <ele>2402.5</ele>
        <time>2014-01-27T14:34:42Z</time>
      </trkpt>
      <trkpt lat="45.36548" lon="6.55705">
        <ele>2404.4</ele>
        <time>2014-01-27T14:34:49Z</time>
      </trkpt>
      <trkpt lat="45.36567" lon="6.55694">
        <ele>2407.56</ele>
        <time>2014-01-27T14:34:57Z</time>
      </trkpt>
      <trkpt lat="45.36583" lon="6.55679">
        <ele>2396.59</ele>
        <time>2014-01-27T14:35:02Z</time>
      </trkpt>
      <trkpt lat="45.366" lon="6.55657">
        <ele>2383.96</ele>
        <time>2014-01-27T14:35:06Z</time>
      </trkpt>
      <trkpt lat="45.36619" lon="6.55647">
        <ele>2379.4</ele>
        <time>2014-01-27T14:35:09Z</time>
      </trkpt>
      <trkpt lat="45.3664" lon="6.55632">
        <ele>2374.74</ele>
        <time>2014-01-27T14:35:13Z</time>
      </trkpt>
      <trkpt lat="45.36657" lon="6.55614">
        <ele>2363.05</ele>
        <time>2014-01-27T14:35:16Z</time>
      </trkpt>
      <trkpt lat="45.36675" lon="6.55591">
        <ele>2354.05</ele>
        <time>2014-01-27T14:35:19Z</time>
      </trkpt>
      <trkpt lat="45.36692" lon="6.55569">
        <ele>2350.02</ele>
        <time>2014-01-27T14:35:22Z</time>
      </trkpt>
      <trkpt lat="45.36711" lon="6.55541">
        <ele>2344.87</ele>
        <time>2014-01-27T14:35:25Z</time>
      </trkpt>
      <trkpt lat="45.36722" lon="6.5552">
        <ele>2341.63</ele>
        <time>2014-01-27T14:35:27Z</time>
      </trkpt>
      <trkpt lat="45.36735" lon="6.5549">
        <ele>2338.54</ele>
        <time>2014-01-27T14:35:30Z</time>
      </trkpt>
      <trkpt lat="45.36745" lon="6.5546">
        <ele>2338.7</ele>
        <time>2014-01-27T14:35:33Z</time>
      </trkpt>
      <trkpt lat="45.36752" lon="6.55434">
        <ele>2338.24</ele>
        <time>2014-01-27T14:35:36Z</time>
      </trkpt>
      <trkpt lat="45.36761" lon="6.55412">
        <ele>2335.74</ele>
        <time>2014-01-27T14:35:39Z</time>
      </trkpt>
      <trkpt lat="45.3677" lon="6.55388">
        <ele>2333.1</ele>
        <time>2014-01-27T14:35:42Z</time>
      </trkpt>
      <trkpt lat="45.36788" lon="6.55369">
        <ele>2330.45</ele>
        <time>2014-01-27T14:35:45Z</time>
      </trkpt>
      <trkpt lat="45.36802" lon="6.5535">
        <ele>2325.27</ele>
        <time>2014-01-27T14:35:47Z</time>
      </trkpt>
      <trkpt lat="45.36818" lon="6.55328">
        <ele>2314.53</ele>
        <time>2014-01-27T14:35:49Z</time>
      </trkpt>
      <trkpt lat="45.36834" lon="6.55306">
        <ele>2307.38</ele>
        <time>2014-01-27T14:35:52Z</time>
      </trkpt>
      <trkpt lat="45.36842" lon="6.55282">
        <ele>2304.45</ele>
        <time>2014-01-27T14:35:55Z</time>
      </trkpt>
      <trkpt lat="45.36848" lon="6.55251">
        <ele>2303.83</ele>
        <time>2014-01-27T14:35:59Z</time>
      </trkpt>
      <trkpt lat="45.36854" lon="6.55224">
        <ele>2304.09</ele>
        <time>2014-01-27T14:36:03Z</time>
      </trkpt>
      <trkpt lat="45.36868" lon="6.55202">
        <ele>2305.81</ele>
        <time>2014-01-27T14:36:07Z</time>
      </trkpt>
      <trkpt lat="45.36884" lon="6.55188">
        <ele>2306.73</ele>
        <time>2014-01-27T14:36:10Z</time>
      </trkpt>
      <trkpt lat="45.369" lon="6.55176">
        <ele>2304.89</ele>
        <time>2014-01-27T14:36:13Z</time>
      </trkpt>
      <trkpt lat="45.36916" lon="6.55163">
        <ele>2301.5</ele>
        <time>2014-01-27T14:36:16Z</time>
      </trkpt>
      <trkpt lat="45.36935" lon="6.55146">
        <ele>2300.72</ele>
        <time>2014-01-27T14:36:20Z</time>
      </trkpt>
      <trkpt lat="45.3695" lon="6.55128">
        <ele>2299.28</ele>
        <time>2014-01-27T14:36:24Z</time>
      </trkpt>
      <trkpt lat="45.36965" lon="6.55107">
        <ele>2296.89</ele>
        <time>2014-01-27T14:36:28Z</time>
      </trkpt>
      <trkpt lat="45.3698" lon="6.55084">
        <ele>2294.87</ele>
        <time>2014-01-27T14:36:32Z</time>
      </trkpt>
      <trkpt lat="45.36995" lon="6.55064">
        <ele>2294.62</ele>
        <time>2014-01-27T14:36:36Z</time>
      </trkpt>
      <trkpt lat="45.37008" lon="6.55046">
        <ele>2293.62</ele>
        <time>2014-01-27T14:36:40Z</time>
      </trkpt>
      <trkpt lat="45.37026" lon="6.55027">
        <ele>2292.48</ele>
        <time>2014-01-27T14:36:44Z</time>
      </trkpt>
      <trkpt lat="45.37043" lon="6.55016">
        <ele>2291.98</ele>
        <time>2014-01-27T14:36:47Z</time>
      </trkpt>
      <trkpt lat="45.37065" lon="6.55012">
        <ele>2291.8</ele>
        <time>2014-01-27T14:36:51Z</time>
      </trkpt>
      <trkpt lat="45.37084" lon="6.5501">
        <ele>2290.51</ele>
        <time>2014-01-27T14:36:54Z</time>
      </trkpt>
      <trkpt lat="45.37105" lon="6.55007">
        <ele>2289.43</ele>
        <time>2014-01-27T14:36:58Z</time>
      </trkpt>
      <trkpt lat="45.37121" lon="6.54985">
        <ele>2285.16</ele>
        <time>2014-01-27T14:38:09Z</time>
      </trkpt>
      <trkpt lat="45.37131" lon="6.54962">
        <ele>2281.19</ele>
        <time>2014-01-27T14:38:13Z</time>
      </trkpt>
      <trkpt lat="45.37142" lon="6.5494">
        <ele>2276.53</ele>
        <time>2014-01-27T14:38:16Z</time>
      </trkpt>
      <trkpt lat="45.37153" lon="6.54913">
        <ele>2268.72</ele>
        <time>2014-01-27T14:38:20Z</time>
      </trkpt>
      <trkpt lat="45.37167" lon="6.5489">
        <ele>2264.24</ele>
        <time>2014-01-27T14:38:24Z</time>
      </trkpt>
      <trkpt lat="45.37178" lon="6.54869">
        <ele>2260.88</ele>
        <time>2014-01-27T14:38:46Z</time>
      </trkpt>
      <trkpt lat="45.37166" lon="6.54842">
        <ele>2254.55</ele>
        <time>2014-01-27T14:38:52Z</time>
      </trkpt>
      <trkpt lat="45.37183" lon="6.54828">
        <ele>2250.74</ele>
        <time>2014-01-27T14:38:57Z</time>
      </trkpt>
      <trkpt lat="45.37203" lon="6.54831">
        <ele>2249.83</ele>
        <time>2014-01-27T14:39:01Z</time>
      </trkpt>
      <trkpt lat="45.37221" lon="6.54841">
        <ele>2247.27</ele>
        <time>2014-01-27T14:39:07Z</time>
      </trkpt>
      <trkpt lat="45.37236" lon="6.54823">
        <ele>2239.33</ele>
        <time>2014-01-27T14:39:12Z</time>
      </trkpt>
      <trkpt lat="45.37255" lon="6.5482">
        <ele>2232.31</ele>
        <time>2014-01-27T14:39:17Z</time>
      </trkpt>
      <trkpt lat="45.37269" lon="6.54803">
        <ele>2224.66</ele>
        <time>2014-01-27T14:39:28Z</time>
      </trkpt>
      <trkpt lat="45.37254" lon="6.54783">
        <ele>2222.27</ele>
        <time>2014-01-27T14:40:02Z</time>
      </trkpt>
      <trkpt lat="45.37239" lon="6.54763">
        <ele>2222.24</ele>
        <time>2014-01-27T14:40:07Z</time>
      </trkpt>
      <trkpt lat="45.37247" lon="6.54736">
        <ele>2209.96</ele>
        <time>2014-01-27T14:40:12Z</time>
      </trkpt>
      <trkpt lat="45.37264" lon="6.54729">
        <ele>2204.75</ele>
        <time>2014-01-27T14:40:33Z</time>
      </trkpt>
      <trkpt lat="45.37279" lon="6.54713">
        <ele>2199.23</ele>
        <time>2014-01-27T14:40:43Z</time>
      </trkpt>
      <trkpt lat="45.37299" lon="6.54695">
        <ele>2187.58</ele>
        <time>2014-01-27T14:40:47Z</time>
      </trkpt>
      <trkpt lat="45.37305" lon="6.5467">
        <ele>2180.74</ele>
        <time>2014-01-27T14:40:54Z</time>
      </trkpt>
      <trkpt lat="45.373" lon="6.54644">
        <ele>2177.48</ele>
        <time>2014-01-27T14:40:59Z</time>
      </trkpt>
      <trkpt lat="45.37303" lon="6.54618">
        <ele>2174.04</ele>
        <time>2014-01-27T14:41:02Z</time>
      </trkpt>
      <trkpt lat="45.37308" lon="6.54585">
        <ele>2169.86</ele>
        <time>2014-01-27T14:41:06Z</time>
      </trkpt>
      <trkpt lat="45.37312" lon="6.54554">
        <ele>2163.28</ele>
        <time>2014-01-27T14:41:10Z</time>
      </trkpt>
      <trkpt lat="45.37322" lon="6.54533">
        <ele>2157.52</ele>
        <time>2014-01-27T14:41:15Z</time>
      </trkpt>
      <trkpt lat="45.37342" lon="6.54544">
        <ele>2157.04</ele>
        <time>2014-01-27T14:41:38Z</time>
      </trkpt>
      <trkpt lat="45.37343" lon="6.54517">
        <ele>2149.36</ele>
        <time>2014-01-27T14:41:48Z</time>
      </trkpt>
      <trkpt lat="45.37363" lon="6.54514">
        <ele>2145.02</ele>
        <time>2014-01-27T14:41:55Z</time>
      </trkpt>
      <trkpt lat="45.37381" lon="6.54521">
        <ele>2141.44</ele>
        <time>2014-01-27T14:42:02Z</time>
      </trkpt>
      <trkpt lat="45.37391" lon="6.54498">
        <ele>2134.85</ele>
        <time>2014-01-27T14:42:10Z</time>
      </trkpt>
      <trkpt lat="45.37413" lon="6.54505">
        <ele>2131.82</ele>
        <time>2014-01-27T14:42:32Z</time>
      </trkpt>
      <trkpt lat="45.37426" lon="6.54487">
        <ele>2121.84</ele>
        <time>2014-01-27T14:42:39Z</time>
      </trkpt>
      <trkpt lat="45.37437" lon="6.54462">
        <ele>2110.13</ele>
        <time>2014-01-27T14:42:44Z</time>
      </trkpt>
      <trkpt lat="45.37447" lon="6.54436">
        <ele>2101.78</ele>
        <time>2014-01-27T14:42:50Z</time>
      </trkpt>
      <trkpt lat="45.37461" lon="6.54419">
        <ele>2095.65</ele>
        <time>2014-01-27T14:42:56Z</time>
      </trkpt>
      <trkpt lat="45.37465" lon="6.5439">
        <ele>2088.49</ele>
        <time>2014-01-27T14:43:00Z</time>
      </trkpt>
      <trkpt lat="45.37482" lon="6.54371">
        <ele>2083.78</ele>
        <time>2014-01-27T14:43:33Z</time>
      </trkpt>
      <trkpt lat="45.37489" lon="6.54346">
        <ele>2079.18</ele>
        <time>2014-01-27T14:43:38Z</time>
      </trkpt>
      <trkpt lat="45.37499" lon="6.54323">
        <ele>2072.32</ele>
        <time>2014-01-27T14:43:41Z</time>
      </trkpt>
      <trkpt lat="45.37509" lon="6.543">
        <ele>2065.63</ele>
        <time>2014-01-27T14:43:49Z</time>
      </trkpt>
      <trkpt lat="45.37523" lon="6.5428">
        <ele>2062.33</ele>
        <time>2014-01-27T14:43:52Z</time>
      </trkpt>
      <trkpt lat="45.37541" lon="6.54258">
        <ele>2058.78</ele>
        <time>2014-01-27T14:43:55Z</time>
      </trkpt>
      <trkpt lat="45.37559" lon="6.54239">
        <ele>2059.08</ele>
        <time>2014-01-27T14:43:58Z</time>
      </trkpt>
      <trkpt lat="45.37576" lon="6.54223">
        <ele>2058.23</ele>
        <time>2014-01-27T14:44:01Z</time>
      </trkpt>
      <trkpt lat="45.3759" lon="6.54207">
        <ele>2056.56</ele>
        <time>2014-01-27T14:44:05Z</time>
      </trkpt>
      <trkpt lat="45.37601" lon="6.54184">
        <ele>2053.62</ele>
        <time>2014-01-27T14:44:26Z</time>
      </trkpt>
      <trkpt lat="45.37605" lon="6.54157">
        <ele>2049.68</ele>
        <time>2014-01-27T14:44:32Z</time>
      </trkpt>
      <trkpt lat="45.37612" lon="6.54125">
        <ele>2045.02</ele>
        <time>2014-01-27T14:44:36Z</time>
      </trkpt>
      <trkpt lat="45.37614" lon="6.541">
        <ele>2037.66</ele>
        <time>2014-01-27T14:44:40Z</time>
      </trkpt>
      <trkpt lat="45.37619" lon="6.54067">
        <ele>2030.75</ele>
        <time>2014-01-27T14:44:43Z</time>
      </trkpt>
      <trkpt lat="45.37627" lon="6.54038">
        <ele>2027.57</ele>
        <time>2014-01-27T14:44:46Z</time>
      </trkpt>
      <trkpt lat="45.37626" lon="6.54003">
        <ele>2023.97</ele>
        <time>2014-01-27T14:44:49Z</time>
      </trkpt>
      <trkpt lat="45.37619" lon="6.53974">
        <ele>2020.74</ele>
        <time>2014-01-27T14:44:52Z</time>
      </trkpt>
      <trkpt lat="45.37612" lon="6.53943">
        <ele>2015.91</ele>
        <time>2014-01-27T14:44:56Z</time>
      </trkpt>
      <trkpt lat="45.37602" lon="6.53912">
        <ele>2010.78</ele>
        <time>2014-01-27T14:45:00Z</time>
      </trkpt>
      <trkpt lat="45.37594" lon="6.53883">
        <ele>2006.24</ele>
        <time>2014-01-27T14:45:04Z</time>
      </trkpt>
      <trkpt lat="45.37593" lon="6.53851">
        <ele>2000.56</ele>
        <time>2014-01-27T14:45:08Z</time>
      </trkpt>
      <trkpt lat="45.37589" lon="6.53818">
        <ele>1995.34</ele>
        <time>2014-01-27T14:45:12Z</time>
      </trkpt>
      <trkpt lat="45.37591" lon="6.53782">
        <ele>1988.96</ele>
        <time>2014-01-27T14:45:15Z</time>
      </trkpt>
      <trkpt lat="45.37593" lon="6.53757">
        <ele>1984.95</ele>
        <time>2014-01-27T14:45:17Z</time>
      </trkpt>
      <trkpt lat="45.37594" lon="6.5373">
        <ele>1980.86</ele>
        <time>2014-01-27T14:45:19Z</time>
      </trkpt>
      <trkpt lat="45.37597" lon="6.53701">
        <ele>1977.63</ele>
        <time>2014-01-27T14:45:21Z</time>
      </trkpt>
      <trkpt lat="45.376" lon="6.53672">
        <ele>1975.03</ele>
        <time>2014-01-27T14:45:23Z</time>
      </trkpt>
      <trkpt lat="45.37603" lon="6.53642">
        <ele>1972.89</ele>
        <time>2014-01-27T14:45:26Z</time>
      </trkpt>
      <trkpt lat="45.37603" lon="6.53613">
        <ele>1970.56</ele>
        <time>2014-01-27T14:45:34Z</time>
      </trkpt>
      <trkpt lat="45.37615" lon="6.53589">
        <ele>1968.64</ele>
        <time>2014-01-27T14:45:38Z</time>
      </trkpt>
      <trkpt lat="45.37622" lon="6.5356">
        <ele>1965.09</ele>
        <time>2014-01-27T14:45:41Z</time>
      </trkpt>
      <trkpt lat="45.37627" lon="6.53532">
        <ele>1961.48</ele>
        <time>2014-01-27T14:45:44Z</time>
      </trkpt>
      <trkpt lat="45.37633" lon="6.535">
        <ele>1956.99</ele>
        <time>2014-01-27T14:45:47Z</time>
      </trkpt>
      <trkpt lat="45.3764" lon="6.5347">
        <ele>1952.58</ele>
        <time>2014-01-27T14:45:50Z</time>
      </trkpt>
      <trkpt lat="45.37645" lon="6.53435">
        <ele>1947.39</ele>
        <time>2014-01-27T14:45:54Z</time>
      </trkpt>
      <trkpt lat="45.37649" lon="6.53406">
        <ele>1942.84</ele>
        <time>2014-01-27T14:45:56Z</time>
      </trkpt>
      <trkpt lat="45.37651" lon="6.5338">
        <ele>1939.55</ele>
        <time>2014-01-27T14:45:58Z</time>
      </trkpt>
      <trkpt lat="45.37655" lon="6.53347">
        <ele>1937.92</ele>
        <time>2014-01-27T14:46:01Z</time>
      </trkpt>
      <trkpt lat="45.37659" lon="6.53317">
        <ele>1936.24</ele>
        <time>2014-01-27T14:46:04Z</time>
      </trkpt>
      <trkpt lat="45.37663" lon="6.5328">
        <ele>1934.36</ele>
        <time>2014-01-27T14:46:07Z</time>
      </trkpt>
      <trkpt lat="45.37664" lon="6.53254">
        <ele>1932.54</ele>
        <time>2014-01-27T14:46:09Z</time>
      </trkpt>
      <trkpt lat="45.37665" lon="6.53222">
        <ele>1931.15</ele>
        <time>2014-01-27T14:46:12Z</time>
      </trkpt>
      <trkpt lat="45.37662" lon="6.53197">
        <ele>1929.75</ele>
        <time>2014-01-27T14:46:16Z</time>
      </trkpt>
      <trkpt lat="45.37657" lon="6.53166">
        <ele>1926.26</ele>
        <time>2014-01-27T14:46:20Z</time>
      </trkpt>
      <trkpt lat="45.3765" lon="6.53137">
        <ele>1924.94</ele>
        <time>2014-01-27T14:46:34Z</time>
      </trkpt>
      <trkpt lat="45.37636" lon="6.5311">
        <ele>1915.47</ele>
        <time>2014-01-27T14:46:37Z</time>
      </trkpt>
      <trkpt lat="45.37621" lon="6.53084">
        <ele>1912.59</ele>
        <time>2014-01-27T14:46:40Z</time>
      </trkpt>
      <trkpt lat="45.37614" lon="6.53056">
        <ele>1909.35</ele>
        <time>2014-01-27T14:46:43Z</time>
      </trkpt>
      <trkpt lat="45.37608" lon="6.53028">
        <ele>1900.32</ele>
        <time>2014-01-27T14:46:47Z</time>
      </trkpt>
      <trkpt lat="45.376" lon="6.53005">
        <ele>1894.26</ele>
        <time>2014-01-27T14:46:50Z</time>
      </trkpt>
      <trkpt lat="45.37602" lon="6.52979">
        <ele>1888.89</ele>
        <time>2014-01-27T14:46:53Z</time>
      </trkpt>
      <trkpt lat="45.37601" lon="6.52951">
        <ele>1884.8</ele>
        <time>2014-01-27T14:46:57Z</time>
      </trkpt>
      <trkpt lat="45.37607" lon="6.52919">
        <ele>1879.62</ele>
        <time>2014-01-27T14:47:01Z</time>
      </trkpt>
      <trkpt lat="45.3761" lon="6.52894">
        <ele>1874.07</ele>
        <time>2014-01-27T14:47:05Z</time>
      </trkpt>
      <trkpt lat="45.37613" lon="6.52867">
        <ele>1867.29</ele>
        <time>2014-01-27T14:47:10Z</time>
      </trkpt>
      <trkpt lat="45.37602" lon="6.52838">
        <ele>1860.29</ele>
        <time>2014-01-27T14:47:14Z</time>
      </trkpt>
      <trkpt lat="45.37607" lon="6.52812">
        <ele>1853.09</ele>
        <time>2014-01-27T14:47:17Z</time>
      </trkpt>
      <trkpt lat="45.37601" lon="6.52783">
        <ele>1848.25</ele>
        <time>2014-01-27T14:47:20Z</time>
      </trkpt>
      <trkpt lat="45.37594" lon="6.52749">
        <ele>1844.25</ele>
        <time>2014-01-27T14:47:23Z</time>
      </trkpt>
      <trkpt lat="45.37591" lon="6.52714">
        <ele>1838.64</ele>
        <time>2014-01-27T14:47:26Z</time>
      </trkpt>
      <trkpt lat="45.37579" lon="6.52686">
        <ele>1832.95</ele>
        <time>2014-01-27T14:47:29Z</time>
      </trkpt>
      <trkpt lat="45.3756" lon="6.52672">
        <ele>1824.09</ele>
        <time>2014-01-27T14:47:32Z</time>
      </trkpt>
      <trkpt lat="45.37542" lon="6.52678">
        <ele>1822.39</ele>
        <time>2014-01-27T14:47:35Z</time>
      </trkpt>
      <trkpt lat="45.37524" lon="6.52689">
        <ele>1822.32</ele>
        <time>2014-01-27T14:47:38Z</time>
      </trkpt>
      <trkpt lat="45.37506" lon="6.527">
        <ele>1822.76</ele>
        <time>2014-01-27T14:47:41Z</time>
      </trkpt>
      <trkpt lat="45.37489" lon="6.5271">
        <ele>1822.82</ele>
        <time>2014-01-27T14:47:44Z</time>
      </trkpt>
      <trkpt lat="45.37471" lon="6.52721">
        <ele>1821.79</ele>
        <time>2014-01-27T14:47:48Z</time>
      </trkpt>
      <trkpt lat="45.37452" lon="6.52729">
        <ele>1819.99</ele>
        <time>2014-01-27T14:47:55Z</time>
      </trkpt>
      <trkpt lat="45.37437" lon="6.52744">
        <ele>1812.87</ele>
        <time>2014-01-27T14:48:05Z</time>
      </trkpt>
      <trkpt lat="45.37425" lon="6.52768">
        <ele>1806.09</ele>
        <time>2014-01-27T14:48:12Z</time>
      </trkpt>
      <trkpt lat="45.37416" lon="6.52792">
        <ele>1803.18</ele>
        <time>2014-01-27T14:48:17Z</time>
      </trkpt>
      <trkpt lat="45.37406" lon="6.52817">
        <ele>1803.04</ele>
        <time>2014-01-27T14:48:21Z</time>
      </trkpt>
      <trkpt lat="45.37397" lon="6.52841">
        <ele>1801.76</ele>
        <time>2014-01-27T14:48:25Z</time>
      </trkpt>
      <trkpt lat="45.37387" lon="6.52865">
        <ele>1800.03</ele>
        <time>2014-01-27T14:48:29Z</time>
      </trkpt>
      <trkpt lat="45.37377" lon="6.5289">
        <ele>1804.32</ele>
        <time>2014-01-27T14:48:33Z</time>
      </trkpt>
      <trkpt lat="45.37364" lon="6.52917">
        <ele>1804.63</ele>
        <time>2014-01-27T14:48:37Z</time>
      </trkpt>
      <trkpt lat="45.3734" lon="6.52927">
        <ele>1804.07</ele>
        <time>2014-01-27T14:48:41Z</time>
      </trkpt>
      <trkpt lat="45.37318" lon="6.52927">
        <ele>1802.63</ele>
        <time>2014-01-27T14:48:44Z</time>
      </trkpt>
      <trkpt lat="45.37297" lon="6.52926">
        <ele>1800.53</ele>
        <time>2014-01-27T14:48:47Z</time>
      </trkpt>
      <trkpt lat="45.37296" lon="6.52894">
        <ele>1797.23</ele>
        <time>2014-01-27T14:48:52Z</time>
      </trkpt>
      <trkpt lat="45.37297" lon="6.52864">
        <ele>1794.3</ele>
        <time>2014-01-27T14:48:56Z</time>
      </trkpt>
      <trkpt lat="45.37294" lon="6.52833">
        <ele>1791.78</ele>
        <time>2014-01-27T14:49:00Z</time>
      </trkpt>
      <trkpt lat="45.37296" lon="6.528">
        <ele>1790.97</ele>
        <time>2014-01-27T14:49:04Z</time>
      </trkpt>
      <trkpt lat="45.37296" lon="6.52774">
        <ele>1789.34</ele>
        <time>2014-01-27T14:49:07Z</time>
      </trkpt>
      <trkpt lat="45.37297" lon="6.52739">
        <ele>1785.86</ele>
        <time>2014-01-27T14:49:11Z</time>
      </trkpt>
      <trkpt lat="45.37298" lon="6.52713">
        <ele>1781.46</ele>
        <time>2014-01-27T14:49:14Z</time>
      </trkpt>
      <trkpt lat="45.37295" lon="6.52684">
        <ele>1778.09</ele>
        <time>2014-01-27T14:49:17Z</time>
      </trkpt>
      <trkpt lat="45.3729" lon="6.52659">
        <ele>1775.79</ele>
        <time>2014-01-27T14:49:19Z</time>
      </trkpt>
      <trkpt lat="45.37284" lon="6.52631">
        <ele>1773.05</ele>
        <time>2014-01-27T14:49:21Z</time>
      </trkpt>
      <trkpt lat="45.37278" lon="6.52604">
        <ele>1770.5</ele>
        <time>2014-01-27T14:49:23Z</time>
      </trkpt>
      <trkpt lat="45.37273" lon="6.52579">
        <ele>1768.95</ele>
        <time>2014-01-27T14:49:25Z</time>
      </trkpt>
      <trkpt lat="45.37269" lon="6.52545">
        <ele>1766.42</ele>
        <time>2014-01-27T14:49:28Z</time>
      </trkpt>
      <trkpt lat="45.37271" lon="6.5252">
        <ele>1763.7</ele>
        <time>2014-01-27T14:49:31Z</time>
      </trkpt>
      <trkpt lat="45.37281" lon="6.52495">
        <ele>1761.29</ele>
        <time>2014-01-27T14:49:35Z</time>
      </trkpt>
      <trkpt lat="45.37293" lon="6.52474">
        <ele>1758.37</ele>
        <time>2014-01-27T14:49:39Z</time>
      </trkpt>
      <trkpt lat="45.37307" lon="6.52454">
        <ele>1754.83</ele>
        <time>2014-01-27T14:49:43Z</time>
      </trkpt>
      <trkpt lat="45.37321" lon="6.52436">
        <ele>1755.62</ele>
        <time>2014-01-27T14:49:47Z</time>
      </trkpt>
      <trkpt lat="45.37337" lon="6.52413">
        <ele>1756.75</ele>
        <time>2014-01-27T14:49:51Z</time>
      </trkpt>
      <trkpt lat="45.37348" lon="6.52391">
        <ele>1753.62</ele>
        <time>2014-01-27T14:49:54Z</time>
      </trkpt>
      <trkpt lat="45.37367" lon="6.52371">
        <ele>1752.37</ele>
        <time>2014-01-27T14:49:57Z</time>
      </trkpt>
      <trkpt lat="45.37385" lon="6.52366">
        <ele>1754.28</ele>
        <time>2014-01-27T14:50:00Z</time>
      </trkpt>
      <trkpt lat="45.37407" lon="6.5237">
        <ele>1757.1</ele>
        <time>2014-01-27T14:50:03Z</time>
      </trkpt>
      <trkpt lat="45.37428" lon="6.52361">
        <ele>1752.33</ele>
        <time>2014-01-27T14:50:06Z</time>
      </trkpt>
      <trkpt lat="45.37452" lon="6.52348">
        <ele>1745.39</ele>
        <time>2014-01-27T14:50:09Z</time>
      </trkpt>
      <trkpt lat="45.37469" lon="6.52336">
        <ele>1742.11</ele>
        <time>2014-01-27T14:50:11Z</time>
      </trkpt>
      <trkpt lat="45.37491" lon="6.52315">
        <ele>1735.65</ele>
        <time>2014-01-27T14:50:14Z</time>
      </trkpt>
      <trkpt lat="45.37513" lon="6.52292">
        <ele>1730.38</ele>
        <time>2014-01-27T14:50:17Z</time>
      </trkpt>
      <trkpt lat="45.37527" lon="6.52275">
        <ele>1725.6</ele>
        <time>2014-01-27T14:50:19Z</time>
      </trkpt>
      <trkpt lat="45.37538" lon="6.52255">
        <ele>1723.36</ele>
        <time>2014-01-27T14:50:21Z</time>
      </trkpt>
      <trkpt lat="45.37548" lon="6.52224">
        <ele>1719.36</ele>
        <time>2014-01-27T14:50:24Z</time>
      </trkpt>
      <trkpt lat="45.37554" lon="6.52195">
        <ele>1715.87</ele>
        <time>2014-01-27T14:50:27Z</time>
      </trkpt>
      <trkpt lat="45.37555" lon="6.52168">
        <ele>1711.99</ele>
        <time>2014-01-27T14:50:30Z</time>
      </trkpt>
      <trkpt lat="45.37562" lon="6.52143">
        <ele>1712.79</ele>
        <time>2014-01-27T14:50:33Z</time>
      </trkpt>
      <trkpt lat="45.37583" lon="6.52125">
        <ele>1717.44</ele>
        <time>2014-01-27T14:50:36Z</time>
      </trkpt>
      <trkpt lat="45.37606" lon="6.52131">
        <ele>1718.48</ele>
        <time>2014-01-27T14:50:39Z</time>
      </trkpt>
      <trkpt lat="45.37624" lon="6.52142">
        <ele>1719.15</ele>
        <time>2014-01-27T14:50:42Z</time>
      </trkpt>
      <trkpt lat="45.37647" lon="6.52153">
        <ele>1717.55</ele>
        <time>2014-01-27T14:50:46Z</time>
      </trkpt>
      <trkpt lat="45.37666" lon="6.52149">
        <ele>1710.9</ele>
        <time>2014-01-27T14:50:50Z</time>
      </trkpt>
      <trkpt lat="45.37666" lon="6.52116">
        <ele>1704.09</ele>
        <time>2014-01-27T14:50:54Z</time>
      </trkpt>
      <trkpt lat="45.37656" lon="6.52094">
        <ele>1701.79</ele>
        <time>2014-01-27T14:50:57Z</time>
      </trkpt>
      <trkpt lat="45.37644" lon="6.52065">
        <ele>1697.99</ele>
        <time>2014-01-27T14:51:00Z</time>
      </trkpt>
      <trkpt lat="45.3763" lon="6.52038">
        <ele>1693.63</ele>
        <time>2014-01-27T14:51:03Z</time>
      </trkpt>
      <trkpt lat="45.37617" lon="6.52013">
        <ele>1692.03</ele>
        <time>2014-01-27T14:51:06Z</time>
      </trkpt>
      <trkpt lat="45.37609" lon="6.51989">
        <ele>1687.89</ele>
        <time>2014-01-27T14:51:10Z</time>
      </trkpt>
      <trkpt lat="45.37608" lon="6.51959">
        <ele>1681.31</ele>
        <time>2014-01-27T14:51:15Z</time>
      </trkpt>
      <trkpt lat="45.37618" lon="6.51935">
        <ele>1678.87</ele>
        <time>2014-01-27T14:51:19Z</time>
      </trkpt>
      <trkpt lat="45.37639" lon="6.51926">
        <ele>1682.68</ele>
        <time>2014-01-27T14:51:22Z</time>
      </trkpt>
      <trkpt lat="45.37663" lon="6.51923">
        <ele>1680.91</ele>
        <time>2014-01-27T14:51:25Z</time>
      </trkpt>
      <trkpt lat="45.37686" lon="6.51915">
        <ele>1675.23</ele>
        <time>2014-01-27T14:51:28Z</time>
      </trkpt>
      <trkpt lat="45.37704" lon="6.51907">
        <ele>1671.46</ele>
        <time>2014-01-27T14:51:31Z</time>
      </trkpt>
      <trkpt lat="45.37724" lon="6.5189">
        <ele>1669.88</ele>
        <time>2014-01-27T14:51:34Z</time>
      </trkpt>
      <trkpt lat="45.37744" lon="6.51875">
        <ele>1662.73</ele>
        <time>2014-01-27T14:51:37Z</time>
      </trkpt>
      <trkpt lat="45.37758" lon="6.51855">
        <ele>1658.45</ele>
        <time>2014-01-27T14:51:40Z</time>
      </trkpt>
      <trkpt lat="45.37756" lon="6.51828">
        <ele>1652.77</ele>
        <time>2014-01-27T14:51:43Z</time>
      </trkpt>
      <trkpt lat="45.37757" lon="6.51792">
        <ele>1648.19</ele>
        <time>2014-01-27T14:51:46Z</time>
      </trkpt>
      <trkpt lat="45.37754" lon="6.51763">
        <ele>1645.72</ele>
        <time>2014-01-27T14:51:48Z</time>
      </trkpt>
      <trkpt lat="45.37743" lon="6.51727">
        <ele>1642.47</ele>
        <time>2014-01-27T14:51:51Z</time>
      </trkpt>
      <trkpt lat="45.37728" lon="6.51707">
        <ele>1640.39</ele>
        <time>2014-01-27T14:51:53Z</time>
      </trkpt>
      <trkpt lat="45.37715" lon="6.5169">
        <ele>1639.63</ele>
        <time>2014-01-27T14:51:55Z</time>
      </trkpt>
      <trkpt lat="45.37698" lon="6.51669">
        <ele>1637.56</ele>
        <time>2014-01-27T14:51:58Z</time>
      </trkpt>
      <trkpt lat="45.37684" lon="6.51646">
        <ele>1636.76</ele>
        <time>2014-01-27T14:52:01Z</time>
      </trkpt>
      <trkpt lat="45.37673" lon="6.5162">
        <ele>1636.91</ele>
        <time>2014-01-27T14:52:04Z</time>
      </trkpt>
      <trkpt lat="45.37665" lon="6.51594">
        <ele>1634.84</ele>
        <time>2014-01-27T14:52:07Z</time>
      </trkpt>
      <trkpt lat="45.37656" lon="6.51569">
        <ele>1631.5</ele>
        <time>2014-01-27T14:52:11Z</time>
      </trkpt>
      <trkpt lat="45.37644" lon="6.51542">
        <ele>1630</ele>
        <time>2014-01-27T14:52:16Z</time>
      </trkpt>
      <trkpt lat="45.37637" lon="6.51518">
        <ele>1627.95</ele>
        <time>2014-01-27T14:52:19Z</time>
      </trkpt>
      <trkpt lat="45.37628" lon="6.51491">
        <ele>1622.31</ele>
        <time>2014-01-27T14:52:22Z</time>
      </trkpt>
      <trkpt lat="45.37611" lon="6.51469">
        <ele>1615.59</ele>
        <time>2014-01-27T14:52:26Z</time>
      </trkpt>
      <trkpt lat="45.37598" lon="6.51442">
        <ele>1610.85</ele>
        <time>2014-01-27T14:52:30Z</time>
      </trkpt>
      <trkpt lat="45.37583" lon="6.51418">
        <ele>1605.28</ele>
        <time>2014-01-27T14:52:35Z</time>
      </trkpt>
      <trkpt lat="45.3758" lon="6.51392">
        <ele>1601.81</ele>
        <time>2014-01-27T14:52:38Z</time>
      </trkpt>
      <trkpt lat="45.37569" lon="6.51362">
        <ele>1596.62</ele>
        <time>2014-01-27T14:52:42Z</time>
      </trkpt>
      <trkpt lat="45.37559" lon="6.51337">
        <ele>1592.54</ele>
        <time>2014-01-27T14:52:46Z</time>
      </trkpt>
      <trkpt lat="45.37551" lon="6.51304">
        <ele>1588.7</ele>
        <time>2014-01-27T14:52:50Z</time>
      </trkpt>
      <trkpt lat="45.37538" lon="6.51273">
        <ele>1584.24</ele>
        <time>2014-01-27T14:52:53Z</time>
      </trkpt>
      <trkpt lat="45.37528" lon="6.51244">
        <ele>1580.4</ele>
        <time>2014-01-27T14:52:56Z</time>
      </trkpt>
      <trkpt lat="45.37521" lon="6.51215">
        <ele>1576.23</ele>
        <time>2014-01-27T14:52:59Z</time>
      </trkpt>
      <trkpt lat="45.37514" lon="6.51188">
        <ele>1572.34</ele>
        <time>2014-01-27T14:53:02Z</time>
      </trkpt>
      <trkpt lat="45.37504" lon="6.51165">
        <ele>1569.01</ele>
        <time>2014-01-27T14:53:05Z</time>
      </trkpt>
      <trkpt lat="45.37498" lon="6.51139">
        <ele>1564.87</ele>
        <time>2014-01-27T14:53:08Z</time>
      </trkpt>
      <trkpt lat="45.37485" lon="6.51117">
        <ele>1560.22</ele>
        <time>2014-01-27T14:53:11Z</time>
      </trkpt>
      <trkpt lat="45.37477" lon="6.51091">
        <ele>1556.96</ele>
        <time>2014-01-27T14:53:14Z</time>
      </trkpt>
      <trkpt lat="45.37471" lon="6.5106">
        <ele>1554.24</ele>
        <time>2014-01-27T14:53:18Z</time>
      </trkpt>
      <trkpt lat="45.37483" lon="6.51035">
        <ele>1552.04</ele>
        <time>2014-01-27T14:53:22Z</time>
      </trkpt>
      <trkpt lat="45.3749" lon="6.51008">
        <ele>1548.77</ele>
        <time>2014-01-27T14:53:26Z</time>
      </trkpt>
      <trkpt lat="45.375" lon="6.50984">
        <ele>1543.26</ele>
        <time>2014-01-27T14:53:30Z</time>
      </trkpt>
      <trkpt lat="45.375" lon="6.50954">
        <ele>1536.1</ele>
        <time>2014-01-27T14:53:35Z</time>
      </trkpt>
      <trkpt lat="45.3751" lon="6.50926">
        <ele>1525.25</ele>
        <time>2014-01-27T14:53:39Z</time>
      </trkpt>
      <trkpt lat="45.37517" lon="6.50901">
        <ele>1516.58</ele>
        <time>2014-01-27T14:53:42Z</time>
      </trkpt>
      <trkpt lat="45.37533" lon="6.50882">
        <ele>1510.77</ele>
        <time>2014-01-27T14:53:45Z</time>
      </trkpt>
      <trkpt lat="45.37543" lon="6.50855">
        <ele>1508.73</ele>
        <time>2014-01-27T14:53:48Z</time>
      </trkpt>
      <trkpt lat="45.37558" lon="6.50833">
        <ele>1505.79</ele>
        <time>2014-01-27T14:53:51Z</time>
      </trkpt>
      <trkpt lat="45.37577" lon="6.50816">
        <ele>1502.02</ele>
        <time>2014-01-27T14:53:55Z</time>
      </trkpt>
      <trkpt lat="45.37592" lon="6.50799">
        <ele>1497.41</ele>
        <time>2014-01-27T14:53:58Z</time>
      </trkpt>
      <trkpt lat="45.37608" lon="6.50776">
        <ele>1492.49</ele>
        <time>2014-01-27T14:54:02Z</time>
      </trkpt>
      <trkpt lat="45.37626" lon="6.50769">
        <ele>1489.13</ele>
        <time>2014-01-27T14:54:05Z</time>
      </trkpt>
      <trkpt lat="45.37646" lon="6.50764">
        <ele>1484.94</ele>
        <time>2014-01-27T14:54:08Z</time>
      </trkpt>
      <trkpt lat="45.37665" lon="6.50751">
        <ele>1477.61</ele>
        <time>2014-01-27T14:54:11Z</time>
      </trkpt>
      <trkpt lat="45.37678" lon="6.50721">
        <ele>1468.68</ele>
        <time>2014-01-27T14:54:15Z</time>
      </trkpt>
      <trkpt lat="45.37679" lon="6.50688">
        <ele>1462.51</ele>
        <time>2014-01-27T14:54:18Z</time>
      </trkpt>
      <trkpt lat="45.37675" lon="6.50655">
        <ele>1457.57</ele>
        <time>2014-01-27T14:54:21Z</time>
      </trkpt>
      <trkpt lat="45.37679" lon="6.50628">
        <ele>1452.37</ele>
        <time>2014-01-27T14:54:24Z</time>
      </trkpt>
      <trkpt lat="45.37686" lon="6.50601">
        <ele>1446.73</ele>
        <time>2014-01-27T14:54:27Z</time>
      </trkpt>
      <trkpt lat="45.37694" lon="6.50576">
        <ele>1441.1</ele>
        <time>2014-01-27T14:54:30Z</time>
      </trkpt>
      <trkpt lat="45.37707" lon="6.50554">
        <ele>1437.83</ele>
        <time>2014-01-27T14:54:34Z</time>
      </trkpt>
      <trkpt lat="45.37715" lon="6.50531">
        <ele>1434.65</ele>
        <time>2014-01-27T14:54:37Z</time>
      </trkpt>
      <trkpt lat="45.37715" lon="6.50499">
        <ele>1430.38</ele>
        <time>2014-01-27T14:54:40Z</time>
      </trkpt>
      <trkpt lat="45.3771" lon="6.50469">
        <ele>1428.12</ele>
        <time>2014-01-27T14:54:43Z</time>
      </trkpt>
      <trkpt lat="45.37696" lon="6.50451">
        <ele>1426.69</ele>
        <time>2014-01-27T14:54:47Z</time>
      </trkpt>
      <trkpt lat="45.37677" lon="6.50439">
        <ele>1424.69</ele>
        <time>2014-01-27T14:57:19Z</time>
      </trkpt>
      <trkpt lat="45.37667" lon="6.50471">
        <ele>1428.85</ele>
        <time>2014-01-27T14:58:08Z</time>
      </trkpt>
      <trkpt lat="45.37661" lon="6.50504">
        <ele>1432.65</ele>
        <time>2014-01-27T14:58:12Z</time>
      </trkpt>
      <trkpt lat="45.3766" lon="6.50536">
        <ele>1437.65</ele>
        <time>2014-01-27T14:58:17Z</time>
      </trkpt>
      <trkpt lat="45.37658" lon="6.50563">
        <ele>1443.75</ele>
        <time>2014-01-27T14:58:22Z</time>
      </trkpt>
      <trkpt lat="45.37654" lon="6.50591">
        <ele>1449.96</ele>
        <time>2014-01-27T14:58:27Z</time>
      </trkpt>
      <trkpt lat="45.3765" lon="6.5062">
        <ele>1454.69</ele>
        <time>2014-01-27T14:58:33Z</time>
      </trkpt>
      <trkpt lat="45.37646" lon="6.50648">
        <ele>1460.95</ele>
        <time>2014-01-27T14:58:38Z</time>
      </trkpt>
      <trkpt lat="45.37642" lon="6.50677">
        <ele>1470.56</ele>
        <time>2014-01-27T14:58:44Z</time>
      </trkpt>
      <trkpt lat="45.37637" lon="6.50705">
        <ele>1477.96</ele>
        <time>2014-01-27T14:58:49Z</time>
      </trkpt>
      <trkpt lat="45.37632" lon="6.5073">
        <ele>1483.56</ele>
        <time>2014-01-27T14:58:53Z</time>
      </trkpt>
      <trkpt lat="45.37628" lon="6.50759">
        <ele>1488.77</ele>
        <time>2014-01-27T14:58:58Z</time>
      </trkpt>
      <trkpt lat="45.37623" lon="6.50788">
        <ele>1490.7</ele>
        <time>2014-01-27T14:59:04Z</time>
      </trkpt>
      <trkpt lat="45.37617" lon="6.50817">
        <ele>1494.24</ele>
        <time>2014-01-27T14:59:09Z</time>
      </trkpt>
      <trkpt lat="45.37613" lon="6.50844">
        <ele>1498.6</ele>
        <time>2014-01-27T14:59:14Z</time>
      </trkpt>
      <trkpt lat="45.3761" lon="6.50874">
        <ele>1504.86</ele>
        <time>2014-01-27T14:59:19Z</time>
      </trkpt>
      <trkpt lat="45.37608" lon="6.509">
        <ele>1510.01</ele>
        <time>2014-01-27T14:59:24Z</time>
      </trkpt>
      <trkpt lat="45.37609" lon="6.50928">
        <ele>1514.08</ele>
        <time>2014-01-27T14:59:29Z</time>
      </trkpt>
      <trkpt lat="45.37608" lon="6.50958">
        <ele>1518.28</ele>
        <time>2014-01-27T14:59:34Z</time>
      </trkpt>
      <trkpt lat="45.37606" lon="6.50985">
        <ele>1523.78</ele>
        <time>2014-01-27T14:59:39Z</time>
      </trkpt>
      <trkpt lat="45.37599" lon="6.51012">
        <ele>1532.8</ele>
        <time>2014-01-27T14:59:44Z</time>
      </trkpt>
      <trkpt lat="45.37592" lon="6.51036">
        <ele>1539.66</ele>
        <time>2014-01-27T14:59:49Z</time>
      </trkpt>
      <trkpt lat="45.37585" lon="6.51062">
        <ele>1543.82</ele>
        <time>2014-01-27T14:59:53Z</time>
      </trkpt>
      <trkpt lat="45.37581" lon="6.51091">
        <ele>1548.17</ele>
        <time>2014-01-27T14:59:58Z</time>
      </trkpt>
      <trkpt lat="45.37579" lon="6.51121">
        <ele>1556.12</ele>
        <time>2014-01-27T15:00:03Z</time>
      </trkpt>
      <trkpt lat="45.37576" lon="6.5115">
        <ele>1567.79</ele>
        <time>2014-01-27T15:00:08Z</time>
      </trkpt>
      <trkpt lat="45.37571" lon="6.51176">
        <ele>1574.6</ele>
        <time>2014-01-27T15:00:13Z</time>
      </trkpt>
      <trkpt lat="45.37566" lon="6.51202">
        <ele>1579.05</ele>
        <time>2014-01-27T15:00:18Z</time>
      </trkpt>
      <trkpt lat="45.3756" lon="6.5123">
        <ele>1581.8</ele>
        <time>2014-01-27T15:00:23Z</time>
      </trkpt>
      <trkpt lat="45.37556" lon="6.51256">
        <ele>1583.68</ele>
        <time>2014-01-27T15:00:27Z</time>
      </trkpt>
      <trkpt lat="45.37553" lon="6.51284">
        <ele>1586.44</ele>
        <time>2014-01-27T15:00:33Z</time>
      </trkpt>
      <trkpt lat="45.37549" lon="6.51313">
        <ele>1589.6</ele>
        <time>2014-01-27T15:00:39Z</time>
      </trkpt>
      <trkpt lat="45.37545" lon="6.5134">
        <ele>1592.24</ele>
        <time>2014-01-27T15:00:43Z</time>
      </trkpt>
      <trkpt lat="45.3754" lon="6.51365">
        <ele>1594.24</ele>
        <time>2014-01-27T15:00:47Z</time>
      </trkpt>
      <trkpt lat="45.37535" lon="6.51391">
        <ele>1595.94</ele>
        <time>2014-01-27T15:00:51Z</time>
      </trkpt>
      <trkpt lat="45.3753" lon="6.51421">
        <ele>1597.64</ele>
        <time>2014-01-27T15:00:56Z</time>
      </trkpt>
      <trkpt lat="45.37525" lon="6.51451">
        <ele>1599.98</ele>
        <time>2014-01-27T15:01:01Z</time>
      </trkpt>
      <trkpt lat="45.3752" lon="6.5148">
        <ele>1604.77</ele>
        <time>2014-01-27T15:01:06Z</time>
      </trkpt>
      <trkpt lat="45.37517" lon="6.51505">
        <ele>1609.64</ele>
        <time>2014-01-27T15:01:11Z</time>
      </trkpt>
      <trkpt lat="45.37513" lon="6.5153">
        <ele>1613.36</ele>
        <time>2014-01-27T15:01:16Z</time>
      </trkpt>
      <trkpt lat="45.3751" lon="6.51557">
        <ele>1616.84</ele>
        <time>2014-01-27T15:01:21Z</time>
      </trkpt>
      <trkpt lat="45.37506" lon="6.51586">
        <ele>1617.95</ele>
        <time>2014-01-27T15:01:26Z</time>
      </trkpt>
      <trkpt lat="45.37502" lon="6.51613">
        <ele>1618.39</ele>
        <time>2014-01-27T15:01:31Z</time>
      </trkpt>
      <trkpt lat="45.37498" lon="6.51643">
        <ele>1618.8</ele>
        <time>2014-01-27T15:01:37Z</time>
      </trkpt>
      <trkpt lat="45.37496" lon="6.5167">
        <ele>1619.14</ele>
        <time>2014-01-27T15:01:42Z</time>
      </trkpt>
      <trkpt lat="45.37492" lon="6.51699">
        <ele>1619.32</ele>
        <time>2014-01-27T15:01:47Z</time>
      </trkpt>
      <trkpt lat="45.37489" lon="6.51724">
        <ele>1620.03</ele>
        <time>2014-01-27T15:01:51Z</time>
      </trkpt>
      <trkpt lat="45.37485" lon="6.51753">
        <ele>1619.75</ele>
        <time>2014-01-27T15:01:56Z</time>
      </trkpt>
      <trkpt lat="45.37482" lon="6.5178">
        <ele>1619.55</ele>
        <time>2014-01-27T15:02:01Z</time>
      </trkpt>
      <trkpt lat="45.37478" lon="6.51806">
        <ele>1620.25</ele>
        <time>2014-01-27T15:02:06Z</time>
      </trkpt>
      <trkpt lat="45.37474" lon="6.51833">
        <ele>1619.66</ele>
        <time>2014-01-27T15:02:11Z</time>
      </trkpt>
      <trkpt lat="45.3747" lon="6.5186">
        <ele>1622.59</ele>
        <time>2014-01-27T15:02:16Z</time>
      </trkpt>
      <trkpt lat="45.37466" lon="6.51887">
        <ele>1626.03</ele>
        <time>2014-01-27T15:02:21Z</time>
      </trkpt>
      <trkpt lat="45.37463" lon="6.51914">
        <ele>1631.42</ele>
        <time>2014-01-27T15:02:26Z</time>
      </trkpt>
      <trkpt lat="45.37459" lon="6.5194">
        <ele>1639.14</ele>
        <time>2014-01-27T15:02:31Z</time>
      </trkpt>
      <trkpt lat="45.37455" lon="6.51968">
        <ele>1649.94</ele>
        <time>2014-01-27T15:02:36Z</time>
      </trkpt>
      <trkpt lat="45.3745" lon="6.51996">
        <ele>1656.94</ele>
        <time>2014-01-27T15:02:41Z</time>
      </trkpt>
      <trkpt lat="45.37445" lon="6.52022">
        <ele>1661.1</ele>
        <time>2014-01-27T15:02:46Z</time>
      </trkpt>
      <trkpt lat="45.37441" lon="6.52049">
        <ele>1667.93</ele>
        <time>2014-01-27T15:02:51Z</time>
      </trkpt>
      <trkpt lat="45.37438" lon="6.52078">
        <ele>1679.74</ele>
        <time>2014-01-27T15:02:56Z</time>
      </trkpt>
      <trkpt lat="45.37435" lon="6.52107">
        <ele>1690.76</ele>
        <time>2014-01-27T15:03:01Z</time>
      </trkpt>
      <trkpt lat="45.37432" lon="6.52134">
        <ele>1698.65</ele>
        <time>2014-01-27T15:03:06Z</time>
      </trkpt>
      <trkpt lat="45.37427" lon="6.52163">
        <ele>1705.78</ele>
        <time>2014-01-27T15:03:12Z</time>
      </trkpt>
      <trkpt lat="45.37422" lon="6.52192">
        <ele>1711.59</ele>
        <time>2014-01-27T15:03:17Z</time>
      </trkpt>
      <trkpt lat="45.37417" lon="6.52222">
        <ele>1716.9</ele>
        <time>2014-01-27T15:03:22Z</time>
      </trkpt>
      <trkpt lat="45.37413" lon="6.5225">
        <ele>1723.8</ele>
        <time>2014-01-27T15:03:27Z</time>
      </trkpt>
      <trkpt lat="45.37408" lon="6.52278">
        <ele>1731.98</ele>
        <time>2014-01-27T15:03:32Z</time>
      </trkpt>
      <trkpt lat="45.37403" lon="6.52304">
        <ele>1740.12</ele>
        <time>2014-01-27T15:03:37Z</time>
      </trkpt>
      <trkpt lat="45.37396" lon="6.52328">
        <ele>1747.42</ele>
        <time>2014-01-27T15:03:42Z</time>
      </trkpt>
      <trkpt lat="45.37391" lon="6.52353">
        <ele>1752.67</ele>
        <time>2014-01-27T15:03:47Z</time>
      </trkpt>
      <trkpt lat="45.37385" lon="6.5238">
        <ele>1757.07</ele>
        <time>2014-01-27T15:03:52Z</time>
      </trkpt>
      <trkpt lat="45.37378" lon="6.52405">
        <ele>1762.19</ele>
        <time>2014-01-27T15:03:57Z</time>
      </trkpt>
      <trkpt lat="45.37374" lon="6.52431">
        <ele>1768.46</ele>
        <time>2014-01-27T15:04:03Z</time>
      </trkpt>
      <trkpt lat="45.37372" lon="6.52457">
        <ele>1775.57</ele>
        <time>2014-01-27T15:04:09Z</time>
      </trkpt>
      <trkpt lat="45.37367" lon="6.52484">
        <ele>1782.76</ele>
        <time>2014-01-27T15:04:16Z</time>
      </trkpt>
      <trkpt lat="45.37364" lon="6.52514">
        <ele>1784.63</ele>
        <time>2014-01-27T15:04:22Z</time>
      </trkpt>
      <trkpt lat="45.37361" lon="6.52546">
        <ele>1781.6</ele>
        <time>2014-01-27T15:04:27Z</time>
      </trkpt>
      <trkpt lat="45.3736" lon="6.52571">
        <ele>1780.23</ele>
        <time>2014-01-27T15:04:29Z</time>
      </trkpt>
      <trkpt lat="45.37359" lon="6.52601">
        <ele>1779.79</ele>
        <time>2014-01-27T15:04:32Z</time>
      </trkpt>
      <trkpt lat="45.37358" lon="6.5263">
        <ele>1779.71</ele>
        <time>2014-01-27T15:04:36Z</time>
      </trkpt>
      <trkpt lat="45.37354" lon="6.5266">
        <ele>1779.66</ele>
        <time>2014-01-27T15:04:41Z</time>
      </trkpt>
      <trkpt lat="45.37349" lon="6.52689">
        <ele>1783.68</ele>
        <time>2014-01-27T15:04:46Z</time>
      </trkpt>
      <trkpt lat="45.37344" lon="6.52716">
        <ele>1786.94</ele>
        <time>2014-01-27T15:04:51Z</time>
      </trkpt>
      <trkpt lat="45.3734" lon="6.52745">
        <ele>1789.36</ele>
        <time>2014-01-27T15:04:56Z</time>
      </trkpt>
      <trkpt lat="45.37335" lon="6.52774">
        <ele>1789.14</ele>
        <time>2014-01-27T15:05:01Z</time>
      </trkpt>
      <trkpt lat="45.37331" lon="6.52802">
        <ele>1790.82</ele>
        <time>2014-01-27T15:05:06Z</time>
      </trkpt>
      <trkpt lat="45.37327" lon="6.52829">
        <ele>1793.38</ele>
        <time>2014-01-27T15:05:11Z</time>
      </trkpt>
      <trkpt lat="45.37323" lon="6.52857">
        <ele>1796.35</ele>
        <time>2014-01-27T15:05:16Z</time>
      </trkpt>
      <trkpt lat="45.37314" lon="6.5288">
        <ele>1797.89</ele>
        <time>2014-01-27T15:05:43Z</time>
      </trkpt>
      <trkpt lat="45.37294" lon="6.5287">
        <ele>1794.64</ele>
        <time>2014-01-27T15:07:03Z</time>
      </trkpt>
      <trkpt lat="45.37276" lon="6.52864">
        <ele>1791.85</ele>
        <time>2014-01-27T15:07:09Z</time>
      </trkpt>
      <trkpt lat="45.3726" lon="6.52879">
        <ele>1789.13</ele>
        <time>2014-01-27T15:07:35Z</time>
      </trkpt>
      <trkpt lat="45.37251" lon="6.52907">
        <ele>1791.53</ele>
        <time>2014-01-27T15:07:54Z</time>
      </trkpt>
      <trkpt lat="45.37243" lon="6.52935">
        <ele>1797.38</ele>
        <time>2014-01-27T15:07:59Z</time>
      </trkpt>
      <trkpt lat="45.37234" lon="6.52963">
        <ele>1802.19</ele>
        <time>2014-01-27T15:08:04Z</time>
      </trkpt>
      <trkpt lat="45.37225" lon="6.52992">
        <ele>1806.09</ele>
        <time>2014-01-27T15:08:09Z</time>
      </trkpt>
      <trkpt lat="45.37217" lon="6.5302">
        <ele>1809.57</ele>
        <time>2014-01-27T15:08:14Z</time>
      </trkpt>
      <trkpt lat="45.37211" lon="6.53045">
        <ele>1812.89</ele>
        <time>2014-01-27T15:08:19Z</time>
      </trkpt>
      <trkpt lat="45.37204" lon="6.53073">
        <ele>1817.11</ele>
        <time>2014-01-27T15:08:25Z</time>
      </trkpt>
      <trkpt lat="45.37196" lon="6.53101">
        <ele>1822.08</ele>
        <time>2014-01-27T15:08:30Z</time>
      </trkpt>
      <trkpt lat="45.37189" lon="6.53129">
        <ele>1829</ele>
        <time>2014-01-27T15:08:35Z</time>
      </trkpt>
      <trkpt lat="45.37182" lon="6.53157">
        <ele>1839.72</ele>
        <time>2014-01-27T15:08:40Z</time>
      </trkpt>
      <trkpt lat="45.37174" lon="6.53183">
        <ele>1850.73</ele>
        <time>2014-01-27T15:08:45Z</time>
      </trkpt>
      <trkpt lat="45.37167" lon="6.5321">
        <ele>1859.67</ele>
        <time>2014-01-27T15:08:50Z</time>
      </trkpt>
      <trkpt lat="45.3716" lon="6.53235">
        <ele>1867.65</ele>
        <time>2014-01-27T15:08:55Z</time>
      </trkpt>
      <trkpt lat="45.37153" lon="6.53261">
        <ele>1873.23</ele>
        <time>2014-01-27T15:09:00Z</time>
      </trkpt>
      <trkpt lat="45.37145" lon="6.53289">
        <ele>1876.92</ele>
        <time>2014-01-27T15:09:05Z</time>
      </trkpt>
      <trkpt lat="45.37137" lon="6.53316">
        <ele>1880.47</ele>
        <time>2014-01-27T15:09:10Z</time>
      </trkpt>
      <trkpt lat="45.3713" lon="6.53344">
        <ele>1884.04</ele>
        <time>2014-01-27T15:09:15Z</time>
      </trkpt>
      <trkpt lat="45.37122" lon="6.53373">
        <ele>1887.35</ele>
        <time>2014-01-27T15:09:20Z</time>
      </trkpt>
      <trkpt lat="45.37115" lon="6.534">
        <ele>1891.24</ele>
        <time>2014-01-27T15:09:25Z</time>
      </trkpt>
      <trkpt lat="45.37108" lon="6.53425">
        <ele>1895.88</ele>
        <time>2014-01-27T15:09:30Z</time>
      </trkpt>
      <trkpt lat="45.371" lon="6.53451">
        <ele>1900.62</ele>
        <time>2014-01-27T15:09:35Z</time>
      </trkpt>
      <trkpt lat="45.37092" lon="6.53479">
        <ele>1904.5</ele>
        <time>2014-01-27T15:09:40Z</time>
      </trkpt>
      <trkpt lat="45.37084" lon="6.53508">
        <ele>1908.15</ele>
        <time>2014-01-27T15:09:45Z</time>
      </trkpt>
      <trkpt lat="45.37077" lon="6.53535">
        <ele>1912.36</ele>
        <time>2014-01-27T15:09:50Z</time>
      </trkpt>
      <trkpt lat="45.37069" lon="6.53561">
        <ele>1918.2</ele>
        <time>2014-01-27T15:09:55Z</time>
      </trkpt>
      <trkpt lat="45.37061" lon="6.53589">
        <ele>1924.47</ele>
        <time>2014-01-27T15:10:01Z</time>
      </trkpt>
      <trkpt lat="45.37054" lon="6.53614">
        <ele>1931.2</ele>
        <time>2014-01-27T15:10:06Z</time>
      </trkpt>
      <trkpt lat="45.37047" lon="6.53641">
        <ele>1938.92</ele>
        <time>2014-01-27T15:10:12Z</time>
      </trkpt>
      <trkpt lat="45.37041" lon="6.53666">
        <ele>1941.23</ele>
        <time>2014-01-27T15:10:17Z</time>
      </trkpt>
      <trkpt lat="45.37034" lon="6.53692">
        <ele>1946.25</ele>
        <time>2014-01-27T15:10:22Z</time>
      </trkpt>
      <trkpt lat="45.37027" lon="6.53718">
        <ele>1955.27</ele>
        <time>2014-01-27T15:10:27Z</time>
      </trkpt>
      <trkpt lat="45.3702" lon="6.53743">
        <ele>1963.05</ele>
        <time>2014-01-27T15:10:32Z</time>
      </trkpt>
      <trkpt lat="45.37011" lon="6.5377">
        <ele>1968.66</ele>
        <time>2014-01-27T15:10:37Z</time>
      </trkpt>
      <trkpt lat="45.37003" lon="6.53798">
        <ele>1973.78</ele>
        <time>2014-01-27T15:10:42Z</time>
      </trkpt>
      <trkpt lat="45.36997" lon="6.53823">
        <ele>1978.88</ele>
        <time>2014-01-27T15:10:47Z</time>
      </trkpt>
      <trkpt lat="45.36991" lon="6.53848">
        <ele>1986.02</ele>
        <time>2014-01-27T15:10:52Z</time>
      </trkpt>
      <trkpt lat="45.36985" lon="6.53872">
        <ele>1991.55</ele>
        <time>2014-01-27T15:10:57Z</time>
      </trkpt>
      <trkpt lat="45.36977" lon="6.53898">
        <ele>1994.62</ele>
        <time>2014-01-27T15:11:02Z</time>
      </trkpt>
      <trkpt lat="45.36968" lon="6.53926">
        <ele>1998.41</ele>
        <time>2014-01-27T15:11:07Z</time>
      </trkpt>
      <trkpt lat="45.3696" lon="6.53954">
        <ele>2000.91</ele>
        <time>2014-01-27T15:11:12Z</time>
      </trkpt>
      <trkpt lat="45.36952" lon="6.53983">
        <ele>2004.65</ele>
        <time>2014-01-27T15:11:17Z</time>
      </trkpt>
      <trkpt lat="45.36944" lon="6.5401">
        <ele>2008.7</ele>
        <time>2014-01-27T15:11:22Z</time>
      </trkpt>
      <trkpt lat="45.36938" lon="6.54036">
        <ele>2011.99</ele>
        <time>2014-01-27T15:11:27Z</time>
      </trkpt>
      <trkpt lat="45.36932" lon="6.54061">
        <ele>2015.73</ele>
        <time>2014-01-27T15:11:32Z</time>
      </trkpt>
      <trkpt lat="45.36925" lon="6.54086">
        <ele>2024.1</ele>
        <time>2014-01-27T15:11:37Z</time>
      </trkpt>
      <trkpt lat="45.36917" lon="6.54114">
        <ele>2035.97</ele>
        <time>2014-01-27T15:11:43Z</time>
      </trkpt>
      <trkpt lat="45.3691" lon="6.54141">
        <ele>2048.82</ele>
        <time>2014-01-27T15:11:49Z</time>
      </trkpt>
      <trkpt lat="45.36904" lon="6.54165">
        <ele>2059.45</ele>
        <time>2014-01-27T15:11:54Z</time>
      </trkpt>
      <trkpt lat="45.36896" lon="6.5419">
        <ele>2069.53</ele>
        <time>2014-01-27T15:11:59Z</time>
      </trkpt>
      <trkpt lat="45.36887" lon="6.54217">
        <ele>2077.1</ele>
        <time>2014-01-27T15:12:04Z</time>
      </trkpt>
      <trkpt lat="45.36878" lon="6.54243">
        <ele>2080.7</ele>
        <time>2014-01-27T15:12:09Z</time>
      </trkpt>
      <trkpt lat="45.3687" lon="6.54269">
        <ele>2087.14</ele>
        <time>2014-01-27T15:12:14Z</time>
      </trkpt>
      <trkpt lat="45.36863" lon="6.54293">
        <ele>2092.55</ele>
        <time>2014-01-27T15:12:19Z</time>
      </trkpt>
      <trkpt lat="45.36855" lon="6.54322">
        <ele>2095.45</ele>
        <time>2014-01-27T15:12:24Z</time>
      </trkpt>
      <trkpt lat="45.36847" lon="6.54349">
        <ele>2093.4</ele>
        <time>2014-01-27T15:12:29Z</time>
      </trkpt>
      <trkpt lat="45.36839" lon="6.54376">
        <ele>2094.8</ele>
        <time>2014-01-27T15:12:34Z</time>
      </trkpt>
      <trkpt lat="45.36832" lon="6.54404">
        <ele>2099.37</ele>
        <time>2014-01-27T15:12:39Z</time>
      </trkpt>
      <trkpt lat="45.36825" lon="6.54429">
        <ele>2102.15</ele>
        <time>2014-01-27T15:12:44Z</time>
      </trkpt>
      <trkpt lat="45.36817" lon="6.54455">
        <ele>2106.43</ele>
        <time>2014-01-27T15:12:49Z</time>
      </trkpt>
      <trkpt lat="45.3681" lon="6.54482">
        <ele>2114.66</ele>
        <time>2014-01-27T15:12:54Z</time>
      </trkpt>
      <trkpt lat="45.36801" lon="6.54512">
        <ele>2121.25</ele>
        <time>2014-01-27T15:12:59Z</time>
      </trkpt>
      <trkpt lat="45.36794" lon="6.54535">
        <ele>2124.11</ele>
        <time>2014-01-27T15:13:03Z</time>
      </trkpt>
      <trkpt lat="45.36785" lon="6.54564">
        <ele>2126.68</ele>
        <time>2014-01-27T15:13:08Z</time>
      </trkpt>
      <trkpt lat="45.36778" lon="6.54591">
        <ele>2127.52</ele>
        <time>2014-01-27T15:13:13Z</time>
      </trkpt>
      <trkpt lat="45.36771" lon="6.54617">
        <ele>2130.14</ele>
        <time>2014-01-27T15:13:18Z</time>
      </trkpt>
      <trkpt lat="45.36763" lon="6.54645">
        <ele>2134.51</ele>
        <time>2014-01-27T15:13:24Z</time>
      </trkpt>
      <trkpt lat="45.36755" lon="6.54674">
        <ele>2139.84</ele>
        <time>2014-01-27T15:13:30Z</time>
      </trkpt>
      <trkpt lat="45.36748" lon="6.54699">
        <ele>2147.91</ele>
        <time>2014-01-27T15:13:35Z</time>
      </trkpt>
      <trkpt lat="45.36741" lon="6.54725">
        <ele>2162.51</ele>
        <time>2014-01-27T15:13:42Z</time>
      </trkpt>
      <trkpt lat="45.36735" lon="6.54755">
        <ele>2180.95</ele>
        <time>2014-01-27T15:13:48Z</time>
      </trkpt>
      <trkpt lat="45.36729" lon="6.54781">
        <ele>2187.1</ele>
        <time>2014-01-27T15:13:52Z</time>
      </trkpt>
      <trkpt lat="45.36723" lon="6.54807">
        <ele>2187.52</ele>
        <time>2014-01-27T15:13:56Z</time>
      </trkpt>
      <trkpt lat="45.36716" lon="6.54832">
        <ele>2190.38</ele>
        <time>2014-01-27T15:14:00Z</time>
      </trkpt>
      <trkpt lat="45.36709" lon="6.5486">
        <ele>2195.27</ele>
        <time>2014-01-27T15:14:05Z</time>
      </trkpt>
      <trkpt lat="45.36701" lon="6.54887">
        <ele>2197.29</ele>
        <time>2014-01-27T15:14:10Z</time>
      </trkpt>
      <trkpt lat="45.36693" lon="6.54916">
        <ele>2200.31</ele>
        <time>2014-01-27T15:14:15Z</time>
      </trkpt>
      <trkpt lat="45.36686" lon="6.5494">
        <ele>2195.53</ele>
        <time>2014-01-27T15:14:19Z</time>
      </trkpt>
      <trkpt lat="45.36679" lon="6.54963">
        <ele>2194.65</ele>
        <time>2014-01-27T15:14:23Z</time>
      </trkpt>
      <trkpt lat="45.36671" lon="6.54992">
        <ele>2198.27</ele>
        <time>2014-01-27T15:14:28Z</time>
      </trkpt>
      <trkpt lat="45.36663" lon="6.5502">
        <ele>2202.78</ele>
        <time>2014-01-27T15:14:33Z</time>
      </trkpt>
      <trkpt lat="45.36656" lon="6.55044">
        <ele>2208.05</ele>
        <time>2014-01-27T15:14:38Z</time>
      </trkpt>
      <trkpt lat="45.36648" lon="6.55068">
        <ele>2213.85</ele>
        <time>2014-01-27T15:14:42Z</time>
      </trkpt>
      <trkpt lat="45.36642" lon="6.55093">
        <ele>2221.05</ele>
        <time>2014-01-27T15:14:47Z</time>
      </trkpt>
      <trkpt lat="45.36634" lon="6.55122">
        <ele>2229.78</ele>
        <time>2014-01-27T15:14:53Z</time>
      </trkpt>
      <trkpt lat="45.36626" lon="6.5515">
        <ele>2237.49</ele>
        <time>2014-01-27T15:14:58Z</time>
      </trkpt>
      <trkpt lat="45.36619" lon="6.55177">
        <ele>2244.22</ele>
        <time>2014-01-27T15:15:03Z</time>
      </trkpt>
      <trkpt lat="45.36611" lon="6.55203">
        <ele>2249.23</ele>
        <time>2014-01-27T15:15:08Z</time>
      </trkpt>
      <trkpt lat="45.36603" lon="6.5523">
        <ele>2253.98</ele>
        <time>2014-01-27T15:15:13Z</time>
      </trkpt>
      <trkpt lat="45.36596" lon="6.55257">
        <ele>2258.95</ele>
        <time>2014-01-27T15:15:18Z</time>
      </trkpt>
      <trkpt lat="45.36589" lon="6.55281">
        <ele>2262.24</ele>
        <time>2014-01-27T15:15:22Z</time>
      </trkpt>
      <trkpt lat="45.36582" lon="6.55308">
        <ele>2264.71</ele>
        <time>2014-01-27T15:15:27Z</time>
      </trkpt>
      <trkpt lat="45.36574" lon="6.55336">
        <ele>2265.88</ele>
        <time>2014-01-27T15:15:32Z</time>
      </trkpt>
      <trkpt lat="45.36566" lon="6.55364">
        <ele>2273.45</ele>
        <time>2014-01-27T15:15:37Z</time>
      </trkpt>
      <trkpt lat="45.36559" lon="6.5539">
        <ele>2281.2</ele>
        <time>2014-01-27T15:15:41Z</time>
      </trkpt>
      <trkpt lat="45.3655" lon="6.55419">
        <ele>2287.42</ele>
        <time>2014-01-27T15:15:46Z</time>
      </trkpt>
      <trkpt lat="45.36542" lon="6.55448">
        <ele>2292.04</ele>
        <time>2014-01-27T15:15:51Z</time>
      </trkpt>
      <trkpt lat="45.36534" lon="6.55476">
        <ele>2295.41</ele>
        <time>2014-01-27T15:15:56Z</time>
      </trkpt>
      <trkpt lat="45.36527" lon="6.55503">
        <ele>2300.31</ele>
        <time>2014-01-27T15:16:02Z</time>
      </trkpt>
      <trkpt lat="45.3652" lon="6.55529">
        <ele>2309.73</ele>
        <time>2014-01-27T15:16:08Z</time>
      </trkpt>
      <trkpt lat="45.36515" lon="6.55554">
        <ele>2316.08</ele>
        <time>2014-01-27T15:16:14Z</time>
      </trkpt>
      <trkpt lat="45.36508" lon="6.5558">
        <ele>2323.52</ele>
        <time>2014-01-27T15:16:20Z</time>
      </trkpt>
      <trkpt lat="45.36501" lon="6.55605">
        <ele>2333.55</ele>
        <time>2014-01-27T15:16:26Z</time>
      </trkpt>
      <trkpt lat="45.36492" lon="6.55631">
        <ele>2351.74</ele>
        <time>2014-01-27T15:16:33Z</time>
      </trkpt>
      <trkpt lat="45.36484" lon="6.55656">
        <ele>2362.93</ele>
        <time>2014-01-27T15:16:39Z</time>
      </trkpt>
      <trkpt lat="45.36475" lon="6.55683">
        <ele>2374.22</ele>
        <time>2014-01-27T15:16:44Z</time>
      </trkpt>
      <trkpt lat="45.36477" lon="6.5571">
        <ele>2388.03</ele>
        <time>2014-01-27T15:16:55Z</time>
      </trkpt>
      <trkpt lat="45.36494" lon="6.55724">
        <ele>2399.15</ele>
        <time>2014-01-27T15:17:04Z</time>
      </trkpt>
      <trkpt lat="45.36514" lon="6.55717">
        <ele>2400.98</ele>
        <time>2014-01-27T15:17:10Z</time>
      </trkpt>
      <trkpt lat="45.36534" lon="6.55708">
        <ele>2400.52</ele>
        <time>2014-01-27T15:17:16Z</time>
      </trkpt>
      <trkpt lat="45.36552" lon="6.557">
        <ele>2406.64</ele>
        <time>2014-01-27T15:17:21Z</time>
      </trkpt>
      <trkpt lat="45.36569" lon="6.5569">
        <ele>2404.46</ele>
        <time>2014-01-27T15:17:27Z</time>
      </trkpt>
      <trkpt lat="45.36589" lon="6.55674">
        <ele>2393.51</ele>
        <time>2014-01-27T15:17:32Z</time>
      </trkpt>
      <trkpt lat="45.36609" lon="6.5566">
        <ele>2386.38</ele>
        <time>2014-01-27T15:17:35Z</time>
      </trkpt>
      <trkpt lat="45.3663" lon="6.55655">
        <ele>2382.12</ele>
        <time>2014-01-27T15:17:38Z</time>
      </trkpt>
      <trkpt lat="45.36645" lon="6.55639">
        <ele>2376.37</ele>
        <time>2014-01-27T15:17:41Z</time>
      </trkpt>
      <trkpt lat="45.36662" lon="6.55618">
        <ele>2363.4</ele>
        <time>2014-01-27T15:17:44Z</time>
      </trkpt>
      <trkpt lat="45.3668" lon="6.55599">
        <ele>2356.7</ele>
        <time>2014-01-27T15:17:47Z</time>
      </trkpt>
      <trkpt lat="45.36696" lon="6.55579">
        <ele>2353.19</ele>
        <time>2014-01-27T15:17:50Z</time>
      </trkpt>
      <trkpt lat="45.3671" lon="6.55559">
        <ele>2349.58</ele>
        <time>2014-01-27T15:17:53Z</time>
      </trkpt>
      <trkpt lat="45.36725" lon="6.55535">
        <ele>2345.93</ele>
        <time>2014-01-27T15:17:56Z</time>
      </trkpt>
      <trkpt lat="45.36735" lon="6.55504">
        <ele>2340.81</ele>
        <time>2014-01-27T15:17:59Z</time>
      </trkpt>
      <trkpt lat="45.36743" lon="6.55474">
        <ele>2339.28</ele>
        <time>2014-01-27T15:18:02Z</time>
      </trkpt>
      <trkpt lat="45.36751" lon="6.55441">
        <ele>2339.41</ele>
        <time>2014-01-27T15:18:05Z</time>
      </trkpt>
      <trkpt lat="45.36759" lon="6.55417">
        <ele>2336.31</ele>
        <time>2014-01-27T15:18:08Z</time>
      </trkpt>
      <trkpt lat="45.36772" lon="6.5539">
        <ele>2333.53</ele>
        <time>2014-01-27T15:18:12Z</time>
      </trkpt>
      <trkpt lat="45.36789" lon="6.55369">
        <ele>2330.47</ele>
        <time>2014-01-27T15:18:15Z</time>
      </trkpt>
      <trkpt lat="45.36808" lon="6.55343">
        <ele>2321.72</ele>
        <time>2014-01-27T15:18:18Z</time>
      </trkpt>
      <trkpt lat="45.36823" lon="6.55323">
        <ele>2312.35</ele>
        <time>2014-01-27T15:18:20Z</time>
      </trkpt>
      <trkpt lat="45.36838" lon="6.553">
        <ele>2307.2</ele>
        <time>2014-01-27T15:18:23Z</time>
      </trkpt>
      <trkpt lat="45.36847" lon="6.55275">
        <ele>2305.86</ele>
        <time>2014-01-27T15:18:26Z</time>
      </trkpt>
      <trkpt lat="45.36851" lon="6.55245">
        <ele>2304.34</ele>
        <time>2014-01-27T15:18:30Z</time>
      </trkpt>
      <trkpt lat="45.36857" lon="6.55218">
        <ele>2305.53</ele>
        <time>2014-01-27T15:18:34Z</time>
      </trkpt>
      <trkpt lat="45.36876" lon="6.55197">
        <ele>2306.78</ele>
        <time>2014-01-27T15:18:38Z</time>
      </trkpt>
      <trkpt lat="45.36893" lon="6.55183">
        <ele>2306.72</ele>
        <time>2014-01-27T15:18:41Z</time>
      </trkpt>
      <trkpt lat="45.36913" lon="6.55168">
        <ele>2303.15</ele>
        <time>2014-01-27T15:18:45Z</time>
      </trkpt>
      <trkpt lat="45.36931" lon="6.55152">
        <ele>2301.3</ele>
        <time>2014-01-27T15:18:49Z</time>
      </trkpt>
      <trkpt lat="45.36946" lon="6.55135">
        <ele>2300.78</ele>
        <time>2014-01-27T15:18:53Z</time>
      </trkpt>
      <trkpt lat="45.3696" lon="6.55116">
        <ele>2297.82</ele>
        <time>2014-01-27T15:18:57Z</time>
      </trkpt>
      <trkpt lat="45.36974" lon="6.55095">
        <ele>2295.72</ele>
        <time>2014-01-27T15:19:01Z</time>
      </trkpt>
      <trkpt lat="45.36987" lon="6.55075">
        <ele>2294.73</ele>
        <time>2014-01-27T15:19:05Z</time>
      </trkpt>
      <trkpt lat="45.37" lon="6.55056">
        <ele>2294.17</ele>
        <time>2014-01-27T15:19:10Z</time>
      </trkpt>
      <trkpt lat="45.37013" lon="6.55037">
        <ele>2292.55</ele>
        <time>2014-01-27T15:19:15Z</time>
      </trkpt>
      <trkpt lat="45.37001" lon="6.55016">
        <ele>2286.03</ele>
        <time>2014-01-27T15:19:25Z</time>
      </trkpt>
      <trkpt lat="45.36992" lon="6.54989">
        <ele>2278.73</ele>
        <time>2014-01-27T15:19:30Z</time>
      </trkpt>
      <trkpt lat="45.37003" lon="6.54962">
        <ele>2274.44</ele>
        <time>2014-01-27T15:19:36Z</time>
      </trkpt>
      <trkpt lat="45.37015" lon="6.5494">
        <ele>2269.77</ele>
        <time>2014-01-27T15:19:41Z</time>
      </trkpt>
      <trkpt lat="45.37021" lon="6.54911">
        <ele>2260.87</ele>
        <time>2014-01-27T15:19:46Z</time>
      </trkpt>
      <trkpt lat="45.37016" lon="6.54884">
        <ele>2253.59</ele>
        <time>2014-01-27T15:19:54Z</time>
      </trkpt>
      <trkpt lat="45.37023" lon="6.54861">
        <ele>2249.21</ele>
        <time>2014-01-27T15:19:59Z</time>
      </trkpt>
      <trkpt lat="45.37005" lon="6.54852">
        <ele>2243.82</ele>
        <time>2014-01-27T15:20:03Z</time>
      </trkpt>
      <trkpt lat="45.37013" lon="6.54828">
        <ele>2237.24</ele>
        <time>2014-01-27T15:20:07Z</time>
      </trkpt>
      <trkpt lat="45.36998" lon="6.54814">
        <ele>2229.64</ele>
        <time>2014-01-27T15:20:12Z</time>
      </trkpt>
      <trkpt lat="45.36993" lon="6.54788">
        <ele>2220.81</ele>
        <time>2014-01-27T15:20:17Z</time>
      </trkpt>
      <trkpt lat="45.36975" lon="6.54788">
        <ele>2217.09</ele>
        <time>2014-01-27T15:20:23Z</time>
      </trkpt>
      <trkpt lat="45.36954" lon="6.54783">
        <ele>2211.6</ele>
        <time>2014-01-27T15:20:28Z</time>
      </trkpt>
      <trkpt lat="45.36963" lon="6.54757">
        <ele>2206.09</ele>
        <time>2014-01-27T15:20:33Z</time>
      </trkpt>
      <trkpt lat="45.36943" lon="6.54746">
        <ele>2199.09</ele>
        <time>2014-01-27T15:20:37Z</time>
      </trkpt>
      <trkpt lat="45.36945" lon="6.54717">
        <ele>2194.19</ele>
        <time>2014-01-27T15:20:41Z</time>
      </trkpt>
      <trkpt lat="45.36926" lon="6.54701">
        <ele>2189.52</ele>
        <time>2014-01-27T15:20:46Z</time>
      </trkpt>
      <trkpt lat="45.36912" lon="6.54684">
        <ele>2186.78</ele>
        <time>2014-01-27T15:20:50Z</time>
      </trkpt>
      <trkpt lat="45.36908" lon="6.54657">
        <ele>2182.99</ele>
        <time>2014-01-27T15:20:54Z</time>
      </trkpt>
      <trkpt lat="45.36929" lon="6.54647">
        <ele>2181.26</ele>
        <time>2014-01-27T15:20:57Z</time>
      </trkpt>
      <trkpt lat="45.36919" lon="6.54619">
        <ele>2178.55</ele>
        <time>2014-01-27T15:21:03Z</time>
      </trkpt>
      <trkpt lat="45.36938" lon="6.54607">
        <ele>2171.54</ele>
        <time>2014-01-27T15:21:08Z</time>
      </trkpt>
      <trkpt lat="45.36943" lon="6.54579">
        <ele>2163.29</ele>
        <time>2014-01-27T15:21:13Z</time>
      </trkpt>
      <trkpt lat="45.36942" lon="6.54553">
        <ele>2157.83</ele>
        <time>2014-01-27T15:21:19Z</time>
      </trkpt>
      <trkpt lat="45.36937" lon="6.54524">
        <ele>2153.33</ele>
        <time>2014-01-27T15:21:25Z</time>
      </trkpt>
      <trkpt lat="45.36926" lon="6.54495">
        <ele>2147.62</ele>
        <time>2014-01-27T15:21:29Z</time>
      </trkpt>
      <trkpt lat="45.36914" lon="6.54474">
        <ele>2143.07</ele>
        <time>2014-01-27T15:21:33Z</time>
      </trkpt>
      <trkpt lat="45.36906" lon="6.54449">
        <ele>2137.26</ele>
        <time>2014-01-27T15:21:37Z</time>
      </trkpt>
      <trkpt lat="45.36905" lon="6.54424">
        <ele>2131.28</ele>
        <time>2014-01-27T15:21:43Z</time>
      </trkpt>
      <trkpt lat="45.36906" lon="6.54398">
        <ele>2125.87</ele>
        <time>2014-01-27T15:21:48Z</time>
      </trkpt>
      <trkpt lat="45.36907" lon="6.54368">
        <ele>2119.85</ele>
        <time>2014-01-27T15:21:53Z</time>
      </trkpt>
      <trkpt lat="45.36913" lon="6.54344">
        <ele>2116</ele>
        <time>2014-01-27T15:21:57Z</time>
      </trkpt>
      <trkpt lat="45.36918" lon="6.54319">
        <ele>2110.2</ele>
        <time>2014-01-27T15:22:01Z</time>
      </trkpt>
      <trkpt lat="45.36927" lon="6.54294">
        <ele>2103.72</ele>
        <time>2014-01-27T15:22:06Z</time>
      </trkpt>
      <trkpt lat="45.36928" lon="6.54267">
        <ele>2095.48</ele>
        <time>2014-01-27T15:22:21Z</time>
      </trkpt>
      <trkpt lat="45.36927" lon="6.5424">
        <ele>2086.99</ele>
        <time>2014-01-27T15:22:25Z</time>
      </trkpt>
      <trkpt lat="45.3693" lon="6.5421">
        <ele>2080.42</ele>
        <time>2014-01-27T15:22:29Z</time>
      </trkpt>
      <trkpt lat="45.36935" lon="6.54185">
        <ele>2073.54</ele>
        <time>2014-01-27T15:22:33Z</time>
      </trkpt>
      <trkpt lat="45.36933" lon="6.54158">
        <ele>2063.46</ele>
        <time>2014-01-27T15:22:38Z</time>
      </trkpt>
      <trkpt lat="45.36949" lon="6.54145">
        <ele>2061.49</ele>
        <time>2014-01-27T15:22:49Z</time>
      </trkpt>
      <trkpt lat="45.36967" lon="6.54143">
        <ele>2059.46</ele>
        <time>2014-01-27T15:22:54Z</time>
      </trkpt>
      <trkpt lat="45.36983" lon="6.54125">
        <ele>2051.36</ele>
        <time>2014-01-27T15:22:58Z</time>
      </trkpt>
      <trkpt lat="45.36989" lon="6.54099">
        <ele>2043.01</ele>
        <time>2014-01-27T15:23:01Z</time>
      </trkpt>
      <trkpt lat="45.37002" lon="6.54079">
        <ele>2039.8</ele>
        <time>2014-01-27T15:23:04Z</time>
      </trkpt>
      <trkpt lat="45.37003" lon="6.54052">
        <ele>2032.4</ele>
        <time>2014-01-27T15:23:09Z</time>
      </trkpt>
      <trkpt lat="45.37018" lon="6.54033">
        <ele>2028.5</ele>
        <time>2014-01-27T15:23:24Z</time>
      </trkpt>
      <trkpt lat="45.37003" lon="6.54014">
        <ele>2020.23</ele>
        <time>2014-01-27T15:23:31Z</time>
      </trkpt>
      <trkpt lat="45.37016" lon="6.53991">
        <ele>2014.54</ele>
        <time>2014-01-27T15:23:39Z</time>
      </trkpt>
      <trkpt lat="45.37026" lon="6.5397">
        <ele>2008.58</ele>
        <time>2014-01-27T15:23:45Z</time>
      </trkpt>
      <trkpt lat="45.37046" lon="6.53954">
        <ele>2004.58</ele>
        <time>2014-01-27T15:23:49Z</time>
      </trkpt>
      <trkpt lat="45.37042" lon="6.53924">
        <ele>1999.5</ele>
        <time>2014-01-27T15:23:54Z</time>
      </trkpt>
      <trkpt lat="45.37038" lon="6.53899">
        <ele>1993.1</ele>
        <time>2014-01-27T15:23:59Z</time>
      </trkpt>
      <trkpt lat="45.3702" lon="6.53885">
        <ele>1992.09</ele>
        <time>2014-01-27T15:24:07Z</time>
      </trkpt>
      <trkpt lat="45.37016" lon="6.53858">
        <ele>1987.06</ele>
        <time>2014-01-27T15:24:11Z</time>
      </trkpt>
      <trkpt lat="45.37012" lon="6.5383">
        <ele>1979.64</ele>
        <time>2014-01-27T15:24:16Z</time>
      </trkpt>
      <trkpt lat="45.37013" lon="6.53802">
        <ele>1974.92</ele>
        <time>2014-01-27T15:24:19Z</time>
      </trkpt>
      <trkpt lat="45.37005" lon="6.53772">
        <ele>1968.56</ele>
        <time>2014-01-27T15:24:22Z</time>
      </trkpt>
      <trkpt lat="45.36999" lon="6.53748">
        <ele>1959.22</ele>
        <time>2014-01-27T15:24:36Z</time>
      </trkpt>
      <trkpt lat="45.36981" lon="6.53756">
        <ele>1962.57</ele>
        <time>2014-01-27T15:24:41Z</time>
      </trkpt>
      <trkpt lat="45.36963" lon="6.53739">
        <ele>1958.91</ele>
        <time>2014-01-27T15:24:47Z</time>
      </trkpt>
      <trkpt lat="45.36955" lon="6.53713">
        <ele>1953.49</ele>
        <time>2014-01-27T15:24:53Z</time>
      </trkpt>
      <trkpt lat="45.36956" lon="6.53685">
        <ele>1947</ele>
        <time>2014-01-27T15:24:57Z</time>
      </trkpt>
      <trkpt lat="45.36958" lon="6.53652">
        <ele>1941.28</ele>
        <time>2014-01-27T15:25:01Z</time>
      </trkpt>
      <trkpt lat="45.36962" lon="6.53624">
        <ele>1936.71</ele>
        <time>2014-01-27T15:25:04Z</time>
      </trkpt>
      <trkpt lat="45.36973" lon="6.53596">
        <ele>1931.31</ele>
        <time>2014-01-27T15:25:07Z</time>
      </trkpt>
      <trkpt lat="45.36976" lon="6.53571">
        <ele>1927.23</ele>
        <time>2014-01-27T15:25:10Z</time>
      </trkpt>
      <trkpt lat="45.36978" lon="6.53543">
        <ele>1921.84</ele>
        <time>2014-01-27T15:25:13Z</time>
      </trkpt>
      <trkpt lat="45.36976" lon="6.53511">
        <ele>1916.14</ele>
        <time>2014-01-27T15:25:16Z</time>
      </trkpt>
      <trkpt lat="45.36991" lon="6.53478">
        <ele>1911.11</ele>
        <time>2014-01-27T15:25:19Z</time>
      </trkpt>
      <trkpt lat="45.37004" lon="6.5345">
        <ele>1908.54</ele>
        <time>2014-01-27T15:25:21Z</time>
      </trkpt>
      <trkpt lat="45.37016" lon="6.53422">
        <ele>1906.17</ele>
        <time>2014-01-27T15:25:23Z</time>
      </trkpt>
      <trkpt lat="45.37028" lon="6.53396">
        <ele>1903.23</ele>
        <time>2014-01-27T15:25:25Z</time>
      </trkpt>
      <trkpt lat="45.37034" lon="6.53364">
        <ele>1901.21</ele>
        <time>2014-01-27T15:25:28Z</time>
      </trkpt>
      <trkpt lat="45.3705" lon="6.53349">
        <ele>1896.51</ele>
        <time>2014-01-27T15:25:31Z</time>
      </trkpt>
      <trkpt lat="45.37064" lon="6.53325">
        <ele>1890.99</ele>
        <time>2014-01-27T15:25:35Z</time>
      </trkpt>
      <trkpt lat="45.37089" lon="6.53314">
        <ele>1889.43</ele>
        <time>2014-01-27T15:25:38Z</time>
      </trkpt>
      <trkpt lat="45.37102" lon="6.53289">
        <ele>1884.21</ele>
        <time>2014-01-27T15:25:41Z</time>
      </trkpt>
      <trkpt lat="45.37114" lon="6.53266">
        <ele>1880.55</ele>
        <time>2014-01-27T15:25:45Z</time>
      </trkpt>
      <trkpt lat="45.37127" lon="6.53241">
        <ele>1874.94</ele>
        <time>2014-01-27T15:26:06Z</time>
      </trkpt>
      <trkpt lat="45.37148" lon="6.53233">
        <ele>1870.03</ele>
        <time>2014-01-27T15:26:10Z</time>
      </trkpt>
      <trkpt lat="45.37157" lon="6.53207">
        <ele>1861.95</ele>
        <time>2014-01-27T15:26:16Z</time>
      </trkpt>
      <trkpt lat="45.37166" lon="6.53182">
        <ele>1853.55</ele>
        <time>2014-01-27T15:26:23Z</time>
      </trkpt>
      <trkpt lat="45.3718" lon="6.53165">
        <ele>1843.15</ele>
        <time>2014-01-27T15:26:27Z</time>
      </trkpt>
      <trkpt lat="45.37197" lon="6.53146">
        <ele>1831.54</ele>
        <time>2014-01-27T15:26:30Z</time>
      </trkpt>
      <trkpt lat="45.37209" lon="6.53123">
        <ele>1826.07</ele>
        <time>2014-01-27T15:26:33Z</time>
      </trkpt>
      <trkpt lat="45.37216" lon="6.53099">
        <ele>1820.98</ele>
        <time>2014-01-27T15:26:35Z</time>
      </trkpt>
      <trkpt lat="45.37225" lon="6.53063">
        <ele>1815.85</ele>
        <time>2014-01-27T15:26:38Z</time>
      </trkpt>
      <trkpt lat="45.37228" lon="6.53036">
        <ele>1812.32</ele>
        <time>2014-01-27T15:26:40Z</time>
      </trkpt>
      <trkpt lat="45.37239" lon="6.53012">
        <ele>1809.63</ele>
        <time>2014-01-27T15:26:42Z</time>
      </trkpt>
      <trkpt lat="45.37254" lon="6.52986">
        <ele>1806.3</ele>
        <time>2014-01-27T15:26:44Z</time>
      </trkpt>
      <trkpt lat="45.37267" lon="6.52959">
        <ele>1801.86</ele>
        <time>2014-01-27T15:26:46Z</time>
      </trkpt>
      <trkpt lat="45.3728" lon="6.52927">
        <ele>1798.38</ele>
        <time>2014-01-27T15:26:49Z</time>
      </trkpt>
      <trkpt lat="45.37287" lon="6.529">
        <ele>1796.5</ele>
        <time>2014-01-27T15:26:52Z</time>
      </trkpt>
      <trkpt lat="45.37291" lon="6.52873">
        <ele>1794.4</ele>
        <time>2014-01-27T15:26:55Z</time>
      </trkpt>
      <trkpt lat="45.37292" lon="6.52844">
        <ele>1792.35</ele>
        <time>2014-01-27T15:26:58Z</time>
      </trkpt>
      <trkpt lat="45.37293" lon="6.52813">
        <ele>1791.24</ele>
        <time>2014-01-27T15:27:01Z</time>
      </trkpt>
      <trkpt lat="45.37296" lon="6.52783">
        <ele>1789.9</ele>
        <time>2014-01-27T15:27:04Z</time>
      </trkpt>
      <trkpt lat="45.37296" lon="6.52754">
        <ele>1787.9</ele>
        <time>2014-01-27T15:27:07Z</time>
      </trkpt>
      <trkpt lat="45.37293" lon="6.52726">
        <ele>1782.45</ele>
        <time>2014-01-27T15:27:10Z</time>
      </trkpt>
      <trkpt lat="45.37288" lon="6.52694">
        <ele>1778.1</ele>
        <time>2014-01-27T15:27:13Z</time>
      </trkpt>
      <trkpt lat="45.37284" lon="6.52668">
        <ele>1775.78</ele>
        <time>2014-01-27T15:27:15Z</time>
      </trkpt>
      <trkpt lat="45.37279" lon="6.5264">
        <ele>1773.22</ele>
        <time>2014-01-27T15:27:17Z</time>
      </trkpt>
      <trkpt lat="45.37274" lon="6.52611">
        <ele>1770.89</ele>
        <time>2014-01-27T15:27:19Z</time>
      </trkpt>
      <trkpt lat="45.3727" lon="6.52584">
        <ele>1769.29</ele>
        <time>2014-01-27T15:27:21Z</time>
      </trkpt>
      <trkpt lat="45.37267" lon="6.52548">
        <ele>1766.47</ele>
        <time>2014-01-27T15:27:24Z</time>
      </trkpt>
      <trkpt lat="45.37272" lon="6.5252">
        <ele>1764.08</ele>
        <time>2014-01-27T15:27:27Z</time>
      </trkpt>
      <trkpt lat="45.37282" lon="6.52497">
        <ele>1762.31</ele>
        <time>2014-01-27T15:27:29Z</time>
      </trkpt>
      <trkpt lat="45.37295" lon="6.52479">
        <ele>1760.67</ele>
        <time>2014-01-27T15:27:32Z</time>
      </trkpt>
      <trkpt lat="45.37311" lon="6.52458">
        <ele>1758.04</ele>
        <time>2014-01-27T15:27:36Z</time>
      </trkpt>
      <trkpt lat="45.37326" lon="6.52436">
        <ele>1758.17</ele>
        <time>2014-01-27T15:27:40Z</time>
      </trkpt>
      <trkpt lat="45.3734" lon="6.52411">
        <ele>1757.32</ele>
        <time>2014-01-27T15:27:44Z</time>
      </trkpt>
      <trkpt lat="45.37356" lon="6.52384">
        <ele>1754.17</ele>
        <time>2014-01-27T15:27:47Z</time>
      </trkpt>
      <trkpt lat="45.3738" lon="6.52374">
        <ele>1755.08</ele>
        <time>2014-01-27T15:27:50Z</time>
      </trkpt>
      <trkpt lat="45.37405" lon="6.52368">
        <ele>1756.51</ele>
        <time>2014-01-27T15:27:53Z</time>
      </trkpt>
      <trkpt lat="45.37427" lon="6.52358">
        <ele>1752.06</ele>
        <time>2014-01-27T15:27:56Z</time>
      </trkpt>
      <trkpt lat="45.37448" lon="6.52348">
        <ele>1745.18</ele>
        <time>2014-01-27T15:27:59Z</time>
      </trkpt>
      <trkpt lat="45.37469" lon="6.52337">
        <ele>1742.51</ele>
        <time>2014-01-27T15:28:02Z</time>
      </trkpt>
      <trkpt lat="45.37491" lon="6.52321">
        <ele>1736.99</ele>
        <time>2014-01-27T15:28:05Z</time>
      </trkpt>
      <trkpt lat="45.37508" lon="6.52308">
        <ele>1734.2</ele>
        <time>2014-01-27T15:28:07Z</time>
      </trkpt>
      <trkpt lat="45.37523" lon="6.5229">
        <ele>1729.45</ele>
        <time>2014-01-27T15:28:09Z</time>
      </trkpt>
      <trkpt lat="45.37537" lon="6.52272">
        <ele>1726.25</ele>
        <time>2014-01-27T15:28:11Z</time>
      </trkpt>
      <trkpt lat="45.37547" lon="6.52248">
        <ele>1723.41</ele>
        <time>2014-01-27T15:28:13Z</time>
      </trkpt>
      <trkpt lat="45.37553" lon="6.52222">
        <ele>1719.58</ele>
        <time>2014-01-27T15:28:15Z</time>
      </trkpt>
      <trkpt lat="45.37557" lon="6.52185">
        <ele>1715.11</ele>
        <time>2014-01-27T15:28:18Z</time>
      </trkpt>
      <trkpt lat="45.37564" lon="6.52153">
        <ele>1714.38</ele>
        <time>2014-01-27T15:28:21Z</time>
      </trkpt>
      <trkpt lat="45.37581" lon="6.52127">
        <ele>1717.18</ele>
        <time>2014-01-27T15:28:24Z</time>
      </trkpt>
      <trkpt lat="45.376" lon="6.5213">
        <ele>1718.3</ele>
        <time>2014-01-27T15:28:26Z</time>
      </trkpt>
      <trkpt lat="45.37617" lon="6.52139">
        <ele>1719.71</ele>
        <time>2014-01-27T15:28:28Z</time>
      </trkpt>
      <trkpt lat="45.37643" lon="6.5215">
        <ele>1718.06</ele>
        <time>2014-01-27T15:28:31Z</time>
      </trkpt>
      <trkpt lat="45.37662" lon="6.52137">
        <ele>1708.96</ele>
        <time>2014-01-27T15:28:35Z</time>
      </trkpt>
      <trkpt lat="45.37658" lon="6.5211">
        <ele>1704.41</ele>
        <time>2014-01-27T15:28:37Z</time>
      </trkpt>
      <trkpt lat="45.37647" lon="6.52082">
        <ele>1701.3</ele>
        <time>2014-01-27T15:28:39Z</time>
      </trkpt>
      <trkpt lat="45.37631" lon="6.52055">
        <ele>1697.22</ele>
        <time>2014-01-27T15:28:41Z</time>
      </trkpt>
      <trkpt lat="45.37618" lon="6.52032">
        <ele>1695.05</ele>
        <time>2014-01-27T15:28:43Z</time>
      </trkpt>
      <trkpt lat="45.37608" lon="6.52011">
        <ele>1692.64</ele>
        <time>2014-01-27T15:28:45Z</time>
      </trkpt>
      <trkpt lat="45.37601" lon="6.51981">
        <ele>1686.62</ele>
        <time>2014-01-27T15:28:48Z</time>
      </trkpt>
      <trkpt lat="45.37606" lon="6.51956">
        <ele>1680.43</ele>
        <time>2014-01-27T15:28:51Z</time>
      </trkpt>
      <trkpt lat="45.37619" lon="6.51934">
        <ele>1678.98</ele>
        <time>2014-01-27T15:28:54Z</time>
      </trkpt>
      <trkpt lat="45.37638" lon="6.51926">
        <ele>1682.35</ele>
        <time>2014-01-27T15:28:56Z</time>
      </trkpt>
      <trkpt lat="45.37656" lon="6.51923">
        <ele>1681.34</ele>
        <time>2014-01-27T15:28:58Z</time>
      </trkpt>
      <trkpt lat="45.37675" lon="6.51927">
        <ele>1680.24</ele>
        <time>2014-01-27T15:29:00Z</time>
      </trkpt>
      <trkpt lat="45.37701" lon="6.51924">
        <ele>1675.19</ele>
        <time>2014-01-27T15:29:03Z</time>
      </trkpt>
      <trkpt lat="45.37723" lon="6.51914">
        <ele>1672.82</ele>
        <time>2014-01-27T15:29:06Z</time>
      </trkpt>
      <trkpt lat="45.37744" lon="6.51895">
        <ele>1669.25</ele>
        <time>2014-01-27T15:29:09Z</time>
      </trkpt>
      <trkpt lat="45.37762" lon="6.51876">
        <ele>1665.13</ele>
        <time>2014-01-27T15:29:12Z</time>
      </trkpt>
      <trkpt lat="45.37762" lon="6.51845">
        <ele>1657.38</ele>
        <time>2014-01-27T15:29:15Z</time>
      </trkpt>
      <trkpt lat="45.3776" lon="6.51808">
        <ele>1650.49</ele>
        <time>2014-01-27T15:29:18Z</time>
      </trkpt>
      <trkpt lat="45.37756" lon="6.51778">
        <ele>1646.69</ele>
        <time>2014-01-27T15:29:20Z</time>
      </trkpt>
      <trkpt lat="45.37744" lon="6.51747">
        <ele>1643.74</ele>
        <time>2014-01-27T15:29:22Z</time>
      </trkpt>
      <trkpt lat="45.3773" lon="6.51724">
        <ele>1640.88</ele>
        <time>2014-01-27T15:29:24Z</time>
      </trkpt>
      <trkpt lat="45.37716" lon="6.51703">
        <ele>1639.86</ele>
        <time>2014-01-27T15:29:26Z</time>
      </trkpt>
      <trkpt lat="45.37698" lon="6.51677">
        <ele>1638.05</ele>
        <time>2014-01-27T15:29:29Z</time>
      </trkpt>
      <trkpt lat="45.37682" lon="6.5165">
        <ele>1637.26</ele>
        <time>2014-01-27T15:29:32Z</time>
      </trkpt>
      <trkpt lat="45.37671" lon="6.51619">
        <ele>1637.12</ele>
        <time>2014-01-27T15:29:35Z</time>
      </trkpt>
      <trkpt lat="45.37663" lon="6.5159">
        <ele>1634.13</ele>
        <time>2014-01-27T15:29:38Z</time>
      </trkpt>
      <trkpt lat="45.37654" lon="6.5156">
        <ele>1630.78</ele>
        <time>2014-01-27T15:29:42Z</time>
      </trkpt>
      <trkpt lat="45.37644" lon="6.51536">
        <ele>1629.91</ele>
        <time>2014-01-27T15:29:45Z</time>
      </trkpt>
      <trkpt lat="45.37635" lon="6.51506">
        <ele>1625.93</ele>
        <time>2014-01-27T15:29:48Z</time>
      </trkpt>
      <trkpt lat="45.37624" lon="6.5148">
        <ele>1620</ele>
        <time>2014-01-27T15:29:51Z</time>
      </trkpt>
      <trkpt lat="45.37615" lon="6.51455">
        <ele>1614.86</ele>
        <time>2014-01-27T15:29:54Z</time>
      </trkpt>
      <trkpt lat="45.37601" lon="6.51437">
        <ele>1610.64</ele>
        <time>2014-01-27T15:29:58Z</time>
      </trkpt>
      <trkpt lat="45.37591" lon="6.51414">
        <ele>1606</ele>
        <time>2014-01-27T15:30:03Z</time>
      </trkpt>
      <trkpt lat="45.3758" lon="6.51389">
        <ele>1601.56</ele>
        <time>2014-01-27T15:30:08Z</time>
      </trkpt>
      <trkpt lat="45.37568" lon="6.5137">
        <ele>1597.4</ele>
        <time>2014-01-27T15:30:12Z</time>
      </trkpt>
      <trkpt lat="45.37557" lon="6.51347">
        <ele>1593.56</ele>
        <time>2014-01-27T15:30:16Z</time>
      </trkpt>
      <trkpt lat="45.37547" lon="6.5132">
        <ele>1590.19</ele>
        <time>2014-01-27T15:30:20Z</time>
      </trkpt>
      <trkpt lat="45.37538" lon="6.51294">
        <ele>1586.83</ele>
        <time>2014-01-27T15:30:23Z</time>
      </trkpt>
      <trkpt lat="45.37528" lon="6.51265">
        <ele>1582.64</ele>
        <time>2014-01-27T15:30:26Z</time>
      </trkpt>
      <trkpt lat="45.37526" lon="6.51237">
        <ele>1579.43</ele>
        <time>2014-01-27T15:30:29Z</time>
      </trkpt>
      <trkpt lat="45.37522" lon="6.51208">
        <ele>1575.49</ele>
        <time>2014-01-27T15:30:32Z</time>
      </trkpt>
      <trkpt lat="45.37512" lon="6.51185">
        <ele>1571.84</ele>
        <time>2014-01-27T15:30:35Z</time>
      </trkpt>
      <trkpt lat="45.37503" lon="6.51162">
        <ele>1568.46</ele>
        <time>2014-01-27T15:30:38Z</time>
      </trkpt>
      <trkpt lat="45.37489" lon="6.51137">
        <ele>1563.2</ele>
        <time>2014-01-27T15:30:42Z</time>
      </trkpt>
      <trkpt lat="45.37481" lon="6.51113">
        <ele>1559.49</ele>
        <time>2014-01-27T15:30:46Z</time>
      </trkpt>
      <trkpt lat="45.37472" lon="6.51088">
        <ele>1556.49</ele>
        <time>2014-01-27T15:30:50Z</time>
      </trkpt>
      <trkpt lat="45.37466" lon="6.51063">
        <ele>1554.33</ele>
        <time>2014-01-27T15:30:53Z</time>
      </trkpt>
      <trkpt lat="45.37483" lon="6.51049">
        <ele>1553.37</ele>
        <time>2014-01-27T15:30:59Z</time>
      </trkpt>
      <trkpt lat="45.37496" lon="6.51029">
        <ele>1551.93</ele>
        <time>2014-01-27T15:31:04Z</time>
      </trkpt>
      <trkpt lat="45.37498" lon="6.51001">
        <ele>1548.02</ele>
        <time>2014-01-27T15:31:07Z</time>
      </trkpt>
      <trkpt lat="45.37512" lon="6.50979">
        <ele>1537.89</ele>
        <time>2014-01-27T15:31:13Z</time>
      </trkpt>
      <trkpt lat="45.37508" lon="6.50953">
        <ele>1532.86</ele>
        <time>2014-01-27T15:31:17Z</time>
      </trkpt>
      <trkpt lat="45.37515" lon="6.50918">
        <ele>1521.13</ele>
        <time>2014-01-27T15:31:21Z</time>
      </trkpt>
      <trkpt lat="45.37521" lon="6.50884">
        <ele>1512.48</ele>
        <time>2014-01-27T15:31:24Z</time>
      </trkpt>
      <trkpt lat="45.3754" lon="6.5086">
        <ele>1508.96</ele>
        <time>2014-01-27T15:31:27Z</time>
      </trkpt>
      <trkpt lat="45.37559" lon="6.5084">
        <ele>1506.5</ele>
        <time>2014-01-27T15:31:30Z</time>
      </trkpt>
      <trkpt lat="45.37573" lon="6.50817">
        <ele>1502.63</ele>
        <time>2014-01-27T15:31:33Z</time>
      </trkpt>
      <trkpt lat="45.37583" lon="6.50795">
        <ele>1498.97</ele>
        <time>2014-01-27T15:31:36Z</time>
      </trkpt>
      <trkpt lat="45.37602" lon="6.5079">
        <ele>1494.73</ele>
        <time>2014-01-27T15:31:39Z</time>
      </trkpt>
      <trkpt lat="45.37613" lon="6.50767">
        <ele>1491.22</ele>
        <time>2014-01-27T15:31:43Z</time>
      </trkpt>
      <trkpt lat="45.37635" lon="6.50763">
        <ele>1487.64</ele>
        <time>2014-01-27T15:31:48Z</time>
      </trkpt>
      <trkpt lat="45.37653" lon="6.50748">
        <ele>1481.68</ele>
        <time>2014-01-27T15:31:52Z</time>
      </trkpt>
      <trkpt lat="45.37671" lon="6.50738">
        <ele>1473.19</ele>
        <time>2014-01-27T15:31:57Z</time>
      </trkpt>
      <trkpt lat="45.37677" lon="6.50711">
        <ele>1467.13</ele>
        <time>2014-01-27T15:32:00Z</time>
      </trkpt>
      <trkpt lat="45.37678" lon="6.50677">
        <ele>1460.9</ele>
        <time>2014-01-27T15:32:03Z</time>
      </trkpt>
      <trkpt lat="45.3767" lon="6.50644">
        <ele>1456.38</ele>
        <time>2014-01-27T15:32:06Z</time>
      </trkpt>
      <trkpt lat="45.3768" lon="6.50614">
        <ele>1450.12</ele>
        <time>2014-01-27T15:32:10Z</time>
      </trkpt>
      <trkpt lat="45.37693" lon="6.50586">
        <ele>1442.78</ele>
        <time>2014-01-27T15:32:13Z</time>
      </trkpt>
      <trkpt lat="45.37707" lon="6.50565">
        <ele>1439.29</ele>
        <time>2014-01-27T15:32:16Z</time>
      </trkpt>
      <trkpt lat="45.37721" lon="6.50543">
        <ele>1436.22</ele>
        <time>2014-01-27T15:32:20Z</time>
      </trkpt>
      <trkpt lat="45.37717" lon="6.50515">
        <ele>1432.36</ele>
        <time>2014-01-27T15:32:26Z</time>
      </trkpt>
      <trkpt lat="45.37734" lon="6.50501">
        <ele>1429.27</ele>
        <time>2014-01-27T15:32:30Z</time>
      </trkpt>
      <trkpt lat="45.37752" lon="6.50486">
        <ele>1426.46</ele>
        <time>2014-01-27T15:32:34Z</time>
      </trkpt>
      <trkpt lat="45.37754" lon="6.5046">
        <ele>1423.63</ele>
        <time>2014-01-27T15:32:44Z</time>
      </trkpt>
      <trkpt lat="45.37752" lon="6.50435">
        <ele>1420.84</ele>
        <time>2014-01-27T15:39:42Z</time>
      </trkpt>
      <trkpt lat="45.37766" lon="6.50455">
        <ele>1422.82</ele>
        <time>2014-01-27T15:40:38Z</time>
      </trkpt>
      <trkpt lat="45.37732" lon="6.50469">
        <ele>1426.69</ele>
        <time>2014-01-27T15:44:00Z</time>
      </trkpt>
      <trkpt lat="45.3775" lon="6.50454">
        <ele>1423.11</ele>
        <time>2014-01-27T15:44:05Z</time>
      </trkpt>
      <trkpt lat="45.3782" lon="6.50389">
        <ele>1409.89</ele>
        <time>2014-01-27T15:47:31Z</time>
      </trkpt>
      <trkpt lat="45.37811" lon="6.50413">
        <ele>1413.82</ele>
        <time>2014-01-27T15:47:55Z</time>
      </trkpt>
      <trkpt lat="45.37755" lon="6.50421">
        <ele>1419.12</ele>
        <time>2014-01-27T15:55:11Z</time>
      </trkpt>
      <trkpt lat="45.37759" lon="6.50446">
        <ele>1421.9</ele>
        <time>2014-01-27T15:56:28Z</time>
      </trkpt>
      <trkpt lat="45.37771" lon="6.50424">
        <ele>1418.51</ele>
        <time>2014-01-27T15:57:20Z</time>
      </trkpt>
      <trkpt lat="45.37749" lon="6.50428">
        <ele>1420.46</ele>
        <time>2014-01-27T16:01:15Z</time>
      </trkpt>
      <trkpt lat="45.37763" lon="6.50406">
        <ele>1417.12</ele>
        <time>2014-01-27T16:05:47Z</time>
      </trkpt>
      <trkpt lat="45.3777" lon="6.50381">
        <ele>1414.55</ele>
        <time>2014-01-27T16:05:54Z</time>
      </trkpt>
      <trkpt lat="45.37777" lon="6.50357">
        <ele>1411.47</ele>
        <time>2014-01-27T16:06:05Z</time>
      </trkpt>
      <trkpt lat="45.37759" lon="6.50344">
        <ele>1411.3</ele>
        <time>2014-01-27T16:06:19Z</time>
      </trkpt>
      <trkpt lat="45.37764" lon="6.50369">
        <ele>1413.72</ele>
        <time>2014-01-27T16:06:58Z</time>
      </trkpt>
      <trkpt lat="45.37769" lon="6.50394">
        <ele>1415.74</ele>
        <time>2014-01-27T16:07:17Z</time>
      </trkpt>
      <trkpt lat="45.3777" lon="6.5042">
        <ele>1418.02</ele>
        <time>2014-01-27T16:07:49Z</time>
      </trkpt>
      <trkpt lat="45.37766" lon="6.50446">
        <ele>1421.57</ele>
        <time>2014-01-27T16:08:33Z</time>
      </trkpt>
      <trkpt lat="45.37759" lon="6.50422">
        <ele>1419.04</ele>
        <time>2014-01-27T16:09:41Z</time>
      </trkpt>
      <trkpt lat="45.37754" lon="6.50398">
        <ele>1416.76</ele>
        <time>2014-01-27T16:09:50Z</time>
      </trkpt>
    </trkseg>
  </trk>
</gpx>